<?xml version="1.0" encoding="UTF-8" standalone="no" ?>
<gpx xmlns="http://www.topografix.com/GPX/1/1" xmlns:xsi="http://www.w3.org/2001/XMLSchema-instance" xsi:schemaLocation="http://www.topografix.com/GPX/1/1 http://www.topografix.com/GPX/1/1/gpx.xsd" version="1.1" creator="VisuGPX - https://www.visugpx.com">
  <metadata>
    <name>CMC Sentier des 3 cols</name>
    <desc><![CDATA[Sentier des 3 cols]]></desc>
  </metadata>
  <trk>
    <name><![CDATA[CMC Sentier des 3 cols_1]]></name>
    <trkseg>
      <trkpt lat="43.4764" lon="2.63994">
        <ele>393.1</ele>
        <time>2016-09-24T08:55:49Z</time>
      </trkpt>
      <trkpt lat="43.4764" lon="2.63995">
        <ele>393.1</ele>
        <time>2016-09-24T08:55:54Z</time>
      </trkpt>
      <trkpt lat="43.47639" lon="2.63995">
        <ele>393.1</ele>
        <time>2016-09-24T08:55:59Z</time>
      </trkpt>
      <trkpt lat="43.47639" lon="2.63995">
        <ele>393.1</ele>
        <time>2016-09-24T08:56:04Z</time>
      </trkpt>
      <trkpt lat="43.47639" lon="2.63995">
        <ele>393.1</ele>
        <time>2016-09-24T08:56:09Z</time>
      </trkpt>
      <trkpt lat="43.47639" lon="2.63994">
        <ele>393.1</ele>
        <time>2016-09-24T08:56:14Z</time>
      </trkpt>
      <trkpt lat="43.47639" lon="2.63994">
        <ele>393.1</ele>
        <time>2016-09-24T08:56:19Z</time>
      </trkpt>
      <trkpt lat="43.47639" lon="2.63994">
        <ele>393.1</ele>
        <time>2016-09-24T08:56:24Z</time>
      </trkpt>
      <trkpt lat="43.47641" lon="2.63991">
        <ele>393.1</ele>
        <time>2016-09-24T08:56:29Z</time>
      </trkpt>
      <trkpt lat="43.47641" lon="2.63991">
        <ele>393.1</ele>
        <time>2016-09-24T08:56:34Z</time>
      </trkpt>
      <trkpt lat="43.47641" lon="2.63991">
        <ele>393.1</ele>
        <time>2016-09-24T08:56:39Z</time>
      </trkpt>
      <trkpt lat="43.4764" lon="2.63988">
        <ele>393.1</ele>
        <time>2016-09-24T08:56:44Z</time>
      </trkpt>
      <trkpt lat="43.47639" lon="2.63983">
        <ele>390.35073316735</ele>
        <time>2016-09-24T08:56:49Z</time>
      </trkpt>
      <trkpt lat="43.47639" lon="2.63978">
        <ele>390.35073316735</ele>
        <time>2016-09-24T08:56:54Z</time>
      </trkpt>
      <trkpt lat="43.4764" lon="2.6397">
        <ele>392.08989214015</ele>
        <time>2016-09-24T08:56:59Z</time>
      </trkpt>
      <trkpt lat="43.47641" lon="2.63965">
        <ele>392.08989214015</ele>
        <time>2016-09-24T08:57:04Z</time>
      </trkpt>
      <trkpt lat="43.47641" lon="2.63959">
        <ele>392.08989214015</ele>
        <time>2016-09-24T08:57:09Z</time>
      </trkpt>
      <trkpt lat="43.47641" lon="2.63956">
        <ele>393.72410051069</ele>
        <time>2016-09-24T08:57:14Z</time>
      </trkpt>
      <trkpt lat="43.4764" lon="2.63951">
        <ele>393.72410051069</ele>
        <time>2016-09-24T08:57:19Z</time>
      </trkpt>
      <trkpt lat="43.47637" lon="2.6395">
        <ele>393.72410051069</ele>
        <time>2016-09-24T08:57:24Z</time>
      </trkpt>
      <trkpt lat="43.47631" lon="2.63944">
        <ele>395.30631379506</ele>
        <time>2016-09-24T08:57:29Z</time>
      </trkpt>
      <trkpt lat="43.47627" lon="2.63942">
        <ele>395.30631379506</ele>
        <time>2016-09-24T08:57:34Z</time>
      </trkpt>
      <trkpt lat="43.47621" lon="2.63943">
        <ele>396.81869389287</ele>
        <time>2016-09-24T08:57:39Z</time>
      </trkpt>
      <trkpt lat="43.47615" lon="2.63948">
        <ele>396.81869389287</ele>
        <time>2016-09-24T08:57:44Z</time>
      </trkpt>
      <trkpt lat="43.47609" lon="2.63952">
        <ele>398.23278713209</ele>
        <time>2016-09-24T08:57:49Z</time>
      </trkpt>
      <trkpt lat="43.47605" lon="2.63952">
        <ele>398.23278713209</ele>
        <time>2016-09-24T08:57:54Z</time>
      </trkpt>
      <trkpt lat="43.476" lon="2.63952">
        <ele>399.51308746515</ele>
        <time>2016-09-24T08:57:59Z</time>
      </trkpt>
      <trkpt lat="43.47596" lon="2.63953">
        <ele>399.51308746515</ele>
        <time>2016-09-24T08:58:04Z</time>
      </trkpt>
      <trkpt lat="43.47592" lon="2.63954">
        <ele>399.51308746515</ele>
        <time>2016-09-24T08:58:09Z</time>
      </trkpt>
      <trkpt lat="43.47587" lon="2.63957">
        <ele>400.63763220919</ele>
        <time>2016-09-24T08:58:14Z</time>
      </trkpt>
      <trkpt lat="43.47584" lon="2.6396">
        <ele>400.63763220919</ele>
        <time>2016-09-24T08:58:19Z</time>
      </trkpt>
      <trkpt lat="43.47581" lon="2.63969">
        <ele>401.55740608094</ele>
        <time>2016-09-24T08:58:24Z</time>
      </trkpt>
      <trkpt lat="43.47582" lon="2.6398">
        <ele>401.55740608094</ele>
        <time>2016-09-24T08:58:29Z</time>
      </trkpt>
      <trkpt lat="43.4758" lon="2.63989">
        <ele>402.23793885388</ele>
        <time>2016-09-24T08:58:34Z</time>
      </trkpt>
      <trkpt lat="43.4758" lon="2.63984">
        <ele>402.23793885388</ele>
        <time>2016-09-24T08:58:39Z</time>
      </trkpt>
      <trkpt lat="43.47579" lon="2.63979">
        <ele>402.23793885388</ele>
        <time>2016-09-24T08:58:44Z</time>
      </trkpt>
      <trkpt lat="43.47575" lon="2.63976">
        <ele>402.70401382505</ele>
        <time>2016-09-24T08:58:49Z</time>
      </trkpt>
      <trkpt lat="43.4757" lon="2.63972">
        <ele>402.70401382505</ele>
        <time>2016-09-24T08:58:54Z</time>
      </trkpt>
      <trkpt lat="43.47568" lon="2.6397">
        <ele>402.70401382505</ele>
        <time>2016-09-24T08:58:59Z</time>
      </trkpt>
      <trkpt lat="43.47565" lon="2.63969">
        <ele>402.97940088821</ele>
        <time>2016-09-24T08:59:04Z</time>
      </trkpt>
      <trkpt lat="43.47562" lon="2.63971">
        <ele>402.97940088821</ele>
        <time>2016-09-24T08:59:09Z</time>
      </trkpt>
      <trkpt lat="43.47559" lon="2.63971">
        <ele>402.97940088821</ele>
        <time>2016-09-24T08:59:14Z</time>
      </trkpt>
      <trkpt lat="43.47556" lon="2.63964">
        <ele>403.06444773546</ele>
        <time>2016-09-24T08:59:19Z</time>
      </trkpt>
      <trkpt lat="43.47556" lon="2.63964">
        <ele>403.06444773546</ele>
        <time>2016-09-24T08:59:24Z</time>
      </trkpt>
      <trkpt lat="43.47555" lon="2.63963">
        <ele>403.06444773546</ele>
        <time>2016-09-24T08:59:29Z</time>
      </trkpt>
      <trkpt lat="43.47553" lon="2.63966">
        <ele>403.06444773546</ele>
        <time>2016-09-24T08:59:34Z</time>
      </trkpt>
      <trkpt lat="43.47549" lon="2.63969">
        <ele>403.06444773546</ele>
        <time>2016-09-24T08:59:39Z</time>
      </trkpt>
      <trkpt lat="43.47546" lon="2.63974">
        <ele>402.98271941496</ele>
        <time>2016-09-24T08:59:44Z</time>
      </trkpt>
      <trkpt lat="43.47541" lon="2.63983">
        <ele>402.98271941496</ele>
        <time>2016-09-24T08:59:49Z</time>
      </trkpt>
      <trkpt lat="43.47538" lon="2.63986">
        <ele>402.74165780946</ele>
        <time>2016-09-24T08:59:54Z</time>
      </trkpt>
      <trkpt lat="43.47538" lon="2.6399">
        <ele>402.74165780946</ele>
        <time>2016-09-24T08:59:59Z</time>
      </trkpt>
      <trkpt lat="43.47538" lon="2.63991">
        <ele>402.74165780946</ele>
        <time>2016-09-24T09:00:04Z</time>
      </trkpt>
      <trkpt lat="43.47541" lon="2.63987">
        <ele>402.74165780946</ele>
        <time>2016-09-24T09:00:09Z</time>
      </trkpt>
      <trkpt lat="43.47545" lon="2.63981">
        <ele>402.36463047488</ele>
        <time>2016-09-24T09:00:14Z</time>
      </trkpt>
      <trkpt lat="43.47549" lon="2.63974">
        <ele>402.36463047488</ele>
        <time>2016-09-24T09:00:19Z</time>
      </trkpt>
      <trkpt lat="43.47556" lon="2.63968">
        <ele>401.90380059047</ele>
        <time>2016-09-24T09:00:24Z</time>
      </trkpt>
      <trkpt lat="43.47559" lon="2.63962">
        <ele>401.90380059047</ele>
        <time>2016-09-24T09:00:29Z</time>
      </trkpt>
      <trkpt lat="43.47553" lon="2.63956">
        <ele>401.38665433976</ele>
        <time>2016-09-24T09:00:34Z</time>
      </trkpt>
      <trkpt lat="43.4755" lon="2.63952">
        <ele>401.38665433976</ele>
        <time>2016-09-24T09:00:39Z</time>
      </trkpt>
      <trkpt lat="43.47546" lon="2.63951">
        <ele>401.38665433976</ele>
        <time>2016-09-24T09:00:44Z</time>
      </trkpt>
      <trkpt lat="43.47541" lon="2.63944">
        <ele>400.81850271821</ele>
        <time>2016-09-24T09:00:49Z</time>
      </trkpt>
      <trkpt lat="43.47533" lon="2.6394">
        <ele>400.81850271821</ele>
        <time>2016-09-24T09:00:54Z</time>
      </trkpt>
      <trkpt lat="43.47529" lon="2.63937">
        <ele>400.21694272066</ele>
        <time>2016-09-24T09:00:59Z</time>
      </trkpt>
      <trkpt lat="43.47524" lon="2.63933">
        <ele>400.21694272066</ele>
        <time>2016-09-24T09:01:04Z</time>
      </trkpt>
      <trkpt lat="43.47519" lon="2.63931">
        <ele>399.59480430202</ele>
        <time>2016-09-24T09:01:09Z</time>
      </trkpt>
      <trkpt lat="43.47515" lon="2.63926">
        <ele>399.59480430202</ele>
        <time>2016-09-24T09:01:14Z</time>
      </trkpt>
      <trkpt lat="43.47513" lon="2.63927">
        <ele>399.59480430202</ele>
        <time>2016-09-24T09:01:19Z</time>
      </trkpt>
      <trkpt lat="43.4751" lon="2.63924">
        <ele>398.90019087149</ele>
        <time>2016-09-24T09:01:24Z</time>
      </trkpt>
      <trkpt lat="43.475" lon="2.63919">
        <ele>398.22103217104</ele>
        <time>2016-09-24T09:01:29Z</time>
      </trkpt>
      <trkpt lat="43.47498" lon="2.6392">
        <ele>398.22103217104</ele>
        <time>2016-09-24T09:01:34Z</time>
      </trkpt>
      <trkpt lat="43.47494" lon="2.63924">
        <ele>398.22103217104</ele>
        <time>2016-09-24T09:01:39Z</time>
      </trkpt>
      <trkpt lat="43.4749" lon="2.63928">
        <ele>397.55866543899</ele>
        <time>2016-09-24T09:01:44Z</time>
      </trkpt>
      <trkpt lat="43.47487" lon="2.63927">
        <ele>397.55866543899</ele>
        <time>2016-09-24T09:01:49Z</time>
      </trkpt>
      <trkpt lat="43.47482" lon="2.6393">
        <ele>397.55866543899</ele>
        <time>2016-09-24T09:01:54Z</time>
      </trkpt>
      <trkpt lat="43.47479" lon="2.63934">
        <ele>396.92756866894</ele>
        <time>2016-09-24T09:01:59Z</time>
      </trkpt>
      <trkpt lat="43.47477" lon="2.63937">
        <ele>396.92756866894</ele>
        <time>2016-09-24T09:02:04Z</time>
      </trkpt>
      <trkpt lat="43.47474" lon="2.63943">
        <ele>396.92756866894</ele>
        <time>2016-09-24T09:02:09Z</time>
      </trkpt>
      <trkpt lat="43.47472" lon="2.63951">
        <ele>396.33957535734</ele>
        <time>2016-09-24T09:02:14Z</time>
      </trkpt>
      <trkpt lat="43.47469" lon="2.63957">
        <ele>396.33957535734</ele>
        <time>2016-09-24T09:02:19Z</time>
      </trkpt>
      <trkpt lat="43.47467" lon="2.63965">
        <ele>395.79035065603</ele>
        <time>2016-09-24T09:02:24Z</time>
      </trkpt>
      <trkpt lat="43.47464" lon="2.63972">
        <ele>395.79035065603</ele>
        <time>2016-09-24T09:02:29Z</time>
      </trkpt>
      <trkpt lat="43.47461" lon="2.63978">
        <ele>395.27574139022</ele>
        <time>2016-09-24T09:02:34Z</time>
      </trkpt>
      <trkpt lat="43.47457" lon="2.63984">
        <ele>395.27574139022</ele>
        <time>2016-09-24T09:02:39Z</time>
      </trkpt>
      <trkpt lat="43.47456" lon="2.63991">
        <ele>394.80597291634</ele>
        <time>2016-09-24T09:02:44Z</time>
      </trkpt>
      <trkpt lat="43.47452" lon="2.63999">
        <ele>394.80597291634</ele>
        <time>2016-09-24T09:02:49Z</time>
      </trkpt>
      <trkpt lat="43.47448" lon="2.64007">
        <ele>394.34863073302</ele>
        <time>2016-09-24T09:02:54Z</time>
      </trkpt>
      <trkpt lat="43.47444" lon="2.64016">
        <ele>394.34863073302</ele>
        <time>2016-09-24T09:02:59Z</time>
      </trkpt>
      <trkpt lat="43.47439" lon="2.64024">
        <ele>393.91609231601</ele>
        <time>2016-09-24T09:03:04Z</time>
      </trkpt>
      <trkpt lat="43.47436" lon="2.64028">
        <ele>393.91609231601</ele>
        <time>2016-09-24T09:03:09Z</time>
      </trkpt>
      <trkpt lat="43.47432" lon="2.64036">
        <ele>393.50617806827</ele>
        <time>2016-09-24T09:03:14Z</time>
      </trkpt>
      <trkpt lat="43.47428" lon="2.64042">
        <ele>393.50617806827</ele>
        <time>2016-09-24T09:03:19Z</time>
      </trkpt>
      <trkpt lat="43.47425" lon="2.64049">
        <ele>393.11729337489</ele>
        <time>2016-09-24T09:03:24Z</time>
      </trkpt>
      <trkpt lat="43.47422" lon="2.64055">
        <ele>393.11729337489</ele>
        <time>2016-09-24T09:03:29Z</time>
      </trkpt>
      <trkpt lat="43.47419" lon="2.6406">
        <ele>392.73449421342</ele>
        <time>2016-09-24T09:03:34Z</time>
      </trkpt>
      <trkpt lat="43.47412" lon="2.64069">
        <ele>392.35816693246</ele>
        <time>2016-09-24T09:03:39Z</time>
      </trkpt>
      <trkpt lat="43.47411" lon="2.64075">
        <ele>392.35816693246</ele>
        <time>2016-09-24T09:03:44Z</time>
      </trkpt>
      <trkpt lat="43.47409" lon="2.64077">
        <ele>392.35816693246</ele>
        <time>2016-09-24T09:03:49Z</time>
      </trkpt>
      <trkpt lat="43.47405" lon="2.64082">
        <ele>392.0030718865</ele>
        <time>2016-09-24T09:03:54Z</time>
      </trkpt>
      <trkpt lat="43.47402" lon="2.64088">
        <ele>392.0030718865</ele>
        <time>2016-09-24T09:03:59Z</time>
      </trkpt>
      <trkpt lat="43.47398" lon="2.64094">
        <ele>391.65530129522</ele>
        <time>2016-09-24T09:04:04Z</time>
      </trkpt>
      <trkpt lat="43.47394" lon="2.641">
        <ele>391.65530129522</ele>
        <time>2016-09-24T09:04:09Z</time>
      </trkpt>
      <trkpt lat="43.47392" lon="2.64106">
        <ele>391.33033201311</ele>
        <time>2016-09-24T09:04:14Z</time>
      </trkpt>
      <trkpt lat="43.4739" lon="2.64112">
        <ele>391.33033201311</ele>
        <time>2016-09-24T09:04:19Z</time>
      </trkpt>
      <trkpt lat="43.47388" lon="2.64118">
        <ele>391.02875672444</ele>
        <time>2016-09-24T09:04:24Z</time>
      </trkpt>
      <trkpt lat="43.47383" lon="2.64123">
        <ele>391.02875672444</ele>
        <time>2016-09-24T09:04:29Z</time>
      </trkpt>
      <trkpt lat="43.47381" lon="2.64127">
        <ele>390.75122819766</ele>
        <time>2016-09-24T09:04:34Z</time>
      </trkpt>
      <trkpt lat="43.47377" lon="2.64133">
        <ele>390.75122819766</ele>
        <time>2016-09-24T09:04:39Z</time>
      </trkpt>
      <trkpt lat="43.47373" lon="2.64139">
        <ele>390.48389114549</ele>
        <time>2016-09-24T09:04:44Z</time>
      </trkpt>
      <trkpt lat="43.47369" lon="2.64144">
        <ele>390.48389114549</ele>
        <time>2016-09-24T09:04:49Z</time>
      </trkpt>
      <trkpt lat="43.47363" lon="2.64151">
        <ele>390.24269880536</ele>
        <time>2016-09-24T09:04:54Z</time>
      </trkpt>
      <trkpt lat="43.4736" lon="2.64155">
        <ele>390.24269880536</ele>
        <time>2016-09-24T09:04:59Z</time>
      </trkpt>
      <trkpt lat="43.47358" lon="2.6416">
        <ele>390.24269880536</ele>
        <time>2016-09-24T09:05:04Z</time>
      </trkpt>
      <trkpt lat="43.47353" lon="2.64167">
        <ele>390.02797606773</ele>
        <time>2016-09-24T09:05:09Z</time>
      </trkpt>
      <trkpt lat="43.4735" lon="2.64172">
        <ele>390.02797606773</ele>
        <time>2016-09-24T09:05:14Z</time>
      </trkpt>
      <trkpt lat="43.47349" lon="2.64177">
        <ele>390.02797606773</ele>
        <time>2016-09-24T09:05:19Z</time>
      </trkpt>
      <trkpt lat="43.47348" lon="2.64181">
        <ele>389.85457485809</ele>
        <time>2016-09-24T09:05:24Z</time>
      </trkpt>
      <trkpt lat="43.47344" lon="2.64186">
        <ele>389.85457485809</ele>
        <time>2016-09-24T09:05:29Z</time>
      </trkpt>
      <trkpt lat="43.47341" lon="2.64192">
        <ele>389.70655291981</ele>
        <time>2016-09-24T09:05:34Z</time>
      </trkpt>
      <trkpt lat="43.47335" lon="2.64199">
        <ele>389.70655291981</ele>
        <time>2016-09-24T09:05:39Z</time>
      </trkpt>
      <trkpt lat="43.47332" lon="2.64205">
        <ele>389.59841741186</ele>
        <time>2016-09-24T09:05:44Z</time>
      </trkpt>
      <trkpt lat="43.47329" lon="2.64213">
        <ele>389.59841741186</ele>
        <time>2016-09-24T09:05:49Z</time>
      </trkpt>
      <trkpt lat="43.47324" lon="2.64222">
        <ele>389.52851005256</ele>
        <time>2016-09-24T09:05:54Z</time>
      </trkpt>
      <trkpt lat="43.47319" lon="2.64229">
        <ele>389.52851005256</ele>
        <time>2016-09-24T09:05:59Z</time>
      </trkpt>
      <trkpt lat="43.47316" lon="2.64234">
        <ele>389.49494378934</ele>
        <time>2016-09-24T09:06:04Z</time>
      </trkpt>
      <trkpt lat="43.47312" lon="2.6424">
        <ele>389.49494378934</ele>
        <time>2016-09-24T09:06:09Z</time>
      </trkpt>
      <trkpt lat="43.47308" lon="2.64246">
        <ele>389.49564987302</ele>
        <time>2016-09-24T09:06:14Z</time>
      </trkpt>
      <trkpt lat="43.47305" lon="2.64254">
        <ele>389.49564987302</ele>
        <time>2016-09-24T09:06:19Z</time>
      </trkpt>
      <trkpt lat="43.47302" lon="2.64263">
        <ele>389.54350046282</ele>
        <time>2016-09-24T09:06:24Z</time>
      </trkpt>
      <trkpt lat="43.47299" lon="2.64269">
        <ele>389.54350046282</ele>
        <time>2016-09-24T09:06:29Z</time>
      </trkpt>
      <trkpt lat="43.47296" lon="2.64275">
        <ele>389.63505362182</ele>
        <time>2016-09-24T09:06:34Z</time>
      </trkpt>
      <trkpt lat="43.47293" lon="2.64279">
        <ele>389.63505362182</ele>
        <time>2016-09-24T09:06:39Z</time>
      </trkpt>
      <trkpt lat="43.47291" lon="2.64286">
        <ele>389.75174459268</ele>
        <time>2016-09-24T09:06:44Z</time>
      </trkpt>
      <trkpt lat="43.47288" lon="2.64292">
        <ele>389.75174459268</ele>
        <time>2016-09-24T09:06:49Z</time>
      </trkpt>
      <trkpt lat="43.47286" lon="2.64299">
        <ele>389.90644352682</ele>
        <time>2016-09-24T09:06:54Z</time>
      </trkpt>
      <trkpt lat="43.47283" lon="2.64307">
        <ele>389.90644352682</ele>
        <time>2016-09-24T09:06:59Z</time>
      </trkpt>
      <trkpt lat="43.4728" lon="2.64313">
        <ele>390.08066680743</ele>
        <time>2016-09-24T09:07:04Z</time>
      </trkpt>
      <trkpt lat="43.47279" lon="2.64321">
        <ele>390.08066680743</ele>
        <time>2016-09-24T09:07:09Z</time>
      </trkpt>
      <trkpt lat="43.47275" lon="2.64328">
        <ele>390.27237427428</ele>
        <time>2016-09-24T09:07:14Z</time>
      </trkpt>
      <trkpt lat="43.47273" lon="2.64332">
        <ele>390.27237427428</ele>
        <time>2016-09-24T09:07:19Z</time>
      </trkpt>
      <trkpt lat="43.4727" lon="2.6434">
        <ele>390.46457943498</ele>
        <time>2016-09-24T09:07:24Z</time>
      </trkpt>
      <trkpt lat="43.47268" lon="2.64348">
        <ele>390.46457943498</ele>
        <time>2016-09-24T09:07:29Z</time>
      </trkpt>
      <trkpt lat="43.47266" lon="2.64355">
        <ele>390.67175319273</ele>
        <time>2016-09-24T09:07:34Z</time>
      </trkpt>
      <trkpt lat="43.47264" lon="2.64363">
        <ele>390.67175319273</ele>
        <time>2016-09-24T09:07:39Z</time>
      </trkpt>
      <trkpt lat="43.47261" lon="2.6437">
        <ele>390.87714802191</ele>
        <time>2016-09-24T09:07:44Z</time>
      </trkpt>
      <trkpt lat="43.47257" lon="2.64376">
        <ele>390.87714802191</ele>
        <time>2016-09-24T09:07:49Z</time>
      </trkpt>
      <trkpt lat="43.47256" lon="2.64381">
        <ele>391.08040328636</ele>
        <time>2016-09-24T09:07:54Z</time>
      </trkpt>
      <trkpt lat="43.47254" lon="2.64389">
        <ele>391.08040328636</ele>
        <time>2016-09-24T09:07:59Z</time>
      </trkpt>
      <trkpt lat="43.47252" lon="2.64395">
        <ele>391.29614924343</ele>
        <time>2016-09-24T09:08:04Z</time>
      </trkpt>
      <trkpt lat="43.4725" lon="2.64403">
        <ele>391.29614924343</ele>
        <time>2016-09-24T09:08:09Z</time>
      </trkpt>
      <trkpt lat="43.47249" lon="2.64418">
        <ele>391.50797871078</ele>
        <time>2016-09-24T09:08:14Z</time>
      </trkpt>
      <trkpt lat="43.47248" lon="2.64427">
        <ele>391.50797871078</ele>
        <time>2016-09-24T09:08:19Z</time>
      </trkpt>
      <trkpt lat="43.47246" lon="2.64437">
        <ele>391.71575210484</ele>
        <time>2016-09-24T09:08:24Z</time>
      </trkpt>
      <trkpt lat="43.47246" lon="2.64445">
        <ele>391.71575210484</ele>
        <time>2016-09-24T09:08:29Z</time>
      </trkpt>
      <trkpt lat="43.47245" lon="2.6445">
        <ele>391.90454874191</ele>
        <time>2016-09-24T09:08:34Z</time>
      </trkpt>
      <trkpt lat="43.47243" lon="2.64456">
        <ele>391.90454874191</ele>
        <time>2016-09-24T09:08:39Z</time>
      </trkpt>
      <trkpt lat="43.47243" lon="2.64462">
        <ele>391.90454874191</ele>
        <time>2016-09-24T09:08:44Z</time>
      </trkpt>
      <trkpt lat="43.47242" lon="2.64469">
        <ele>392.07554943684</ele>
        <time>2016-09-24T09:08:49Z</time>
      </trkpt>
      <trkpt lat="43.47241" lon="2.64476">
        <ele>392.07554943684</ele>
        <time>2016-09-24T09:08:54Z</time>
      </trkpt>
      <trkpt lat="43.47239" lon="2.64482">
        <ele>392.22989039132</ele>
        <time>2016-09-24T09:08:59Z</time>
      </trkpt>
      <trkpt lat="43.47238" lon="2.64491">
        <ele>392.22989039132</ele>
        <time>2016-09-24T09:09:04Z</time>
      </trkpt>
      <trkpt lat="43.47236" lon="2.645">
        <ele>392.36865947849</ele>
        <time>2016-09-24T09:09:09Z</time>
      </trkpt>
      <trkpt lat="43.47235" lon="2.64509">
        <ele>392.36865947849</ele>
        <time>2016-09-24T09:09:14Z</time>
      </trkpt>
      <trkpt lat="43.47234" lon="2.64517">
        <ele>392.49289440471</ele>
        <time>2016-09-24T09:09:19Z</time>
      </trkpt>
      <trkpt lat="43.47234" lon="2.64524">
        <ele>392.49289440471</ele>
        <time>2016-09-24T09:09:24Z</time>
      </trkpt>
      <trkpt lat="43.47233" lon="2.64532">
        <ele>392.60358233344</ele>
        <time>2016-09-24T09:09:29Z</time>
      </trkpt>
      <trkpt lat="43.47232" lon="2.64538">
        <ele>392.60358233344</ele>
        <time>2016-09-24T09:09:34Z</time>
      </trkpt>
      <trkpt lat="43.47231" lon="2.64543">
        <ele>392.60358233344</ele>
        <time>2016-09-24T09:09:39Z</time>
      </trkpt>
      <trkpt lat="43.47229" lon="2.6455">
        <ele>392.67242530411</ele>
        <time>2016-09-24T09:09:44Z</time>
      </trkpt>
      <trkpt lat="43.47228" lon="2.64557">
        <ele>392.67242530411</ele>
        <time>2016-09-24T09:09:49Z</time>
      </trkpt>
      <trkpt lat="43.47227" lon="2.64562">
        <ele>392.70270399783</ele>
        <time>2016-09-24T09:09:54Z</time>
      </trkpt>
      <trkpt lat="43.47226" lon="2.64568">
        <ele>392.70270399783</ele>
        <time>2016-09-24T09:09:59Z</time>
      </trkpt>
      <trkpt lat="43.47225" lon="2.64576">
        <ele>392.72664646836</ele>
        <time>2016-09-24T09:10:04Z</time>
      </trkpt>
      <trkpt lat="43.47225" lon="2.64583">
        <ele>392.72664646836</ele>
        <time>2016-09-24T09:10:09Z</time>
      </trkpt>
      <trkpt lat="43.47224" lon="2.6459">
        <ele>392.7448228861</ele>
        <time>2016-09-24T09:10:14Z</time>
      </trkpt>
      <trkpt lat="43.47225" lon="2.64597">
        <ele>392.7448228861</ele>
        <time>2016-09-24T09:10:19Z</time>
      </trkpt>
      <trkpt lat="43.47225" lon="2.64605">
        <ele>392.7577712049</ele>
        <time>2016-09-24T09:10:24Z</time>
      </trkpt>
      <trkpt lat="43.47225" lon="2.64613">
        <ele>392.7577712049</ele>
        <time>2016-09-24T09:10:29Z</time>
      </trkpt>
      <trkpt lat="43.47226" lon="2.64621">
        <ele>392.78050262888</ele>
        <time>2016-09-24T09:10:34Z</time>
      </trkpt>
      <trkpt lat="43.47225" lon="2.64629">
        <ele>392.78050262888</ele>
        <time>2016-09-24T09:10:39Z</time>
      </trkpt>
      <trkpt lat="43.47226" lon="2.64638">
        <ele>392.79785691655</ele>
        <time>2016-09-24T09:10:44Z</time>
      </trkpt>
      <trkpt lat="43.47228" lon="2.64643">
        <ele>392.79785691655</ele>
        <time>2016-09-24T09:10:49Z</time>
      </trkpt>
      <trkpt lat="43.47228" lon="2.64648">
        <ele>392.79785691655</ele>
        <time>2016-09-24T09:10:54Z</time>
      </trkpt>
      <trkpt lat="43.47228" lon="2.64656">
        <ele>392.82481253496</ele>
        <time>2016-09-24T09:10:59Z</time>
      </trkpt>
      <trkpt lat="43.47229" lon="2.64664">
        <ele>392.82481253496</ele>
        <time>2016-09-24T09:11:04Z</time>
      </trkpt>
      <trkpt lat="43.4723" lon="2.64676">
        <ele>392.84624787609</ele>
        <time>2016-09-24T09:11:09Z</time>
      </trkpt>
      <trkpt lat="43.4723" lon="2.64683">
        <ele>392.84624787609</ele>
        <time>2016-09-24T09:11:14Z</time>
      </trkpt>
      <trkpt lat="43.47226" lon="2.64693">
        <ele>392.87711601023</ele>
        <time>2016-09-24T09:11:19Z</time>
      </trkpt>
      <trkpt lat="43.47226" lon="2.647">
        <ele>392.87711601023</ele>
        <time>2016-09-24T09:11:24Z</time>
      </trkpt>
      <trkpt lat="43.47229" lon="2.64706">
        <ele>392.91676639005</ele>
        <time>2016-09-24T09:11:29Z</time>
      </trkpt>
      <trkpt lat="43.47229" lon="2.64713">
        <ele>392.91676639005</ele>
        <time>2016-09-24T09:11:34Z</time>
      </trkpt>
      <trkpt lat="43.47229" lon="2.6472">
        <ele>392.950141294</ele>
        <time>2016-09-24T09:11:39Z</time>
      </trkpt>
      <trkpt lat="43.47229" lon="2.64727">
        <ele>392.950141294</ele>
        <time>2016-09-24T09:11:44Z</time>
      </trkpt>
      <trkpt lat="43.47229" lon="2.64732">
        <ele>392.950141294</ele>
        <time>2016-09-24T09:11:49Z</time>
      </trkpt>
      <trkpt lat="43.47232" lon="2.64739">
        <ele>392.99219176404</ele>
        <time>2016-09-24T09:11:54Z</time>
      </trkpt>
      <trkpt lat="43.47234" lon="2.64747">
        <ele>392.99219176404</ele>
        <time>2016-09-24T09:11:59Z</time>
      </trkpt>
      <trkpt lat="43.47235" lon="2.64753">
        <ele>393.04230032567</ele>
        <time>2016-09-24T09:12:04Z</time>
      </trkpt>
      <trkpt lat="43.47236" lon="2.6476">
        <ele>393.04230032567</ele>
        <time>2016-09-24T09:12:09Z</time>
      </trkpt>
      <trkpt lat="43.47239" lon="2.64768">
        <ele>393.09987469784</ele>
        <time>2016-09-24T09:12:14Z</time>
      </trkpt>
      <trkpt lat="43.47241" lon="2.64775">
        <ele>393.09987469784</ele>
        <time>2016-09-24T09:12:19Z</time>
      </trkpt>
      <trkpt lat="43.4724" lon="2.6478">
        <ele>393.14992636147</ele>
        <time>2016-09-24T09:12:24Z</time>
      </trkpt>
      <trkpt lat="43.47242" lon="2.64789">
        <ele>393.14992636147</ele>
        <time>2016-09-24T09:12:29Z</time>
      </trkpt>
      <trkpt lat="43.47244" lon="2.64795">
        <ele>393.20743308316</ele>
        <time>2016-09-24T09:12:34Z</time>
      </trkpt>
      <trkpt lat="43.47246" lon="2.64799">
        <ele>393.20743308316</ele>
        <time>2016-09-24T09:12:39Z</time>
      </trkpt>
      <trkpt lat="43.47248" lon="2.64808">
        <ele>393.25740928084</ele>
        <time>2016-09-24T09:12:44Z</time>
      </trkpt>
      <trkpt lat="43.47251" lon="2.64811">
        <ele>393.25740928084</ele>
        <time>2016-09-24T09:12:49Z</time>
      </trkpt>
      <trkpt lat="43.47256" lon="2.64816">
        <ele>393.31482836137</ele>
        <time>2016-09-24T09:12:54Z</time>
      </trkpt>
      <trkpt lat="43.47257" lon="2.6482">
        <ele>393.31482836137</ele>
        <time>2016-09-24T09:12:59Z</time>
      </trkpt>
      <trkpt lat="43.4726" lon="2.64825">
        <ele>393.31482836137</ele>
        <time>2016-09-24T09:13:04Z</time>
      </trkpt>
      <trkpt lat="43.47262" lon="2.64832">
        <ele>393.36470545808</ele>
        <time>2016-09-24T09:13:09Z</time>
      </trkpt>
      <trkpt lat="43.47264" lon="2.64838">
        <ele>393.36470545808</ele>
        <time>2016-09-24T09:13:14Z</time>
      </trkpt>
      <trkpt lat="43.47266" lon="2.64845">
        <ele>393.42201278987</ele>
        <time>2016-09-24T09:13:19Z</time>
      </trkpt>
      <trkpt lat="43.47267" lon="2.64854">
        <ele>393.42201278987</ele>
        <time>2016-09-24T09:13:24Z</time>
      </trkpt>
      <trkpt lat="43.47269" lon="2.64859">
        <ele>393.4717649083</ele>
        <time>2016-09-24T09:13:29Z</time>
      </trkpt>
      <trkpt lat="43.47271" lon="2.64865">
        <ele>393.4717649083</ele>
        <time>2016-09-24T09:13:34Z</time>
      </trkpt>
      <trkpt lat="43.47273" lon="2.64874">
        <ele>393.51451547025</ele>
        <time>2016-09-24T09:13:39Z</time>
      </trkpt>
      <trkpt lat="43.47276" lon="2.64882">
        <ele>393.51451547025</ele>
        <time>2016-09-24T09:13:44Z</time>
      </trkpt>
      <trkpt lat="43.47278" lon="2.64889">
        <ele>393.55079650225</ele>
        <time>2016-09-24T09:13:49Z</time>
      </trkpt>
      <trkpt lat="43.47278" lon="2.64895">
        <ele>393.55079650225</ele>
        <time>2016-09-24T09:13:54Z</time>
      </trkpt>
      <trkpt lat="43.47281" lon="2.64904">
        <ele>393.58111867517</ele>
        <time>2016-09-24T09:13:59Z</time>
      </trkpt>
      <trkpt lat="43.47282" lon="2.64912">
        <ele>393.58111867517</ele>
        <time>2016-09-24T09:14:04Z</time>
      </trkpt>
      <trkpt lat="43.47283" lon="2.64917">
        <ele>393.62039338215</ele>
        <time>2016-09-24T09:14:09Z</time>
      </trkpt>
      <trkpt lat="43.47285" lon="2.64926">
        <ele>393.62039338215</ele>
        <time>2016-09-24T09:14:14Z</time>
      </trkpt>
      <trkpt lat="43.47286" lon="2.64934">
        <ele>393.65356749333</ele>
        <time>2016-09-24T09:14:19Z</time>
      </trkpt>
      <trkpt lat="43.47286" lon="2.64943">
        <ele>393.65356749333</ele>
        <time>2016-09-24T09:14:24Z</time>
      </trkpt>
      <trkpt lat="43.47285" lon="2.64952">
        <ele>393.68113175386</ele>
        <time>2016-09-24T09:14:29Z</time>
      </trkpt>
      <trkpt lat="43.47286" lon="2.6496">
        <ele>393.68113175386</ele>
        <time>2016-09-24T09:14:34Z</time>
      </trkpt>
      <trkpt lat="43.47289" lon="2.64971">
        <ele>393.70355606787</ele>
        <time>2016-09-24T09:14:39Z</time>
      </trkpt>
      <trkpt lat="43.4729" lon="2.6498">
        <ele>393.70355606787</ele>
        <time>2016-09-24T09:14:44Z</time>
      </trkpt>
      <trkpt lat="43.47287" lon="2.64999">
        <ele>393.72128956776</ele>
        <time>2016-09-24T09:14:49Z</time>
      </trkpt>
      <trkpt lat="43.47284" lon="2.65006">
        <ele>393.72128956776</ele>
        <time>2016-09-24T09:14:54Z</time>
      </trkpt>
      <trkpt lat="43.47285" lon="2.65013">
        <ele>393.74918502202</ele>
        <time>2016-09-24T09:14:59Z</time>
      </trkpt>
      <trkpt lat="43.47286" lon="2.65018">
        <ele>393.74918502202</ele>
        <time>2016-09-24T09:15:04Z</time>
      </trkpt>
      <trkpt lat="43.47287" lon="2.65026">
        <ele>393.77212502572</ele>
        <time>2016-09-24T09:15:09Z</time>
      </trkpt>
      <trkpt lat="43.47286" lon="2.65033">
        <ele>393.77212502572</ele>
        <time>2016-09-24T09:15:14Z</time>
      </trkpt>
      <trkpt lat="43.47289" lon="2.65038">
        <ele>393.79054042142</ele>
        <time>2016-09-24T09:15:19Z</time>
      </trkpt>
      <trkpt lat="43.4729" lon="2.65045">
        <ele>393.79054042142</ele>
        <time>2016-09-24T09:15:24Z</time>
      </trkpt>
      <trkpt lat="43.47293" lon="2.65054">
        <ele>393.80484179586</ele>
        <time>2016-09-24T09:15:29Z</time>
      </trkpt>
      <trkpt lat="43.47296" lon="2.65062">
        <ele>393.80484179586</ele>
        <time>2016-09-24T09:15:34Z</time>
      </trkpt>
      <trkpt lat="43.473" lon="2.65069">
        <ele>393.81541963376</ele>
        <time>2016-09-24T09:15:39Z</time>
      </trkpt>
      <trkpt lat="43.47303" lon="2.65074">
        <ele>393.81541963376</ele>
        <time>2016-09-24T09:15:44Z</time>
      </trkpt>
      <trkpt lat="43.47305" lon="2.65081">
        <ele>393.83706796284</ele>
        <time>2016-09-24T09:15:49Z</time>
      </trkpt>
      <trkpt lat="43.47308" lon="2.65086">
        <ele>393.83706796284</ele>
        <time>2016-09-24T09:15:54Z</time>
      </trkpt>
      <trkpt lat="43.4731" lon="2.65097">
        <ele>393.85461265057</ele>
        <time>2016-09-24T09:15:59Z</time>
      </trkpt>
      <trkpt lat="43.47311" lon="2.65107">
        <ele>393.85461265057</ele>
        <time>2016-09-24T09:16:04Z</time>
      </trkpt>
      <trkpt lat="43.47309" lon="2.65105">
        <ele>393.88285130919</ele>
        <time>2016-09-24T09:16:09Z</time>
      </trkpt>
      <trkpt lat="43.4731" lon="2.65103">
        <ele>393.88285130919</ele>
        <time>2016-09-24T09:16:14Z</time>
      </trkpt>
      <trkpt lat="43.47313" lon="2.65104">
        <ele>393.88285130919</ele>
        <time>2016-09-24T09:16:19Z</time>
      </trkpt>
      <trkpt lat="43.47319" lon="2.65103">
        <ele>393.92103784754</ele>
        <time>2016-09-24T09:16:24Z</time>
      </trkpt>
      <trkpt lat="43.47324" lon="2.65101">
        <ele>393.92103784754</ele>
        <time>2016-09-24T09:16:29Z</time>
      </trkpt>
      <trkpt lat="43.47325" lon="2.65101">
        <ele>393.92103784754</ele>
        <time>2016-09-24T09:16:34Z</time>
      </trkpt>
      <trkpt lat="43.47327" lon="2.65104">
        <ele>393.92103784754</ele>
        <time>2016-09-24T09:16:39Z</time>
      </trkpt>
      <trkpt lat="43.47328" lon="2.65102">
        <ele>393.9540301732</ele>
        <time>2016-09-24T09:16:44Z</time>
      </trkpt>
      <trkpt lat="43.47329" lon="2.65094">
        <ele>393.9540301732</ele>
        <time>2016-09-24T09:16:49Z</time>
      </trkpt>
      <trkpt lat="43.47329" lon="2.65092">
        <ele>393.9540301732</ele>
        <time>2016-09-24T09:16:54Z</time>
      </trkpt>
      <trkpt lat="43.47328" lon="2.65093">
        <ele>393.9540301732</ele>
        <time>2016-09-24T09:16:59Z</time>
      </trkpt>
      <trkpt lat="43.47327" lon="2.65093">
        <ele>393.9540301732</ele>
        <time>2016-09-24T09:17:04Z</time>
      </trkpt>
      <trkpt lat="43.47327" lon="2.65093">
        <ele>393.9540301732</ele>
        <time>2016-09-24T09:17:09Z</time>
      </trkpt>
      <trkpt lat="43.47328" lon="2.65095">
        <ele>393.99665515252</ele>
        <time>2016-09-24T09:17:14Z</time>
      </trkpt>
      <trkpt lat="43.47329" lon="2.65095">
        <ele>393.99665515252</ele>
        <time>2016-09-24T09:17:19Z</time>
      </trkpt>
      <trkpt lat="43.47329" lon="2.65095">
        <ele>393.99665515252</ele>
        <time>2016-09-24T09:17:24Z</time>
      </trkpt>
      <trkpt lat="43.47329" lon="2.65095">
        <ele>393.99665515252</ele>
        <time>2016-09-24T09:17:29Z</time>
      </trkpt>
      <trkpt lat="43.47328" lon="2.65094">
        <ele>393.99665515252</ele>
        <time>2016-09-24T09:17:34Z</time>
      </trkpt>
      <trkpt lat="43.47328" lon="2.65092">
        <ele>393.99665515252</ele>
        <time>2016-09-24T09:17:39Z</time>
      </trkpt>
      <trkpt lat="43.4733" lon="2.65084">
        <ele>394.07703810351</ele>
        <time>2016-09-24T09:17:44Z</time>
      </trkpt>
      <trkpt lat="43.47332" lon="2.6508">
        <ele>394.07703810351</ele>
        <time>2016-09-24T09:17:49Z</time>
      </trkpt>
      <trkpt lat="43.47334" lon="2.65073">
        <ele>394.16344954003</ele>
        <time>2016-09-24T09:17:54Z</time>
      </trkpt>
      <trkpt lat="43.47335" lon="2.65072">
        <ele>394.16344954003</ele>
        <time>2016-09-24T09:17:59Z</time>
      </trkpt>
      <trkpt lat="43.47337" lon="2.65068">
        <ele>394.16344954003</ele>
        <time>2016-09-24T09:18:04Z</time>
      </trkpt>
      <trkpt lat="43.47337" lon="2.65068">
        <ele>394.16344954003</ele>
        <time>2016-09-24T09:18:09Z</time>
      </trkpt>
      <trkpt lat="43.47336" lon="2.65066">
        <ele>394.16344954003</ele>
        <time>2016-09-24T09:18:14Z</time>
      </trkpt>
      <trkpt lat="43.47335" lon="2.65066">
        <ele>394.16344954003</ele>
        <time>2016-09-24T09:18:19Z</time>
      </trkpt>
      <trkpt lat="43.47334" lon="2.65068">
        <ele>394.16344954003</ele>
        <time>2016-09-24T09:18:24Z</time>
      </trkpt>
      <trkpt lat="43.47334" lon="2.65069">
        <ele>394.26973401072</ele>
        <time>2016-09-24T09:18:29Z</time>
      </trkpt>
      <trkpt lat="43.47335" lon="2.65069">
        <ele>394.26973401072</ele>
        <time>2016-09-24T09:18:34Z</time>
      </trkpt>
      <trkpt lat="43.47334" lon="2.65071">
        <ele>394.26973401072</ele>
        <time>2016-09-24T09:18:39Z</time>
      </trkpt>
      <trkpt lat="43.47334" lon="2.65071">
        <ele>394.26973401072</ele>
        <time>2016-09-24T09:18:44Z</time>
      </trkpt>
      <trkpt lat="43.47334" lon="2.65072">
        <ele>394.26973401072</ele>
        <time>2016-09-24T09:18:49Z</time>
      </trkpt>
      <trkpt lat="43.47334" lon="2.65072">
        <ele>394.26973401072</ele>
        <time>2016-09-24T09:18:54Z</time>
      </trkpt>
      <trkpt lat="43.47334" lon="2.65069">
        <ele>394.26973401072</ele>
        <time>2016-09-24T09:18:59Z</time>
      </trkpt>
      <trkpt lat="43.47336" lon="2.65066">
        <ele>394.26973401072</ele>
        <time>2016-09-24T09:19:04Z</time>
      </trkpt>
      <trkpt lat="43.47337" lon="2.65061">
        <ele>394.40866002414</ele>
        <time>2016-09-24T09:19:09Z</time>
      </trkpt>
      <trkpt lat="43.47337" lon="2.65053">
        <ele>394.40866002414</ele>
        <time>2016-09-24T09:19:14Z</time>
      </trkpt>
      <trkpt lat="43.47339" lon="2.65043">
        <ele>394.54871442683</ele>
        <time>2016-09-24T09:19:19Z</time>
      </trkpt>
      <trkpt lat="43.47341" lon="2.6503">
        <ele>394.67511885028</ele>
        <time>2016-09-24T09:19:24Z</time>
      </trkpt>
      <trkpt lat="43.47341" lon="2.65025">
        <ele>394.67511885028</ele>
        <time>2016-09-24T09:19:29Z</time>
      </trkpt>
      <trkpt lat="43.47341" lon="2.65017">
        <ele>394.80305363363</ele>
        <time>2016-09-24T09:19:34Z</time>
      </trkpt>
      <trkpt lat="43.4734" lon="2.6501">
        <ele>394.80305363363</ele>
        <time>2016-09-24T09:19:39Z</time>
      </trkpt>
      <trkpt lat="43.47338" lon="2.65004">
        <ele>394.93216444618</ele>
        <time>2016-09-24T09:19:44Z</time>
      </trkpt>
      <trkpt lat="43.47338" lon="2.64997">
        <ele>394.93216444618</ele>
        <time>2016-09-24T09:19:49Z</time>
      </trkpt>
      <trkpt lat="43.47341" lon="2.64989">
        <ele>395.06212247615</ele>
        <time>2016-09-24T09:19:54Z</time>
      </trkpt>
      <trkpt lat="43.47342" lon="2.64982">
        <ele>395.06212247615</ele>
        <time>2016-09-24T09:19:59Z</time>
      </trkpt>
      <trkpt lat="43.47343" lon="2.64972">
        <ele>395.19262397365</ele>
        <time>2016-09-24T09:20:04Z</time>
      </trkpt>
      <trkpt lat="43.47341" lon="2.64968">
        <ele>395.19262397365</ele>
        <time>2016-09-24T09:20:09Z</time>
      </trkpt>
      <trkpt lat="43.47343" lon="2.64961">
        <ele>395.19262397365</ele>
        <time>2016-09-24T09:20:14Z</time>
      </trkpt>
      <trkpt lat="43.47344" lon="2.64955">
        <ele>395.33780306851</ele>
        <time>2016-09-24T09:20:19Z</time>
      </trkpt>
      <trkpt lat="43.47346" lon="2.64945">
        <ele>395.33780306851</ele>
        <time>2016-09-24T09:20:24Z</time>
      </trkpt>
      <trkpt lat="43.47347" lon="2.64938">
        <ele>395.46747833909</ele>
        <time>2016-09-24T09:20:29Z</time>
      </trkpt>
      <trkpt lat="43.4735" lon="2.6493">
        <ele>395.46747833909</ele>
        <time>2016-09-24T09:20:34Z</time>
      </trkpt>
      <trkpt lat="43.47354" lon="2.64927">
        <ele>395.59697425368</ele>
        <time>2016-09-24T09:20:39Z</time>
      </trkpt>
      <trkpt lat="43.47357" lon="2.6492">
        <ele>395.59697425368</ele>
        <time>2016-09-24T09:20:44Z</time>
      </trkpt>
      <trkpt lat="43.4736" lon="2.64911">
        <ele>395.72608129103</ele>
        <time>2016-09-24T09:20:49Z</time>
      </trkpt>
      <trkpt lat="43.4736" lon="2.64906">
        <ele>395.72608129103</ele>
        <time>2016-09-24T09:20:54Z</time>
      </trkpt>
      <trkpt lat="43.47363" lon="2.649">
        <ele>395.85461168353</ele>
        <time>2016-09-24T09:20:59Z</time>
      </trkpt>
      <trkpt lat="43.47368" lon="2.64895">
        <ele>395.85461168353</ele>
        <time>2016-09-24T09:21:04Z</time>
      </trkpt>
      <trkpt lat="43.47371" lon="2.64891">
        <ele>395.98239859194</ele>
        <time>2016-09-24T09:21:09Z</time>
      </trkpt>
      <trkpt lat="43.47375" lon="2.64888">
        <ele>395.98239859194</ele>
        <time>2016-09-24T09:21:14Z</time>
      </trkpt>
      <trkpt lat="43.4738" lon="2.64883">
        <ele>396.09488354298</ele>
        <time>2016-09-24T09:21:19Z</time>
      </trkpt>
      <trkpt lat="43.47387" lon="2.64877">
        <ele>396.09488354298</ele>
        <time>2016-09-24T09:21:24Z</time>
      </trkpt>
      <trkpt lat="43.47391" lon="2.64872">
        <ele>396.2218614294</ele>
        <time>2016-09-24T09:21:29Z</time>
      </trkpt>
      <trkpt lat="43.47393" lon="2.64867">
        <ele>396.2218614294</ele>
        <time>2016-09-24T09:21:34Z</time>
      </trkpt>
      <trkpt lat="43.47396" lon="2.64865">
        <ele>396.2218614294</ele>
        <time>2016-09-24T09:21:39Z</time>
      </trkpt>
      <trkpt lat="43.47398" lon="2.64858">
        <ele>396.3620799521</ele>
        <time>2016-09-24T09:21:44Z</time>
      </trkpt>
      <trkpt lat="43.474" lon="2.64849">
        <ele>396.3620799521</ele>
        <time>2016-09-24T09:21:49Z</time>
      </trkpt>
      <trkpt lat="43.47403" lon="2.64845">
        <ele>396.51434795534</ele>
        <time>2016-09-24T09:21:54Z</time>
      </trkpt>
      <trkpt lat="43.47408" lon="2.64844">
        <ele>396.51434795534</ele>
        <time>2016-09-24T09:21:59Z</time>
      </trkpt>
      <trkpt lat="43.47413" lon="2.64843">
        <ele>396.69194574947</ele>
        <time>2016-09-24T09:22:04Z</time>
      </trkpt>
      <trkpt lat="43.47416" lon="2.6484">
        <ele>396.69194574947</ele>
        <time>2016-09-24T09:22:09Z</time>
      </trkpt>
      <trkpt lat="43.47421" lon="2.64835">
        <ele>396.89270236865</ele>
        <time>2016-09-24T09:22:14Z</time>
      </trkpt>
      <trkpt lat="43.47425" lon="2.64835">
        <ele>396.89270236865</ele>
        <time>2016-09-24T09:22:19Z</time>
      </trkpt>
      <trkpt lat="43.4743" lon="2.64835">
        <ele>397.10013730903</ele>
        <time>2016-09-24T09:22:24Z</time>
      </trkpt>
      <trkpt lat="43.47435" lon="2.64838">
        <ele>397.10013730903</ele>
        <time>2016-09-24T09:22:29Z</time>
      </trkpt>
      <trkpt lat="43.47443" lon="2.64837">
        <ele>397.32779218217</ele>
        <time>2016-09-24T09:22:34Z</time>
      </trkpt>
      <trkpt lat="43.47448" lon="2.64838">
        <ele>397.32779218217</ele>
        <time>2016-09-24T09:22:39Z</time>
      </trkpt>
      <trkpt lat="43.47452" lon="2.6484">
        <ele>397.55934279477</ele>
        <time>2016-09-24T09:22:44Z</time>
      </trkpt>
      <trkpt lat="43.47457" lon="2.64841">
        <ele>397.55934279477</ele>
        <time>2016-09-24T09:22:49Z</time>
      </trkpt>
      <trkpt lat="43.47462" lon="2.64843">
        <ele>397.80848454149</ele>
        <time>2016-09-24T09:22:54Z</time>
      </trkpt>
      <trkpt lat="43.47467" lon="2.64843">
        <ele>397.80848454149</ele>
        <time>2016-09-24T09:22:59Z</time>
      </trkpt>
      <trkpt lat="43.47472" lon="2.6484">
        <ele>398.05904433092</ele>
        <time>2016-09-24T09:23:04Z</time>
      </trkpt>
      <trkpt lat="43.47479" lon="2.64841">
        <ele>398.05904433092</ele>
        <time>2016-09-24T09:23:09Z</time>
      </trkpt>
      <trkpt lat="43.47486" lon="2.64843">
        <ele>398.32486585938</ele>
        <time>2016-09-24T09:23:14Z</time>
      </trkpt>
      <trkpt lat="43.47493" lon="2.64844">
        <ele>398.32486585938</ele>
        <time>2016-09-24T09:23:19Z</time>
      </trkpt>
      <trkpt lat="43.475" lon="2.64846">
        <ele>398.60433257931</ele>
        <time>2016-09-24T09:23:24Z</time>
      </trkpt>
      <trkpt lat="43.47505" lon="2.64848">
        <ele>398.60433257931</ele>
        <time>2016-09-24T09:23:29Z</time>
      </trkpt>
      <trkpt lat="43.47512" lon="2.64849">
        <ele>398.88150849522</ele>
        <time>2016-09-24T09:23:34Z</time>
      </trkpt>
      <trkpt lat="43.47516" lon="2.64847">
        <ele>398.88150849522</ele>
        <time>2016-09-24T09:23:39Z</time>
      </trkpt>
      <trkpt lat="43.4752" lon="2.64846">
        <ele>398.88150849522</ele>
        <time>2016-09-24T09:23:44Z</time>
      </trkpt>
      <trkpt lat="43.47526" lon="2.64845">
        <ele>399.18488094767</ele>
        <time>2016-09-24T09:23:49Z</time>
      </trkpt>
      <trkpt lat="43.4753" lon="2.64849">
        <ele>399.18488094767</ele>
        <time>2016-09-24T09:23:54Z</time>
      </trkpt>
      <trkpt lat="43.47539" lon="2.64856">
        <ele>399.48313836078</ele>
        <time>2016-09-24T09:23:59Z</time>
      </trkpt>
      <trkpt lat="43.47543" lon="2.64859">
        <ele>399.48313836078</ele>
        <time>2016-09-24T09:24:04Z</time>
      </trkpt>
      <trkpt lat="43.47544" lon="2.64862">
        <ele>399.48313836078</ele>
        <time>2016-09-24T09:24:09Z</time>
      </trkpt>
      <trkpt lat="43.47544" lon="2.64868">
        <ele>399.79053129885</ele>
        <time>2016-09-24T09:24:14Z</time>
      </trkpt>
      <trkpt lat="43.47545" lon="2.64871">
        <ele>399.79053129885</ele>
        <time>2016-09-24T09:24:19Z</time>
      </trkpt>
      <trkpt lat="43.47545" lon="2.64875">
        <ele>399.79053129885</ele>
        <time>2016-09-24T09:24:24Z</time>
      </trkpt>
      <trkpt lat="43.47545" lon="2.64885">
        <ele>400.12025200532</ele>
        <time>2016-09-24T09:24:29Z</time>
      </trkpt>
      <trkpt lat="43.47548" lon="2.64893">
        <ele>400.12025200532</ele>
        <time>2016-09-24T09:24:34Z</time>
      </trkpt>
      <trkpt lat="43.47551" lon="2.64904">
        <ele>400.4556528054</ele>
        <time>2016-09-24T09:24:39Z</time>
      </trkpt>
      <trkpt lat="43.4755" lon="2.64907">
        <ele>400.4556528054</ele>
        <time>2016-09-24T09:24:44Z</time>
      </trkpt>
      <trkpt lat="43.4755" lon="2.64914">
        <ele>400.4556528054</ele>
        <time>2016-09-24T09:24:49Z</time>
      </trkpt>
      <trkpt lat="43.47548" lon="2.64919">
        <ele>400.81013133966</ele>
        <time>2016-09-24T09:24:54Z</time>
      </trkpt>
      <trkpt lat="43.47546" lon="2.64926">
        <ele>400.81013133966</ele>
        <time>2016-09-24T09:24:59Z</time>
      </trkpt>
      <trkpt lat="43.47543" lon="2.64933">
        <ele>401.16724060381</ele>
        <time>2016-09-24T09:25:04Z</time>
      </trkpt>
      <trkpt lat="43.47542" lon="2.64939">
        <ele>401.16724060381</ele>
        <time>2016-09-24T09:25:09Z</time>
      </trkpt>
      <trkpt lat="43.4754" lon="2.64943">
        <ele>401.16724060381</ele>
        <time>2016-09-24T09:25:14Z</time>
      </trkpt>
      <trkpt lat="43.47537" lon="2.64952">
        <ele>401.54057407982</ele>
        <time>2016-09-24T09:25:19Z</time>
      </trkpt>
      <trkpt lat="43.47536" lon="2.64956">
        <ele>401.54057407982</ele>
        <time>2016-09-24T09:25:24Z</time>
      </trkpt>
      <trkpt lat="43.47536" lon="2.64959">
        <ele>401.54057407982</ele>
        <time>2016-09-24T09:25:29Z</time>
      </trkpt>
      <trkpt lat="43.47535" lon="2.64966">
        <ele>401.92828700917</ele>
        <time>2016-09-24T09:25:34Z</time>
      </trkpt>
      <trkpt lat="43.47534" lon="2.6498">
        <ele>402.28541332516</ele>
        <time>2016-09-24T09:25:39Z</time>
      </trkpt>
      <trkpt lat="43.4753" lon="2.64988">
        <ele>402.28541332516</ele>
        <time>2016-09-24T09:25:44Z</time>
      </trkpt>
      <trkpt lat="43.47528" lon="2.64992">
        <ele>402.64245190494</ele>
        <time>2016-09-24T09:25:49Z</time>
      </trkpt>
      <trkpt lat="43.47528" lon="2.65004">
        <ele>402.64245190494</ele>
        <time>2016-09-24T09:25:54Z</time>
      </trkpt>
      <trkpt lat="43.47526" lon="2.65011">
        <ele>402.9844458029</ele>
        <time>2016-09-24T09:25:59Z</time>
      </trkpt>
      <trkpt lat="43.47529" lon="2.65016">
        <ele>402.9844458029</ele>
        <time>2016-09-24T09:26:04Z</time>
      </trkpt>
      <trkpt lat="43.47534" lon="2.65015">
        <ele>403.32642102236</ele>
        <time>2016-09-24T09:26:09Z</time>
      </trkpt>
      <trkpt lat="43.47538" lon="2.65014">
        <ele>403.32642102236</ele>
        <time>2016-09-24T09:26:14Z</time>
      </trkpt>
      <trkpt lat="43.47541" lon="2.6501">
        <ele>403.32642102236</ele>
        <time>2016-09-24T09:26:19Z</time>
      </trkpt>
      <trkpt lat="43.47546" lon="2.65006">
        <ele>403.68231890809</ele>
        <time>2016-09-24T09:26:24Z</time>
      </trkpt>
      <trkpt lat="43.4755" lon="2.65005">
        <ele>403.68231890809</ele>
        <time>2016-09-24T09:26:29Z</time>
      </trkpt>
      <trkpt lat="43.47553" lon="2.65001">
        <ele>403.68231890809</ele>
        <time>2016-09-24T09:26:34Z</time>
      </trkpt>
      <trkpt lat="43.47558" lon="2.64999">
        <ele>404.05062535539</ele>
        <time>2016-09-24T09:26:39Z</time>
      </trkpt>
      <trkpt lat="43.47563" lon="2.65">
        <ele>404.05062535539</ele>
        <time>2016-09-24T09:26:44Z</time>
      </trkpt>
      <trkpt lat="43.47566" lon="2.65002">
        <ele>404.05062535539</ele>
        <time>2016-09-24T09:26:49Z</time>
      </trkpt>
      <trkpt lat="43.47569" lon="2.65004">
        <ele>404.44433333317</ele>
        <time>2016-09-24T09:26:54Z</time>
      </trkpt>
      <trkpt lat="43.47574" lon="2.65007">
        <ele>404.44433333317</ele>
        <time>2016-09-24T09:26:59Z</time>
      </trkpt>
      <trkpt lat="43.47576" lon="2.65011">
        <ele>404.44433333317</ele>
        <time>2016-09-24T09:27:04Z</time>
      </trkpt>
      <trkpt lat="43.47581" lon="2.65013">
        <ele>404.88984081807</ele>
        <time>2016-09-24T09:27:09Z</time>
      </trkpt>
      <trkpt lat="43.47586" lon="2.65013">
        <ele>404.88984081807</ele>
        <time>2016-09-24T09:27:14Z</time>
      </trkpt>
      <trkpt lat="43.47588" lon="2.65014">
        <ele>404.88984081807</ele>
        <time>2016-09-24T09:27:19Z</time>
      </trkpt>
      <trkpt lat="43.47595" lon="2.65018">
        <ele>405.35383550698</ele>
        <time>2016-09-24T09:27:24Z</time>
      </trkpt>
      <trkpt lat="43.476" lon="2.65021">
        <ele>405.35383550698</ele>
        <time>2016-09-24T09:27:29Z</time>
      </trkpt>
      <trkpt lat="43.47606" lon="2.65029">
        <ele>405.81983201823</ele>
        <time>2016-09-24T09:27:34Z</time>
      </trkpt>
      <trkpt lat="43.47609" lon="2.65035">
        <ele>405.81983201823</ele>
        <time>2016-09-24T09:27:39Z</time>
      </trkpt>
      <trkpt lat="43.47612" lon="2.6504">
        <ele>406.27257109869</ele>
        <time>2016-09-24T09:27:44Z</time>
      </trkpt>
      <trkpt lat="43.47618" lon="2.65044">
        <ele>406.27257109869</ele>
        <time>2016-09-24T09:27:49Z</time>
      </trkpt>
      <trkpt lat="43.47623" lon="2.65045">
        <ele>406.71238407886</ele>
        <time>2016-09-24T09:27:54Z</time>
      </trkpt>
      <trkpt lat="43.4763" lon="2.65048">
        <ele>406.71238407886</ele>
        <time>2016-09-24T09:27:59Z</time>
      </trkpt>
      <trkpt lat="43.47637" lon="2.65051">
        <ele>407.16845818577</ele>
        <time>2016-09-24T09:28:04Z</time>
      </trkpt>
      <trkpt lat="43.47644" lon="2.65053">
        <ele>407.16845818577</ele>
        <time>2016-09-24T09:28:09Z</time>
      </trkpt>
      <trkpt lat="43.4765" lon="2.65052">
        <ele>407.682223848</ele>
        <time>2016-09-24T09:28:14Z</time>
      </trkpt>
      <trkpt lat="43.47658" lon="2.65051">
        <ele>407.682223848</ele>
        <time>2016-09-24T09:28:19Z</time>
      </trkpt>
      <trkpt lat="43.47663" lon="2.65048">
        <ele>408.23428328952</ele>
        <time>2016-09-24T09:28:24Z</time>
      </trkpt>
      <trkpt lat="43.47668" lon="2.65043">
        <ele>408.23428328952</ele>
        <time>2016-09-24T09:28:29Z</time>
      </trkpt>
      <trkpt lat="43.47673" lon="2.65038">
        <ele>408.80657905943</ele>
        <time>2016-09-24T09:28:34Z</time>
      </trkpt>
      <trkpt lat="43.47679" lon="2.65031">
        <ele>408.80657905943</ele>
        <time>2016-09-24T09:28:39Z</time>
      </trkpt>
      <trkpt lat="43.47684" lon="2.65028">
        <ele>409.39675808357</ele>
        <time>2016-09-24T09:28:44Z</time>
      </trkpt>
      <trkpt lat="43.47688" lon="2.65027">
        <ele>409.39675808357</ele>
        <time>2016-09-24T09:28:49Z</time>
      </trkpt>
      <trkpt lat="43.47688" lon="2.65027">
        <ele>409.39675808357</ele>
        <time>2016-09-24T09:28:54Z</time>
      </trkpt>
      <trkpt lat="43.47693" lon="2.65026">
        <ele>410.03143658649</ele>
        <time>2016-09-24T09:28:59Z</time>
      </trkpt>
      <trkpt lat="43.47699" lon="2.65024">
        <ele>410.03143658649</ele>
        <time>2016-09-24T09:29:04Z</time>
      </trkpt>
      <trkpt lat="43.47705" lon="2.65021">
        <ele>410.64870872777</ele>
        <time>2016-09-24T09:29:09Z</time>
      </trkpt>
      <trkpt lat="43.4771" lon="2.65022">
        <ele>410.64870872777</ele>
        <time>2016-09-24T09:29:14Z</time>
      </trkpt>
      <trkpt lat="43.47714" lon="2.65019">
        <ele>411.26334701802</ele>
        <time>2016-09-24T09:29:19Z</time>
      </trkpt>
      <trkpt lat="43.47721" lon="2.65014">
        <ele>411.26334701802</ele>
        <time>2016-09-24T09:29:24Z</time>
      </trkpt>
      <trkpt lat="43.47724" lon="2.65016">
        <ele>411.86025053394</ele>
        <time>2016-09-24T09:29:29Z</time>
      </trkpt>
      <trkpt lat="43.47723" lon="2.65016">
        <ele>411.86025053394</ele>
        <time>2016-09-24T09:29:34Z</time>
      </trkpt>
      <trkpt lat="43.47721" lon="2.6502">
        <ele>411.86025053394</ele>
        <time>2016-09-24T09:29:39Z</time>
      </trkpt>
      <trkpt lat="43.47717" lon="2.65025">
        <ele>412.46873822069</ele>
        <time>2016-09-24T09:29:44Z</time>
      </trkpt>
      <trkpt lat="43.47715" lon="2.65033">
        <ele>412.46873822069</ele>
        <time>2016-09-24T09:29:49Z</time>
      </trkpt>
      <trkpt lat="43.47715" lon="2.65038">
        <ele>413.04391475369</ele>
        <time>2016-09-24T09:29:54Z</time>
      </trkpt>
      <trkpt lat="43.47713" lon="2.65045">
        <ele>413.04391475369</ele>
        <time>2016-09-24T09:29:59Z</time>
      </trkpt>
      <trkpt lat="43.47711" lon="2.65052">
        <ele>413.61635993722</ele>
        <time>2016-09-24T09:30:04Z</time>
      </trkpt>
      <trkpt lat="43.4771" lon="2.65058">
        <ele>413.61635993722</ele>
        <time>2016-09-24T09:30:09Z</time>
      </trkpt>
      <trkpt lat="43.47709" lon="2.65064">
        <ele>414.17120939357</ele>
        <time>2016-09-24T09:30:14Z</time>
      </trkpt>
      <trkpt lat="43.47708" lon="2.6507">
        <ele>414.17120939357</ele>
        <time>2016-09-24T09:30:19Z</time>
      </trkpt>
      <trkpt lat="43.47709" lon="2.65075">
        <ele>414.17120939357</ele>
        <time>2016-09-24T09:30:24Z</time>
      </trkpt>
      <trkpt lat="43.4771" lon="2.6508">
        <ele>414.7524124172</ele>
        <time>2016-09-24T09:30:29Z</time>
      </trkpt>
      <trkpt lat="43.47709" lon="2.65085">
        <ele>414.7524124172</ele>
        <time>2016-09-24T09:30:34Z</time>
      </trkpt>
      <trkpt lat="43.47709" lon="2.65089">
        <ele>414.7524124172</ele>
        <time>2016-09-24T09:30:39Z</time>
      </trkpt>
      <trkpt lat="43.4771" lon="2.65096">
        <ele>415.3574101418</ele>
        <time>2016-09-24T09:30:44Z</time>
      </trkpt>
      <trkpt lat="43.4771" lon="2.65102">
        <ele>415.3574101418</ele>
        <time>2016-09-24T09:30:49Z</time>
      </trkpt>
      <trkpt lat="43.47713" lon="2.65105">
        <ele>415.3574101418</ele>
        <time>2016-09-24T09:30:54Z</time>
      </trkpt>
      <trkpt lat="43.47715" lon="2.65111">
        <ele>415.99820356607</ele>
        <time>2016-09-24T09:30:59Z</time>
      </trkpt>
      <trkpt lat="43.47716" lon="2.65118">
        <ele>415.99820356607</ele>
        <time>2016-09-24T09:31:04Z</time>
      </trkpt>
      <trkpt lat="43.47717" lon="2.65124">
        <ele>416.61378344705</ele>
        <time>2016-09-24T09:31:09Z</time>
      </trkpt>
      <trkpt lat="43.47718" lon="2.6513">
        <ele>416.61378344705</ele>
        <time>2016-09-24T09:31:14Z</time>
      </trkpt>
      <trkpt lat="43.47719" lon="2.65134">
        <ele>416.61378344705</ele>
        <time>2016-09-24T09:31:19Z</time>
      </trkpt>
      <trkpt lat="43.4772" lon="2.65138">
        <ele>417.23418700622</ele>
        <time>2016-09-24T09:31:24Z</time>
      </trkpt>
      <trkpt lat="43.47722" lon="2.65142">
        <ele>417.23418700622</ele>
        <time>2016-09-24T09:31:29Z</time>
      </trkpt>
      <trkpt lat="43.47725" lon="2.65147">
        <ele>417.23418700622</ele>
        <time>2016-09-24T09:31:34Z</time>
      </trkpt>
      <trkpt lat="43.47728" lon="2.65153">
        <ele>417.84402521492</ele>
        <time>2016-09-24T09:31:39Z</time>
      </trkpt>
      <trkpt lat="43.47731" lon="2.65156">
        <ele>417.84402521492</ele>
        <time>2016-09-24T09:31:44Z</time>
      </trkpt>
      <trkpt lat="43.47733" lon="2.6516">
        <ele>417.84402521492</ele>
        <time>2016-09-24T09:31:49Z</time>
      </trkpt>
      <trkpt lat="43.47735" lon="2.65163">
        <ele>418.4435072236</ele>
        <time>2016-09-24T09:31:54Z</time>
      </trkpt>
      <trkpt lat="43.47738" lon="2.65167">
        <ele>418.4435072236</ele>
        <time>2016-09-24T09:31:59Z</time>
      </trkpt>
      <trkpt lat="43.47741" lon="2.65173">
        <ele>419.00406016878</ele>
        <time>2016-09-24T09:32:04Z</time>
      </trkpt>
      <trkpt lat="43.47743" lon="2.65176">
        <ele>419.00406016878</ele>
        <time>2016-09-24T09:32:09Z</time>
      </trkpt>
      <trkpt lat="43.47748" lon="2.65177">
        <ele>419.00406016878</ele>
        <time>2016-09-24T09:32:14Z</time>
      </trkpt>
      <trkpt lat="43.47748" lon="2.65178">
        <ele>419.00406016878</ele>
        <time>2016-09-24T09:32:19Z</time>
      </trkpt>
      <trkpt lat="43.47749" lon="2.65178">
        <ele>419.5425786559</ele>
        <time>2016-09-24T09:32:24Z</time>
      </trkpt>
      <trkpt lat="43.47752" lon="2.65181">
        <ele>419.5425786559</ele>
        <time>2016-09-24T09:32:29Z</time>
      </trkpt>
      <trkpt lat="43.47757" lon="2.65182">
        <ele>419.5425786559</ele>
        <time>2016-09-24T09:32:34Z</time>
      </trkpt>
      <trkpt lat="43.4776" lon="2.65184">
        <ele>420.08921436339</ele>
        <time>2016-09-24T09:32:39Z</time>
      </trkpt>
      <trkpt lat="43.47762" lon="2.65185">
        <ele>420.08921436339</ele>
        <time>2016-09-24T09:32:44Z</time>
      </trkpt>
      <trkpt lat="43.47765" lon="2.65187">
        <ele>420.08921436339</ele>
        <time>2016-09-24T09:32:49Z</time>
      </trkpt>
      <trkpt lat="43.4777" lon="2.65189">
        <ele>420.62867220835</ele>
        <time>2016-09-24T09:32:54Z</time>
      </trkpt>
      <trkpt lat="43.47772" lon="2.6519">
        <ele>420.62867220835</ele>
        <time>2016-09-24T09:32:59Z</time>
      </trkpt>
      <trkpt lat="43.47777" lon="2.65191">
        <ele>420.62867220835</ele>
        <time>2016-09-24T09:33:04Z</time>
      </trkpt>
      <trkpt lat="43.47779" lon="2.65192">
        <ele>421.19005751361</ele>
        <time>2016-09-24T09:33:09Z</time>
      </trkpt>
      <trkpt lat="43.47783" lon="2.65192">
        <ele>421.19005751361</ele>
        <time>2016-09-24T09:33:14Z</time>
      </trkpt>
      <trkpt lat="43.47785" lon="2.65192">
        <ele>421.19005751361</ele>
        <time>2016-09-24T09:33:19Z</time>
      </trkpt>
      <trkpt lat="43.47787" lon="2.65193">
        <ele>421.19005751361</ele>
        <time>2016-09-24T09:33:24Z</time>
      </trkpt>
      <trkpt lat="43.47789" lon="2.65193">
        <ele>421.80029849254</ele>
        <time>2016-09-24T09:33:29Z</time>
      </trkpt>
      <trkpt lat="43.47793" lon="2.65193">
        <ele>421.80029849254</ele>
        <time>2016-09-24T09:33:34Z</time>
      </trkpt>
      <trkpt lat="43.47796" lon="2.65194">
        <ele>421.80029849254</ele>
        <time>2016-09-24T09:33:39Z</time>
      </trkpt>
      <trkpt lat="43.47798" lon="2.65194">
        <ele>421.80029849254</ele>
        <time>2016-09-24T09:33:44Z</time>
      </trkpt>
      <trkpt lat="43.47801" lon="2.65192">
        <ele>422.49864114435</ele>
        <time>2016-09-24T09:33:49Z</time>
      </trkpt>
      <trkpt lat="43.47805" lon="2.65192">
        <ele>422.49864114435</ele>
        <time>2016-09-24T09:33:54Z</time>
      </trkpt>
      <trkpt lat="43.47807" lon="2.65192">
        <ele>422.49864114435</ele>
        <time>2016-09-24T09:33:59Z</time>
      </trkpt>
      <trkpt lat="43.47809" lon="2.65191">
        <ele>422.49864114435</ele>
        <time>2016-09-24T09:34:04Z</time>
      </trkpt>
      <trkpt lat="43.47811" lon="2.65191">
        <ele>423.3068118595</ele>
        <time>2016-09-24T09:34:09Z</time>
      </trkpt>
      <trkpt lat="43.47814" lon="2.65189">
        <ele>423.3068118595</ele>
        <time>2016-09-24T09:34:14Z</time>
      </trkpt>
      <trkpt lat="43.47818" lon="2.65188">
        <ele>423.3068118595</ele>
        <time>2016-09-24T09:34:19Z</time>
      </trkpt>
      <trkpt lat="43.47823" lon="2.65189">
        <ele>424.23024386108</ele>
        <time>2016-09-24T09:34:24Z</time>
      </trkpt>
      <trkpt lat="43.47827" lon="2.65188">
        <ele>424.23024386108</ele>
        <time>2016-09-24T09:34:29Z</time>
      </trkpt>
      <trkpt lat="43.47831" lon="2.65187">
        <ele>424.23024386108</ele>
        <time>2016-09-24T09:34:34Z</time>
      </trkpt>
      <trkpt lat="43.47834" lon="2.65188">
        <ele>425.28808227052</ele>
        <time>2016-09-24T09:34:39Z</time>
      </trkpt>
      <trkpt lat="43.47836" lon="2.65189">
        <ele>425.28808227052</ele>
        <time>2016-09-24T09:34:44Z</time>
      </trkpt>
      <trkpt lat="43.47841" lon="2.65189">
        <ele>425.28808227052</ele>
        <time>2016-09-24T09:34:49Z</time>
      </trkpt>
      <trkpt lat="43.47844" lon="2.65189">
        <ele>426.49771403829</ele>
        <time>2016-09-24T09:34:54Z</time>
      </trkpt>
      <trkpt lat="43.47848" lon="2.65189">
        <ele>426.49771403829</ele>
        <time>2016-09-24T09:34:59Z</time>
      </trkpt>
      <trkpt lat="43.4785" lon="2.65189">
        <ele>426.49771403829</ele>
        <time>2016-09-24T09:35:04Z</time>
      </trkpt>
      <trkpt lat="43.47853" lon="2.6519">
        <ele>427.81720666741</ele>
        <time>2016-09-24T09:35:09Z</time>
      </trkpt>
      <trkpt lat="43.47853" lon="2.65192">
        <ele>427.81720666741</ele>
        <time>2016-09-24T09:35:14Z</time>
      </trkpt>
      <trkpt lat="43.47852" lon="2.65193">
        <ele>427.81720666741</ele>
        <time>2016-09-24T09:35:19Z</time>
      </trkpt>
      <trkpt lat="43.47851" lon="2.65193">
        <ele>427.81720666741</ele>
        <time>2016-09-24T09:35:24Z</time>
      </trkpt>
      <trkpt lat="43.47851" lon="2.65194">
        <ele>427.81720666741</ele>
        <time>2016-09-24T09:35:29Z</time>
      </trkpt>
      <trkpt lat="43.47851" lon="2.65194">
        <ele>427.81720666741</ele>
        <time>2016-09-24T09:35:34Z</time>
      </trkpt>
      <trkpt lat="43.47851" lon="2.65195">
        <ele>427.81720666741</ele>
        <time>2016-09-24T09:35:39Z</time>
      </trkpt>
      <trkpt lat="43.4785" lon="2.65195">
        <ele>427.81720666741</ele>
        <time>2016-09-24T09:35:44Z</time>
      </trkpt>
      <trkpt lat="43.47849" lon="2.65196">
        <ele>427.81720666741</ele>
        <time>2016-09-24T09:35:49Z</time>
      </trkpt>
      <trkpt lat="43.47848" lon="2.65196">
        <ele>427.81720666741</ele>
        <time>2016-09-24T09:35:54Z</time>
      </trkpt>
      <trkpt lat="43.47848" lon="2.65197">
        <ele>427.81720666741</ele>
        <time>2016-09-24T09:35:59Z</time>
      </trkpt>
      <trkpt lat="43.47848" lon="2.65197">
        <ele>427.81720666741</ele>
        <time>2016-09-24T09:36:04Z</time>
      </trkpt>
      <trkpt lat="43.47848" lon="2.65197">
        <ele>427.81720666741</ele>
        <time>2016-09-24T09:36:09Z</time>
      </trkpt>
      <trkpt lat="43.47848" lon="2.65197">
        <ele>427.81720666741</ele>
        <time>2016-09-24T09:36:14Z</time>
      </trkpt>
      <trkpt lat="43.47848" lon="2.65197">
        <ele>427.81720666741</ele>
        <time>2016-09-24T09:36:19Z</time>
      </trkpt>
      <trkpt lat="43.47848" lon="2.65198">
        <ele>427.81720666741</ele>
        <time>2016-09-24T09:36:24Z</time>
      </trkpt>
      <trkpt lat="43.47848" lon="2.65198">
        <ele>427.81720666741</ele>
        <time>2016-09-24T09:36:29Z</time>
      </trkpt>
      <trkpt lat="43.47848" lon="2.65198">
        <ele>427.81720666741</ele>
        <time>2016-09-24T09:36:34Z</time>
      </trkpt>
      <trkpt lat="43.47848" lon="2.65199">
        <ele>427.81720666741</ele>
        <time>2016-09-24T09:36:39Z</time>
      </trkpt>
      <trkpt lat="43.47848" lon="2.65199">
        <ele>429.78387753833</ele>
        <time>2016-09-24T09:36:44Z</time>
      </trkpt>
      <trkpt lat="43.47848" lon="2.65199">
        <ele>429.78387753833</ele>
        <time>2016-09-24T09:36:49Z</time>
      </trkpt>
      <trkpt lat="43.47847" lon="2.65199">
        <ele>429.78387753833</ele>
        <time>2016-09-24T09:36:54Z</time>
      </trkpt>
      <trkpt lat="43.47847" lon="2.65199">
        <ele>429.78387753833</ele>
        <time>2016-09-24T09:36:59Z</time>
      </trkpt>
      <trkpt lat="43.47847" lon="2.65199">
        <ele>429.78387753833</ele>
        <time>2016-09-24T09:37:04Z</time>
      </trkpt>
      <trkpt lat="43.47847" lon="2.65199">
        <ele>429.78387753833</ele>
        <time>2016-09-24T09:37:09Z</time>
      </trkpt>
      <trkpt lat="43.47847" lon="2.65199">
        <ele>429.78387753833</ele>
        <time>2016-09-24T09:37:14Z</time>
      </trkpt>
      <trkpt lat="43.47847" lon="2.65199">
        <ele>429.78387753833</ele>
        <time>2016-09-24T09:37:19Z</time>
      </trkpt>
      <trkpt lat="43.47847" lon="2.65199">
        <ele>429.78387753833</ele>
        <time>2016-09-24T09:37:24Z</time>
      </trkpt>
      <trkpt lat="43.47844" lon="2.65198">
        <ele>429.78387753833</ele>
        <time>2016-09-24T09:37:29Z</time>
      </trkpt>
      <trkpt lat="43.47846" lon="2.65195">
        <ele>429.78387753833</ele>
        <time>2016-09-24T09:37:34Z</time>
      </trkpt>
      <trkpt lat="43.4785" lon="2.65204">
        <ele>432.33176290618</ele>
        <time>2016-09-24T09:37:39Z</time>
      </trkpt>
      <trkpt lat="43.47852" lon="2.65208">
        <ele>432.33176290618</ele>
        <time>2016-09-24T09:37:44Z</time>
      </trkpt>
      <trkpt lat="43.47854" lon="2.65206">
        <ele>432.33176290618</ele>
        <time>2016-09-24T09:37:49Z</time>
      </trkpt>
      <trkpt lat="43.47857" lon="2.65203">
        <ele>434.86495048567</ele>
        <time>2016-09-24T09:37:54Z</time>
      </trkpt>
      <trkpt lat="43.47858" lon="2.65203">
        <ele>434.86495048567</ele>
        <time>2016-09-24T09:37:59Z</time>
      </trkpt>
      <trkpt lat="43.47858" lon="2.65202">
        <ele>434.86495048567</ele>
        <time>2016-09-24T09:38:04Z</time>
      </trkpt>
      <trkpt lat="43.47857" lon="2.65202">
        <ele>434.86495048567</ele>
        <time>2016-09-24T09:38:09Z</time>
      </trkpt>
      <trkpt lat="43.47855" lon="2.65202">
        <ele>434.86495048567</ele>
        <time>2016-09-24T09:38:14Z</time>
      </trkpt>
      <trkpt lat="43.47855" lon="2.65202">
        <ele>434.86495048567</ele>
        <time>2016-09-24T09:38:19Z</time>
      </trkpt>
      <trkpt lat="43.47855" lon="2.65202">
        <ele>434.86495048567</ele>
        <time>2016-09-24T09:38:24Z</time>
      </trkpt>
      <trkpt lat="43.47855" lon="2.65202">
        <ele>434.86495048567</ele>
        <time>2016-09-24T09:38:29Z</time>
      </trkpt>
      <trkpt lat="43.47855" lon="2.65202">
        <ele>434.86495048567</ele>
        <time>2016-09-24T09:38:34Z</time>
      </trkpt>
      <trkpt lat="43.47854" lon="2.65202">
        <ele>434.86495048567</ele>
        <time>2016-09-24T09:38:39Z</time>
      </trkpt>
      <trkpt lat="43.47854" lon="2.65202">
        <ele>434.86495048567</ele>
        <time>2016-09-24T09:38:44Z</time>
      </trkpt>
      <trkpt lat="43.47854" lon="2.65202">
        <ele>434.86495048567</ele>
        <time>2016-09-24T09:38:49Z</time>
      </trkpt>
      <trkpt lat="43.47853" lon="2.65201">
        <ele>434.86495048567</ele>
        <time>2016-09-24T09:38:54Z</time>
      </trkpt>
      <trkpt lat="43.47852" lon="2.65202">
        <ele>434.86495048567</ele>
        <time>2016-09-24T09:38:59Z</time>
      </trkpt>
      <trkpt lat="43.47852" lon="2.65202">
        <ele>434.86495048567</ele>
        <time>2016-09-24T09:39:04Z</time>
      </trkpt>
      <trkpt lat="43.47852" lon="2.65202">
        <ele>434.86495048567</ele>
        <time>2016-09-24T09:39:09Z</time>
      </trkpt>
      <trkpt lat="43.47852" lon="2.65202">
        <ele>434.86495048567</ele>
        <time>2016-09-24T09:39:14Z</time>
      </trkpt>
      <trkpt lat="43.47852" lon="2.65202">
        <ele>434.86495048567</ele>
        <time>2016-09-24T09:39:19Z</time>
      </trkpt>
      <trkpt lat="43.47852" lon="2.65202">
        <ele>434.86495048567</ele>
        <time>2016-09-24T09:39:24Z</time>
      </trkpt>
      <trkpt lat="43.47852" lon="2.65201">
        <ele>434.86495048567</ele>
        <time>2016-09-24T09:39:29Z</time>
      </trkpt>
      <trkpt lat="43.47853" lon="2.65201">
        <ele>434.86495048567</ele>
        <time>2016-09-24T09:39:34Z</time>
      </trkpt>
      <trkpt lat="43.47853" lon="2.65201">
        <ele>434.86495048567</ele>
        <time>2016-09-24T09:39:39Z</time>
      </trkpt>
      <trkpt lat="43.47853" lon="2.65201">
        <ele>434.86495048567</ele>
        <time>2016-09-24T09:39:44Z</time>
      </trkpt>
      <trkpt lat="43.47853" lon="2.65201">
        <ele>438.50309554001</ele>
        <time>2016-09-24T09:39:49Z</time>
      </trkpt>
      <trkpt lat="43.47852" lon="2.65201">
        <ele>438.50309554001</ele>
        <time>2016-09-24T09:39:54Z</time>
      </trkpt>
      <trkpt lat="43.47852" lon="2.65201">
        <ele>438.50309554001</ele>
        <time>2016-09-24T09:39:59Z</time>
      </trkpt>
      <trkpt lat="43.47851" lon="2.65199">
        <ele>438.50309554001</ele>
        <time>2016-09-24T09:40:04Z</time>
      </trkpt>
      <trkpt lat="43.4785" lon="2.65199">
        <ele>438.50309554001</ele>
        <time>2016-09-24T09:40:09Z</time>
      </trkpt>
      <trkpt lat="43.4785" lon="2.65199">
        <ele>438.50309554001</ele>
        <time>2016-09-24T09:40:14Z</time>
      </trkpt>
      <trkpt lat="43.4785" lon="2.652">
        <ele>438.50309554001</ele>
        <time>2016-09-24T09:40:19Z</time>
      </trkpt>
      <trkpt lat="43.47851" lon="2.65205">
        <ele>438.50309554001</ele>
        <time>2016-09-24T09:40:24Z</time>
      </trkpt>
      <trkpt lat="43.47852" lon="2.65215">
        <ele>442.30625528437</ele>
        <time>2016-09-24T09:40:29Z</time>
      </trkpt>
      <trkpt lat="43.47852" lon="2.65219">
        <ele>442.30625528437</ele>
        <time>2016-09-24T09:40:34Z</time>
      </trkpt>
      <trkpt lat="43.47852" lon="2.6522">
        <ele>442.30625528437</ele>
        <time>2016-09-24T09:40:39Z</time>
      </trkpt>
      <trkpt lat="43.47851" lon="2.6522">
        <ele>442.30625528437</ele>
        <time>2016-09-24T09:40:44Z</time>
      </trkpt>
      <trkpt lat="43.47851" lon="2.6522">
        <ele>442.30625528437</ele>
        <time>2016-09-24T09:40:49Z</time>
      </trkpt>
      <trkpt lat="43.47851" lon="2.65221">
        <ele>442.30625528437</ele>
        <time>2016-09-24T09:40:54Z</time>
      </trkpt>
      <trkpt lat="43.47851" lon="2.65221">
        <ele>442.30625528437</ele>
        <time>2016-09-24T09:40:59Z</time>
      </trkpt>
      <trkpt lat="43.47851" lon="2.65221">
        <ele>442.30625528437</ele>
        <time>2016-09-24T09:41:04Z</time>
      </trkpt>
      <trkpt lat="43.47851" lon="2.65221">
        <ele>442.30625528437</ele>
        <time>2016-09-24T09:41:09Z</time>
      </trkpt>
      <trkpt lat="43.47851" lon="2.65221">
        <ele>442.30625528437</ele>
        <time>2016-09-24T09:41:14Z</time>
      </trkpt>
      <trkpt lat="43.47851" lon="2.65221">
        <ele>442.30625528437</ele>
        <time>2016-09-24T09:41:19Z</time>
      </trkpt>
      <trkpt lat="43.47851" lon="2.65222">
        <ele>442.30625528437</ele>
        <time>2016-09-24T09:41:24Z</time>
      </trkpt>
      <trkpt lat="43.47853" lon="2.65224">
        <ele>442.30625528437</ele>
        <time>2016-09-24T09:41:29Z</time>
      </trkpt>
      <trkpt lat="43.47854" lon="2.65222">
        <ele>446.02284212725</ele>
        <time>2016-09-24T09:41:34Z</time>
      </trkpt>
      <trkpt lat="43.47853" lon="2.65215">
        <ele>446.02284212725</ele>
        <time>2016-09-24T09:41:39Z</time>
      </trkpt>
      <trkpt lat="43.47853" lon="2.65212">
        <ele>446.02284212725</ele>
        <time>2016-09-24T09:41:44Z</time>
      </trkpt>
      <trkpt lat="43.47853" lon="2.65212">
        <ele>446.02284212725</ele>
        <time>2016-09-24T09:41:49Z</time>
      </trkpt>
      <trkpt lat="43.47853" lon="2.65213">
        <ele>446.02284212725</ele>
        <time>2016-09-24T09:41:54Z</time>
      </trkpt>
      <trkpt lat="43.47853" lon="2.65213">
        <ele>446.02284212725</ele>
        <time>2016-09-24T09:41:59Z</time>
      </trkpt>
      <trkpt lat="43.47854" lon="2.65213">
        <ele>446.02284212725</ele>
        <time>2016-09-24T09:42:04Z</time>
      </trkpt>
      <trkpt lat="43.47854" lon="2.65213">
        <ele>446.02284212725</ele>
        <time>2016-09-24T09:42:09Z</time>
      </trkpt>
      <trkpt lat="43.47853" lon="2.65212">
        <ele>446.02284212725</ele>
        <time>2016-09-24T09:42:14Z</time>
      </trkpt>
      <trkpt lat="43.47853" lon="2.65209">
        <ele>449.89566977977</ele>
        <time>2016-09-24T09:42:19Z</time>
      </trkpt>
      <trkpt lat="43.47853" lon="2.65209">
        <ele>449.89566977977</ele>
        <time>2016-09-24T09:42:24Z</time>
      </trkpt>
      <trkpt lat="43.47853" lon="2.65209">
        <ele>449.89566977977</ele>
        <time>2016-09-24T09:42:29Z</time>
      </trkpt>
      <trkpt lat="43.47853" lon="2.65208">
        <ele>449.89566977977</ele>
        <time>2016-09-24T09:42:34Z</time>
      </trkpt>
      <trkpt lat="43.47853" lon="2.65205">
        <ele>449.89566977977</ele>
        <time>2016-09-24T09:42:39Z</time>
      </trkpt>
      <trkpt lat="43.47854" lon="2.65203">
        <ele>449.89566977977</ele>
        <time>2016-09-24T09:42:44Z</time>
      </trkpt>
      <trkpt lat="43.47854" lon="2.65203">
        <ele>449.89566977977</ele>
        <time>2016-09-24T09:42:49Z</time>
      </trkpt>
      <trkpt lat="43.47854" lon="2.65202">
        <ele>449.89566977977</ele>
        <time>2016-09-24T09:42:54Z</time>
      </trkpt>
      <trkpt lat="43.47854" lon="2.65199">
        <ele>449.89566977977</ele>
        <time>2016-09-24T09:42:59Z</time>
      </trkpt>
      <trkpt lat="43.47854" lon="2.65198">
        <ele>449.89566977977</ele>
        <time>2016-09-24T09:43:04Z</time>
      </trkpt>
      <trkpt lat="43.47854" lon="2.65198">
        <ele>449.89566977977</ele>
        <time>2016-09-24T09:43:09Z</time>
      </trkpt>
      <trkpt lat="43.47854" lon="2.65199">
        <ele>449.89566977977</ele>
        <time>2016-09-24T09:43:14Z</time>
      </trkpt>
      <trkpt lat="43.47854" lon="2.65199">
        <ele>454.04852708666</ele>
        <time>2016-09-24T09:43:19Z</time>
      </trkpt>
      <trkpt lat="43.47853" lon="2.65199">
        <ele>454.04852708666</ele>
        <time>2016-09-24T09:43:24Z</time>
      </trkpt>
      <trkpt lat="43.47853" lon="2.65199">
        <ele>454.04852708666</ele>
        <time>2016-09-24T09:43:29Z</time>
      </trkpt>
      <trkpt lat="43.47854" lon="2.652">
        <ele>454.04852708666</ele>
        <time>2016-09-24T09:43:34Z</time>
      </trkpt>
      <trkpt lat="43.47854" lon="2.65201">
        <ele>454.04852708666</ele>
        <time>2016-09-24T09:43:39Z</time>
      </trkpt>
      <trkpt lat="43.47855" lon="2.65202">
        <ele>454.04852708666</ele>
        <time>2016-09-24T09:43:44Z</time>
      </trkpt>
      <trkpt lat="43.4786" lon="2.65202">
        <ele>454.04852708666</ele>
        <time>2016-09-24T09:43:49Z</time>
      </trkpt>
      <trkpt lat="43.47866" lon="2.65202">
        <ele>458.16313579799</ele>
        <time>2016-09-24T09:43:54Z</time>
      </trkpt>
      <trkpt lat="43.47871" lon="2.65205">
        <ele>458.16313579799</ele>
        <time>2016-09-24T09:43:59Z</time>
      </trkpt>
      <trkpt lat="43.47875" lon="2.65205">
        <ele>462.06015614989</ele>
        <time>2016-09-24T09:44:04Z</time>
      </trkpt>
      <trkpt lat="43.47881" lon="2.65205">
        <ele>462.06015614989</ele>
        <time>2016-09-24T09:44:09Z</time>
      </trkpt>
      <trkpt lat="43.47884" lon="2.65206">
        <ele>465.70390892654</ele>
        <time>2016-09-24T09:44:14Z</time>
      </trkpt>
      <trkpt lat="43.47888" lon="2.65208">
        <ele>465.70390892654</ele>
        <time>2016-09-24T09:44:19Z</time>
      </trkpt>
      <trkpt lat="43.47892" lon="2.65208">
        <ele>465.70390892654</ele>
        <time>2016-09-24T09:44:24Z</time>
      </trkpt>
      <trkpt lat="43.479" lon="2.65213">
        <ele>469.13428954616</ele>
        <time>2016-09-24T09:44:29Z</time>
      </trkpt>
      <trkpt lat="43.47905" lon="2.65214">
        <ele>469.13428954616</ele>
        <time>2016-09-24T09:44:34Z</time>
      </trkpt>
      <trkpt lat="43.47912" lon="2.65216">
        <ele>472.27376834637</ele>
        <time>2016-09-24T09:44:39Z</time>
      </trkpt>
      <trkpt lat="43.47917" lon="2.65216">
        <ele>472.27376834637</ele>
        <time>2016-09-24T09:44:44Z</time>
      </trkpt>
      <trkpt lat="43.47922" lon="2.65218">
        <ele>475.10917260702</ele>
        <time>2016-09-24T09:44:49Z</time>
      </trkpt>
      <trkpt lat="43.47927" lon="2.6522">
        <ele>475.10917260702</ele>
        <time>2016-09-24T09:44:54Z</time>
      </trkpt>
      <trkpt lat="43.47931" lon="2.65222">
        <ele>477.67258657689</ele>
        <time>2016-09-24T09:44:59Z</time>
      </trkpt>
      <trkpt lat="43.47936" lon="2.65222">
        <ele>477.67258657689</ele>
        <time>2016-09-24T09:45:04Z</time>
      </trkpt>
      <trkpt lat="43.47942" lon="2.65223">
        <ele>479.95146890891</ele>
        <time>2016-09-24T09:45:09Z</time>
      </trkpt>
      <trkpt lat="43.47947" lon="2.65223">
        <ele>479.95146890891</ele>
        <time>2016-09-24T09:45:14Z</time>
      </trkpt>
      <trkpt lat="43.47954" lon="2.65221">
        <ele>481.94960627755</ele>
        <time>2016-09-24T09:45:19Z</time>
      </trkpt>
      <trkpt lat="43.47957" lon="2.65224">
        <ele>481.94960627755</ele>
        <time>2016-09-24T09:45:24Z</time>
      </trkpt>
      <trkpt lat="43.47959" lon="2.65226">
        <ele>481.94960627755</ele>
        <time>2016-09-24T09:45:29Z</time>
      </trkpt>
      <trkpt lat="43.47963" lon="2.65227">
        <ele>483.71471872578</ele>
        <time>2016-09-24T09:45:34Z</time>
      </trkpt>
      <trkpt lat="43.47968" lon="2.65229">
        <ele>483.71471872578</ele>
        <time>2016-09-24T09:45:39Z</time>
      </trkpt>
      <trkpt lat="43.47971" lon="2.65231">
        <ele>483.71471872578</ele>
        <time>2016-09-24T09:45:44Z</time>
      </trkpt>
      <trkpt lat="43.47976" lon="2.65234">
        <ele>485.23421150763</ele>
        <time>2016-09-24T09:45:49Z</time>
      </trkpt>
      <trkpt lat="43.47979" lon="2.65235">
        <ele>485.23421150763</ele>
        <time>2016-09-24T09:45:54Z</time>
      </trkpt>
      <trkpt lat="43.47984" lon="2.65237">
        <ele>485.23421150763</ele>
        <time>2016-09-24T09:45:59Z</time>
      </trkpt>
      <trkpt lat="43.47988" lon="2.65237">
        <ele>486.52609669575</ele>
        <time>2016-09-24T09:46:04Z</time>
      </trkpt>
      <trkpt lat="43.47992" lon="2.65241">
        <ele>486.52609669575</ele>
        <time>2016-09-24T09:46:09Z</time>
      </trkpt>
      <trkpt lat="43.47996" lon="2.65243">
        <ele>487.59344808761</ele>
        <time>2016-09-24T09:46:14Z</time>
      </trkpt>
      <trkpt lat="43.47998" lon="2.65246">
        <ele>487.59344808761</ele>
        <time>2016-09-24T09:46:19Z</time>
      </trkpt>
      <trkpt lat="43.48" lon="2.65249">
        <ele>487.59344808761</ele>
        <time>2016-09-24T09:46:24Z</time>
      </trkpt>
      <trkpt lat="43.48005" lon="2.65253">
        <ele>488.45429789885</ele>
        <time>2016-09-24T09:46:29Z</time>
      </trkpt>
      <trkpt lat="43.4801" lon="2.65257">
        <ele>488.45429789885</ele>
        <time>2016-09-24T09:46:34Z</time>
      </trkpt>
      <trkpt lat="43.48013" lon="2.65258">
        <ele>488.45429789885</ele>
        <time>2016-09-24T09:46:39Z</time>
      </trkpt>
      <trkpt lat="43.48017" lon="2.6526">
        <ele>489.12606074372</ele>
        <time>2016-09-24T09:46:44Z</time>
      </trkpt>
      <trkpt lat="43.48021" lon="2.65262">
        <ele>489.12606074372</ele>
        <time>2016-09-24T09:46:49Z</time>
      </trkpt>
      <trkpt lat="43.48025" lon="2.65268">
        <ele>489.61110258901</ele>
        <time>2016-09-24T09:46:54Z</time>
      </trkpt>
      <trkpt lat="43.48026" lon="2.65269">
        <ele>489.61110258901</ele>
        <time>2016-09-24T09:46:59Z</time>
      </trkpt>
      <trkpt lat="43.48029" lon="2.65272">
        <ele>489.61110258901</ele>
        <time>2016-09-24T09:47:04Z</time>
      </trkpt>
      <trkpt lat="43.48033" lon="2.65277">
        <ele>489.92664463953</ele>
        <time>2016-09-24T09:47:09Z</time>
      </trkpt>
      <trkpt lat="43.48036" lon="2.6528">
        <ele>489.92664463953</ele>
        <time>2016-09-24T09:47:14Z</time>
      </trkpt>
      <trkpt lat="43.48038" lon="2.65281">
        <ele>489.92664463953</ele>
        <time>2016-09-24T09:47:19Z</time>
      </trkpt>
      <trkpt lat="43.48041" lon="2.65284">
        <ele>490.08919496451</ele>
        <time>2016-09-24T09:47:24Z</time>
      </trkpt>
      <trkpt lat="43.48045" lon="2.65286">
        <ele>490.08919496451</ele>
        <time>2016-09-24T09:47:29Z</time>
      </trkpt>
      <trkpt lat="43.48049" lon="2.65289">
        <ele>490.08919496451</ele>
        <time>2016-09-24T09:47:34Z</time>
      </trkpt>
      <trkpt lat="43.48052" lon="2.65294">
        <ele>490.11453658229</ele>
        <time>2016-09-24T09:47:39Z</time>
      </trkpt>
      <trkpt lat="43.48055" lon="2.65297">
        <ele>490.11453658229</ele>
        <time>2016-09-24T09:47:44Z</time>
      </trkpt>
      <trkpt lat="43.48058" lon="2.65299">
        <ele>490.11453658229</ele>
        <time>2016-09-24T09:47:49Z</time>
      </trkpt>
      <trkpt lat="43.48061" lon="2.65304">
        <ele>490.01771834661</ele>
        <time>2016-09-24T09:47:54Z</time>
      </trkpt>
      <trkpt lat="43.48065" lon="2.65308">
        <ele>490.01771834661</ele>
        <time>2016-09-24T09:47:59Z</time>
      </trkpt>
      <trkpt lat="43.48068" lon="2.65308">
        <ele>490.01771834661</ele>
        <time>2016-09-24T09:48:04Z</time>
      </trkpt>
      <trkpt lat="43.48072" lon="2.6531">
        <ele>489.81304865105</ele>
        <time>2016-09-24T09:48:09Z</time>
      </trkpt>
      <trkpt lat="43.48074" lon="2.65314">
        <ele>489.81304865105</ele>
        <time>2016-09-24T09:48:14Z</time>
      </trkpt>
      <trkpt lat="43.48078" lon="2.6532">
        <ele>489.49968079568</ele>
        <time>2016-09-24T09:48:19Z</time>
      </trkpt>
      <trkpt lat="43.48081" lon="2.65325">
        <ele>489.49968079568</ele>
        <time>2016-09-24T09:48:24Z</time>
      </trkpt>
      <trkpt lat="43.48083" lon="2.6533">
        <ele>489.49968079568</ele>
        <time>2016-09-24T09:48:29Z</time>
      </trkpt>
      <trkpt lat="43.48085" lon="2.65333">
        <ele>489.10594463013</ele>
        <time>2016-09-24T09:48:34Z</time>
      </trkpt>
      <trkpt lat="43.48086" lon="2.65339">
        <ele>489.10594463013</ele>
        <time>2016-09-24T09:48:39Z</time>
      </trkpt>
      <trkpt lat="43.4809" lon="2.65346">
        <ele>488.64387360186</ele>
        <time>2016-09-24T09:48:44Z</time>
      </trkpt>
      <trkpt lat="43.48093" lon="2.6535">
        <ele>488.64387360186</ele>
        <time>2016-09-24T09:48:49Z</time>
      </trkpt>
      <trkpt lat="43.48096" lon="2.65352">
        <ele>488.64387360186</ele>
        <time>2016-09-24T09:48:54Z</time>
      </trkpt>
      <trkpt lat="43.481" lon="2.65355">
        <ele>488.12476305867</ele>
        <time>2016-09-24T09:48:59Z</time>
      </trkpt>
      <trkpt lat="43.48103" lon="2.65358">
        <ele>488.12476305867</ele>
        <time>2016-09-24T09:49:04Z</time>
      </trkpt>
      <trkpt lat="43.48104" lon="2.65363">
        <ele>488.12476305867</ele>
        <time>2016-09-24T09:49:09Z</time>
      </trkpt>
      <trkpt lat="43.48106" lon="2.65366">
        <ele>487.55917736786</ele>
        <time>2016-09-24T09:49:14Z</time>
      </trkpt>
      <trkpt lat="43.48109" lon="2.65374">
        <ele>487.55917736786</ele>
        <time>2016-09-24T09:49:19Z</time>
      </trkpt>
      <trkpt lat="43.48111" lon="2.65376">
        <ele>486.95695943491</ele>
        <time>2016-09-24T09:49:24Z</time>
      </trkpt>
      <trkpt lat="43.48116" lon="2.65382">
        <ele>486.95695943491</ele>
        <time>2016-09-24T09:49:29Z</time>
      </trkpt>
      <trkpt lat="43.4812" lon="2.65391">
        <ele>486.32724248601</ele>
        <time>2016-09-24T09:49:34Z</time>
      </trkpt>
      <trkpt lat="43.48123" lon="2.65395">
        <ele>486.32724248601</ele>
        <time>2016-09-24T09:49:39Z</time>
      </trkpt>
      <trkpt lat="43.48127" lon="2.654">
        <ele>485.67846396819</ele>
        <time>2016-09-24T09:49:44Z</time>
      </trkpt>
      <trkpt lat="43.4813" lon="2.65403">
        <ele>485.67846396819</ele>
        <time>2016-09-24T09:49:49Z</time>
      </trkpt>
      <trkpt lat="43.48131" lon="2.65407">
        <ele>485.67846396819</ele>
        <time>2016-09-24T09:49:54Z</time>
      </trkpt>
      <trkpt lat="43.48135" lon="2.65411">
        <ele>485.03279255443</ele>
        <time>2016-09-24T09:49:59Z</time>
      </trkpt>
      <trkpt lat="43.48139" lon="2.65417">
        <ele>485.03279255443</ele>
        <time>2016-09-24T09:50:04Z</time>
      </trkpt>
      <trkpt lat="43.48143" lon="2.65424">
        <ele>484.38181343788</ele>
        <time>2016-09-24T09:50:09Z</time>
      </trkpt>
      <trkpt lat="43.48147" lon="2.65428">
        <ele>484.38181343788</ele>
        <time>2016-09-24T09:50:14Z</time>
      </trkpt>
      <trkpt lat="43.48151" lon="2.65432">
        <ele>483.73202255509</ele>
        <time>2016-09-24T09:50:19Z</time>
      </trkpt>
      <trkpt lat="43.48155" lon="2.6544">
        <ele>483.73202255509</ele>
        <time>2016-09-24T09:50:24Z</time>
      </trkpt>
      <trkpt lat="43.48157" lon="2.65444">
        <ele>483.10370477812</ele>
        <time>2016-09-24T09:50:29Z</time>
      </trkpt>
      <trkpt lat="43.48159" lon="2.65449">
        <ele>483.10370477812</ele>
        <time>2016-09-24T09:50:34Z</time>
      </trkpt>
      <trkpt lat="43.48163" lon="2.65456">
        <ele>482.48662358365</ele>
        <time>2016-09-24T09:50:39Z</time>
      </trkpt>
      <trkpt lat="43.48167" lon="2.65461">
        <ele>482.48662358365</ele>
        <time>2016-09-24T09:50:44Z</time>
      </trkpt>
      <trkpt lat="43.4817" lon="2.65467">
        <ele>481.88551913304</ele>
        <time>2016-09-24T09:50:49Z</time>
      </trkpt>
      <trkpt lat="43.48172" lon="2.65473">
        <ele>481.88551913304</ele>
        <time>2016-09-24T09:50:54Z</time>
      </trkpt>
      <trkpt lat="43.48175" lon="2.65479">
        <ele>481.31898980645</ele>
        <time>2016-09-24T09:50:59Z</time>
      </trkpt>
      <trkpt lat="43.48179" lon="2.65482">
        <ele>481.31898980645</ele>
        <time>2016-09-24T09:51:04Z</time>
      </trkpt>
      <trkpt lat="43.48184" lon="2.65488">
        <ele>480.77518470633</ele>
        <time>2016-09-24T09:51:09Z</time>
      </trkpt>
      <trkpt lat="43.48187" lon="2.65493">
        <ele>480.77518470633</ele>
        <time>2016-09-24T09:51:14Z</time>
      </trkpt>
      <trkpt lat="43.4819" lon="2.65497">
        <ele>480.28612635918</ele>
        <time>2016-09-24T09:51:19Z</time>
      </trkpt>
      <trkpt lat="43.48192" lon="2.65502">
        <ele>480.28612635918</ele>
        <time>2016-09-24T09:51:24Z</time>
      </trkpt>
      <trkpt lat="43.48196" lon="2.6551">
        <ele>479.85234050213</ele>
        <time>2016-09-24T09:51:29Z</time>
      </trkpt>
      <trkpt lat="43.48199" lon="2.65515">
        <ele>479.85234050213</ele>
        <time>2016-09-24T09:51:34Z</time>
      </trkpt>
      <trkpt lat="43.48201" lon="2.65521">
        <ele>479.47398972633</ele>
        <time>2016-09-24T09:51:39Z</time>
      </trkpt>
      <trkpt lat="43.48204" lon="2.6553">
        <ele>479.47398972633</ele>
        <time>2016-09-24T09:51:44Z</time>
      </trkpt>
      <trkpt lat="43.48207" lon="2.65537">
        <ele>479.15089984808</ele>
        <time>2016-09-24T09:51:49Z</time>
      </trkpt>
      <trkpt lat="43.48209" lon="2.65541">
        <ele>479.15089984808</ele>
        <time>2016-09-24T09:51:54Z</time>
      </trkpt>
      <trkpt lat="43.4821" lon="2.65548">
        <ele>479.15089984808</ele>
        <time>2016-09-24T09:51:59Z</time>
      </trkpt>
      <trkpt lat="43.48212" lon="2.65554">
        <ele>478.92581968217</ele>
        <time>2016-09-24T09:52:04Z</time>
      </trkpt>
      <trkpt lat="43.48215" lon="2.65559">
        <ele>478.92581968217</ele>
        <time>2016-09-24T09:52:09Z</time>
      </trkpt>
      <trkpt lat="43.48216" lon="2.65562">
        <ele>478.92581968217</ele>
        <time>2016-09-24T09:52:14Z</time>
      </trkpt>
      <trkpt lat="43.48219" lon="2.65568">
        <ele>478.80909466762</ele>
        <time>2016-09-24T09:52:19Z</time>
      </trkpt>
      <trkpt lat="43.48221" lon="2.65572">
        <ele>478.80909466762</ele>
        <time>2016-09-24T09:52:24Z</time>
      </trkpt>
      <trkpt lat="43.48225" lon="2.65579">
        <ele>478.76661028675</ele>
        <time>2016-09-24T09:52:29Z</time>
      </trkpt>
      <trkpt lat="43.48226" lon="2.65583">
        <ele>478.76661028675</ele>
        <time>2016-09-24T09:52:34Z</time>
      </trkpt>
      <trkpt lat="43.48228" lon="2.65588">
        <ele>478.76661028675</ele>
        <time>2016-09-24T09:52:39Z</time>
      </trkpt>
      <trkpt lat="43.48231" lon="2.65593">
        <ele>478.85285810902</ele>
        <time>2016-09-24T09:52:44Z</time>
      </trkpt>
      <trkpt lat="43.48233" lon="2.65599">
        <ele>478.85285810902</ele>
        <time>2016-09-24T09:52:49Z</time>
      </trkpt>
      <trkpt lat="43.48234" lon="2.65602">
        <ele>478.85285810902</ele>
        <time>2016-09-24T09:52:54Z</time>
      </trkpt>
      <trkpt lat="43.48236" lon="2.65605">
        <ele>479.08899041524</ele>
        <time>2016-09-24T09:52:59Z</time>
      </trkpt>
      <trkpt lat="43.48239" lon="2.65609">
        <ele>479.08899041524</ele>
        <time>2016-09-24T09:53:04Z</time>
      </trkpt>
      <trkpt lat="43.4824" lon="2.65611">
        <ele>479.08899041524</ele>
        <time>2016-09-24T09:53:09Z</time>
      </trkpt>
      <trkpt lat="43.48246" lon="2.65617">
        <ele>479.45080523539</ele>
        <time>2016-09-24T09:53:14Z</time>
      </trkpt>
      <trkpt lat="43.48248" lon="2.6562">
        <ele>479.45080523539</ele>
        <time>2016-09-24T09:53:19Z</time>
      </trkpt>
      <trkpt lat="43.48253" lon="2.65625">
        <ele>479.90097552411</ele>
        <time>2016-09-24T09:53:24Z</time>
      </trkpt>
      <trkpt lat="43.48252" lon="2.65625">
        <ele>479.90097552411</ele>
        <time>2016-09-24T09:53:29Z</time>
      </trkpt>
      <trkpt lat="43.48254" lon="2.65625">
        <ele>479.90097552411</ele>
        <time>2016-09-24T09:53:34Z</time>
      </trkpt>
      <trkpt lat="43.48257" lon="2.65627">
        <ele>479.90097552411</ele>
        <time>2016-09-24T09:53:39Z</time>
      </trkpt>
      <trkpt lat="43.4826" lon="2.65632">
        <ele>480.56305986782</ele>
        <time>2016-09-24T09:53:44Z</time>
      </trkpt>
      <trkpt lat="43.48262" lon="2.6564">
        <ele>480.56305986782</ele>
        <time>2016-09-24T09:53:49Z</time>
      </trkpt>
      <trkpt lat="43.48263" lon="2.65643">
        <ele>480.56305986782</ele>
        <time>2016-09-24T09:53:54Z</time>
      </trkpt>
      <trkpt lat="43.48264" lon="2.65649">
        <ele>481.37789098498</ele>
        <time>2016-09-24T09:53:59Z</time>
      </trkpt>
      <trkpt lat="43.48267" lon="2.65647">
        <ele>481.37789098498</ele>
        <time>2016-09-24T09:54:04Z</time>
      </trkpt>
      <trkpt lat="43.48271" lon="2.6565">
        <ele>481.37789098498</ele>
        <time>2016-09-24T09:54:09Z</time>
      </trkpt>
      <trkpt lat="43.48271" lon="2.65651">
        <ele>482.2901082254</ele>
        <time>2016-09-24T09:54:14Z</time>
      </trkpt>
      <trkpt lat="43.48268" lon="2.65657">
        <ele>482.2901082254</ele>
        <time>2016-09-24T09:54:19Z</time>
      </trkpt>
      <trkpt lat="43.48267" lon="2.65661">
        <ele>482.2901082254</ele>
        <time>2016-09-24T09:54:24Z</time>
      </trkpt>
      <trkpt lat="43.48273" lon="2.65667">
        <ele>483.32009975683</ele>
        <time>2016-09-24T09:54:29Z</time>
      </trkpt>
      <trkpt lat="43.48275" lon="2.65672">
        <ele>483.32009975683</ele>
        <time>2016-09-24T09:54:34Z</time>
      </trkpt>
      <trkpt lat="43.48279" lon="2.65679">
        <ele>484.44310348705</ele>
        <time>2016-09-24T09:54:39Z</time>
      </trkpt>
      <trkpt lat="43.48281" lon="2.6568">
        <ele>484.44310348705</ele>
        <time>2016-09-24T09:54:44Z</time>
      </trkpt>
      <trkpt lat="43.48285" lon="2.65683">
        <ele>484.44310348705</ele>
        <time>2016-09-24T09:54:49Z</time>
      </trkpt>
      <trkpt lat="43.48286" lon="2.65687">
        <ele>485.76553866296</ele>
        <time>2016-09-24T09:54:54Z</time>
      </trkpt>
      <trkpt lat="43.48286" lon="2.6569">
        <ele>485.76553866296</ele>
        <time>2016-09-24T09:54:59Z</time>
      </trkpt>
      <trkpt lat="43.48286" lon="2.65694">
        <ele>485.76553866296</ele>
        <time>2016-09-24T09:55:04Z</time>
      </trkpt>
      <trkpt lat="43.48287" lon="2.65696">
        <ele>485.76553866296</ele>
        <time>2016-09-24T09:55:09Z</time>
      </trkpt>
      <trkpt lat="43.48288" lon="2.65701">
        <ele>487.41420574146</ele>
        <time>2016-09-24T09:55:14Z</time>
      </trkpt>
      <trkpt lat="43.4829" lon="2.65705">
        <ele>487.41420574146</ele>
        <time>2016-09-24T09:55:19Z</time>
      </trkpt>
      <trkpt lat="43.48292" lon="2.65709">
        <ele>487.41420574146</ele>
        <time>2016-09-24T09:55:24Z</time>
      </trkpt>
      <trkpt lat="43.48293" lon="2.65713">
        <ele>489.24622461579</ele>
        <time>2016-09-24T09:55:29Z</time>
      </trkpt>
      <trkpt lat="43.48294" lon="2.65716">
        <ele>489.24622461579</ele>
        <time>2016-09-24T09:55:34Z</time>
      </trkpt>
      <trkpt lat="43.48295" lon="2.65717">
        <ele>489.24622461579</ele>
        <time>2016-09-24T09:55:39Z</time>
      </trkpt>
      <trkpt lat="43.48297" lon="2.65722">
        <ele>489.24622461579</ele>
        <time>2016-09-24T09:55:44Z</time>
      </trkpt>
      <trkpt lat="43.48298" lon="2.65728">
        <ele>491.33041621947</ele>
        <time>2016-09-24T09:55:49Z</time>
      </trkpt>
      <trkpt lat="43.48298" lon="2.65729">
        <ele>491.33041621947</ele>
        <time>2016-09-24T09:55:54Z</time>
      </trkpt>
      <trkpt lat="43.48299" lon="2.65733">
        <ele>491.33041621947</ele>
        <time>2016-09-24T09:55:59Z</time>
      </trkpt>
      <trkpt lat="43.483" lon="2.65739">
        <ele>491.33041621947</ele>
        <time>2016-09-24T09:56:04Z</time>
      </trkpt>
      <trkpt lat="43.48302" lon="2.65744">
        <ele>493.72981805643</ele>
        <time>2016-09-24T09:56:09Z</time>
      </trkpt>
      <trkpt lat="43.48304" lon="2.65745">
        <ele>493.72981805643</ele>
        <time>2016-09-24T09:56:14Z</time>
      </trkpt>
      <trkpt lat="43.48304" lon="2.65749">
        <ele>493.72981805643</ele>
        <time>2016-09-24T09:56:19Z</time>
      </trkpt>
      <trkpt lat="43.48305" lon="2.6575">
        <ele>493.72981805643</ele>
        <time>2016-09-24T09:56:24Z</time>
      </trkpt>
      <trkpt lat="43.48307" lon="2.65755">
        <ele>496.41548228691</ele>
        <time>2016-09-24T09:56:29Z</time>
      </trkpt>
      <trkpt lat="43.48308" lon="2.65756">
        <ele>496.41548228691</ele>
        <time>2016-09-24T09:56:34Z</time>
      </trkpt>
      <trkpt lat="43.4831" lon="2.65757">
        <ele>496.41548228691</ele>
        <time>2016-09-24T09:56:39Z</time>
      </trkpt>
      <trkpt lat="43.48312" lon="2.65763">
        <ele>496.41548228691</ele>
        <time>2016-09-24T09:56:44Z</time>
      </trkpt>
      <trkpt lat="43.48315" lon="2.6577">
        <ele>499.35979856778</ele>
        <time>2016-09-24T09:56:49Z</time>
      </trkpt>
      <trkpt lat="43.48319" lon="2.65771">
        <ele>499.35979856778</ele>
        <time>2016-09-24T09:56:54Z</time>
      </trkpt>
      <trkpt lat="43.4832" lon="2.65773">
        <ele>499.35979856778</ele>
        <time>2016-09-24T09:56:59Z</time>
      </trkpt>
      <trkpt lat="43.48322" lon="2.65774">
        <ele>499.35979856778</ele>
        <time>2016-09-24T09:57:04Z</time>
      </trkpt>
      <trkpt lat="43.48325" lon="2.65776">
        <ele>502.53649191461</ele>
        <time>2016-09-24T09:57:09Z</time>
      </trkpt>
      <trkpt lat="43.48327" lon="2.65777">
        <ele>502.53649191461</ele>
        <time>2016-09-24T09:57:14Z</time>
      </trkpt>
      <trkpt lat="43.48324" lon="2.65777">
        <ele>502.53649191461</ele>
        <time>2016-09-24T09:57:19Z</time>
      </trkpt>
      <trkpt lat="43.48322" lon="2.65779">
        <ele>502.53649191461</ele>
        <time>2016-09-24T09:57:24Z</time>
      </trkpt>
      <trkpt lat="43.48322" lon="2.6578">
        <ele>502.53649191461</ele>
        <time>2016-09-24T09:57:29Z</time>
      </trkpt>
      <trkpt lat="43.4832" lon="2.65781">
        <ele>502.53649191461</ele>
        <time>2016-09-24T09:57:34Z</time>
      </trkpt>
      <trkpt lat="43.48321" lon="2.65781">
        <ele>502.53649191461</ele>
        <time>2016-09-24T09:57:39Z</time>
      </trkpt>
      <trkpt lat="43.48321" lon="2.65781">
        <ele>505.94943993975</ele>
        <time>2016-09-24T09:57:44Z</time>
      </trkpt>
      <trkpt lat="43.48322" lon="2.65783">
        <ele>505.94943993975</ele>
        <time>2016-09-24T09:57:49Z</time>
      </trkpt>
      <trkpt lat="43.48322" lon="2.65783">
        <ele>505.94943993975</ele>
        <time>2016-09-24T09:57:54Z</time>
      </trkpt>
      <trkpt lat="43.48322" lon="2.65783">
        <ele>505.94943993975</ele>
        <time>2016-09-24T09:57:59Z</time>
      </trkpt>
      <trkpt lat="43.48323" lon="2.65782">
        <ele>505.94943993975</ele>
        <time>2016-09-24T09:58:04Z</time>
      </trkpt>
      <trkpt lat="43.48325" lon="2.65783">
        <ele>505.94943993975</ele>
        <time>2016-09-24T09:58:09Z</time>
      </trkpt>
      <trkpt lat="43.48326" lon="2.65783">
        <ele>505.94943993975</ele>
        <time>2016-09-24T09:58:14Z</time>
      </trkpt>
      <trkpt lat="43.48326" lon="2.65783">
        <ele>505.94943993975</ele>
        <time>2016-09-24T09:58:19Z</time>
      </trkpt>
      <trkpt lat="43.48326" lon="2.65783">
        <ele>505.94943993975</ele>
        <time>2016-09-24T09:58:24Z</time>
      </trkpt>
      <trkpt lat="43.48326" lon="2.65783">
        <ele>505.94943993975</ele>
        <time>2016-09-24T09:58:29Z</time>
      </trkpt>
      <trkpt lat="43.48327" lon="2.65782">
        <ele>505.94943993975</ele>
        <time>2016-09-24T09:58:34Z</time>
      </trkpt>
      <trkpt lat="43.48327" lon="2.65782">
        <ele>505.94943993975</ele>
        <time>2016-09-24T09:58:39Z</time>
      </trkpt>
      <trkpt lat="43.48327" lon="2.65785">
        <ele>510.13485686259</ele>
        <time>2016-09-24T09:58:44Z</time>
      </trkpt>
      <trkpt lat="43.48326" lon="2.65783">
        <ele>510.13485686259</ele>
        <time>2016-09-24T09:58:49Z</time>
      </trkpt>
      <trkpt lat="43.48326" lon="2.65783">
        <ele>510.13485686259</ele>
        <time>2016-09-24T09:58:54Z</time>
      </trkpt>
      <trkpt lat="43.48326" lon="2.65783">
        <ele>510.13485686259</ele>
        <time>2016-09-24T09:58:59Z</time>
      </trkpt>
      <trkpt lat="43.48327" lon="2.65783">
        <ele>510.13485686259</ele>
        <time>2016-09-24T09:59:04Z</time>
      </trkpt>
      <trkpt lat="43.48332" lon="2.65782">
        <ele>510.13485686259</ele>
        <time>2016-09-24T09:59:09Z</time>
      </trkpt>
      <trkpt lat="43.48336" lon="2.65783">
        <ele>514.62194985349</ele>
        <time>2016-09-24T09:59:14Z</time>
      </trkpt>
      <trkpt lat="43.4834" lon="2.65784">
        <ele>514.62194985349</ele>
        <time>2016-09-24T09:59:19Z</time>
      </trkpt>
      <trkpt lat="43.48344" lon="2.65788">
        <ele>514.62194985349</ele>
        <time>2016-09-24T09:59:24Z</time>
      </trkpt>
      <trkpt lat="43.48348" lon="2.65792">
        <ele>519.30523741413</ele>
        <time>2016-09-24T09:59:29Z</time>
      </trkpt>
      <trkpt lat="43.48354" lon="2.65795">
        <ele>519.30523741413</ele>
        <time>2016-09-24T09:59:34Z</time>
      </trkpt>
      <trkpt lat="43.48359" lon="2.65798">
        <ele>523.94246645111</ele>
        <time>2016-09-24T09:59:39Z</time>
      </trkpt>
      <trkpt lat="43.48363" lon="2.65801">
        <ele>523.94246645111</ele>
        <time>2016-09-24T09:59:44Z</time>
      </trkpt>
      <trkpt lat="43.48366" lon="2.65805">
        <ele>528.48240676602</ele>
        <time>2016-09-24T09:59:49Z</time>
      </trkpt>
      <trkpt lat="43.48371" lon="2.65806">
        <ele>528.48240676602</ele>
        <time>2016-09-24T09:59:54Z</time>
      </trkpt>
      <trkpt lat="43.48374" lon="2.65808">
        <ele>528.48240676602</ele>
        <time>2016-09-24T09:59:59Z</time>
      </trkpt>
      <trkpt lat="43.48379" lon="2.65813">
        <ele>533.1086284401</ele>
        <time>2016-09-24T10:00:04Z</time>
      </trkpt>
      <trkpt lat="43.48382" lon="2.65815">
        <ele>533.1086284401</ele>
        <time>2016-09-24T10:00:09Z</time>
      </trkpt>
      <trkpt lat="43.48386" lon="2.65819">
        <ele>533.1086284401</ele>
        <time>2016-09-24T10:00:14Z</time>
      </trkpt>
      <trkpt lat="43.48391" lon="2.65823">
        <ele>537.73178011316</ele>
        <time>2016-09-24T10:00:19Z</time>
      </trkpt>
      <trkpt lat="43.48394" lon="2.65826">
        <ele>537.73178011316</ele>
        <time>2016-09-24T10:00:24Z</time>
      </trkpt>
      <trkpt lat="43.48395" lon="2.6583">
        <ele>537.73178011316</ele>
        <time>2016-09-24T10:00:29Z</time>
      </trkpt>
      <trkpt lat="43.48404" lon="2.65835">
        <ele>542.28371669336</ele>
        <time>2016-09-24T10:00:34Z</time>
      </trkpt>
      <trkpt lat="43.48407" lon="2.65838">
        <ele>542.28371669336</ele>
        <time>2016-09-24T10:00:39Z</time>
      </trkpt>
      <trkpt lat="43.4841" lon="2.6584">
        <ele>542.28371669336</ele>
        <time>2016-09-24T10:00:44Z</time>
      </trkpt>
      <trkpt lat="43.48413" lon="2.65842">
        <ele>546.77379222384</ele>
        <time>2016-09-24T10:00:49Z</time>
      </trkpt>
      <trkpt lat="43.48416" lon="2.65845">
        <ele>546.77379222384</ele>
        <time>2016-09-24T10:00:54Z</time>
      </trkpt>
      <trkpt lat="43.48419" lon="2.65849">
        <ele>546.77379222384</ele>
        <time>2016-09-24T10:00:59Z</time>
      </trkpt>
      <trkpt lat="43.48422" lon="2.65851">
        <ele>551.11021998243</ele>
        <time>2016-09-24T10:01:04Z</time>
      </trkpt>
      <trkpt lat="43.48423" lon="2.65855">
        <ele>551.11021998243</ele>
        <time>2016-09-24T10:01:09Z</time>
      </trkpt>
      <trkpt lat="43.48424" lon="2.65859">
        <ele>551.11021998243</ele>
        <time>2016-09-24T10:01:14Z</time>
      </trkpt>
      <trkpt lat="43.48425" lon="2.65867">
        <ele>555.28070339158</ele>
        <time>2016-09-24T10:01:19Z</time>
      </trkpt>
      <trkpt lat="43.48427" lon="2.65875">
        <ele>555.28070339158</ele>
        <time>2016-09-24T10:01:24Z</time>
      </trkpt>
      <trkpt lat="43.48431" lon="2.65875">
        <ele>559.1448829966</ele>
        <time>2016-09-24T10:01:29Z</time>
      </trkpt>
      <trkpt lat="43.48439" lon="2.65875">
        <ele>559.1448829966</ele>
        <time>2016-09-24T10:01:34Z</time>
      </trkpt>
      <trkpt lat="43.48447" lon="2.6588">
        <ele>562.68913096095</ele>
        <time>2016-09-24T10:01:39Z</time>
      </trkpt>
      <trkpt lat="43.48456" lon="2.65885">
        <ele>565.87316945715</ele>
        <time>2016-09-24T10:01:44Z</time>
      </trkpt>
      <trkpt lat="43.48463" lon="2.65892">
        <ele>565.87316945715</ele>
        <time>2016-09-24T10:01:49Z</time>
      </trkpt>
      <trkpt lat="43.48466" lon="2.65894">
        <ele>568.74742782428</ele>
        <time>2016-09-24T10:01:54Z</time>
      </trkpt>
      <trkpt lat="43.48469" lon="2.65898">
        <ele>568.74742782428</ele>
        <time>2016-09-24T10:01:59Z</time>
      </trkpt>
      <trkpt lat="43.48475" lon="2.65904">
        <ele>571.31653192003</ele>
        <time>2016-09-24T10:02:04Z</time>
      </trkpt>
      <trkpt lat="43.48482" lon="2.65911">
        <ele>571.31653192003</ele>
        <time>2016-09-24T10:02:09Z</time>
      </trkpt>
      <trkpt lat="43.4849" lon="2.65916">
        <ele>573.60029141981</ele>
        <time>2016-09-24T10:02:14Z</time>
      </trkpt>
      <trkpt lat="43.48498" lon="2.65922">
        <ele>575.56046160136</ele>
        <time>2016-09-24T10:02:19Z</time>
      </trkpt>
      <trkpt lat="43.485" lon="2.65924">
        <ele>575.56046160136</ele>
        <time>2016-09-24T10:02:24Z</time>
      </trkpt>
      <trkpt lat="43.48506" lon="2.6593">
        <ele>577.26362354336</ele>
        <time>2016-09-24T10:02:29Z</time>
      </trkpt>
      <trkpt lat="43.4851" lon="2.65934">
        <ele>577.26362354336</ele>
        <time>2016-09-24T10:02:34Z</time>
      </trkpt>
      <trkpt lat="43.48515" lon="2.6594">
        <ele>578.714758545</ele>
        <time>2016-09-24T10:02:39Z</time>
      </trkpt>
      <trkpt lat="43.48516" lon="2.65943">
        <ele>578.714758545</ele>
        <time>2016-09-24T10:02:44Z</time>
      </trkpt>
      <trkpt lat="43.4852" lon="2.65951">
        <ele>579.90497473238</ele>
        <time>2016-09-24T10:02:49Z</time>
      </trkpt>
      <trkpt lat="43.48528" lon="2.65959">
        <ele>580.84135400217</ele>
        <time>2016-09-24T10:02:54Z</time>
      </trkpt>
      <trkpt lat="43.48533" lon="2.65969">
        <ele>580.84135400217</ele>
        <time>2016-09-24T10:02:59Z</time>
      </trkpt>
      <trkpt lat="43.48536" lon="2.65972">
        <ele>581.56014932955</ele>
        <time>2016-09-24T10:03:04Z</time>
      </trkpt>
      <trkpt lat="43.48543" lon="2.65977">
        <ele>581.56014932955</ele>
        <time>2016-09-24T10:03:09Z</time>
      </trkpt>
      <trkpt lat="43.4855" lon="2.65985">
        <ele>582.08128537892</ele>
        <time>2016-09-24T10:03:14Z</time>
      </trkpt>
      <trkpt lat="43.48556" lon="2.6599">
        <ele>582.08128537892</ele>
        <time>2016-09-24T10:03:19Z</time>
      </trkpt>
      <trkpt lat="43.48562" lon="2.65998">
        <ele>582.40947994526</ele>
        <time>2016-09-24T10:03:24Z</time>
      </trkpt>
      <trkpt lat="43.48569" lon="2.66003">
        <ele>582.40947994526</ele>
        <time>2016-09-24T10:03:29Z</time>
      </trkpt>
      <trkpt lat="43.48574" lon="2.66005">
        <ele>582.56414750693</ele>
        <time>2016-09-24T10:03:34Z</time>
      </trkpt>
      <trkpt lat="43.4858" lon="2.66007">
        <ele>582.56414750693</ele>
        <time>2016-09-24T10:03:39Z</time>
      </trkpt>
      <trkpt lat="43.48584" lon="2.6601">
        <ele>582.56383135704</ele>
        <time>2016-09-24T10:03:44Z</time>
      </trkpt>
      <trkpt lat="43.48589" lon="2.66014">
        <ele>582.56383135704</ele>
        <time>2016-09-24T10:03:49Z</time>
      </trkpt>
      <trkpt lat="43.48591" lon="2.66018">
        <ele>582.426192968</ele>
        <time>2016-09-24T10:03:54Z</time>
      </trkpt>
      <trkpt lat="43.48595" lon="2.66027">
        <ele>582.426192968</ele>
        <time>2016-09-24T10:03:59Z</time>
      </trkpt>
      <trkpt lat="43.48596" lon="2.6603">
        <ele>582.15359373518</ele>
        <time>2016-09-24T10:04:04Z</time>
      </trkpt>
      <trkpt lat="43.48598" lon="2.66032">
        <ele>582.15359373518</ele>
        <time>2016-09-24T10:04:09Z</time>
      </trkpt>
      <trkpt lat="43.486" lon="2.66033">
        <ele>582.15359373518</ele>
        <time>2016-09-24T10:04:14Z</time>
      </trkpt>
      <trkpt lat="43.486" lon="2.66039">
        <ele>582.15359373518</ele>
        <time>2016-09-24T10:04:19Z</time>
      </trkpt>
      <trkpt lat="43.48601" lon="2.66047">
        <ele>581.74860142898</ele>
        <time>2016-09-24T10:04:24Z</time>
      </trkpt>
      <trkpt lat="43.48602" lon="2.66056">
        <ele>581.74860142898</ele>
        <time>2016-09-24T10:04:29Z</time>
      </trkpt>
      <trkpt lat="43.48606" lon="2.66071">
        <ele>581.1995352217</ele>
        <time>2016-09-24T10:04:34Z</time>
      </trkpt>
      <trkpt lat="43.48611" lon="2.66082">
        <ele>580.55357985022</ele>
        <time>2016-09-24T10:04:39Z</time>
      </trkpt>
      <trkpt lat="43.48611" lon="2.66092">
        <ele>580.55357985022</ele>
        <time>2016-09-24T10:04:44Z</time>
      </trkpt>
      <trkpt lat="43.48613" lon="2.661">
        <ele>579.78260871265</ele>
        <time>2016-09-24T10:04:49Z</time>
      </trkpt>
      <trkpt lat="43.48614" lon="2.66104">
        <ele>579.78260871265</ele>
        <time>2016-09-24T10:04:54Z</time>
      </trkpt>
      <trkpt lat="43.48614" lon="2.66114">
        <ele>578.91847562617</ele>
        <time>2016-09-24T10:04:59Z</time>
      </trkpt>
      <trkpt lat="43.48615" lon="2.6612">
        <ele>578.91847562617</ele>
        <time>2016-09-24T10:05:04Z</time>
      </trkpt>
      <trkpt lat="43.48616" lon="2.66132">
        <ele>577.97644506292</ele>
        <time>2016-09-24T10:05:09Z</time>
      </trkpt>
      <trkpt lat="43.48617" lon="2.66141">
        <ele>577.97644506292</ele>
        <time>2016-09-24T10:05:14Z</time>
      </trkpt>
      <trkpt lat="43.48618" lon="2.66147">
        <ele>576.98517247481</ele>
        <time>2016-09-24T10:05:19Z</time>
      </trkpt>
      <trkpt lat="43.48624" lon="2.66157">
        <ele>575.95680130972</ele>
        <time>2016-09-24T10:05:24Z</time>
      </trkpt>
      <trkpt lat="43.48623" lon="2.66166">
        <ele>575.95680130972</ele>
        <time>2016-09-24T10:05:29Z</time>
      </trkpt>
      <trkpt lat="43.48624" lon="2.66178">
        <ele>574.88812641149</ele>
        <time>2016-09-24T10:05:34Z</time>
      </trkpt>
      <trkpt lat="43.48627" lon="2.66185">
        <ele>574.88812641149</ele>
        <time>2016-09-24T10:05:39Z</time>
      </trkpt>
      <trkpt lat="43.48626" lon="2.66189">
        <ele>574.88812641149</ele>
        <time>2016-09-24T10:05:44Z</time>
      </trkpt>
      <trkpt lat="43.48626" lon="2.66196">
        <ele>573.79053849728</ele>
        <time>2016-09-24T10:05:49Z</time>
      </trkpt>
      <trkpt lat="43.48627" lon="2.66204">
        <ele>573.79053849728</ele>
        <time>2016-09-24T10:05:54Z</time>
      </trkpt>
      <trkpt lat="43.48629" lon="2.66212">
        <ele>572.68890706451</ele>
        <time>2016-09-24T10:05:59Z</time>
      </trkpt>
      <trkpt lat="43.4863" lon="2.66222">
        <ele>572.68890706451</ele>
        <time>2016-09-24T10:06:04Z</time>
      </trkpt>
      <trkpt lat="43.4863" lon="2.66226">
        <ele>571.57727550494</ele>
        <time>2016-09-24T10:06:09Z</time>
      </trkpt>
      <trkpt lat="43.4863" lon="2.66233">
        <ele>571.57727550494</ele>
        <time>2016-09-24T10:06:14Z</time>
      </trkpt>
      <trkpt lat="43.48629" lon="2.6624">
        <ele>570.47877646762</ele>
        <time>2016-09-24T10:06:19Z</time>
      </trkpt>
      <trkpt lat="43.48629" lon="2.66245">
        <ele>570.47877646762</ele>
        <time>2016-09-24T10:06:24Z</time>
      </trkpt>
      <trkpt lat="43.48632" lon="2.66255">
        <ele>569.40018782325</ele>
        <time>2016-09-24T10:06:29Z</time>
      </trkpt>
      <trkpt lat="43.48635" lon="2.66265">
        <ele>569.40018782325</ele>
        <time>2016-09-24T10:06:34Z</time>
      </trkpt>
      <trkpt lat="43.48638" lon="2.66279">
        <ele>568.34751864828</ele>
        <time>2016-09-24T10:06:39Z</time>
      </trkpt>
      <trkpt lat="43.4864" lon="2.66283">
        <ele>568.34751864828</ele>
        <time>2016-09-24T10:06:44Z</time>
      </trkpt>
      <trkpt lat="43.48642" lon="2.66283">
        <ele>568.34751864828</ele>
        <time>2016-09-24T10:06:49Z</time>
      </trkpt>
      <trkpt lat="43.48643" lon="2.66283">
        <ele>568.34751864828</ele>
        <time>2016-09-24T10:06:54Z</time>
      </trkpt>
      <trkpt lat="43.48646" lon="2.66279">
        <ele>567.31163153761</ele>
        <time>2016-09-24T10:06:59Z</time>
      </trkpt>
      <trkpt lat="43.48649" lon="2.66278">
        <ele>567.31163153761</ele>
        <time>2016-09-24T10:07:04Z</time>
      </trkpt>
      <trkpt lat="43.48651" lon="2.66276">
        <ele>567.31163153761</ele>
        <time>2016-09-24T10:07:09Z</time>
      </trkpt>
      <trkpt lat="43.4865" lon="2.66274">
        <ele>567.31163153761</ele>
        <time>2016-09-24T10:07:14Z</time>
      </trkpt>
      <trkpt lat="43.48651" lon="2.66273">
        <ele>567.31163153761</ele>
        <time>2016-09-24T10:07:19Z</time>
      </trkpt>
      <trkpt lat="43.48653" lon="2.6627">
        <ele>566.31260938959</ele>
        <time>2016-09-24T10:07:24Z</time>
      </trkpt>
      <trkpt lat="43.48654" lon="2.66268">
        <ele>566.31260938959</ele>
        <time>2016-09-24T10:07:29Z</time>
      </trkpt>
      <trkpt lat="43.48655" lon="2.66266">
        <ele>566.31260938959</ele>
        <time>2016-09-24T10:07:34Z</time>
      </trkpt>
      <trkpt lat="43.48654" lon="2.66264">
        <ele>566.31260938959</ele>
        <time>2016-09-24T10:07:39Z</time>
      </trkpt>
      <trkpt lat="43.48659" lon="2.6626">
        <ele>565.39754907424</ele>
        <time>2016-09-24T10:07:44Z</time>
      </trkpt>
      <trkpt lat="43.48663" lon="2.66256">
        <ele>565.39754907424</ele>
        <time>2016-09-24T10:07:49Z</time>
      </trkpt>
      <trkpt lat="43.48666" lon="2.66251">
        <ele>564.55197603369</ele>
        <time>2016-09-24T10:07:54Z</time>
      </trkpt>
      <trkpt lat="43.48669" lon="2.66248">
        <ele>564.55197603369</ele>
        <time>2016-09-24T10:07:59Z</time>
      </trkpt>
      <trkpt lat="43.48674" lon="2.66242">
        <ele>563.79087381412</ele>
        <time>2016-09-24T10:08:04Z</time>
      </trkpt>
      <trkpt lat="43.48679" lon="2.66235">
        <ele>563.79087381412</ele>
        <time>2016-09-24T10:08:09Z</time>
      </trkpt>
      <trkpt lat="43.4868" lon="2.66234">
        <ele>563.79087381412</ele>
        <time>2016-09-24T10:08:14Z</time>
      </trkpt>
      <trkpt lat="43.48684" lon="2.66226">
        <ele>563.14206759806</ele>
        <time>2016-09-24T10:08:19Z</time>
      </trkpt>
      <trkpt lat="43.48689" lon="2.66222">
        <ele>563.14206759806</ele>
        <time>2016-09-24T10:08:24Z</time>
      </trkpt>
      <trkpt lat="43.48689" lon="2.66219">
        <ele>563.14206759806</ele>
        <time>2016-09-24T10:08:29Z</time>
      </trkpt>
      <trkpt lat="43.48692" lon="2.66213">
        <ele>562.58756039054</ele>
        <time>2016-09-24T10:08:34Z</time>
      </trkpt>
      <trkpt lat="43.48695" lon="2.66205">
        <ele>562.58756039054</ele>
        <time>2016-09-24T10:08:39Z</time>
      </trkpt>
      <trkpt lat="43.48697" lon="2.66199">
        <ele>562.12459741098</ele>
        <time>2016-09-24T10:08:44Z</time>
      </trkpt>
      <trkpt lat="43.48702" lon="2.66193">
        <ele>562.12459741098</ele>
        <time>2016-09-24T10:08:49Z</time>
      </trkpt>
      <trkpt lat="43.48706" lon="2.6619">
        <ele>561.76455876796</ele>
        <time>2016-09-24T10:08:54Z</time>
      </trkpt>
      <trkpt lat="43.48711" lon="2.66185">
        <ele>561.76455876796</ele>
        <time>2016-09-24T10:08:59Z</time>
      </trkpt>
      <trkpt lat="43.48713" lon="2.66185">
        <ele>561.76455876796</ele>
        <time>2016-09-24T10:09:04Z</time>
      </trkpt>
      <trkpt lat="43.48719" lon="2.66186">
        <ele>561.51748388966</ele>
        <time>2016-09-24T10:09:09Z</time>
      </trkpt>
      <trkpt lat="43.48723" lon="2.66189">
        <ele>561.51748388966</ele>
        <time>2016-09-24T10:09:14Z</time>
      </trkpt>
      <trkpt lat="43.48728" lon="2.66188">
        <ele>561.51748388966</ele>
        <time>2016-09-24T10:09:19Z</time>
      </trkpt>
      <trkpt lat="43.48733" lon="2.66187">
        <ele>561.37773761231</ele>
        <time>2016-09-24T10:09:24Z</time>
      </trkpt>
      <trkpt lat="43.48736" lon="2.66182">
        <ele>561.37773761231</ele>
        <time>2016-09-24T10:09:29Z</time>
      </trkpt>
      <trkpt lat="43.48739" lon="2.66178">
        <ele>561.31077414166</ele>
        <time>2016-09-24T10:09:34Z</time>
      </trkpt>
      <trkpt lat="43.48743" lon="2.66173">
        <ele>561.31077414166</ele>
        <time>2016-09-24T10:09:39Z</time>
      </trkpt>
      <trkpt lat="43.48746" lon="2.66171">
        <ele>561.31077414166</ele>
        <time>2016-09-24T10:09:44Z</time>
      </trkpt>
      <trkpt lat="43.48749" lon="2.66169">
        <ele>561.37065539511</ele>
        <time>2016-09-24T10:09:49Z</time>
      </trkpt>
      <trkpt lat="43.48754" lon="2.66162">
        <ele>561.37065539511</ele>
        <time>2016-09-24T10:09:54Z</time>
      </trkpt>
      <trkpt lat="43.48758" lon="2.66162">
        <ele>561.50605522998</ele>
        <time>2016-09-24T10:09:59Z</time>
      </trkpt>
      <trkpt lat="43.48763" lon="2.66163">
        <ele>561.50605522998</ele>
        <time>2016-09-24T10:10:04Z</time>
      </trkpt>
      <trkpt lat="43.48767" lon="2.66166">
        <ele>561.71226642235</ele>
        <time>2016-09-24T10:10:09Z</time>
      </trkpt>
      <trkpt lat="43.48767" lon="2.66171">
        <ele>561.71226642235</ele>
        <time>2016-09-24T10:10:14Z</time>
      </trkpt>
      <trkpt lat="43.48767" lon="2.6617">
        <ele>561.71226642235</ele>
        <time>2016-09-24T10:10:19Z</time>
      </trkpt>
      <trkpt lat="43.48767" lon="2.66175">
        <ele>561.71226642235</ele>
        <time>2016-09-24T10:10:24Z</time>
      </trkpt>
      <trkpt lat="43.48765" lon="2.6618">
        <ele>562.11426675328</ele>
        <time>2016-09-24T10:10:29Z</time>
      </trkpt>
      <trkpt lat="43.48766" lon="2.66185">
        <ele>562.11426675328</ele>
        <time>2016-09-24T10:10:34Z</time>
      </trkpt>
      <trkpt lat="43.48767" lon="2.66193">
        <ele>562.61098636966</ele>
        <time>2016-09-24T10:10:39Z</time>
      </trkpt>
      <trkpt lat="43.48773" lon="2.66204">
        <ele>563.13719738495</ele>
        <time>2016-09-24T10:10:44Z</time>
      </trkpt>
      <trkpt lat="43.48776" lon="2.66208">
        <ele>563.13719738495</ele>
        <time>2016-09-24T10:10:49Z</time>
      </trkpt>
      <trkpt lat="43.48777" lon="2.66217">
        <ele>563.74754278462</ele>
        <time>2016-09-24T10:10:54Z</time>
      </trkpt>
      <trkpt lat="43.48779" lon="2.66221">
        <ele>563.74754278462</ele>
        <time>2016-09-24T10:10:59Z</time>
      </trkpt>
      <trkpt lat="43.4878" lon="2.66227">
        <ele>563.74754278462</ele>
        <time>2016-09-24T10:11:04Z</time>
      </trkpt>
      <trkpt lat="43.48781" lon="2.66232">
        <ele>564.47788988907</ele>
        <time>2016-09-24T10:11:09Z</time>
      </trkpt>
      <trkpt lat="43.48783" lon="2.66235">
        <ele>564.47788988907</ele>
        <time>2016-09-24T10:11:14Z</time>
      </trkpt>
      <trkpt lat="43.48782" lon="2.66236">
        <ele>564.47788988907</ele>
        <time>2016-09-24T10:11:19Z</time>
      </trkpt>
      <trkpt lat="43.48782" lon="2.66243">
        <ele>564.47788988907</ele>
        <time>2016-09-24T10:11:24Z</time>
      </trkpt>
      <trkpt lat="43.48782" lon="2.66251">
        <ele>565.34662159046</ele>
        <time>2016-09-24T10:11:29Z</time>
      </trkpt>
      <trkpt lat="43.48784" lon="2.66259">
        <ele>565.34662159046</ele>
        <time>2016-09-24T10:11:34Z</time>
      </trkpt>
      <trkpt lat="43.48786" lon="2.66264">
        <ele>566.26941516632</ele>
        <time>2016-09-24T10:11:39Z</time>
      </trkpt>
      <trkpt lat="43.48788" lon="2.66269">
        <ele>566.26941516632</ele>
        <time>2016-09-24T10:11:44Z</time>
      </trkpt>
      <trkpt lat="43.48789" lon="2.66275">
        <ele>566.26941516632</ele>
        <time>2016-09-24T10:11:49Z</time>
      </trkpt>
      <trkpt lat="43.48794" lon="2.66276">
        <ele>567.26879199044</ele>
        <time>2016-09-24T10:11:54Z</time>
      </trkpt>
      <trkpt lat="43.48798" lon="2.66281">
        <ele>567.26879199044</ele>
        <time>2016-09-24T10:11:59Z</time>
      </trkpt>
      <trkpt lat="43.48802" lon="2.66289">
        <ele>568.30769617365</ele>
        <time>2016-09-24T10:12:04Z</time>
      </trkpt>
      <trkpt lat="43.48804" lon="2.66293">
        <ele>568.30769617365</ele>
        <time>2016-09-24T10:12:09Z</time>
      </trkpt>
      <trkpt lat="43.48802" lon="2.66299">
        <ele>568.30769617365</ele>
        <time>2016-09-24T10:12:14Z</time>
      </trkpt>
      <trkpt lat="43.48804" lon="2.66302">
        <ele>569.42368774072</ele>
        <time>2016-09-24T10:12:19Z</time>
      </trkpt>
      <trkpt lat="43.48809" lon="2.66306">
        <ele>569.42368774072</ele>
        <time>2016-09-24T10:12:24Z</time>
      </trkpt>
      <trkpt lat="43.48814" lon="2.6631">
        <ele>570.56484604566</ele>
        <time>2016-09-24T10:12:29Z</time>
      </trkpt>
      <trkpt lat="43.48816" lon="2.66311">
        <ele>570.56484604566</ele>
        <time>2016-09-24T10:12:34Z</time>
      </trkpt>
      <trkpt lat="43.48819" lon="2.66311">
        <ele>570.56484604566</ele>
        <time>2016-09-24T10:12:39Z</time>
      </trkpt>
      <trkpt lat="43.48823" lon="2.66312">
        <ele>571.78384513378</ele>
        <time>2016-09-24T10:12:44Z</time>
      </trkpt>
      <trkpt lat="43.48828" lon="2.6631">
        <ele>571.78384513378</ele>
        <time>2016-09-24T10:12:49Z</time>
      </trkpt>
      <trkpt lat="43.48828" lon="2.6631">
        <ele>571.78384513378</ele>
        <time>2016-09-24T10:12:54Z</time>
      </trkpt>
      <trkpt lat="43.48834" lon="2.66311">
        <ele>573.07161187202</ele>
        <time>2016-09-24T10:12:59Z</time>
      </trkpt>
      <trkpt lat="43.48838" lon="2.66314">
        <ele>573.07161187202</ele>
        <time>2016-09-24T10:13:04Z</time>
      </trkpt>
      <trkpt lat="43.4884" lon="2.66315">
        <ele>573.07161187202</ele>
        <time>2016-09-24T10:13:09Z</time>
      </trkpt>
      <trkpt lat="43.4884" lon="2.66314">
        <ele>573.07161187202</ele>
        <time>2016-09-24T10:13:14Z</time>
      </trkpt>
      <trkpt lat="43.48842" lon="2.66314">
        <ele>573.07161187202</ele>
        <time>2016-09-24T10:13:19Z</time>
      </trkpt>
      <trkpt lat="43.48847" lon="2.66315">
        <ele>574.47718766017</ele>
        <time>2016-09-24T10:13:24Z</time>
      </trkpt>
      <trkpt lat="43.48851" lon="2.66315">
        <ele>574.47718766017</ele>
        <time>2016-09-24T10:13:29Z</time>
      </trkpt>
      <trkpt lat="43.48855" lon="2.66316">
        <ele>574.47718766017</ele>
        <time>2016-09-24T10:13:34Z</time>
      </trkpt>
      <trkpt lat="43.48856" lon="2.66318">
        <ele>575.91598838002</ele>
        <time>2016-09-24T10:13:39Z</time>
      </trkpt>
      <trkpt lat="43.48859" lon="2.6632">
        <ele>575.91598838002</ele>
        <time>2016-09-24T10:13:44Z</time>
      </trkpt>
      <trkpt lat="43.4886" lon="2.66323">
        <ele>575.91598838002</ele>
        <time>2016-09-24T10:13:49Z</time>
      </trkpt>
      <trkpt lat="43.48863" lon="2.66326">
        <ele>577.36721302993</ele>
        <time>2016-09-24T10:13:54Z</time>
      </trkpt>
      <trkpt lat="43.48869" lon="2.66328">
        <ele>577.36721302993</ele>
        <time>2016-09-24T10:13:59Z</time>
      </trkpt>
      <trkpt lat="43.48872" lon="2.6633">
        <ele>577.36721302993</ele>
        <time>2016-09-24T10:14:04Z</time>
      </trkpt>
      <trkpt lat="43.48871" lon="2.66328">
        <ele>578.78276016375</ele>
        <time>2016-09-24T10:14:09Z</time>
      </trkpt>
      <trkpt lat="43.48872" lon="2.66327">
        <ele>578.78276016375</ele>
        <time>2016-09-24T10:14:14Z</time>
      </trkpt>
      <trkpt lat="43.48875" lon="2.66325">
        <ele>578.78276016375</ele>
        <time>2016-09-24T10:14:19Z</time>
      </trkpt>
      <trkpt lat="43.48878" lon="2.66324">
        <ele>578.78276016375</ele>
        <time>2016-09-24T10:14:24Z</time>
      </trkpt>
      <trkpt lat="43.48881" lon="2.66321">
        <ele>580.24790026498</ele>
        <time>2016-09-24T10:14:29Z</time>
      </trkpt>
      <trkpt lat="43.48883" lon="2.66321">
        <ele>580.24790026498</ele>
        <time>2016-09-24T10:14:34Z</time>
      </trkpt>
      <trkpt lat="43.48884" lon="2.66323">
        <ele>580.24790026498</ele>
        <time>2016-09-24T10:14:39Z</time>
      </trkpt>
      <trkpt lat="43.48887" lon="2.66319">
        <ele>580.24790026498</ele>
        <time>2016-09-24T10:14:44Z</time>
      </trkpt>
      <trkpt lat="43.48892" lon="2.66313">
        <ele>581.84154817483</ele>
        <time>2016-09-24T10:14:49Z</time>
      </trkpt>
      <trkpt lat="43.48896" lon="2.66311">
        <ele>581.84154817483</ele>
        <time>2016-09-24T10:14:54Z</time>
      </trkpt>
      <trkpt lat="43.48899" lon="2.66309">
        <ele>581.84154817483</ele>
        <time>2016-09-24T10:14:59Z</time>
      </trkpt>
      <trkpt lat="43.489" lon="2.66308">
        <ele>581.84154817483</ele>
        <time>2016-09-24T10:15:04Z</time>
      </trkpt>
      <trkpt lat="43.48903" lon="2.66306">
        <ele>583.63651743693</ele>
        <time>2016-09-24T10:15:09Z</time>
      </trkpt>
      <trkpt lat="43.48906" lon="2.66304">
        <ele>583.63651743693</ele>
        <time>2016-09-24T10:15:14Z</time>
      </trkpt>
      <trkpt lat="43.48911" lon="2.66301">
        <ele>583.63651743693</ele>
        <time>2016-09-24T10:15:19Z</time>
      </trkpt>
      <trkpt lat="43.48917" lon="2.66301">
        <ele>585.51242843866</ele>
        <time>2016-09-24T10:15:24Z</time>
      </trkpt>
      <trkpt lat="43.48922" lon="2.663">
        <ele>585.51242843866</ele>
        <time>2016-09-24T10:15:29Z</time>
      </trkpt>
      <trkpt lat="43.48923" lon="2.66295">
        <ele>585.51242843866</ele>
        <time>2016-09-24T10:15:34Z</time>
      </trkpt>
      <trkpt lat="43.48925" lon="2.66289">
        <ele>587.42964684675</ele>
        <time>2016-09-24T10:15:39Z</time>
      </trkpt>
      <trkpt lat="43.48929" lon="2.66286">
        <ele>587.42964684675</ele>
        <time>2016-09-24T10:15:44Z</time>
      </trkpt>
      <trkpt lat="43.48932" lon="2.66283">
        <ele>587.42964684675</ele>
        <time>2016-09-24T10:15:49Z</time>
      </trkpt>
      <trkpt lat="43.48935" lon="2.66281">
        <ele>589.42347211065</ele>
        <time>2016-09-24T10:15:54Z</time>
      </trkpt>
      <trkpt lat="43.48941" lon="2.66283">
        <ele>589.42347211065</ele>
        <time>2016-09-24T10:15:59Z</time>
      </trkpt>
      <trkpt lat="43.48944" lon="2.66283">
        <ele>591.38237555359</ele>
        <time>2016-09-24T10:16:04Z</time>
      </trkpt>
      <trkpt lat="43.48947" lon="2.66286">
        <ele>591.38237555359</ele>
        <time>2016-09-24T10:16:09Z</time>
      </trkpt>
      <trkpt lat="43.48951" lon="2.66286">
        <ele>591.38237555359</ele>
        <time>2016-09-24T10:16:14Z</time>
      </trkpt>
      <trkpt lat="43.48956" lon="2.66283">
        <ele>593.3761516186</ele>
        <time>2016-09-24T10:16:19Z</time>
      </trkpt>
      <trkpt lat="43.4896" lon="2.66279">
        <ele>593.3761516186</ele>
        <time>2016-09-24T10:16:24Z</time>
      </trkpt>
      <trkpt lat="43.48967" lon="2.66278">
        <ele>595.32536472394</ele>
        <time>2016-09-24T10:16:29Z</time>
      </trkpt>
      <trkpt lat="43.48974" lon="2.66275">
        <ele>595.32536472394</ele>
        <time>2016-09-24T10:16:34Z</time>
      </trkpt>
      <trkpt lat="43.48984" lon="2.66282">
        <ele>597.27194083753</ele>
        <time>2016-09-24T10:16:39Z</time>
      </trkpt>
      <trkpt lat="43.48989" lon="2.66286">
        <ele>597.27194083753</ele>
        <time>2016-09-24T10:16:44Z</time>
      </trkpt>
      <trkpt lat="43.48994" lon="2.66295">
        <ele>599.16838438629</ele>
        <time>2016-09-24T10:16:49Z</time>
      </trkpt>
      <trkpt lat="43.48996" lon="2.66299">
        <ele>599.16838438629</ele>
        <time>2016-09-24T10:16:54Z</time>
      </trkpt>
      <trkpt lat="43.49004" lon="2.66301">
        <ele>601.07182930828</ele>
        <time>2016-09-24T10:16:59Z</time>
      </trkpt>
      <trkpt lat="43.49009" lon="2.66307">
        <ele>601.07182930828</ele>
        <time>2016-09-24T10:17:04Z</time>
      </trkpt>
      <trkpt lat="43.49011" lon="2.66311">
        <ele>603.07855204086</ele>
        <time>2016-09-24T10:17:09Z</time>
      </trkpt>
      <trkpt lat="43.49015" lon="2.66315">
        <ele>603.07855204086</ele>
        <time>2016-09-24T10:17:14Z</time>
      </trkpt>
      <trkpt lat="43.49018" lon="2.66321">
        <ele>605.19112932311</ele>
        <time>2016-09-24T10:17:19Z</time>
      </trkpt>
      <trkpt lat="43.4902" lon="2.66325">
        <ele>605.19112932311</ele>
        <time>2016-09-24T10:17:24Z</time>
      </trkpt>
      <trkpt lat="43.49022" lon="2.66332">
        <ele>607.33972824873</ele>
        <time>2016-09-24T10:17:29Z</time>
      </trkpt>
      <trkpt lat="43.49023" lon="2.66339">
        <ele>607.33972824873</ele>
        <time>2016-09-24T10:17:34Z</time>
      </trkpt>
      <trkpt lat="43.49027" lon="2.66343">
        <ele>609.51732432795</ele>
        <time>2016-09-24T10:17:39Z</time>
      </trkpt>
      <trkpt lat="43.49028" lon="2.66346">
        <ele>609.51732432795</ele>
        <time>2016-09-24T10:17:44Z</time>
      </trkpt>
      <trkpt lat="43.49029" lon="2.66348">
        <ele>609.51732432795</ele>
        <time>2016-09-24T10:17:49Z</time>
      </trkpt>
      <trkpt lat="43.49033" lon="2.66347">
        <ele>609.51732432795</ele>
        <time>2016-09-24T10:17:54Z</time>
      </trkpt>
      <trkpt lat="43.49036" lon="2.66353">
        <ele>611.91922165179</ele>
        <time>2016-09-24T10:17:59Z</time>
      </trkpt>
      <trkpt lat="43.49037" lon="2.66358">
        <ele>611.91922165179</ele>
        <time>2016-09-24T10:18:04Z</time>
      </trkpt>
      <trkpt lat="43.49038" lon="2.66364">
        <ele>611.91922165179</ele>
        <time>2016-09-24T10:18:09Z</time>
      </trkpt>
      <trkpt lat="43.49043" lon="2.66369">
        <ele>614.3656116738</ele>
        <time>2016-09-24T10:18:14Z</time>
      </trkpt>
      <trkpt lat="43.49045" lon="2.66375">
        <ele>614.3656116738</ele>
        <time>2016-09-24T10:18:19Z</time>
      </trkpt>
      <trkpt lat="43.49049" lon="2.66378">
        <ele>614.3656116738</ele>
        <time>2016-09-24T10:18:24Z</time>
      </trkpt>
      <trkpt lat="43.49052" lon="2.66381">
        <ele>616.81961427393</ele>
        <time>2016-09-24T10:18:29Z</time>
      </trkpt>
      <trkpt lat="43.49053" lon="2.66383">
        <ele>616.81961427393</ele>
        <time>2016-09-24T10:18:34Z</time>
      </trkpt>
      <trkpt lat="43.49056" lon="2.66385">
        <ele>616.81961427393</ele>
        <time>2016-09-24T10:18:39Z</time>
      </trkpt>
      <trkpt lat="43.49058" lon="2.66388">
        <ele>616.81961427393</ele>
        <time>2016-09-24T10:18:44Z</time>
      </trkpt>
      <trkpt lat="43.49062" lon="2.66393">
        <ele>619.26159586598</ele>
        <time>2016-09-24T10:18:49Z</time>
      </trkpt>
      <trkpt lat="43.49065" lon="2.66398">
        <ele>619.26159586598</ele>
        <time>2016-09-24T10:18:54Z</time>
      </trkpt>
      <trkpt lat="43.49067" lon="2.66402">
        <ele>619.26159586598</ele>
        <time>2016-09-24T10:18:59Z</time>
      </trkpt>
      <trkpt lat="43.49069" lon="2.66406">
        <ele>621.61590455496</ele>
        <time>2016-09-24T10:19:04Z</time>
      </trkpt>
      <trkpt lat="43.49072" lon="2.66411">
        <ele>621.61590455496</ele>
        <time>2016-09-24T10:19:09Z</time>
      </trkpt>
      <trkpt lat="43.49073" lon="2.66417">
        <ele>623.79843235106</ele>
        <time>2016-09-24T10:19:14Z</time>
      </trkpt>
      <trkpt lat="43.49075" lon="2.66421">
        <ele>623.79843235106</ele>
        <time>2016-09-24T10:19:19Z</time>
      </trkpt>
      <trkpt lat="43.4908" lon="2.66424">
        <ele>623.79843235106</ele>
        <time>2016-09-24T10:19:24Z</time>
      </trkpt>
      <trkpt lat="43.49085" lon="2.66426">
        <ele>625.84717267742</ele>
        <time>2016-09-24T10:19:29Z</time>
      </trkpt>
      <trkpt lat="43.49089" lon="2.66426">
        <ele>625.84717267742</ele>
        <time>2016-09-24T10:19:34Z</time>
      </trkpt>
      <trkpt lat="43.49093" lon="2.66429">
        <ele>625.84717267742</ele>
        <time>2016-09-24T10:19:39Z</time>
      </trkpt>
      <trkpt lat="43.49097" lon="2.66433">
        <ele>627.7690320233</ele>
        <time>2016-09-24T10:19:44Z</time>
      </trkpt>
      <trkpt lat="43.49101" lon="2.66438">
        <ele>627.7690320233</ele>
        <time>2016-09-24T10:19:49Z</time>
      </trkpt>
      <trkpt lat="43.49104" lon="2.6644">
        <ele>627.7690320233</ele>
        <time>2016-09-24T10:19:54Z</time>
      </trkpt>
      <trkpt lat="43.49108" lon="2.66441">
        <ele>629.52768041737</ele>
        <time>2016-09-24T10:19:59Z</time>
      </trkpt>
      <trkpt lat="43.49114" lon="2.66443">
        <ele>629.52768041737</ele>
        <time>2016-09-24T10:20:04Z</time>
      </trkpt>
      <trkpt lat="43.49117" lon="2.66446">
        <ele>631.10446973031</ele>
        <time>2016-09-24T10:20:09Z</time>
      </trkpt>
      <trkpt lat="43.4912" lon="2.6645">
        <ele>631.10446973031</ele>
        <time>2016-09-24T10:20:14Z</time>
      </trkpt>
      <trkpt lat="43.49126" lon="2.66454">
        <ele>632.51159257738</ele>
        <time>2016-09-24T10:20:19Z</time>
      </trkpt>
      <trkpt lat="43.4913" lon="2.66459">
        <ele>632.51159257738</ele>
        <time>2016-09-24T10:20:24Z</time>
      </trkpt>
      <trkpt lat="43.49135" lon="2.6646">
        <ele>633.76095334473</ele>
        <time>2016-09-24T10:20:29Z</time>
      </trkpt>
      <trkpt lat="43.4914" lon="2.66463">
        <ele>633.76095334473</ele>
        <time>2016-09-24T10:20:34Z</time>
      </trkpt>
      <trkpt lat="43.49141" lon="2.66463">
        <ele>633.76095334473</ele>
        <time>2016-09-24T10:20:39Z</time>
      </trkpt>
      <trkpt lat="43.49147" lon="2.66467">
        <ele>634.89296999363</ele>
        <time>2016-09-24T10:20:44Z</time>
      </trkpt>
      <trkpt lat="43.49151" lon="2.6647">
        <ele>634.89296999363</ele>
        <time>2016-09-24T10:20:49Z</time>
      </trkpt>
      <trkpt lat="43.49153" lon="2.66474">
        <ele>634.89296999363</ele>
        <time>2016-09-24T10:20:54Z</time>
      </trkpt>
      <trkpt lat="43.49158" lon="2.66478">
        <ele>635.98876811798</ele>
        <time>2016-09-24T10:20:59Z</time>
      </trkpt>
      <trkpt lat="43.49161" lon="2.66478">
        <ele>635.98876811798</ele>
        <time>2016-09-24T10:21:04Z</time>
      </trkpt>
      <trkpt lat="43.49166" lon="2.6648">
        <ele>635.98876811798</ele>
        <time>2016-09-24T10:21:09Z</time>
      </trkpt>
      <trkpt lat="43.49169" lon="2.66481">
        <ele>637.05166444175</ele>
        <time>2016-09-24T10:21:14Z</time>
      </trkpt>
      <trkpt lat="43.4917" lon="2.66485">
        <ele>637.05166444175</ele>
        <time>2016-09-24T10:21:19Z</time>
      </trkpt>
      <trkpt lat="43.49175" lon="2.66486">
        <ele>637.05166444175</ele>
        <time>2016-09-24T10:21:24Z</time>
      </trkpt>
      <trkpt lat="43.4918" lon="2.66486">
        <ele>638.07050792017</ele>
        <time>2016-09-24T10:21:29Z</time>
      </trkpt>
      <trkpt lat="43.49183" lon="2.66488">
        <ele>638.07050792017</ele>
        <time>2016-09-24T10:21:34Z</time>
      </trkpt>
      <trkpt lat="43.49187" lon="2.6649">
        <ele>638.07050792017</ele>
        <time>2016-09-24T10:21:39Z</time>
      </trkpt>
      <trkpt lat="43.49192" lon="2.66494">
        <ele>639.04958623123</ele>
        <time>2016-09-24T10:21:44Z</time>
      </trkpt>
      <trkpt lat="43.49195" lon="2.66495">
        <ele>639.04958623123</ele>
        <time>2016-09-24T10:21:49Z</time>
      </trkpt>
      <trkpt lat="43.492" lon="2.66497">
        <ele>639.04958623123</ele>
        <time>2016-09-24T10:21:54Z</time>
      </trkpt>
      <trkpt lat="43.49204" lon="2.66497">
        <ele>639.99305886497</ele>
        <time>2016-09-24T10:21:59Z</time>
      </trkpt>
      <trkpt lat="43.49208" lon="2.66497">
        <ele>639.99305886497</ele>
        <time>2016-09-24T10:22:04Z</time>
      </trkpt>
      <trkpt lat="43.49211" lon="2.66498">
        <ele>639.99305886497</ele>
        <time>2016-09-24T10:22:09Z</time>
      </trkpt>
      <trkpt lat="43.49216" lon="2.66503">
        <ele>640.97700112449</ele>
        <time>2016-09-24T10:22:14Z</time>
      </trkpt>
      <trkpt lat="43.49219" lon="2.66508">
        <ele>640.97700112449</ele>
        <time>2016-09-24T10:22:19Z</time>
      </trkpt>
      <trkpt lat="43.49223" lon="2.66511">
        <ele>641.94214317692</ele>
        <time>2016-09-24T10:22:24Z</time>
      </trkpt>
      <trkpt lat="43.49226" lon="2.66517">
        <ele>641.94214317692</ele>
        <time>2016-09-24T10:22:29Z</time>
      </trkpt>
      <trkpt lat="43.4923" lon="2.66521">
        <ele>642.87690348277</ele>
        <time>2016-09-24T10:22:34Z</time>
      </trkpt>
      <trkpt lat="43.49231" lon="2.66523">
        <ele>642.87690348277</ele>
        <time>2016-09-24T10:22:39Z</time>
      </trkpt>
      <trkpt lat="43.49232" lon="2.66523">
        <ele>642.87690348277</ele>
        <time>2016-09-24T10:22:44Z</time>
      </trkpt>
      <trkpt lat="43.49232" lon="2.66528">
        <ele>642.87690348277</ele>
        <time>2016-09-24T10:22:49Z</time>
      </trkpt>
      <trkpt lat="43.49236" lon="2.66534">
        <ele>643.9436102606</ele>
        <time>2016-09-24T10:22:54Z</time>
      </trkpt>
      <trkpt lat="43.49239" lon="2.66541">
        <ele>643.9436102606</ele>
        <time>2016-09-24T10:22:59Z</time>
      </trkpt>
      <trkpt lat="43.49245" lon="2.66547">
        <ele>644.98969660754</ele>
        <time>2016-09-24T10:23:04Z</time>
      </trkpt>
      <trkpt lat="43.49249" lon="2.66553">
        <ele>644.98969660754</ele>
        <time>2016-09-24T10:23:09Z</time>
      </trkpt>
      <trkpt lat="43.49249" lon="2.66552">
        <ele>644.98969660754</ele>
        <time>2016-09-24T10:23:14Z</time>
      </trkpt>
      <trkpt lat="43.49249" lon="2.66556">
        <ele>646.10446521532</ele>
        <time>2016-09-24T10:23:19Z</time>
      </trkpt>
      <trkpt lat="43.49255" lon="2.66563">
        <ele>646.10446521532</ele>
        <time>2016-09-24T10:23:24Z</time>
      </trkpt>
      <trkpt lat="43.49262" lon="2.66569">
        <ele>647.21196417901</ele>
        <time>2016-09-24T10:23:29Z</time>
      </trkpt>
      <trkpt lat="43.49268" lon="2.66574">
        <ele>647.21196417901</ele>
        <time>2016-09-24T10:23:34Z</time>
      </trkpt>
      <trkpt lat="43.49274" lon="2.66586">
        <ele>648.28508987958</ele>
        <time>2016-09-24T10:23:39Z</time>
      </trkpt>
      <trkpt lat="43.49277" lon="2.66594">
        <ele>648.28508987958</ele>
        <time>2016-09-24T10:23:44Z</time>
      </trkpt>
      <trkpt lat="43.49277" lon="2.666">
        <ele>649.31324742415</ele>
        <time>2016-09-24T10:23:49Z</time>
      </trkpt>
      <trkpt lat="43.49281" lon="2.66611">
        <ele>649.31324742415</ele>
        <time>2016-09-24T10:23:54Z</time>
      </trkpt>
      <trkpt lat="43.49285" lon="2.66617">
        <ele>650.27234059701</ele>
        <time>2016-09-24T10:23:59Z</time>
      </trkpt>
      <trkpt lat="43.49288" lon="2.66622">
        <ele>650.27234059701</ele>
        <time>2016-09-24T10:24:04Z</time>
      </trkpt>
      <trkpt lat="43.49293" lon="2.66625">
        <ele>651.1834709105</ele>
        <time>2016-09-24T10:24:09Z</time>
      </trkpt>
      <trkpt lat="43.49296" lon="2.6663">
        <ele>651.1834709105</ele>
        <time>2016-09-24T10:24:14Z</time>
      </trkpt>
      <trkpt lat="43.49299" lon="2.66635">
        <ele>652.05190888019</ele>
        <time>2016-09-24T10:24:19Z</time>
      </trkpt>
      <trkpt lat="43.49301" lon="2.66639">
        <ele>652.05190888019</ele>
        <time>2016-09-24T10:24:24Z</time>
      </trkpt>
      <trkpt lat="43.49304" lon="2.66643">
        <ele>652.05190888019</ele>
        <time>2016-09-24T10:24:29Z</time>
      </trkpt>
      <trkpt lat="43.49307" lon="2.6665">
        <ele>652.94029295876</ele>
        <time>2016-09-24T10:24:34Z</time>
      </trkpt>
      <trkpt lat="43.49311" lon="2.66653">
        <ele>652.94029295876</ele>
        <time>2016-09-24T10:24:39Z</time>
      </trkpt>
      <trkpt lat="43.49313" lon="2.66654">
        <ele>652.94029295876</ele>
        <time>2016-09-24T10:24:44Z</time>
      </trkpt>
      <trkpt lat="43.49317" lon="2.66658">
        <ele>653.84894604714</ele>
        <time>2016-09-24T10:24:49Z</time>
      </trkpt>
      <trkpt lat="43.4932" lon="2.6666">
        <ele>653.84894604714</ele>
        <time>2016-09-24T10:24:54Z</time>
      </trkpt>
      <trkpt lat="43.49322" lon="2.66661">
        <ele>653.84894604714</ele>
        <time>2016-09-24T10:24:59Z</time>
      </trkpt>
      <trkpt lat="43.49324" lon="2.66662">
        <ele>653.84894604714</ele>
        <time>2016-09-24T10:25:04Z</time>
      </trkpt>
      <trkpt lat="43.49324" lon="2.66662">
        <ele>653.84894604714</ele>
        <time>2016-09-24T10:25:09Z</time>
      </trkpt>
      <trkpt lat="43.49325" lon="2.66663">
        <ele>653.84894604714</ele>
        <time>2016-09-24T10:25:14Z</time>
      </trkpt>
      <trkpt lat="43.49327" lon="2.66663">
        <ele>654.89338157897</ele>
        <time>2016-09-24T10:25:19Z</time>
      </trkpt>
      <trkpt lat="43.49327" lon="2.66663">
        <ele>654.89338157897</ele>
        <time>2016-09-24T10:25:24Z</time>
      </trkpt>
      <trkpt lat="43.49327" lon="2.66663">
        <ele>654.89338157897</ele>
        <time>2016-09-24T10:25:29Z</time>
      </trkpt>
      <trkpt lat="43.49328" lon="2.66663">
        <ele>654.89338157897</ele>
        <time>2016-09-24T10:25:34Z</time>
      </trkpt>
      <trkpt lat="43.49327" lon="2.66663">
        <ele>654.89338157897</ele>
        <time>2016-09-24T10:25:39Z</time>
      </trkpt>
      <trkpt lat="43.49326" lon="2.66661">
        <ele>654.89338157897</ele>
        <time>2016-09-24T10:25:44Z</time>
      </trkpt>
      <trkpt lat="43.49326" lon="2.6666">
        <ele>654.89338157897</ele>
        <time>2016-09-24T10:25:49Z</time>
      </trkpt>
      <trkpt lat="43.49326" lon="2.6666">
        <ele>654.89338157897</ele>
        <time>2016-09-24T10:25:54Z</time>
      </trkpt>
      <trkpt lat="43.49326" lon="2.66658">
        <ele>654.89338157897</ele>
        <time>2016-09-24T10:25:59Z</time>
      </trkpt>
      <trkpt lat="43.49326" lon="2.66658">
        <ele>654.89338157897</ele>
        <time>2016-09-24T10:26:04Z</time>
      </trkpt>
      <trkpt lat="43.49326" lon="2.66658">
        <ele>654.89338157897</ele>
        <time>2016-09-24T10:26:09Z</time>
      </trkpt>
      <trkpt lat="43.49326" lon="2.66658">
        <ele>654.89338157897</ele>
        <time>2016-09-24T10:26:14Z</time>
      </trkpt>
      <trkpt lat="43.49326" lon="2.66658">
        <ele>654.89338157897</ele>
        <time>2016-09-24T10:26:19Z</time>
      </trkpt>
      <trkpt lat="43.49326" lon="2.66657">
        <ele>654.89338157897</ele>
        <time>2016-09-24T10:26:24Z</time>
      </trkpt>
      <trkpt lat="43.49326" lon="2.66657">
        <ele>654.89338157897</ele>
        <time>2016-09-24T10:26:29Z</time>
      </trkpt>
      <trkpt lat="43.49326" lon="2.66657">
        <ele>654.89338157897</ele>
        <time>2016-09-24T10:26:34Z</time>
      </trkpt>
      <trkpt lat="43.49326" lon="2.66657">
        <ele>654.89338157897</ele>
        <time>2016-09-24T10:26:39Z</time>
      </trkpt>
      <trkpt lat="43.49326" lon="2.66657">
        <ele>654.89338157897</ele>
        <time>2016-09-24T10:26:44Z</time>
      </trkpt>
      <trkpt lat="43.49326" lon="2.66657">
        <ele>654.89338157897</ele>
        <time>2016-09-24T10:26:49Z</time>
      </trkpt>
      <trkpt lat="43.49325" lon="2.66657">
        <ele>654.89338157897</ele>
        <time>2016-09-24T10:26:54Z</time>
      </trkpt>
      <trkpt lat="43.49325" lon="2.66657">
        <ele>654.89338157897</ele>
        <time>2016-09-24T10:26:59Z</time>
      </trkpt>
      <trkpt lat="43.49327" lon="2.66655">
        <ele>656.42521503661</ele>
        <time>2016-09-24T10:27:04Z</time>
      </trkpt>
      <trkpt lat="43.49328" lon="2.66654">
        <ele>656.42521503661</ele>
        <time>2016-09-24T10:27:09Z</time>
      </trkpt>
      <trkpt lat="43.49328" lon="2.66654">
        <ele>656.42521503661</ele>
        <time>2016-09-24T10:27:14Z</time>
      </trkpt>
      <trkpt lat="43.49328" lon="2.66654">
        <ele>656.42521503661</ele>
        <time>2016-09-24T10:27:19Z</time>
      </trkpt>
      <trkpt lat="43.49328" lon="2.66654">
        <ele>656.42521503661</ele>
        <time>2016-09-24T10:27:24Z</time>
      </trkpt>
      <trkpt lat="43.49328" lon="2.66654">
        <ele>656.42521503661</ele>
        <time>2016-09-24T10:27:29Z</time>
      </trkpt>
      <trkpt lat="43.49328" lon="2.66654">
        <ele>656.42521503661</ele>
        <time>2016-09-24T10:27:34Z</time>
      </trkpt>
      <trkpt lat="43.49328" lon="2.66654">
        <ele>656.42521503661</ele>
        <time>2016-09-24T10:27:39Z</time>
      </trkpt>
      <trkpt lat="43.49328" lon="2.66655">
        <ele>656.42521503661</ele>
        <time>2016-09-24T10:27:44Z</time>
      </trkpt>
      <trkpt lat="43.49328" lon="2.66655">
        <ele>656.42521503661</ele>
        <time>2016-09-24T10:27:49Z</time>
      </trkpt>
      <trkpt lat="43.49329" lon="2.66656">
        <ele>656.42521503661</ele>
        <time>2016-09-24T10:27:54Z</time>
      </trkpt>
      <trkpt lat="43.49328" lon="2.66656">
        <ele>656.42521503661</ele>
        <time>2016-09-24T10:27:59Z</time>
      </trkpt>
      <trkpt lat="43.49328" lon="2.66656">
        <ele>656.42521503661</ele>
        <time>2016-09-24T10:28:04Z</time>
      </trkpt>
      <trkpt lat="43.49327" lon="2.66656">
        <ele>656.42521503661</ele>
        <time>2016-09-24T10:28:09Z</time>
      </trkpt>
      <trkpt lat="43.49326" lon="2.66662">
        <ele>658.52385527717</ele>
        <time>2016-09-24T10:28:14Z</time>
      </trkpt>
      <trkpt lat="43.49326" lon="2.66663">
        <ele>658.52385527717</ele>
        <time>2016-09-24T10:28:19Z</time>
      </trkpt>
      <trkpt lat="43.49325" lon="2.66664">
        <ele>658.52385527717</ele>
        <time>2016-09-24T10:28:24Z</time>
      </trkpt>
      <trkpt lat="43.49324" lon="2.66665">
        <ele>658.52385527717</ele>
        <time>2016-09-24T10:28:29Z</time>
      </trkpt>
      <trkpt lat="43.49324" lon="2.66665">
        <ele>658.52385527717</ele>
        <time>2016-09-24T10:28:34Z</time>
      </trkpt>
      <trkpt lat="43.49324" lon="2.66665">
        <ele>658.52385527717</ele>
        <time>2016-09-24T10:28:39Z</time>
      </trkpt>
      <trkpt lat="43.49324" lon="2.66664">
        <ele>658.52385527717</ele>
        <time>2016-09-24T10:28:44Z</time>
      </trkpt>
      <trkpt lat="43.49323" lon="2.66664">
        <ele>658.52385527717</ele>
        <time>2016-09-24T10:28:49Z</time>
      </trkpt>
      <trkpt lat="43.49323" lon="2.66664">
        <ele>658.52385527717</ele>
        <time>2016-09-24T10:28:54Z</time>
      </trkpt>
      <trkpt lat="43.49322" lon="2.66664">
        <ele>658.52385527717</ele>
        <time>2016-09-24T10:28:59Z</time>
      </trkpt>
      <trkpt lat="43.49322" lon="2.66664">
        <ele>658.52385527717</ele>
        <time>2016-09-24T10:29:04Z</time>
      </trkpt>
      <trkpt lat="43.49322" lon="2.66664">
        <ele>658.52385527717</ele>
        <time>2016-09-24T10:29:09Z</time>
      </trkpt>
      <trkpt lat="43.49321" lon="2.66663">
        <ele>658.52385527717</ele>
        <time>2016-09-24T10:29:14Z</time>
      </trkpt>
      <trkpt lat="43.49322" lon="2.66662">
        <ele>658.52385527717</ele>
        <time>2016-09-24T10:29:19Z</time>
      </trkpt>
      <trkpt lat="43.49321" lon="2.66662">
        <ele>658.52385527717</ele>
        <time>2016-09-24T10:29:24Z</time>
      </trkpt>
      <trkpt lat="43.49321" lon="2.66662">
        <ele>658.52385527717</ele>
        <time>2016-09-24T10:29:29Z</time>
      </trkpt>
      <trkpt lat="43.49321" lon="2.66663">
        <ele>658.52385527717</ele>
        <time>2016-09-24T10:29:34Z</time>
      </trkpt>
      <trkpt lat="43.49321" lon="2.66663">
        <ele>658.52385527717</ele>
        <time>2016-09-24T10:29:39Z</time>
      </trkpt>
      <trkpt lat="43.49322" lon="2.66662">
        <ele>658.52385527717</ele>
        <time>2016-09-24T10:29:44Z</time>
      </trkpt>
      <trkpt lat="43.49322" lon="2.66662">
        <ele>658.52385527717</ele>
        <time>2016-09-24T10:29:49Z</time>
      </trkpt>
      <trkpt lat="43.49323" lon="2.66664">
        <ele>661.26126974995</ele>
        <time>2016-09-24T10:29:54Z</time>
      </trkpt>
      <trkpt lat="43.49327" lon="2.6667">
        <ele>661.26126974995</ele>
        <time>2016-09-24T10:29:59Z</time>
      </trkpt>
      <trkpt lat="43.49329" lon="2.66673">
        <ele>663.9241346957</ele>
        <time>2016-09-24T10:30:04Z</time>
      </trkpt>
      <trkpt lat="43.49334" lon="2.66678">
        <ele>663.9241346957</ele>
        <time>2016-09-24T10:30:09Z</time>
      </trkpt>
      <trkpt lat="43.49336" lon="2.66681">
        <ele>663.9241346957</ele>
        <time>2016-09-24T10:30:14Z</time>
      </trkpt>
      <trkpt lat="43.4934" lon="2.66682">
        <ele>666.5434654352</ele>
        <time>2016-09-24T10:30:19Z</time>
      </trkpt>
      <trkpt lat="43.49343" lon="2.66687">
        <ele>666.5434654352</ele>
        <time>2016-09-24T10:30:24Z</time>
      </trkpt>
      <trkpt lat="43.49346" lon="2.66686">
        <ele>666.5434654352</ele>
        <time>2016-09-24T10:30:29Z</time>
      </trkpt>
      <trkpt lat="43.49349" lon="2.66684">
        <ele>669.06165966456</ele>
        <time>2016-09-24T10:30:34Z</time>
      </trkpt>
      <trkpt lat="43.49349" lon="2.66683">
        <ele>669.06165966456</ele>
        <time>2016-09-24T10:30:39Z</time>
      </trkpt>
      <trkpt lat="43.4935" lon="2.66683">
        <ele>669.06165966456</ele>
        <time>2016-09-24T10:30:44Z</time>
      </trkpt>
      <trkpt lat="43.4935" lon="2.66683">
        <ele>669.06165966456</ele>
        <time>2016-09-24T10:30:49Z</time>
      </trkpt>
      <trkpt lat="43.4935" lon="2.66683">
        <ele>669.06165966456</ele>
        <time>2016-09-24T10:30:54Z</time>
      </trkpt>
      <trkpt lat="43.49349" lon="2.66683">
        <ele>669.06165966456</ele>
        <time>2016-09-24T10:30:59Z</time>
      </trkpt>
      <trkpt lat="43.49349" lon="2.66683">
        <ele>669.06165966456</ele>
        <time>2016-09-24T10:31:04Z</time>
      </trkpt>
      <trkpt lat="43.49348" lon="2.66678">
        <ele>669.06165966456</ele>
        <time>2016-09-24T10:31:09Z</time>
      </trkpt>
      <trkpt lat="43.49344" lon="2.66673">
        <ele>671.4832889243</ele>
        <time>2016-09-24T10:31:14Z</time>
      </trkpt>
      <trkpt lat="43.49344" lon="2.66668">
        <ele>671.4832889243</ele>
        <time>2016-09-24T10:31:19Z</time>
      </trkpt>
      <trkpt lat="43.49344" lon="2.66664">
        <ele>671.4832889243</ele>
        <time>2016-09-24T10:31:24Z</time>
      </trkpt>
      <trkpt lat="43.49343" lon="2.66659">
        <ele>673.71200356636</ele>
        <time>2016-09-24T10:31:29Z</time>
      </trkpt>
      <trkpt lat="43.49341" lon="2.66654">
        <ele>673.71200356636</ele>
        <time>2016-09-24T10:31:34Z</time>
      </trkpt>
      <trkpt lat="43.4934" lon="2.66648">
        <ele>673.71200356636</ele>
        <time>2016-09-24T10:31:39Z</time>
      </trkpt>
      <trkpt lat="43.49339" lon="2.66644">
        <ele>675.74556681809</ele>
        <time>2016-09-24T10:31:44Z</time>
      </trkpt>
      <trkpt lat="43.49337" lon="2.66638">
        <ele>675.74556681809</ele>
        <time>2016-09-24T10:31:49Z</time>
      </trkpt>
      <trkpt lat="43.49335" lon="2.66632">
        <ele>677.58248468444</ele>
        <time>2016-09-24T10:31:54Z</time>
      </trkpt>
      <trkpt lat="43.49336" lon="2.66624">
        <ele>677.58248468444</ele>
        <time>2016-09-24T10:31:59Z</time>
      </trkpt>
      <trkpt lat="43.49334" lon="2.66619">
        <ele>679.22195747051</ele>
        <time>2016-09-24T10:32:04Z</time>
      </trkpt>
      <trkpt lat="43.49332" lon="2.66615">
        <ele>679.22195747051</ele>
        <time>2016-09-24T10:32:09Z</time>
      </trkpt>
      <trkpt lat="43.49331" lon="2.66607">
        <ele>680.66383100946</ele>
        <time>2016-09-24T10:32:14Z</time>
      </trkpt>
      <trkpt lat="43.49329" lon="2.666">
        <ele>680.66383100946</ele>
        <time>2016-09-24T10:32:19Z</time>
      </trkpt>
      <trkpt lat="43.49328" lon="2.66596">
        <ele>680.66383100946</ele>
        <time>2016-09-24T10:32:24Z</time>
      </trkpt>
      <trkpt lat="43.49326" lon="2.66585">
        <ele>681.95178131756</ele>
        <time>2016-09-24T10:32:29Z</time>
      </trkpt>
      <trkpt lat="43.49325" lon="2.66576">
        <ele>681.95178131756</ele>
        <time>2016-09-24T10:32:34Z</time>
      </trkpt>
      <trkpt lat="43.49324" lon="2.6657">
        <ele>683.08350241394</ele>
        <time>2016-09-24T10:32:39Z</time>
      </trkpt>
      <trkpt lat="43.49323" lon="2.66568">
        <ele>683.08350241394</ele>
        <time>2016-09-24T10:32:44Z</time>
      </trkpt>
      <trkpt lat="43.49323" lon="2.66562">
        <ele>683.08350241394</ele>
        <time>2016-09-24T10:32:49Z</time>
      </trkpt>
      <trkpt lat="43.49319" lon="2.66553">
        <ele>684.1293751395</ele>
        <time>2016-09-24T10:32:54Z</time>
      </trkpt>
      <trkpt lat="43.49315" lon="2.66548">
        <ele>684.1293751395</ele>
        <time>2016-09-24T10:32:59Z</time>
      </trkpt>
      <trkpt lat="43.49309" lon="2.66538">
        <ele>685.09722485928</ele>
        <time>2016-09-24T10:33:04Z</time>
      </trkpt>
      <trkpt lat="43.49307" lon="2.66533">
        <ele>685.09722485928</ele>
        <time>2016-09-24T10:33:09Z</time>
      </trkpt>
      <trkpt lat="43.49308" lon="2.66526">
        <ele>685.09722485928</ele>
        <time>2016-09-24T10:33:14Z</time>
      </trkpt>
      <trkpt lat="43.49304" lon="2.66519">
        <ele>686.03776683534</ele>
        <time>2016-09-24T10:33:19Z</time>
      </trkpt>
      <trkpt lat="43.49303" lon="2.66513">
        <ele>686.03776683534</ele>
        <time>2016-09-24T10:33:24Z</time>
      </trkpt>
      <trkpt lat="43.49303" lon="2.66505">
        <ele>686.8971960239</ele>
        <time>2016-09-24T10:33:29Z</time>
      </trkpt>
      <trkpt lat="43.49302" lon="2.66503">
        <ele>686.8971960239</ele>
        <time>2016-09-24T10:33:34Z</time>
      </trkpt>
      <trkpt lat="43.49302" lon="2.66497">
        <ele>686.8971960239</ele>
        <time>2016-09-24T10:33:39Z</time>
      </trkpt>
      <trkpt lat="43.493" lon="2.66496">
        <ele>686.8971960239</ele>
        <time>2016-09-24T10:33:44Z</time>
      </trkpt>
      <trkpt lat="43.493" lon="2.66491">
        <ele>687.84205463952</ele>
        <time>2016-09-24T10:33:49Z</time>
      </trkpt>
      <trkpt lat="43.493" lon="2.66486">
        <ele>687.84205463952</ele>
        <time>2016-09-24T10:33:54Z</time>
      </trkpt>
      <trkpt lat="43.49297" lon="2.66477">
        <ele>688.72377236325</ele>
        <time>2016-09-24T10:33:59Z</time>
      </trkpt>
      <trkpt lat="43.49293" lon="2.66464">
        <ele>689.50573673983</ele>
        <time>2016-09-24T10:34:04Z</time>
      </trkpt>
      <trkpt lat="43.49291" lon="2.66455">
        <ele>689.50573673983</ele>
        <time>2016-09-24T10:34:09Z</time>
      </trkpt>
      <trkpt lat="43.49291" lon="2.66447">
        <ele>690.2839883795</ele>
        <time>2016-09-24T10:34:14Z</time>
      </trkpt>
      <trkpt lat="43.4929" lon="2.66439">
        <ele>690.2839883795</ele>
        <time>2016-09-24T10:34:19Z</time>
      </trkpt>
      <trkpt lat="43.49289" lon="2.66437">
        <ele>690.2839883795</ele>
        <time>2016-09-24T10:34:24Z</time>
      </trkpt>
      <trkpt lat="43.49287" lon="2.6644">
        <ele>691.11867959299</ele>
        <time>2016-09-24T10:34:29Z</time>
      </trkpt>
      <trkpt lat="43.49289" lon="2.66443">
        <ele>691.11867959299</ele>
        <time>2016-09-24T10:34:34Z</time>
      </trkpt>
      <trkpt lat="43.49289" lon="2.66447">
        <ele>691.11867959299</ele>
        <time>2016-09-24T10:34:39Z</time>
      </trkpt>
      <trkpt lat="43.49294" lon="2.66452">
        <ele>691.97889274707</ele>
        <time>2016-09-24T10:34:44Z</time>
      </trkpt>
      <trkpt lat="43.49295" lon="2.66457">
        <ele>691.97889274707</ele>
        <time>2016-09-24T10:34:49Z</time>
      </trkpt>
      <trkpt lat="43.49297" lon="2.66466">
        <ele>692.77823475346</ele>
        <time>2016-09-24T10:34:54Z</time>
      </trkpt>
      <trkpt lat="43.49298" lon="2.66474">
        <ele>692.77823475346</ele>
        <time>2016-09-24T10:34:59Z</time>
      </trkpt>
      <trkpt lat="43.49302" lon="2.6648">
        <ele>693.4944394959</ele>
        <time>2016-09-24T10:35:04Z</time>
      </trkpt>
      <trkpt lat="43.49306" lon="2.66482">
        <ele>693.4944394959</ele>
        <time>2016-09-24T10:35:09Z</time>
      </trkpt>
      <trkpt lat="43.49307" lon="2.66487">
        <ele>693.4944394959</ele>
        <time>2016-09-24T10:35:14Z</time>
      </trkpt>
      <trkpt lat="43.49307" lon="2.6649">
        <ele>694.19353801369</ele>
        <time>2016-09-24T10:35:19Z</time>
      </trkpt>
      <trkpt lat="43.4931" lon="2.66494">
        <ele>694.19353801369</ele>
        <time>2016-09-24T10:35:24Z</time>
      </trkpt>
      <trkpt lat="43.49314" lon="2.66497">
        <ele>694.19353801369</ele>
        <time>2016-09-24T10:35:29Z</time>
      </trkpt>
      <trkpt lat="43.49319" lon="2.66501">
        <ele>694.90789444216</ele>
        <time>2016-09-24T10:35:34Z</time>
      </trkpt>
      <trkpt lat="43.49324" lon="2.66507">
        <ele>694.90789444216</ele>
        <time>2016-09-24T10:35:39Z</time>
      </trkpt>
      <trkpt lat="43.49333" lon="2.6651">
        <ele>695.63858490975</ele>
        <time>2016-09-24T10:35:44Z</time>
      </trkpt>
      <trkpt lat="43.49336" lon="2.66512">
        <ele>695.63858490975</ele>
        <time>2016-09-24T10:35:49Z</time>
      </trkpt>
      <trkpt lat="43.49341" lon="2.66516">
        <ele>695.63858490975</ele>
        <time>2016-09-24T10:35:54Z</time>
      </trkpt>
      <trkpt lat="43.49344" lon="2.6652">
        <ele>696.47297887632</ele>
        <time>2016-09-24T10:35:59Z</time>
      </trkpt>
      <trkpt lat="43.49348" lon="2.66522">
        <ele>696.47297887632</ele>
        <time>2016-09-24T10:36:04Z</time>
      </trkpt>
      <trkpt lat="43.49351" lon="2.66527">
        <ele>696.47297887632</ele>
        <time>2016-09-24T10:36:09Z</time>
      </trkpt>
      <trkpt lat="43.49353" lon="2.66529">
        <ele>697.40521932783</ele>
        <time>2016-09-24T10:36:14Z</time>
      </trkpt>
      <trkpt lat="43.49358" lon="2.6653">
        <ele>697.40521932783</ele>
        <time>2016-09-24T10:36:19Z</time>
      </trkpt>
      <trkpt lat="43.49358" lon="2.66528">
        <ele>697.40521932783</ele>
        <time>2016-09-24T10:36:24Z</time>
      </trkpt>
      <trkpt lat="43.49362" lon="2.66524">
        <ele>698.45837518451</ele>
        <time>2016-09-24T10:36:29Z</time>
      </trkpt>
      <trkpt lat="43.49367" lon="2.66519">
        <ele>698.45837518451</ele>
        <time>2016-09-24T10:36:34Z</time>
      </trkpt>
      <trkpt lat="43.49365" lon="2.66512">
        <ele>699.53814011619</ele>
        <time>2016-09-24T10:36:39Z</time>
      </trkpt>
      <trkpt lat="43.49364" lon="2.66504">
        <ele>699.53814011619</ele>
        <time>2016-09-24T10:36:44Z</time>
      </trkpt>
      <trkpt lat="43.49361" lon="2.66498">
        <ele>700.67229776763</ele>
        <time>2016-09-24T10:36:49Z</time>
      </trkpt>
      <trkpt lat="43.49358" lon="2.66494">
        <ele>700.67229776763</ele>
        <time>2016-09-24T10:36:54Z</time>
      </trkpt>
      <trkpt lat="43.49357" lon="2.66486">
        <ele>701.84315404701</ele>
        <time>2016-09-24T10:36:59Z</time>
      </trkpt>
      <trkpt lat="43.49357" lon="2.66474">
        <ele>701.84315404701</ele>
        <time>2016-09-24T10:37:04Z</time>
      </trkpt>
      <trkpt lat="43.49355" lon="2.66466">
        <ele>703.06298481308</ele>
        <time>2016-09-24T10:37:09Z</time>
      </trkpt>
      <trkpt lat="43.49352" lon="2.66455">
        <ele>703.06298481308</ele>
        <time>2016-09-24T10:37:14Z</time>
      </trkpt>
      <trkpt lat="43.49347" lon="2.66448">
        <ele>704.34297973787</ele>
        <time>2016-09-24T10:37:19Z</time>
      </trkpt>
      <trkpt lat="43.49344" lon="2.66442">
        <ele>704.34297973787</ele>
        <time>2016-09-24T10:37:24Z</time>
      </trkpt>
      <trkpt lat="43.49341" lon="2.66437">
        <ele>705.69329324778</ele>
        <time>2016-09-24T10:37:29Z</time>
      </trkpt>
      <trkpt lat="43.49339" lon="2.66431">
        <ele>705.69329324778</ele>
        <time>2016-09-24T10:37:34Z</time>
      </trkpt>
      <trkpt lat="43.49336" lon="2.66425">
        <ele>707.09427278783</ele>
        <time>2016-09-24T10:37:39Z</time>
      </trkpt>
      <trkpt lat="43.49334" lon="2.66419">
        <ele>707.09427278783</ele>
        <time>2016-09-24T10:37:44Z</time>
      </trkpt>
      <trkpt lat="43.49332" lon="2.66417">
        <ele>707.09427278783</ele>
        <time>2016-09-24T10:37:49Z</time>
      </trkpt>
      <trkpt lat="43.49335" lon="2.66412">
        <ele>708.68605164075</ele>
        <time>2016-09-24T10:37:54Z</time>
      </trkpt>
      <trkpt lat="43.4934" lon="2.66412">
        <ele>708.68605164075</ele>
        <time>2016-09-24T10:37:59Z</time>
      </trkpt>
      <trkpt lat="43.49345" lon="2.66421">
        <ele>710.28085518677</ele>
        <time>2016-09-24T10:38:04Z</time>
      </trkpt>
      <trkpt lat="43.4935" lon="2.66425">
        <ele>710.28085518677</ele>
        <time>2016-09-24T10:38:09Z</time>
      </trkpt>
      <trkpt lat="43.49354" lon="2.66431">
        <ele>711.87759794734</ele>
        <time>2016-09-24T10:38:14Z</time>
      </trkpt>
      <trkpt lat="43.49355" lon="2.66432">
        <ele>711.87759794734</ele>
        <time>2016-09-24T10:38:19Z</time>
      </trkpt>
      <trkpt lat="43.49356" lon="2.66432">
        <ele>711.87759794734</ele>
        <time>2016-09-24T10:38:24Z</time>
      </trkpt>
      <trkpt lat="43.49357" lon="2.66436">
        <ele>711.87759794734</ele>
        <time>2016-09-24T10:38:29Z</time>
      </trkpt>
      <trkpt lat="43.49359" lon="2.6644">
        <ele>711.87759794734</ele>
        <time>2016-09-24T10:38:34Z</time>
      </trkpt>
      <trkpt lat="43.4936" lon="2.66444">
        <ele>713.60494403802</ele>
        <time>2016-09-24T10:38:39Z</time>
      </trkpt>
      <trkpt lat="43.49365" lon="2.6645">
        <ele>713.60494403802</ele>
        <time>2016-09-24T10:38:44Z</time>
      </trkpt>
      <trkpt lat="43.49369" lon="2.66463">
        <ele>715.23585286472</ele>
        <time>2016-09-24T10:38:49Z</time>
      </trkpt>
      <trkpt lat="43.49375" lon="2.6647">
        <ele>715.23585286472</ele>
        <time>2016-09-24T10:38:54Z</time>
      </trkpt>
      <trkpt lat="43.4938" lon="2.66472">
        <ele>716.76197280484</ele>
        <time>2016-09-24T10:38:59Z</time>
      </trkpt>
      <trkpt lat="43.49387" lon="2.66473">
        <ele>716.76197280484</ele>
        <time>2016-09-24T10:39:04Z</time>
      </trkpt>
      <trkpt lat="43.4939" lon="2.66477">
        <ele>718.21908157295</ele>
        <time>2016-09-24T10:39:09Z</time>
      </trkpt>
      <trkpt lat="43.49394" lon="2.66484">
        <ele>718.21908157295</ele>
        <time>2016-09-24T10:39:14Z</time>
      </trkpt>
      <trkpt lat="43.49399" lon="2.6649">
        <ele>719.56845840941</ele>
        <time>2016-09-24T10:39:19Z</time>
      </trkpt>
      <trkpt lat="43.49402" lon="2.66496">
        <ele>719.56845840941</ele>
        <time>2016-09-24T10:39:24Z</time>
      </trkpt>
      <trkpt lat="43.49406" lon="2.66499">
        <ele>720.83216757698</ele>
        <time>2016-09-24T10:39:29Z</time>
      </trkpt>
      <trkpt lat="43.4941" lon="2.66508">
        <ele>720.83216757698</ele>
        <time>2016-09-24T10:39:34Z</time>
      </trkpt>
      <trkpt lat="43.49414" lon="2.66516">
        <ele>722.01647695351</ele>
        <time>2016-09-24T10:39:39Z</time>
      </trkpt>
      <trkpt lat="43.49417" lon="2.66519">
        <ele>722.01647695351</ele>
        <time>2016-09-24T10:39:44Z</time>
      </trkpt>
      <trkpt lat="43.4942" lon="2.66521">
        <ele>722.01647695351</ele>
        <time>2016-09-24T10:39:49Z</time>
      </trkpt>
      <trkpt lat="43.49421" lon="2.66519">
        <ele>723.1706458846</ele>
        <time>2016-09-24T10:39:54Z</time>
      </trkpt>
      <trkpt lat="43.4942" lon="2.66514">
        <ele>723.1706458846</ele>
        <time>2016-09-24T10:39:59Z</time>
      </trkpt>
      <trkpt lat="43.49419" lon="2.66514">
        <ele>723.1706458846</ele>
        <time>2016-09-24T10:40:04Z</time>
      </trkpt>
      <trkpt lat="43.4942" lon="2.66512">
        <ele>723.1706458846</ele>
        <time>2016-09-24T10:40:09Z</time>
      </trkpt>
      <trkpt lat="43.49424" lon="2.66513">
        <ele>724.34039556961</ele>
        <time>2016-09-24T10:40:14Z</time>
      </trkpt>
      <trkpt lat="43.49426" lon="2.66509">
        <ele>724.34039556961</ele>
        <time>2016-09-24T10:40:19Z</time>
      </trkpt>
      <trkpt lat="43.49432" lon="2.66507">
        <ele>725.46716256301</ele>
        <time>2016-09-24T10:40:24Z</time>
      </trkpt>
      <trkpt lat="43.49432" lon="2.66506">
        <ele>725.46716256301</ele>
        <time>2016-09-24T10:40:29Z</time>
      </trkpt>
      <trkpt lat="43.49434" lon="2.66507">
        <ele>725.46716256301</ele>
        <time>2016-09-24T10:40:34Z</time>
      </trkpt>
      <trkpt lat="43.49438" lon="2.66504">
        <ele>725.46716256301</ele>
        <time>2016-09-24T10:40:39Z</time>
      </trkpt>
      <trkpt lat="43.4944" lon="2.66499">
        <ele>726.68414575499</ele>
        <time>2016-09-24T10:40:44Z</time>
      </trkpt>
      <trkpt lat="43.49441" lon="2.66495">
        <ele>726.68414575499</ele>
        <time>2016-09-24T10:40:49Z</time>
      </trkpt>
      <trkpt lat="43.49442" lon="2.6649">
        <ele>726.68414575499</ele>
        <time>2016-09-24T10:40:54Z</time>
      </trkpt>
      <trkpt lat="43.49446" lon="2.66489">
        <ele>727.97039013182</ele>
        <time>2016-09-24T10:40:59Z</time>
      </trkpt>
      <trkpt lat="43.49451" lon="2.66491">
        <ele>727.97039013182</ele>
        <time>2016-09-24T10:41:04Z</time>
      </trkpt>
      <trkpt lat="43.49458" lon="2.66492">
        <ele>729.23422525432</ele>
        <time>2016-09-24T10:41:09Z</time>
      </trkpt>
      <trkpt lat="43.49464" lon="2.66494">
        <ele>729.23422525432</ele>
        <time>2016-09-24T10:41:14Z</time>
      </trkpt>
      <trkpt lat="43.49468" lon="2.66494">
        <ele>730.44841739716</ele>
        <time>2016-09-24T10:41:19Z</time>
      </trkpt>
      <trkpt lat="43.49468" lon="2.66494">
        <ele>730.44841739716</ele>
        <time>2016-09-24T10:41:24Z</time>
      </trkpt>
      <trkpt lat="43.49473" lon="2.66498">
        <ele>730.44841739716</ele>
        <time>2016-09-24T10:41:29Z</time>
      </trkpt>
      <trkpt lat="43.49474" lon="2.665">
        <ele>730.44841739716</ele>
        <time>2016-09-24T10:41:34Z</time>
      </trkpt>
      <trkpt lat="43.49478" lon="2.66502">
        <ele>731.70315736045</ele>
        <time>2016-09-24T10:41:39Z</time>
      </trkpt>
      <trkpt lat="43.49484" lon="2.66502">
        <ele>731.70315736045</ele>
        <time>2016-09-24T10:41:44Z</time>
      </trkpt>
      <trkpt lat="43.49493" lon="2.66502">
        <ele>732.88013723115</ele>
        <time>2016-09-24T10:41:49Z</time>
      </trkpt>
      <trkpt lat="43.49496" lon="2.66499">
        <ele>732.88013723115</ele>
        <time>2016-09-24T10:41:54Z</time>
      </trkpt>
      <trkpt lat="43.49503" lon="2.66501">
        <ele>733.97083188091</ele>
        <time>2016-09-24T10:41:59Z</time>
      </trkpt>
      <trkpt lat="43.49511" lon="2.66503">
        <ele>733.97083188091</ele>
        <time>2016-09-24T10:42:04Z</time>
      </trkpt>
      <trkpt lat="43.49516" lon="2.66506">
        <ele>734.96758004187</ele>
        <time>2016-09-24T10:42:09Z</time>
      </trkpt>
      <trkpt lat="43.49518" lon="2.66508">
        <ele>734.96758004187</ele>
        <time>2016-09-24T10:42:14Z</time>
      </trkpt>
      <trkpt lat="43.49522" lon="2.6651">
        <ele>734.96758004187</ele>
        <time>2016-09-24T10:42:19Z</time>
      </trkpt>
      <trkpt lat="43.49526" lon="2.66512">
        <ele>735.89236364785</ele>
        <time>2016-09-24T10:42:24Z</time>
      </trkpt>
      <trkpt lat="43.49532" lon="2.66515">
        <ele>735.89236364785</ele>
        <time>2016-09-24T10:42:29Z</time>
      </trkpt>
      <trkpt lat="43.49538" lon="2.66518">
        <ele>736.75133372573</ele>
        <time>2016-09-24T10:42:34Z</time>
      </trkpt>
      <trkpt lat="43.4954" lon="2.66519">
        <ele>736.75133372573</ele>
        <time>2016-09-24T10:42:39Z</time>
      </trkpt>
      <trkpt lat="43.49546" lon="2.66516">
        <ele>736.75133372573</ele>
        <time>2016-09-24T10:42:44Z</time>
      </trkpt>
      <trkpt lat="43.49551" lon="2.66514">
        <ele>737.5935985821</ele>
        <time>2016-09-24T10:42:49Z</time>
      </trkpt>
      <trkpt lat="43.49556" lon="2.66515">
        <ele>737.5935985821</ele>
        <time>2016-09-24T10:42:54Z</time>
      </trkpt>
      <trkpt lat="43.49563" lon="2.66514">
        <ele>738.39263920819</ele>
        <time>2016-09-24T10:42:59Z</time>
      </trkpt>
      <trkpt lat="43.49569" lon="2.66513">
        <ele>738.39263920819</ele>
        <time>2016-09-24T10:43:04Z</time>
      </trkpt>
      <trkpt lat="43.49572" lon="2.66513">
        <ele>739.13840342341</ele>
        <time>2016-09-24T10:43:09Z</time>
      </trkpt>
      <trkpt lat="43.49578" lon="2.66511">
        <ele>739.13840342341</ele>
        <time>2016-09-24T10:43:14Z</time>
      </trkpt>
      <trkpt lat="43.49581" lon="2.66513">
        <ele>739.85053294887</ele>
        <time>2016-09-24T10:43:19Z</time>
      </trkpt>
      <trkpt lat="43.49585" lon="2.66511">
        <ele>739.85053294887</ele>
        <time>2016-09-24T10:43:24Z</time>
      </trkpt>
      <trkpt lat="43.49586" lon="2.66507">
        <ele>739.85053294887</ele>
        <time>2016-09-24T10:43:29Z</time>
      </trkpt>
      <trkpt lat="43.49587" lon="2.66504">
        <ele>740.60494670165</ele>
        <time>2016-09-24T10:43:34Z</time>
      </trkpt>
      <trkpt lat="43.49588" lon="2.66504">
        <ele>740.60494670165</ele>
        <time>2016-09-24T10:43:39Z</time>
      </trkpt>
      <trkpt lat="43.49587" lon="2.66501">
        <ele>740.60494670165</ele>
        <time>2016-09-24T10:43:44Z</time>
      </trkpt>
      <trkpt lat="43.49587" lon="2.66495">
        <ele>740.60494670165</ele>
        <time>2016-09-24T10:43:49Z</time>
      </trkpt>
      <trkpt lat="43.49588" lon="2.66491">
        <ele>741.44302470716</ele>
        <time>2016-09-24T10:43:54Z</time>
      </trkpt>
      <trkpt lat="43.4959" lon="2.66486">
        <ele>741.44302470716</ele>
        <time>2016-09-24T10:43:59Z</time>
      </trkpt>
      <trkpt lat="43.49592" lon="2.66479">
        <ele>742.40284964534</ele>
        <time>2016-09-24T10:44:04Z</time>
      </trkpt>
      <trkpt lat="43.49591" lon="2.66479">
        <ele>742.40284964534</ele>
        <time>2016-09-24T10:44:09Z</time>
      </trkpt>
      <trkpt lat="43.49592" lon="2.66478">
        <ele>742.40284964534</ele>
        <time>2016-09-24T10:44:14Z</time>
      </trkpt>
      <trkpt lat="43.49594" lon="2.6648">
        <ele>742.40284964534</ele>
        <time>2016-09-24T10:44:19Z</time>
      </trkpt>
      <trkpt lat="43.49597" lon="2.66481">
        <ele>742.40284964534</ele>
        <time>2016-09-24T10:44:24Z</time>
      </trkpt>
      <trkpt lat="43.49597" lon="2.6648">
        <ele>742.40284964534</ele>
        <time>2016-09-24T10:44:29Z</time>
      </trkpt>
      <trkpt lat="43.49598" lon="2.66479">
        <ele>743.41846328979</ele>
        <time>2016-09-24T10:44:34Z</time>
      </trkpt>
      <trkpt lat="43.496" lon="2.6648">
        <ele>743.41846328979</ele>
        <time>2016-09-24T10:44:39Z</time>
      </trkpt>
      <trkpt lat="43.49601" lon="2.66482">
        <ele>743.41846328979</ele>
        <time>2016-09-24T10:44:44Z</time>
      </trkpt>
      <trkpt lat="43.49604" lon="2.6648">
        <ele>743.41846328979</ele>
        <time>2016-09-24T10:44:49Z</time>
      </trkpt>
      <trkpt lat="43.49603" lon="2.66476">
        <ele>744.42857170721</ele>
        <time>2016-09-24T10:44:54Z</time>
      </trkpt>
      <trkpt lat="43.49603" lon="2.66471">
        <ele>744.42857170721</ele>
        <time>2016-09-24T10:44:59Z</time>
      </trkpt>
      <trkpt lat="43.49601" lon="2.66465">
        <ele>744.42857170721</ele>
        <time>2016-09-24T10:45:04Z</time>
      </trkpt>
      <trkpt lat="43.49599" lon="2.66458">
        <ele>745.43401916476</ele>
        <time>2016-09-24T10:45:09Z</time>
      </trkpt>
      <trkpt lat="43.496" lon="2.66457">
        <ele>745.43401916476</ele>
        <time>2016-09-24T10:45:14Z</time>
      </trkpt>
      <trkpt lat="43.49599" lon="2.66453">
        <ele>745.43401916476</ele>
        <time>2016-09-24T10:45:19Z</time>
      </trkpt>
      <trkpt lat="43.49599" lon="2.66446">
        <ele>746.49322167163</ele>
        <time>2016-09-24T10:45:24Z</time>
      </trkpt>
      <trkpt lat="43.49598" lon="2.66438">
        <ele>746.49322167163</ele>
        <time>2016-09-24T10:45:29Z</time>
      </trkpt>
      <trkpt lat="43.49596" lon="2.66428">
        <ele>747.55925235065</ele>
        <time>2016-09-24T10:45:34Z</time>
      </trkpt>
      <trkpt lat="43.49595" lon="2.66421">
        <ele>747.55925235065</ele>
        <time>2016-09-24T10:45:39Z</time>
      </trkpt>
      <trkpt lat="43.49597" lon="2.66417">
        <ele>747.55925235065</ele>
        <time>2016-09-24T10:45:44Z</time>
      </trkpt>
      <trkpt lat="43.496" lon="2.66411">
        <ele>748.71829037008</ele>
        <time>2016-09-24T10:45:49Z</time>
      </trkpt>
      <trkpt lat="43.49602" lon="2.66405">
        <ele>748.71829037008</ele>
        <time>2016-09-24T10:45:54Z</time>
      </trkpt>
      <trkpt lat="43.49603" lon="2.66402">
        <ele>748.71829037008</ele>
        <time>2016-09-24T10:45:59Z</time>
      </trkpt>
      <trkpt lat="43.49605" lon="2.664">
        <ele>749.93461363605</ele>
        <time>2016-09-24T10:46:04Z</time>
      </trkpt>
      <trkpt lat="43.49607" lon="2.66398">
        <ele>749.93461363605</ele>
        <time>2016-09-24T10:46:09Z</time>
      </trkpt>
      <trkpt lat="43.49609" lon="2.66395">
        <ele>749.93461363605</ele>
        <time>2016-09-24T10:46:14Z</time>
      </trkpt>
      <trkpt lat="43.49614" lon="2.66393">
        <ele>751.20376669888</ele>
        <time>2016-09-24T10:46:19Z</time>
      </trkpt>
      <trkpt lat="43.49617" lon="2.66394">
        <ele>751.20376669888</ele>
        <time>2016-09-24T10:46:24Z</time>
      </trkpt>
      <trkpt lat="43.49619" lon="2.66398">
        <ele>751.20376669888</ele>
        <time>2016-09-24T10:46:29Z</time>
      </trkpt>
      <trkpt lat="43.49621" lon="2.66398">
        <ele>751.20376669888</ele>
        <time>2016-09-24T10:46:34Z</time>
      </trkpt>
      <trkpt lat="43.49625" lon="2.66399">
        <ele>752.55027859955</ele>
        <time>2016-09-24T10:46:39Z</time>
      </trkpt>
      <trkpt lat="43.4963" lon="2.66403">
        <ele>752.55027859955</ele>
        <time>2016-09-24T10:46:44Z</time>
      </trkpt>
      <trkpt lat="43.49634" lon="2.66409">
        <ele>753.83812277132</ele>
        <time>2016-09-24T10:46:49Z</time>
      </trkpt>
      <trkpt lat="43.49636" lon="2.66414">
        <ele>753.83812277132</ele>
        <time>2016-09-24T10:46:54Z</time>
      </trkpt>
      <trkpt lat="43.4964" lon="2.66416">
        <ele>753.83812277132</ele>
        <time>2016-09-24T10:46:59Z</time>
      </trkpt>
      <trkpt lat="43.49642" lon="2.66417">
        <ele>755.09994001211</ele>
        <time>2016-09-24T10:47:04Z</time>
      </trkpt>
      <trkpt lat="43.49649" lon="2.66417">
        <ele>755.09994001211</ele>
        <time>2016-09-24T10:47:09Z</time>
      </trkpt>
      <trkpt lat="43.49654" lon="2.66415">
        <ele>756.30839227681</ele>
        <time>2016-09-24T10:47:14Z</time>
      </trkpt>
      <trkpt lat="43.49659" lon="2.66414">
        <ele>756.30839227681</ele>
        <time>2016-09-24T10:47:19Z</time>
      </trkpt>
      <trkpt lat="43.49665" lon="2.66412">
        <ele>757.46711402275</ele>
        <time>2016-09-24T10:47:24Z</time>
      </trkpt>
      <trkpt lat="43.49671" lon="2.66406">
        <ele>757.46711402275</ele>
        <time>2016-09-24T10:47:29Z</time>
      </trkpt>
      <trkpt lat="43.49674" lon="2.664">
        <ele>758.57960598911</ele>
        <time>2016-09-24T10:47:34Z</time>
      </trkpt>
      <trkpt lat="43.49679" lon="2.66393">
        <ele>758.57960598911</ele>
        <time>2016-09-24T10:47:39Z</time>
      </trkpt>
      <trkpt lat="43.49682" lon="2.66387">
        <ele>759.64923615871</ele>
        <time>2016-09-24T10:47:44Z</time>
      </trkpt>
      <trkpt lat="43.49685" lon="2.66378">
        <ele>759.64923615871</ele>
        <time>2016-09-24T10:47:49Z</time>
      </trkpt>
      <trkpt lat="43.49687" lon="2.66371">
        <ele>760.69365171289</ele>
        <time>2016-09-24T10:47:54Z</time>
      </trkpt>
      <trkpt lat="43.49688" lon="2.66368">
        <ele>760.69365171289</ele>
        <time>2016-09-24T10:47:59Z</time>
      </trkpt>
      <trkpt lat="43.49689" lon="2.66361">
        <ele>760.69365171289</ele>
        <time>2016-09-24T10:48:04Z</time>
      </trkpt>
      <trkpt lat="43.49692" lon="2.66352">
        <ele>761.74368082041</ele>
        <time>2016-09-24T10:48:09Z</time>
      </trkpt>
      <trkpt lat="43.49699" lon="2.66344">
        <ele>762.71257773583</ele>
        <time>2016-09-24T10:48:14Z</time>
      </trkpt>
      <trkpt lat="43.49702" lon="2.66342">
        <ele>762.71257773583</ele>
        <time>2016-09-24T10:48:19Z</time>
      </trkpt>
      <trkpt lat="43.49707" lon="2.6634">
        <ele>762.71257773583</ele>
        <time>2016-09-24T10:48:24Z</time>
      </trkpt>
      <trkpt lat="43.4971" lon="2.66339">
        <ele>763.69312512471</ele>
        <time>2016-09-24T10:48:29Z</time>
      </trkpt>
      <trkpt lat="43.49712" lon="2.66334">
        <ele>763.69312512471</ele>
        <time>2016-09-24T10:48:34Z</time>
      </trkpt>
      <trkpt lat="43.49712" lon="2.66331">
        <ele>763.69312512471</ele>
        <time>2016-09-24T10:48:39Z</time>
      </trkpt>
      <trkpt lat="43.49717" lon="2.66328">
        <ele>764.72801866894</ele>
        <time>2016-09-24T10:48:44Z</time>
      </trkpt>
      <trkpt lat="43.49724" lon="2.66317">
        <ele>765.66931499541</ele>
        <time>2016-09-24T10:48:49Z</time>
      </trkpt>
      <trkpt lat="43.49731" lon="2.66314">
        <ele>765.66931499541</ele>
        <time>2016-09-24T10:48:54Z</time>
      </trkpt>
      <trkpt lat="43.49734" lon="2.66311">
        <ele>766.61077277958</ele>
        <time>2016-09-24T10:48:59Z</time>
      </trkpt>
      <trkpt lat="43.49743" lon="2.66305">
        <ele>767.49514475672</ele>
        <time>2016-09-24T10:49:04Z</time>
      </trkpt>
      <trkpt lat="43.49747" lon="2.66305">
        <ele>767.49514475672</ele>
        <time>2016-09-24T10:49:09Z</time>
      </trkpt>
      <trkpt lat="43.49751" lon="2.663">
        <ele>768.37041932843</ele>
        <time>2016-09-24T10:49:14Z</time>
      </trkpt>
      <trkpt lat="43.49758" lon="2.66291">
        <ele>769.19460983211</ele>
        <time>2016-09-24T10:49:19Z</time>
      </trkpt>
      <trkpt lat="43.49762" lon="2.66287">
        <ele>769.19460983211</ele>
        <time>2016-09-24T10:49:24Z</time>
      </trkpt>
      <trkpt lat="43.49765" lon="2.66287">
        <ele>769.19460983211</ele>
        <time>2016-09-24T10:49:29Z</time>
      </trkpt>
      <trkpt lat="43.49768" lon="2.66284">
        <ele>770.08746980635</ele>
        <time>2016-09-24T10:49:34Z</time>
      </trkpt>
      <trkpt lat="43.49771" lon="2.6628">
        <ele>770.08746980635</ele>
        <time>2016-09-24T10:49:39Z</time>
      </trkpt>
      <trkpt lat="43.49774" lon="2.66277">
        <ele>770.08746980635</ele>
        <time>2016-09-24T10:49:44Z</time>
      </trkpt>
      <trkpt lat="43.49776" lon="2.66272">
        <ele>771.03005244064</ele>
        <time>2016-09-24T10:49:49Z</time>
      </trkpt>
      <trkpt lat="43.4978" lon="2.66271">
        <ele>771.03005244064</ele>
        <time>2016-09-24T10:49:54Z</time>
      </trkpt>
      <trkpt lat="43.49783" lon="2.66263">
        <ele>771.93259623382</ele>
        <time>2016-09-24T10:49:59Z</time>
      </trkpt>
      <trkpt lat="43.49784" lon="2.66259">
        <ele>771.93259623382</ele>
        <time>2016-09-24T10:50:04Z</time>
      </trkpt>
      <trkpt lat="43.49786" lon="2.66251">
        <ele>771.93259623382</ele>
        <time>2016-09-24T10:50:09Z</time>
      </trkpt>
      <trkpt lat="43.49788" lon="2.66246">
        <ele>772.85614499989</ele>
        <time>2016-09-24T10:50:14Z</time>
      </trkpt>
      <trkpt lat="43.49791" lon="2.6624">
        <ele>772.85614499989</ele>
        <time>2016-09-24T10:50:19Z</time>
      </trkpt>
      <trkpt lat="43.49794" lon="2.66236">
        <ele>772.85614499989</ele>
        <time>2016-09-24T10:50:24Z</time>
      </trkpt>
      <trkpt lat="43.49797" lon="2.66235">
        <ele>773.84277603885</ele>
        <time>2016-09-24T10:50:29Z</time>
      </trkpt>
      <trkpt lat="43.49802" lon="2.66235">
        <ele>773.84277603885</ele>
        <time>2016-09-24T10:50:34Z</time>
      </trkpt>
      <trkpt lat="43.49803" lon="2.66235">
        <ele>773.84277603885</ele>
        <time>2016-09-24T10:50:39Z</time>
      </trkpt>
      <trkpt lat="43.49808" lon="2.66236">
        <ele>774.88805317486</ele>
        <time>2016-09-24T10:50:44Z</time>
      </trkpt>
      <trkpt lat="43.49814" lon="2.66235">
        <ele>774.88805317486</ele>
        <time>2016-09-24T10:50:49Z</time>
      </trkpt>
      <trkpt lat="43.49817" lon="2.66234">
        <ele>774.88805317486</ele>
        <time>2016-09-24T10:50:54Z</time>
      </trkpt>
      <trkpt lat="43.49819" lon="2.66232">
        <ele>775.97327862786</ele>
        <time>2016-09-24T10:50:59Z</time>
      </trkpt>
      <trkpt lat="43.49825" lon="2.66231">
        <ele>775.97327862786</ele>
        <time>2016-09-24T10:51:04Z</time>
      </trkpt>
      <trkpt lat="43.49831" lon="2.66229">
        <ele>777.03777152529</ele>
        <time>2016-09-24T10:51:09Z</time>
      </trkpt>
      <trkpt lat="43.49838" lon="2.66227">
        <ele>777.03777152529</ele>
        <time>2016-09-24T10:51:14Z</time>
      </trkpt>
      <trkpt lat="43.49842" lon="2.66225">
        <ele>778.05417856784</ele>
        <time>2016-09-24T10:51:19Z</time>
      </trkpt>
      <trkpt lat="43.49844" lon="2.66224">
        <ele>778.05417856784</ele>
        <time>2016-09-24T10:51:24Z</time>
      </trkpt>
      <trkpt lat="43.49848" lon="2.66224">
        <ele>778.05417856784</ele>
        <time>2016-09-24T10:51:29Z</time>
      </trkpt>
      <trkpt lat="43.49852" lon="2.66225">
        <ele>779.0549255696</ele>
        <time>2016-09-24T10:51:34Z</time>
      </trkpt>
      <trkpt lat="43.49856" lon="2.66228">
        <ele>779.0549255696</ele>
        <time>2016-09-24T10:51:39Z</time>
      </trkpt>
      <trkpt lat="43.49858" lon="2.66229">
        <ele>779.0549255696</ele>
        <time>2016-09-24T10:51:44Z</time>
      </trkpt>
      <trkpt lat="43.49858" lon="2.6623">
        <ele>779.0549255696</ele>
        <time>2016-09-24T10:51:49Z</time>
      </trkpt>
      <trkpt lat="43.4986" lon="2.66229">
        <ele>780.05568023032</ele>
        <time>2016-09-24T10:51:54Z</time>
      </trkpt>
      <trkpt lat="43.49864" lon="2.6623">
        <ele>780.05568023032</ele>
        <time>2016-09-24T10:51:59Z</time>
      </trkpt>
      <trkpt lat="43.49865" lon="2.6623">
        <ele>780.05568023032</ele>
        <time>2016-09-24T10:52:04Z</time>
      </trkpt>
      <trkpt lat="43.49869" lon="2.66229">
        <ele>781.05653970302</ele>
        <time>2016-09-24T10:52:09Z</time>
      </trkpt>
      <trkpt lat="43.49871" lon="2.6623">
        <ele>781.05653970302</ele>
        <time>2016-09-24T10:52:14Z</time>
      </trkpt>
      <trkpt lat="43.49874" lon="2.66231">
        <ele>781.05653970302</ele>
        <time>2016-09-24T10:52:19Z</time>
      </trkpt>
      <trkpt lat="43.49879" lon="2.66229">
        <ele>782.02876332985</ele>
        <time>2016-09-24T10:52:24Z</time>
      </trkpt>
      <trkpt lat="43.49889" lon="2.66229">
        <ele>782.88814950971</ele>
        <time>2016-09-24T10:52:29Z</time>
      </trkpt>
      <trkpt lat="43.49894" lon="2.6623">
        <ele>782.88814950971</ele>
        <time>2016-09-24T10:52:34Z</time>
      </trkpt>
      <trkpt lat="43.49898" lon="2.66233">
        <ele>783.6866903232</ele>
        <time>2016-09-24T10:52:39Z</time>
      </trkpt>
      <trkpt lat="43.49902" lon="2.66234">
        <ele>783.6866903232</ele>
        <time>2016-09-24T10:52:44Z</time>
      </trkpt>
      <trkpt lat="43.4991" lon="2.66234">
        <ele>784.48713148363</ele>
        <time>2016-09-24T10:52:49Z</time>
      </trkpt>
      <trkpt lat="43.49917" lon="2.66236">
        <ele>784.48713148363</ele>
        <time>2016-09-24T10:52:54Z</time>
      </trkpt>
      <trkpt lat="43.49922" lon="2.66236">
        <ele>785.28994990988</ele>
        <time>2016-09-24T10:52:59Z</time>
      </trkpt>
      <trkpt lat="43.49926" lon="2.66236">
        <ele>785.28994990988</ele>
        <time>2016-09-24T10:53:04Z</time>
      </trkpt>
      <trkpt lat="43.49929" lon="2.66235">
        <ele>785.28994990988</ele>
        <time>2016-09-24T10:53:09Z</time>
      </trkpt>
      <trkpt lat="43.49933" lon="2.66234">
        <ele>786.16762575774</ele>
        <time>2016-09-24T10:53:14Z</time>
      </trkpt>
      <trkpt lat="43.49937" lon="2.66226">
        <ele>786.16762575774</ele>
        <time>2016-09-24T10:53:19Z</time>
      </trkpt>
      <trkpt lat="43.4994" lon="2.66216">
        <ele>787.10062680754</ele>
        <time>2016-09-24T10:53:24Z</time>
      </trkpt>
      <trkpt lat="43.4994" lon="2.66211">
        <ele>787.10062680754</ele>
        <time>2016-09-24T10:53:29Z</time>
      </trkpt>
      <trkpt lat="43.4994" lon="2.6621">
        <ele>787.10062680754</ele>
        <time>2016-09-24T10:53:34Z</time>
      </trkpt>
      <trkpt lat="43.4994" lon="2.66211">
        <ele>787.10062680754</ele>
        <time>2016-09-24T10:53:39Z</time>
      </trkpt>
      <trkpt lat="43.4994" lon="2.6621">
        <ele>787.10062680754</ele>
        <time>2016-09-24T10:53:44Z</time>
      </trkpt>
      <trkpt lat="43.4994" lon="2.66209">
        <ele>787.10062680754</ele>
        <time>2016-09-24T10:53:49Z</time>
      </trkpt>
      <trkpt lat="43.49941" lon="2.66211">
        <ele>787.10062680754</ele>
        <time>2016-09-24T10:53:54Z</time>
      </trkpt>
      <trkpt lat="43.4994" lon="2.66213">
        <ele>788.40214509306</ele>
        <time>2016-09-24T10:53:59Z</time>
      </trkpt>
      <trkpt lat="43.4994" lon="2.66214">
        <ele>788.40214509306</ele>
        <time>2016-09-24T10:54:04Z</time>
      </trkpt>
      <trkpt lat="43.49944" lon="2.66209">
        <ele>788.40214509306</ele>
        <time>2016-09-24T10:54:09Z</time>
      </trkpt>
      <trkpt lat="43.49946" lon="2.66207">
        <ele>790.01545568723</ele>
        <time>2016-09-24T10:54:14Z</time>
      </trkpt>
      <trkpt lat="43.49945" lon="2.66207">
        <ele>790.01545568723</ele>
        <time>2016-09-24T10:54:19Z</time>
      </trkpt>
      <trkpt lat="43.49945" lon="2.66213">
        <ele>790.01545568723</ele>
        <time>2016-09-24T10:54:24Z</time>
      </trkpt>
      <trkpt lat="43.49944" lon="2.66214">
        <ele>790.01545568723</ele>
        <time>2016-09-24T10:54:29Z</time>
      </trkpt>
      <trkpt lat="43.49943" lon="2.66211">
        <ele>790.01545568723</ele>
        <time>2016-09-24T10:54:34Z</time>
      </trkpt>
      <trkpt lat="43.49943" lon="2.66212">
        <ele>791.78624185967</ele>
        <time>2016-09-24T10:54:39Z</time>
      </trkpt>
      <trkpt lat="43.49944" lon="2.66211">
        <ele>791.78624185967</ele>
        <time>2016-09-24T10:54:44Z</time>
      </trkpt>
      <trkpt lat="43.49943" lon="2.66204">
        <ele>791.78624185967</ele>
        <time>2016-09-24T10:54:49Z</time>
      </trkpt>
      <trkpt lat="43.49941" lon="2.66199">
        <ele>793.7728354443</ele>
        <time>2016-09-24T10:54:54Z</time>
      </trkpt>
      <trkpt lat="43.4994" lon="2.66192">
        <ele>793.7728354443</ele>
        <time>2016-09-24T10:54:59Z</time>
      </trkpt>
      <trkpt lat="43.49937" lon="2.66191">
        <ele>793.7728354443</ele>
        <time>2016-09-24T10:55:04Z</time>
      </trkpt>
      <trkpt lat="43.49937" lon="2.66191">
        <ele>793.7728354443</ele>
        <time>2016-09-24T10:55:09Z</time>
      </trkpt>
      <trkpt lat="43.49936" lon="2.66191">
        <ele>793.7728354443</ele>
        <time>2016-09-24T10:55:14Z</time>
      </trkpt>
      <trkpt lat="43.49936" lon="2.66191">
        <ele>795.87016077657</ele>
        <time>2016-09-24T10:55:19Z</time>
      </trkpt>
      <trkpt lat="43.49936" lon="2.66191">
        <ele>795.87016077657</ele>
        <time>2016-09-24T10:55:24Z</time>
      </trkpt>
      <trkpt lat="43.49937" lon="2.66192">
        <ele>795.87016077657</ele>
        <time>2016-09-24T10:55:29Z</time>
      </trkpt>
      <trkpt lat="43.49936" lon="2.66192">
        <ele>795.87016077657</ele>
        <time>2016-09-24T10:55:34Z</time>
      </trkpt>
      <trkpt lat="43.49937" lon="2.66194">
        <ele>795.87016077657</ele>
        <time>2016-09-24T10:55:39Z</time>
      </trkpt>
      <trkpt lat="43.49937" lon="2.66195">
        <ele>795.87016077657</ele>
        <time>2016-09-24T10:55:44Z</time>
      </trkpt>
      <trkpt lat="43.49936" lon="2.66197">
        <ele>795.87016077657</ele>
        <time>2016-09-24T10:55:49Z</time>
      </trkpt>
      <trkpt lat="43.49935" lon="2.66197">
        <ele>795.87016077657</ele>
        <time>2016-09-24T10:55:54Z</time>
      </trkpt>
      <trkpt lat="43.49935" lon="2.66197">
        <ele>795.87016077657</ele>
        <time>2016-09-24T10:55:59Z</time>
      </trkpt>
      <trkpt lat="43.49935" lon="2.66197">
        <ele>795.87016077657</ele>
        <time>2016-09-24T10:56:04Z</time>
      </trkpt>
      <trkpt lat="43.49935" lon="2.66196">
        <ele>795.87016077657</ele>
        <time>2016-09-24T10:56:09Z</time>
      </trkpt>
      <trkpt lat="43.49935" lon="2.66196">
        <ele>795.87016077657</ele>
        <time>2016-09-24T10:56:14Z</time>
      </trkpt>
      <trkpt lat="43.49935" lon="2.66195">
        <ele>795.87016077657</ele>
        <time>2016-09-24T10:56:19Z</time>
      </trkpt>
      <trkpt lat="43.49936" lon="2.6619">
        <ele>797.96615179101</ele>
        <time>2016-09-24T10:56:24Z</time>
      </trkpt>
      <trkpt lat="43.49936" lon="2.66181">
        <ele>797.96615179101</ele>
        <time>2016-09-24T10:56:29Z</time>
      </trkpt>
      <trkpt lat="43.49936" lon="2.66176">
        <ele>800.01464302711</ele>
        <time>2016-09-24T10:56:34Z</time>
      </trkpt>
      <trkpt lat="43.49935" lon="2.6617">
        <ele>800.01464302711</ele>
        <time>2016-09-24T10:56:39Z</time>
      </trkpt>
      <trkpt lat="43.49933" lon="2.66167">
        <ele>800.01464302711</ele>
        <time>2016-09-24T10:56:44Z</time>
      </trkpt>
      <trkpt lat="43.49932" lon="2.66163">
        <ele>802.0306654066</ele>
        <time>2016-09-24T10:56:49Z</time>
      </trkpt>
      <trkpt lat="43.49931" lon="2.66158">
        <ele>802.0306654066</ele>
        <time>2016-09-24T10:56:54Z</time>
      </trkpt>
      <trkpt lat="43.4993" lon="2.66152">
        <ele>802.0306654066</ele>
        <time>2016-09-24T10:56:59Z</time>
      </trkpt>
      <trkpt lat="43.4993" lon="2.66146">
        <ele>803.9706262086</ele>
        <time>2016-09-24T10:57:04Z</time>
      </trkpt>
      <trkpt lat="43.4993" lon="2.6614">
        <ele>803.9706262086</ele>
        <time>2016-09-24T10:57:09Z</time>
      </trkpt>
      <trkpt lat="43.49929" lon="2.66136">
        <ele>803.9706262086</ele>
        <time>2016-09-24T10:57:14Z</time>
      </trkpt>
      <trkpt lat="43.49928" lon="2.66134">
        <ele>805.80879888398</ele>
        <time>2016-09-24T10:57:19Z</time>
      </trkpt>
      <trkpt lat="43.49926" lon="2.66131">
        <ele>805.80879888398</ele>
        <time>2016-09-24T10:57:24Z</time>
      </trkpt>
      <trkpt lat="43.49927" lon="2.66121">
        <ele>807.49285369236</ele>
        <time>2016-09-24T10:57:29Z</time>
      </trkpt>
      <trkpt lat="43.49925" lon="2.66118">
        <ele>807.49285369236</ele>
        <time>2016-09-24T10:57:34Z</time>
      </trkpt>
      <trkpt lat="43.49925" lon="2.6611">
        <ele>807.49285369236</ele>
        <time>2016-09-24T10:57:39Z</time>
      </trkpt>
      <trkpt lat="43.49924" lon="2.66106">
        <ele>809.0468395341</ele>
        <time>2016-09-24T10:57:44Z</time>
      </trkpt>
      <trkpt lat="43.4992" lon="2.66099">
        <ele>809.0468395341</ele>
        <time>2016-09-24T10:57:49Z</time>
      </trkpt>
      <trkpt lat="43.49916" lon="2.66092">
        <ele>810.45021835671</ele>
        <time>2016-09-24T10:57:54Z</time>
      </trkpt>
      <trkpt lat="43.49915" lon="2.66087">
        <ele>810.45021835671</ele>
        <time>2016-09-24T10:57:59Z</time>
      </trkpt>
      <trkpt lat="43.49912" lon="2.66085">
        <ele>810.45021835671</ele>
        <time>2016-09-24T10:58:04Z</time>
      </trkpt>
      <trkpt lat="43.49911" lon="2.66079">
        <ele>811.75648722197</ele>
        <time>2016-09-24T10:58:09Z</time>
      </trkpt>
      <trkpt lat="43.49907" lon="2.66072">
        <ele>811.75648722197</ele>
        <time>2016-09-24T10:58:14Z</time>
      </trkpt>
      <trkpt lat="43.49902" lon="2.66067">
        <ele>812.91465511572</ele>
        <time>2016-09-24T10:58:19Z</time>
      </trkpt>
      <trkpt lat="43.49899" lon="2.66062">
        <ele>812.91465511572</ele>
        <time>2016-09-24T10:58:24Z</time>
      </trkpt>
      <trkpt lat="43.49897" lon="2.66056">
        <ele>813.96440388247</ele>
        <time>2016-09-24T10:58:29Z</time>
      </trkpt>
      <trkpt lat="43.49893" lon="2.66052">
        <ele>813.96440388247</ele>
        <time>2016-09-24T10:58:34Z</time>
      </trkpt>
      <trkpt lat="43.4989" lon="2.66043">
        <ele>814.89961281111</ele>
        <time>2016-09-24T10:58:39Z</time>
      </trkpt>
      <trkpt lat="43.49889" lon="2.66041">
        <ele>814.89961281111</ele>
        <time>2016-09-24T10:58:44Z</time>
      </trkpt>
      <trkpt lat="43.49886" lon="2.66035">
        <ele>814.89961281111</ele>
        <time>2016-09-24T10:58:49Z</time>
      </trkpt>
      <trkpt lat="43.49885" lon="2.66029">
        <ele>815.77261419157</ele>
        <time>2016-09-24T10:58:54Z</time>
      </trkpt>
      <trkpt lat="43.49886" lon="2.66021">
        <ele>815.77261419157</ele>
        <time>2016-09-24T10:58:59Z</time>
      </trkpt>
      <trkpt lat="43.49884" lon="2.66017">
        <ele>816.54563664428</ele>
        <time>2016-09-24T10:59:04Z</time>
      </trkpt>
      <trkpt lat="43.49881" lon="2.66013">
        <ele>816.54563664428</ele>
        <time>2016-09-24T10:59:09Z</time>
      </trkpt>
      <trkpt lat="43.49878" lon="2.66008">
        <ele>816.54563664428</ele>
        <time>2016-09-24T10:59:14Z</time>
      </trkpt>
      <trkpt lat="43.49877" lon="2.65999">
        <ele>817.25604707031</ele>
        <time>2016-09-24T10:59:19Z</time>
      </trkpt>
      <trkpt lat="43.49877" lon="2.65995">
        <ele>817.25604707031</ele>
        <time>2016-09-24T10:59:24Z</time>
      </trkpt>
      <trkpt lat="43.49876" lon="2.65988">
        <ele>817.25604707031</ele>
        <time>2016-09-24T10:59:29Z</time>
      </trkpt>
      <trkpt lat="43.49874" lon="2.65983">
        <ele>817.92425393171</ele>
        <time>2016-09-24T10:59:34Z</time>
      </trkpt>
      <trkpt lat="43.49872" lon="2.65976">
        <ele>817.92425393171</ele>
        <time>2016-09-24T10:59:39Z</time>
      </trkpt>
      <trkpt lat="43.49872" lon="2.65973">
        <ele>817.92425393171</ele>
        <time>2016-09-24T10:59:44Z</time>
      </trkpt>
      <trkpt lat="43.49871" lon="2.65965">
        <ele>818.56930114213</ele>
        <time>2016-09-24T10:59:49Z</time>
      </trkpt>
      <trkpt lat="43.49871" lon="2.65963">
        <ele>818.56930114213</ele>
        <time>2016-09-24T10:59:54Z</time>
      </trkpt>
      <trkpt lat="43.4987" lon="2.65952">
        <ele>819.15126458382</ele>
        <time>2016-09-24T10:59:59Z</time>
      </trkpt>
      <trkpt lat="43.4987" lon="2.65942">
        <ele>819.15126458382</ele>
        <time>2016-09-24T11:00:04Z</time>
      </trkpt>
      <trkpt lat="43.4987" lon="2.65931">
        <ele>819.67656786166</ele>
        <time>2016-09-24T11:00:09Z</time>
      </trkpt>
      <trkpt lat="43.4987" lon="2.65922">
        <ele>819.67656786166</ele>
        <time>2016-09-24T11:00:14Z</time>
      </trkpt>
      <trkpt lat="43.49869" lon="2.65912">
        <ele>820.15132047081</ele>
        <time>2016-09-24T11:00:19Z</time>
      </trkpt>
      <trkpt lat="43.49871" lon="2.65906">
        <ele>820.15132047081</ele>
        <time>2016-09-24T11:00:24Z</time>
      </trkpt>
      <trkpt lat="43.49872" lon="2.65901">
        <ele>820.15132047081</ele>
        <time>2016-09-24T11:00:29Z</time>
      </trkpt>
      <trkpt lat="43.49873" lon="2.65894">
        <ele>820.6245513968</ele>
        <time>2016-09-24T11:00:34Z</time>
      </trkpt>
      <trkpt lat="43.49874" lon="2.65889">
        <ele>820.6245513968</ele>
        <time>2016-09-24T11:00:39Z</time>
      </trkpt>
      <trkpt lat="43.49874" lon="2.65879">
        <ele>821.04080193296</ele>
        <time>2016-09-24T11:00:44Z</time>
      </trkpt>
      <trkpt lat="43.49876" lon="2.65871">
        <ele>821.04080193296</ele>
        <time>2016-09-24T11:00:49Z</time>
      </trkpt>
      <trkpt lat="43.49875" lon="2.65867">
        <ele>821.42088477534</ele>
        <time>2016-09-24T11:00:54Z</time>
      </trkpt>
      <trkpt lat="43.49874" lon="2.65862">
        <ele>821.42088477534</ele>
        <time>2016-09-24T11:00:59Z</time>
      </trkpt>
      <trkpt lat="43.49875" lon="2.65851">
        <ele>821.76975077839</ele>
        <time>2016-09-24T11:01:04Z</time>
      </trkpt>
      <trkpt lat="43.49877" lon="2.65843">
        <ele>821.76975077839</ele>
        <time>2016-09-24T11:01:09Z</time>
      </trkpt>
      <trkpt lat="43.49879" lon="2.65833">
        <ele>822.09204627529</ele>
        <time>2016-09-24T11:01:14Z</time>
      </trkpt>
      <trkpt lat="43.49881" lon="2.65825">
        <ele>822.09204627529</ele>
        <time>2016-09-24T11:01:19Z</time>
      </trkpt>
      <trkpt lat="43.49883" lon="2.65822">
        <ele>822.37770635018</ele>
        <time>2016-09-24T11:01:24Z</time>
      </trkpt>
      <trkpt lat="43.49886" lon="2.65814">
        <ele>822.37770635018</ele>
        <time>2016-09-24T11:01:29Z</time>
      </trkpt>
      <trkpt lat="43.49888" lon="2.65809">
        <ele>822.63188124769</ele>
        <time>2016-09-24T11:01:34Z</time>
      </trkpt>
      <trkpt lat="43.49891" lon="2.65803">
        <ele>822.63188124769</ele>
        <time>2016-09-24T11:01:39Z</time>
      </trkpt>
      <trkpt lat="43.49894" lon="2.65794">
        <ele>822.8593885903</ele>
        <time>2016-09-24T11:01:44Z</time>
      </trkpt>
      <trkpt lat="43.49897" lon="2.65786">
        <ele>822.8593885903</ele>
        <time>2016-09-24T11:01:49Z</time>
      </trkpt>
      <trkpt lat="43.49898" lon="2.65781">
        <ele>823.06472000196</ele>
        <time>2016-09-24T11:01:54Z</time>
      </trkpt>
      <trkpt lat="43.49901" lon="2.65774">
        <ele>823.06472000196</ele>
        <time>2016-09-24T11:01:59Z</time>
      </trkpt>
      <trkpt lat="43.49904" lon="2.65769">
        <ele>823.25204840071</ele>
        <time>2016-09-24T11:02:04Z</time>
      </trkpt>
      <trkpt lat="43.49906" lon="2.65764">
        <ele>823.25204840071</ele>
        <time>2016-09-24T11:02:09Z</time>
      </trkpt>
      <trkpt lat="43.49909" lon="2.6576">
        <ele>823.25204840071</ele>
        <time>2016-09-24T11:02:14Z</time>
      </trkpt>
      <trkpt lat="43.49912" lon="2.65757">
        <ele>823.46846934789</ele>
        <time>2016-09-24T11:02:19Z</time>
      </trkpt>
      <trkpt lat="43.49914" lon="2.65754">
        <ele>823.46846934789</ele>
        <time>2016-09-24T11:02:24Z</time>
      </trkpt>
      <trkpt lat="43.49917" lon="2.65745">
        <ele>823.71424587347</ele>
        <time>2016-09-24T11:02:29Z</time>
      </trkpt>
      <trkpt lat="43.49923" lon="2.65741">
        <ele>823.71424587347</ele>
        <time>2016-09-24T11:02:34Z</time>
      </trkpt>
      <trkpt lat="43.49927" lon="2.65737">
        <ele>823.98947860292</ele>
        <time>2016-09-24T11:02:39Z</time>
      </trkpt>
      <trkpt lat="43.4993" lon="2.65732">
        <ele>823.98947860292</ele>
        <time>2016-09-24T11:02:44Z</time>
      </trkpt>
      <trkpt lat="43.49932" lon="2.65727">
        <ele>824.27970406803</ele>
        <time>2016-09-24T11:02:49Z</time>
      </trkpt>
      <trkpt lat="43.49934" lon="2.65718">
        <ele>824.27970406803</ele>
        <time>2016-09-24T11:02:54Z</time>
      </trkpt>
      <trkpt lat="43.49936" lon="2.65707">
        <ele>824.57141458834</ele>
        <time>2016-09-24T11:02:59Z</time>
      </trkpt>
      <trkpt lat="43.49935" lon="2.65707">
        <ele>824.57141458834</ele>
        <time>2016-09-24T11:03:04Z</time>
      </trkpt>
      <trkpt lat="43.49936" lon="2.65701">
        <ele>824.57141458834</ele>
        <time>2016-09-24T11:03:09Z</time>
      </trkpt>
      <trkpt lat="43.49936" lon="2.65698">
        <ele>824.57141458834</ele>
        <time>2016-09-24T11:03:14Z</time>
      </trkpt>
      <trkpt lat="43.49939" lon="2.65694">
        <ele>824.99613612612</ele>
        <time>2016-09-24T11:03:19Z</time>
      </trkpt>
      <trkpt lat="43.49942" lon="2.65688">
        <ele>824.99613612612</ele>
        <time>2016-09-24T11:03:24Z</time>
      </trkpt>
      <trkpt lat="43.49945" lon="2.65684">
        <ele>825.45912691414</ele>
        <time>2016-09-24T11:03:29Z</time>
      </trkpt>
      <trkpt lat="43.49949" lon="2.65679">
        <ele>825.45912691414</ele>
        <time>2016-09-24T11:03:34Z</time>
      </trkpt>
      <trkpt lat="43.49953" lon="2.65675">
        <ele>825.94448727853</ele>
        <time>2016-09-24T11:03:39Z</time>
      </trkpt>
      <trkpt lat="43.49957" lon="2.65673">
        <ele>825.94448727853</ele>
        <time>2016-09-24T11:03:44Z</time>
      </trkpt>
      <trkpt lat="43.49962" lon="2.65669">
        <ele>826.43735775346</ele>
        <time>2016-09-24T11:03:49Z</time>
      </trkpt>
      <trkpt lat="43.49966" lon="2.65665">
        <ele>826.43735775346</ele>
        <time>2016-09-24T11:03:54Z</time>
      </trkpt>
      <trkpt lat="43.49969" lon="2.65663">
        <ele>826.43735775346</ele>
        <time>2016-09-24T11:03:59Z</time>
      </trkpt>
      <trkpt lat="43.49973" lon="2.6566">
        <ele>826.95270786371</ele>
        <time>2016-09-24T11:04:04Z</time>
      </trkpt>
      <trkpt lat="43.49976" lon="2.65657">
        <ele>826.95270786371</ele>
        <time>2016-09-24T11:04:09Z</time>
      </trkpt>
      <trkpt lat="43.49979" lon="2.6565">
        <ele>827.46104883013</ele>
        <time>2016-09-24T11:04:14Z</time>
      </trkpt>
      <trkpt lat="43.49982" lon="2.65647">
        <ele>827.46104883013</ele>
        <time>2016-09-24T11:04:19Z</time>
      </trkpt>
      <trkpt lat="43.49987" lon="2.65642">
        <ele>827.9638394075</ele>
        <time>2016-09-24T11:04:24Z</time>
      </trkpt>
      <trkpt lat="43.49991" lon="2.65639">
        <ele>827.9638394075</ele>
        <time>2016-09-24T11:04:29Z</time>
      </trkpt>
      <trkpt lat="43.49996" lon="2.65634">
        <ele>828.44797676208</ele>
        <time>2016-09-24T11:04:34Z</time>
      </trkpt>
      <trkpt lat="43.50001" lon="2.65632">
        <ele>828.44797676208</ele>
        <time>2016-09-24T11:04:39Z</time>
      </trkpt>
      <trkpt lat="43.50006" lon="2.65625">
        <ele>828.91572685487</ele>
        <time>2016-09-24T11:04:44Z</time>
      </trkpt>
      <trkpt lat="43.50013" lon="2.65618">
        <ele>829.32594620466</ele>
        <time>2016-09-24T11:04:49Z</time>
      </trkpt>
      <trkpt lat="43.50016" lon="2.65614">
        <ele>829.32594620466</ele>
        <time>2016-09-24T11:04:54Z</time>
      </trkpt>
      <trkpt lat="43.50019" lon="2.65611">
        <ele>829.32594620466</ele>
        <time>2016-09-24T11:04:59Z</time>
      </trkpt>
      <trkpt lat="43.50026" lon="2.65598">
        <ele>829.74149877732</ele>
        <time>2016-09-24T11:05:04Z</time>
      </trkpt>
      <trkpt lat="43.50029" lon="2.65591">
        <ele>829.74149877732</ele>
        <time>2016-09-24T11:05:09Z</time>
      </trkpt>
      <trkpt lat="43.50036" lon="2.65585">
        <ele>830.13409610524</ele>
        <time>2016-09-24T11:05:14Z</time>
      </trkpt>
      <trkpt lat="43.50042" lon="2.65579">
        <ele>830.13409610524</ele>
        <time>2016-09-24T11:05:19Z</time>
      </trkpt>
      <trkpt lat="43.50047" lon="2.65574">
        <ele>830.49195162169</ele>
        <time>2016-09-24T11:05:24Z</time>
      </trkpt>
      <trkpt lat="43.5005" lon="2.65568">
        <ele>830.49195162169</ele>
        <time>2016-09-24T11:05:29Z</time>
      </trkpt>
      <trkpt lat="43.50053" lon="2.65562">
        <ele>830.81860251449</ele>
        <time>2016-09-24T11:05:34Z</time>
      </trkpt>
      <trkpt lat="43.50057" lon="2.65556">
        <ele>830.81860251449</ele>
        <time>2016-09-24T11:05:39Z</time>
      </trkpt>
      <trkpt lat="43.50062" lon="2.6555">
        <ele>831.11736389732</ele>
        <time>2016-09-24T11:05:44Z</time>
      </trkpt>
      <trkpt lat="43.50067" lon="2.65544">
        <ele>831.11736389732</ele>
        <time>2016-09-24T11:05:49Z</time>
      </trkpt>
      <trkpt lat="43.5007" lon="2.65538">
        <ele>831.37692540439</ele>
        <time>2016-09-24T11:05:54Z</time>
      </trkpt>
      <trkpt lat="43.50073" lon="2.65532">
        <ele>831.37692540439</ele>
        <time>2016-09-24T11:05:59Z</time>
      </trkpt>
      <trkpt lat="43.50077" lon="2.65525">
        <ele>831.61569118596</ele>
        <time>2016-09-24T11:06:04Z</time>
      </trkpt>
      <trkpt lat="43.50079" lon="2.6552">
        <ele>831.61569118596</ele>
        <time>2016-09-24T11:06:09Z</time>
      </trkpt>
      <trkpt lat="43.5008" lon="2.65512">
        <ele>831.82190138208</ele>
        <time>2016-09-24T11:06:14Z</time>
      </trkpt>
      <trkpt lat="43.50081" lon="2.65506">
        <ele>831.82190138208</ele>
        <time>2016-09-24T11:06:19Z</time>
      </trkpt>
      <trkpt lat="43.50084" lon="2.65497">
        <ele>831.99911453704</ele>
        <time>2016-09-24T11:06:24Z</time>
      </trkpt>
      <trkpt lat="43.50088" lon="2.65486">
        <ele>832.13625020258</ele>
        <time>2016-09-24T11:06:29Z</time>
      </trkpt>
      <trkpt lat="43.50089" lon="2.6548">
        <ele>832.13625020258</ele>
        <time>2016-09-24T11:06:34Z</time>
      </trkpt>
      <trkpt lat="43.50089" lon="2.65473">
        <ele>832.13625020258</ele>
        <time>2016-09-24T11:06:39Z</time>
      </trkpt>
      <trkpt lat="43.50091" lon="2.6547">
        <ele>832.23751759521</ele>
        <time>2016-09-24T11:06:44Z</time>
      </trkpt>
      <trkpt lat="43.50094" lon="2.65467">
        <ele>832.23751759521</ele>
        <time>2016-09-24T11:06:49Z</time>
      </trkpt>
      <trkpt lat="43.50094" lon="2.65467">
        <ele>832.23751759521</ele>
        <time>2016-09-24T11:06:54Z</time>
      </trkpt>
      <trkpt lat="43.50094" lon="2.65467">
        <ele>832.23751759521</ele>
        <time>2016-09-24T11:06:59Z</time>
      </trkpt>
      <trkpt lat="43.50092" lon="2.65467">
        <ele>832.23751759521</ele>
        <time>2016-09-24T11:07:04Z</time>
      </trkpt>
      <trkpt lat="43.50092" lon="2.65467">
        <ele>832.23751759521</ele>
        <time>2016-09-24T11:07:09Z</time>
      </trkpt>
      <trkpt lat="43.50092" lon="2.65467">
        <ele>832.23751759521</ele>
        <time>2016-09-24T11:07:14Z</time>
      </trkpt>
      <trkpt lat="43.50092" lon="2.65467">
        <ele>832.23751759521</ele>
        <time>2016-09-24T11:07:19Z</time>
      </trkpt>
      <trkpt lat="43.50092" lon="2.65467">
        <ele>832.23751759521</ele>
        <time>2016-09-24T11:07:24Z</time>
      </trkpt>
      <trkpt lat="43.50092" lon="2.65467">
        <ele>832.23751759521</ele>
        <time>2016-09-24T11:07:29Z</time>
      </trkpt>
      <trkpt lat="43.50092" lon="2.65467">
        <ele>832.23751759521</ele>
        <time>2016-09-24T11:07:34Z</time>
      </trkpt>
      <trkpt lat="43.50091" lon="2.65467">
        <ele>832.23751759521</ele>
        <time>2016-09-24T11:07:39Z</time>
      </trkpt>
      <trkpt lat="43.50091" lon="2.65467">
        <ele>832.23751759521</ele>
        <time>2016-09-24T11:07:44Z</time>
      </trkpt>
      <trkpt lat="43.50091" lon="2.65467">
        <ele>832.23751759521</ele>
        <time>2016-09-24T11:07:49Z</time>
      </trkpt>
      <trkpt lat="43.50091" lon="2.65467">
        <ele>832.23751759521</ele>
        <time>2016-09-24T11:07:54Z</time>
      </trkpt>
      <trkpt lat="43.5009" lon="2.65468">
        <ele>832.30686932922</ele>
        <time>2016-09-24T11:07:59Z</time>
      </trkpt>
      <trkpt lat="43.5009" lon="2.65469">
        <ele>832.30686932922</ele>
        <time>2016-09-24T11:08:04Z</time>
      </trkpt>
      <trkpt lat="43.5009" lon="2.65469">
        <ele>832.30686932922</ele>
        <time>2016-09-24T11:08:09Z</time>
      </trkpt>
      <trkpt lat="43.50091" lon="2.65467">
        <ele>832.30686932922</ele>
        <time>2016-09-24T11:08:14Z</time>
      </trkpt>
      <trkpt lat="43.50092" lon="2.65467">
        <ele>832.30686932922</ele>
        <time>2016-09-24T11:08:19Z</time>
      </trkpt>
      <trkpt lat="43.50092" lon="2.65467">
        <ele>832.30686932922</ele>
        <time>2016-09-24T11:08:24Z</time>
      </trkpt>
      <trkpt lat="43.50092" lon="2.65465">
        <ele>832.30686932922</ele>
        <time>2016-09-24T11:08:29Z</time>
      </trkpt>
      <trkpt lat="43.50091" lon="2.65463">
        <ele>832.30686932922</ele>
        <time>2016-09-24T11:08:34Z</time>
      </trkpt>
      <trkpt lat="43.50091" lon="2.65462">
        <ele>832.30686932922</ele>
        <time>2016-09-24T11:08:39Z</time>
      </trkpt>
      <trkpt lat="43.50089" lon="2.65458">
        <ele>832.37683116267</ele>
        <time>2016-09-24T11:08:44Z</time>
      </trkpt>
      <trkpt lat="43.50087" lon="2.65455">
        <ele>832.37683116267</ele>
        <time>2016-09-24T11:08:49Z</time>
      </trkpt>
      <trkpt lat="43.50084" lon="2.6545">
        <ele>832.37683116267</ele>
        <time>2016-09-24T11:08:54Z</time>
      </trkpt>
      <trkpt lat="43.50081" lon="2.65446">
        <ele>832.41984476528</ele>
        <time>2016-09-24T11:08:59Z</time>
      </trkpt>
      <trkpt lat="43.50077" lon="2.65441">
        <ele>832.41984476528</ele>
        <time>2016-09-24T11:09:04Z</time>
      </trkpt>
      <trkpt lat="43.50075" lon="2.65439">
        <ele>832.41984476528</ele>
        <time>2016-09-24T11:09:09Z</time>
      </trkpt>
      <trkpt lat="43.50069" lon="2.65437">
        <ele>832.43922513115</ele>
        <time>2016-09-24T11:09:14Z</time>
      </trkpt>
      <trkpt lat="43.50067" lon="2.65433">
        <ele>832.43922513115</ele>
        <time>2016-09-24T11:09:19Z</time>
      </trkpt>
      <trkpt lat="43.50065" lon="2.65435">
        <ele>832.43922513115</ele>
        <time>2016-09-24T11:09:24Z</time>
      </trkpt>
      <trkpt lat="43.50061" lon="2.65438">
        <ele>832.42364963851</ele>
        <time>2016-09-24T11:09:29Z</time>
      </trkpt>
      <trkpt lat="43.50061" lon="2.6544">
        <ele>832.42364963851</ele>
        <time>2016-09-24T11:09:34Z</time>
      </trkpt>
      <trkpt lat="43.50064" lon="2.65441">
        <ele>832.42364963851</ele>
        <time>2016-09-24T11:09:39Z</time>
      </trkpt>
      <trkpt lat="43.50064" lon="2.65441">
        <ele>832.42364963851</ele>
        <time>2016-09-24T11:09:44Z</time>
      </trkpt>
      <trkpt lat="43.50064" lon="2.65441">
        <ele>832.42364963851</ele>
        <time>2016-09-24T11:09:49Z</time>
      </trkpt>
      <trkpt lat="43.50064" lon="2.65441">
        <ele>832.42364963851</ele>
        <time>2016-09-24T11:09:54Z</time>
      </trkpt>
      <trkpt lat="43.50064" lon="2.65441">
        <ele>832.42364963851</ele>
        <time>2016-09-24T11:09:59Z</time>
      </trkpt>
      <trkpt lat="43.50066" lon="2.65444">
        <ele>832.42364963851</ele>
        <time>2016-09-24T11:10:04Z</time>
      </trkpt>
      <trkpt lat="43.50069" lon="2.65448">
        <ele>832.34826465296</ele>
        <time>2016-09-24T11:10:09Z</time>
      </trkpt>
      <trkpt lat="43.50072" lon="2.65451">
        <ele>832.34826465296</ele>
        <time>2016-09-24T11:10:14Z</time>
      </trkpt>
      <trkpt lat="43.50073" lon="2.65452">
        <ele>832.34826465296</ele>
        <time>2016-09-24T11:10:19Z</time>
      </trkpt>
      <trkpt lat="43.50075" lon="2.65455">
        <ele>832.34826465296</ele>
        <time>2016-09-24T11:10:24Z</time>
      </trkpt>
      <trkpt lat="43.5008" lon="2.65457">
        <ele>832.24780428583</ele>
        <time>2016-09-24T11:10:29Z</time>
      </trkpt>
      <trkpt lat="43.50084" lon="2.65459">
        <ele>832.24780428583</ele>
        <time>2016-09-24T11:10:34Z</time>
      </trkpt>
      <trkpt lat="43.50091" lon="2.65457">
        <ele>832.14005948487</ele>
        <time>2016-09-24T11:10:39Z</time>
      </trkpt>
      <trkpt lat="43.50096" lon="2.65452">
        <ele>832.14005948487</ele>
        <time>2016-09-24T11:10:44Z</time>
      </trkpt>
      <trkpt lat="43.50102" lon="2.65449">
        <ele>832.0126609756</ele>
        <time>2016-09-24T11:10:49Z</time>
      </trkpt>
      <trkpt lat="43.50106" lon="2.65442">
        <ele>832.0126609756</ele>
        <time>2016-09-24T11:10:54Z</time>
      </trkpt>
      <trkpt lat="43.50109" lon="2.65439">
        <ele>831.88297334176</ele>
        <time>2016-09-24T11:10:59Z</time>
      </trkpt>
      <trkpt lat="43.50114" lon="2.65432">
        <ele>831.88297334176</ele>
        <time>2016-09-24T11:11:04Z</time>
      </trkpt>
      <trkpt lat="43.50117" lon="2.65425">
        <ele>831.75262820634</ele>
        <time>2016-09-24T11:11:09Z</time>
      </trkpt>
      <trkpt lat="43.50122" lon="2.65416">
        <ele>831.75262820634</ele>
        <time>2016-09-24T11:11:14Z</time>
      </trkpt>
      <trkpt lat="43.50124" lon="2.65411">
        <ele>831.62308612664</ele>
        <time>2016-09-24T11:11:19Z</time>
      </trkpt>
      <trkpt lat="43.50127" lon="2.65405">
        <ele>831.62308612664</ele>
        <time>2016-09-24T11:11:24Z</time>
      </trkpt>
      <trkpt lat="43.5013" lon="2.654">
        <ele>831.4956448465</ele>
        <time>2016-09-24T11:11:29Z</time>
      </trkpt>
      <trkpt lat="43.50135" lon="2.6539">
        <ele>831.4956448465</ele>
        <time>2016-09-24T11:11:34Z</time>
      </trkpt>
      <trkpt lat="43.50138" lon="2.65383">
        <ele>831.37144758244</ele>
        <time>2016-09-24T11:11:39Z</time>
      </trkpt>
      <trkpt lat="43.5014" lon="2.65376">
        <ele>831.37144758244</ele>
        <time>2016-09-24T11:11:44Z</time>
      </trkpt>
      <trkpt lat="43.50144" lon="2.65369">
        <ele>831.25149131524</ele>
        <time>2016-09-24T11:11:49Z</time>
      </trkpt>
      <trkpt lat="43.50147" lon="2.65367">
        <ele>831.25149131524</ele>
        <time>2016-09-24T11:11:54Z</time>
      </trkpt>
      <trkpt lat="43.50151" lon="2.6536">
        <ele>831.1366350588</ele>
        <time>2016-09-24T11:11:59Z</time>
      </trkpt>
      <trkpt lat="43.50154" lon="2.65355">
        <ele>831.1366350588</ele>
        <time>2016-09-24T11:12:04Z</time>
      </trkpt>
      <trkpt lat="43.50157" lon="2.65349">
        <ele>831.02760807887</ele>
        <time>2016-09-24T11:12:09Z</time>
      </trkpt>
      <trkpt lat="43.5016" lon="2.65346">
        <ele>831.02760807887</ele>
        <time>2016-09-24T11:12:14Z</time>
      </trkpt>
      <trkpt lat="43.50164" lon="2.65344">
        <ele>831.02760807887</ele>
        <time>2016-09-24T11:12:19Z</time>
      </trkpt>
      <trkpt lat="43.50168" lon="2.65341">
        <ele>830.91060689339</ele>
        <time>2016-09-24T11:12:24Z</time>
      </trkpt>
      <trkpt lat="43.50172" lon="2.65337">
        <ele>830.91060689339</ele>
        <time>2016-09-24T11:12:29Z</time>
      </trkpt>
      <trkpt lat="43.50174" lon="2.65336">
        <ele>830.91060689339</ele>
        <time>2016-09-24T11:12:34Z</time>
      </trkpt>
      <trkpt lat="43.50177" lon="2.65332">
        <ele>830.80163568354</ele>
        <time>2016-09-24T11:12:39Z</time>
      </trkpt>
      <trkpt lat="43.50184" lon="2.65327">
        <ele>830.80163568354</ele>
        <time>2016-09-24T11:12:44Z</time>
      </trkpt>
      <trkpt lat="43.50192" lon="2.65319">
        <ele>830.70103928779</ele>
        <time>2016-09-24T11:12:49Z</time>
      </trkpt>
      <trkpt lat="43.50199" lon="2.65316">
        <ele>830.70103928779</ele>
        <time>2016-09-24T11:12:54Z</time>
      </trkpt>
      <trkpt lat="43.50205" lon="2.65315">
        <ele>830.60906468927</ele>
        <time>2016-09-24T11:12:59Z</time>
      </trkpt>
      <trkpt lat="43.50211" lon="2.65308">
        <ele>830.60906468927</ele>
        <time>2016-09-24T11:13:04Z</time>
      </trkpt>
      <trkpt lat="43.50217" lon="2.65302">
        <ele>830.52586864369</ele>
        <time>2016-09-24T11:13:09Z</time>
      </trkpt>
      <trkpt lat="43.50222" lon="2.65297">
        <ele>830.52586864369</ele>
        <time>2016-09-24T11:13:14Z</time>
      </trkpt>
      <trkpt lat="43.50225" lon="2.65289">
        <ele>830.45152513118</ele>
        <time>2016-09-24T11:13:19Z</time>
      </trkpt>
      <trkpt lat="43.50223" lon="2.65287">
        <ele>830.45152513118</ele>
        <time>2016-09-24T11:13:24Z</time>
      </trkpt>
      <trkpt lat="43.50222" lon="2.65282">
        <ele>830.45152513118</ele>
        <time>2016-09-24T11:13:29Z</time>
      </trkpt>
      <trkpt lat="43.50214" lon="2.65281">
        <ele>830.38603261153</ele>
        <time>2016-09-24T11:13:34Z</time>
      </trkpt>
      <trkpt lat="43.50208" lon="2.65283">
        <ele>830.38603261153</ele>
        <time>2016-09-24T11:13:39Z</time>
      </trkpt>
      <trkpt lat="43.50204" lon="2.65283">
        <ele>830.34373220621</ele>
        <time>2016-09-24T11:13:44Z</time>
      </trkpt>
      <trkpt lat="43.50203" lon="2.65288">
        <ele>830.34373220621</ele>
        <time>2016-09-24T11:13:49Z</time>
      </trkpt>
      <trkpt lat="43.50203" lon="2.65291">
        <ele>830.34373220621</ele>
        <time>2016-09-24T11:13:54Z</time>
      </trkpt>
      <trkpt lat="43.50203" lon="2.65292">
        <ele>830.34373220621</ele>
        <time>2016-09-24T11:13:59Z</time>
      </trkpt>
      <trkpt lat="43.50203" lon="2.65294">
        <ele>830.34373220621</ele>
        <time>2016-09-24T11:14:04Z</time>
      </trkpt>
      <trkpt lat="43.50203" lon="2.65293">
        <ele>830.28015985275</ele>
        <time>2016-09-24T11:14:09Z</time>
      </trkpt>
      <trkpt lat="43.50203" lon="2.65288">
        <ele>830.28015985275</ele>
        <time>2016-09-24T11:14:14Z</time>
      </trkpt>
      <trkpt lat="43.50199" lon="2.65285">
        <ele>830.28015985275</ele>
        <time>2016-09-24T11:14:19Z</time>
      </trkpt>
      <trkpt lat="43.50191" lon="2.65286">
        <ele>830.19737024567</ele>
        <time>2016-09-24T11:14:24Z</time>
      </trkpt>
      <trkpt lat="43.50185" lon="2.65286">
        <ele>830.19737024567</ele>
        <time>2016-09-24T11:14:29Z</time>
      </trkpt>
      <trkpt lat="43.50176" lon="2.65286">
        <ele>830.11169317884</ele>
        <time>2016-09-24T11:14:34Z</time>
      </trkpt>
      <trkpt lat="43.50171" lon="2.65284">
        <ele>830.11169317884</ele>
        <time>2016-09-24T11:14:39Z</time>
      </trkpt>
      <trkpt lat="43.50165" lon="2.65285">
        <ele>830.02381838137</ele>
        <time>2016-09-24T11:14:44Z</time>
      </trkpt>
      <trkpt lat="43.50156" lon="2.65287">
        <ele>830.02381838137</ele>
        <time>2016-09-24T11:14:49Z</time>
      </trkpt>
      <trkpt lat="43.50149" lon="2.65288">
        <ele>829.93435504755</ele>
        <time>2016-09-24T11:14:54Z</time>
      </trkpt>
      <trkpt lat="43.50145" lon="2.65287">
        <ele>829.93435504755</ele>
        <time>2016-09-24T11:14:59Z</time>
      </trkpt>
      <trkpt lat="43.50138" lon="2.65287">
        <ele>829.85824858287</ele>
        <time>2016-09-24T11:15:04Z</time>
      </trkpt>
      <trkpt lat="43.50133" lon="2.65285">
        <ele>829.85824858287</ele>
        <time>2016-09-24T11:15:09Z</time>
      </trkpt>
      <trkpt lat="43.50126" lon="2.65284">
        <ele>829.78045362016</ele>
        <time>2016-09-24T11:15:14Z</time>
      </trkpt>
      <trkpt lat="43.50121" lon="2.65283">
        <ele>829.78045362016</ele>
        <time>2016-09-24T11:15:19Z</time>
      </trkpt>
      <trkpt lat="43.50112" lon="2.65286">
        <ele>829.70141411162</ele>
        <time>2016-09-24T11:15:24Z</time>
      </trkpt>
      <trkpt lat="43.50106" lon="2.6529">
        <ele>829.70141411162</ele>
        <time>2016-09-24T11:15:29Z</time>
      </trkpt>
      <trkpt lat="43.50098" lon="2.65292">
        <ele>829.63592570788</ele>
        <time>2016-09-24T11:15:34Z</time>
      </trkpt>
      <trkpt lat="43.50093" lon="2.65294">
        <ele>829.63592570788</ele>
        <time>2016-09-24T11:15:39Z</time>
      </trkpt>
      <trkpt lat="43.50089" lon="2.65302">
        <ele>829.58321924492</ele>
        <time>2016-09-24T11:15:44Z</time>
      </trkpt>
      <trkpt lat="43.50083" lon="2.65307">
        <ele>829.58321924492</ele>
        <time>2016-09-24T11:15:49Z</time>
      </trkpt>
      <trkpt lat="43.50076" lon="2.65311">
        <ele>829.54251892864</ele>
        <time>2016-09-24T11:15:54Z</time>
      </trkpt>
      <trkpt lat="43.50071" lon="2.65314">
        <ele>829.54251892864</ele>
        <time>2016-09-24T11:15:59Z</time>
      </trkpt>
      <trkpt lat="43.50067" lon="2.65317">
        <ele>829.49863543787</ele>
        <time>2016-09-24T11:16:04Z</time>
      </trkpt>
      <trkpt lat="43.50063" lon="2.65323">
        <ele>829.49863543787</ele>
        <time>2016-09-24T11:16:09Z</time>
      </trkpt>
      <trkpt lat="43.5006" lon="2.65328">
        <ele>829.46630229395</ele>
        <time>2016-09-24T11:16:14Z</time>
      </trkpt>
      <trkpt lat="43.50055" lon="2.65331">
        <ele>829.46630229395</ele>
        <time>2016-09-24T11:16:19Z</time>
      </trkpt>
      <trkpt lat="43.50052" lon="2.65332">
        <ele>829.46630229395</ele>
        <time>2016-09-24T11:16:24Z</time>
      </trkpt>
      <trkpt lat="43.50048" lon="2.6533">
        <ele>829.44470468418</ele>
        <time>2016-09-24T11:16:29Z</time>
      </trkpt>
      <trkpt lat="43.50042" lon="2.65326">
        <ele>829.44470468418</ele>
        <time>2016-09-24T11:16:34Z</time>
      </trkpt>
      <trkpt lat="43.50038" lon="2.65323">
        <ele>829.41862552379</ele>
        <time>2016-09-24T11:16:39Z</time>
      </trkpt>
      <trkpt lat="43.50035" lon="2.65321">
        <ele>829.41862552379</ele>
        <time>2016-09-24T11:16:44Z</time>
      </trkpt>
      <trkpt lat="43.50032" lon="2.65319">
        <ele>829.41862552379</ele>
        <time>2016-09-24T11:16:49Z</time>
      </trkpt>
      <trkpt lat="43.50028" lon="2.65314">
        <ele>829.40278107485</ele>
        <time>2016-09-24T11:16:54Z</time>
      </trkpt>
      <trkpt lat="43.50026" lon="2.65311">
        <ele>829.40278107485</ele>
        <time>2016-09-24T11:16:59Z</time>
      </trkpt>
      <trkpt lat="43.50022" lon="2.6531">
        <ele>829.40278107485</ele>
        <time>2016-09-24T11:17:04Z</time>
      </trkpt>
      <trkpt lat="43.50019" lon="2.65312">
        <ele>829.39634901935</ele>
        <time>2016-09-24T11:17:09Z</time>
      </trkpt>
      <trkpt lat="43.50014" lon="2.65308">
        <ele>829.39634901935</ele>
        <time>2016-09-24T11:17:14Z</time>
      </trkpt>
      <trkpt lat="43.5001" lon="2.65308">
        <ele>829.39852491675</ele>
        <time>2016-09-24T11:17:19Z</time>
      </trkpt>
      <trkpt lat="43.50006" lon="2.65305">
        <ele>829.39852491675</ele>
        <time>2016-09-24T11:17:24Z</time>
      </trkpt>
      <trkpt lat="43.50002" lon="2.65306">
        <ele>829.39852491675</ele>
        <time>2016-09-24T11:17:29Z</time>
      </trkpt>
      <trkpt lat="43.49998" lon="2.65304">
        <ele>829.39411357189</ele>
        <time>2016-09-24T11:17:34Z</time>
      </trkpt>
      <trkpt lat="43.49997" lon="2.65305">
        <ele>829.39411357189</ele>
        <time>2016-09-24T11:17:39Z</time>
      </trkpt>
      <trkpt lat="43.49994" lon="2.65306">
        <ele>829.39411357189</ele>
        <time>2016-09-24T11:17:44Z</time>
      </trkpt>
      <trkpt lat="43.49994" lon="2.65305">
        <ele>829.39411357189</ele>
        <time>2016-09-24T11:17:49Z</time>
      </trkpt>
      <trkpt lat="43.49989" lon="2.65302">
        <ele>829.38345253021</ele>
        <time>2016-09-24T11:17:54Z</time>
      </trkpt>
      <trkpt lat="43.49985" lon="2.65296">
        <ele>829.38345253021</ele>
        <time>2016-09-24T11:17:59Z</time>
      </trkpt>
      <trkpt lat="43.49981" lon="2.65296">
        <ele>829.38127155136</ele>
        <time>2016-09-24T11:18:04Z</time>
      </trkpt>
      <trkpt lat="43.49975" lon="2.65299">
        <ele>829.38127155136</ele>
        <time>2016-09-24T11:18:09Z</time>
      </trkpt>
      <trkpt lat="43.49975" lon="2.65301">
        <ele>829.38127155136</ele>
        <time>2016-09-24T11:18:14Z</time>
      </trkpt>
      <trkpt lat="43.49973" lon="2.65299">
        <ele>829.37236205121</ele>
        <time>2016-09-24T11:18:19Z</time>
      </trkpt>
      <trkpt lat="43.49973" lon="2.65299">
        <ele>829.37236205121</ele>
        <time>2016-09-24T11:18:24Z</time>
      </trkpt>
      <trkpt lat="43.49972" lon="2.653">
        <ele>829.37236205121</ele>
        <time>2016-09-24T11:18:29Z</time>
      </trkpt>
      <trkpt lat="43.49971" lon="2.65301">
        <ele>829.37236205121</ele>
        <time>2016-09-24T11:18:34Z</time>
      </trkpt>
      <trkpt lat="43.49969" lon="2.65301">
        <ele>829.37236205121</ele>
        <time>2016-09-24T11:18:39Z</time>
      </trkpt>
      <trkpt lat="43.49968" lon="2.65302">
        <ele>829.37236205121</ele>
        <time>2016-09-24T11:18:44Z</time>
      </trkpt>
      <trkpt lat="43.49966" lon="2.65303">
        <ele>829.37236205121</ele>
        <time>2016-09-24T11:18:49Z</time>
      </trkpt>
      <trkpt lat="43.49965" lon="2.65304">
        <ele>829.35705362992</ele>
        <time>2016-09-24T11:18:54Z</time>
      </trkpt>
      <trkpt lat="43.49965" lon="2.65304">
        <ele>829.35705362992</ele>
        <time>2016-09-24T11:18:59Z</time>
      </trkpt>
      <trkpt lat="43.49965" lon="2.65307">
        <ele>829.35705362992</ele>
        <time>2016-09-24T11:19:04Z</time>
      </trkpt>
      <trkpt lat="43.49963" lon="2.6531">
        <ele>829.35705362992</ele>
        <time>2016-09-24T11:19:09Z</time>
      </trkpt>
      <trkpt lat="43.49963" lon="2.6531">
        <ele>829.35705362992</ele>
        <time>2016-09-24T11:19:14Z</time>
      </trkpt>
      <trkpt lat="43.49965" lon="2.65312">
        <ele>829.35705362992</ele>
        <time>2016-09-24T11:19:19Z</time>
      </trkpt>
      <trkpt lat="43.49965" lon="2.65314">
        <ele>829.35705362992</ele>
        <time>2016-09-24T11:19:24Z</time>
      </trkpt>
      <trkpt lat="43.49965" lon="2.65318">
        <ele>829.36448405516</ele>
        <time>2016-09-24T11:19:29Z</time>
      </trkpt>
      <trkpt lat="43.49966" lon="2.65318">
        <ele>829.36448405516</ele>
        <time>2016-09-24T11:19:34Z</time>
      </trkpt>
      <trkpt lat="43.49964" lon="2.65316">
        <ele>829.36448405516</ele>
        <time>2016-09-24T11:19:39Z</time>
      </trkpt>
      <trkpt lat="43.49967" lon="2.65313">
        <ele>829.36448405516</ele>
        <time>2016-09-24T11:19:44Z</time>
      </trkpt>
      <trkpt lat="43.4997" lon="2.65307">
        <ele>829.39275802406</ele>
        <time>2016-09-24T11:19:49Z</time>
      </trkpt>
      <trkpt lat="43.49971" lon="2.65307">
        <ele>829.39275802406</ele>
        <time>2016-09-24T11:19:54Z</time>
      </trkpt>
      <trkpt lat="43.49971" lon="2.65308">
        <ele>829.39275802406</ele>
        <time>2016-09-24T11:19:59Z</time>
      </trkpt>
      <trkpt lat="43.4997" lon="2.65309">
        <ele>829.39275802406</ele>
        <time>2016-09-24T11:20:04Z</time>
      </trkpt>
      <trkpt lat="43.4997" lon="2.6531">
        <ele>829.39275802406</ele>
        <time>2016-09-24T11:20:09Z</time>
      </trkpt>
      <trkpt lat="43.49969" lon="2.65312">
        <ele>829.39275802406</ele>
        <time>2016-09-24T11:20:14Z</time>
      </trkpt>
      <trkpt lat="43.49967" lon="2.65315">
        <ele>829.39275802406</ele>
        <time>2016-09-24T11:20:19Z</time>
      </trkpt>
      <trkpt lat="43.49967" lon="2.65315">
        <ele>829.39275802406</ele>
        <time>2016-09-24T11:20:24Z</time>
      </trkpt>
      <trkpt lat="43.49966" lon="2.65316">
        <ele>829.42564445685</ele>
        <time>2016-09-24T11:20:29Z</time>
      </trkpt>
      <trkpt lat="43.49967" lon="2.65315">
        <ele>829.42564445685</ele>
        <time>2016-09-24T11:20:34Z</time>
      </trkpt>
      <trkpt lat="43.49967" lon="2.65315">
        <ele>829.42564445685</ele>
        <time>2016-09-24T11:20:39Z</time>
      </trkpt>
      <trkpt lat="43.49968" lon="2.65314">
        <ele>829.42564445685</ele>
        <time>2016-09-24T11:20:44Z</time>
      </trkpt>
      <trkpt lat="43.49967" lon="2.65312">
        <ele>829.42564445685</ele>
        <time>2016-09-24T11:20:49Z</time>
      </trkpt>
      <trkpt lat="43.49965" lon="2.6531">
        <ele>829.42564445685</ele>
        <time>2016-09-24T11:20:54Z</time>
      </trkpt>
      <trkpt lat="43.49966" lon="2.65308">
        <ele>829.42564445685</ele>
        <time>2016-09-24T11:20:59Z</time>
      </trkpt>
      <trkpt lat="43.49965" lon="2.65309">
        <ele>829.44808742647</ele>
        <time>2016-09-24T11:21:04Z</time>
      </trkpt>
      <trkpt lat="43.49965" lon="2.65308">
        <ele>829.44808742647</ele>
        <time>2016-09-24T11:21:09Z</time>
      </trkpt>
      <trkpt lat="43.49961" lon="2.65305">
        <ele>829.44808742647</ele>
        <time>2016-09-24T11:21:14Z</time>
      </trkpt>
      <trkpt lat="43.4996" lon="2.65302">
        <ele>829.44808742647</ele>
        <time>2016-09-24T11:21:19Z</time>
      </trkpt>
      <trkpt lat="43.49957" lon="2.65297">
        <ele>829.46057434108</ele>
        <time>2016-09-24T11:21:24Z</time>
      </trkpt>
      <trkpt lat="43.49955" lon="2.65292">
        <ele>829.46057434108</ele>
        <time>2016-09-24T11:21:29Z</time>
      </trkpt>
      <trkpt lat="43.49953" lon="2.6529">
        <ele>829.46057434108</ele>
        <time>2016-09-24T11:21:34Z</time>
      </trkpt>
      <trkpt lat="43.49953" lon="2.65286">
        <ele>829.46358271864</ele>
        <time>2016-09-24T11:21:39Z</time>
      </trkpt>
      <trkpt lat="43.4995" lon="2.65281">
        <ele>829.46358271864</ele>
        <time>2016-09-24T11:21:44Z</time>
      </trkpt>
      <trkpt lat="43.49948" lon="2.65277">
        <ele>829.46358271864</ele>
        <time>2016-09-24T11:21:49Z</time>
      </trkpt>
      <trkpt lat="43.49947" lon="2.65274">
        <ele>829.45758049851</ele>
        <time>2016-09-24T11:21:54Z</time>
      </trkpt>
      <trkpt lat="43.49944" lon="2.65266">
        <ele>829.45758049851</ele>
        <time>2016-09-24T11:21:59Z</time>
      </trkpt>
      <trkpt lat="43.4994" lon="2.65258">
        <ele>829.44302620917</ele>
        <time>2016-09-24T11:22:04Z</time>
      </trkpt>
      <trkpt lat="43.49933" lon="2.65247">
        <ele>829.43478015697</ele>
        <time>2016-09-24T11:22:09Z</time>
      </trkpt>
      <trkpt lat="43.49929" lon="2.65243">
        <ele>829.43478015697</ele>
        <time>2016-09-24T11:22:14Z</time>
      </trkpt>
      <trkpt lat="43.49927" lon="2.65237">
        <ele>829.41777200253</ele>
        <time>2016-09-24T11:22:19Z</time>
      </trkpt>
      <trkpt lat="43.49924" lon="2.6523">
        <ele>829.41777200253</ele>
        <time>2016-09-24T11:22:24Z</time>
      </trkpt>
      <trkpt lat="43.49919" lon="2.65225">
        <ele>829.39247554703</ele>
        <time>2016-09-24T11:22:29Z</time>
      </trkpt>
      <trkpt lat="43.4991" lon="2.65226">
        <ele>829.35935481306</ele>
        <time>2016-09-24T11:22:34Z</time>
      </trkpt>
      <trkpt lat="43.49905" lon="2.65222">
        <ele>829.35935481306</ele>
        <time>2016-09-24T11:22:39Z</time>
      </trkpt>
      <trkpt lat="43.49906" lon="2.65218">
        <ele>829.33327490862</ele>
        <time>2016-09-24T11:22:44Z</time>
      </trkpt>
      <trkpt lat="43.49906" lon="2.65217">
        <ele>829.33327490862</ele>
        <time>2016-09-24T11:22:49Z</time>
      </trkpt>
      <trkpt lat="43.49904" lon="2.65215">
        <ele>829.33327490862</ele>
        <time>2016-09-24T11:22:54Z</time>
      </trkpt>
      <trkpt lat="43.49898" lon="2.6521">
        <ele>829.28475818923</ele>
        <time>2016-09-24T11:22:59Z</time>
      </trkpt>
      <trkpt lat="43.49894" lon="2.65206">
        <ele>829.28475818923</ele>
        <time>2016-09-24T11:23:04Z</time>
      </trkpt>
      <trkpt lat="43.49888" lon="2.65206">
        <ele>829.22979119107</ele>
        <time>2016-09-24T11:23:09Z</time>
      </trkpt>
      <trkpt lat="43.49878" lon="2.6521">
        <ele>829.16879561191</ele>
        <time>2016-09-24T11:23:14Z</time>
      </trkpt>
      <trkpt lat="43.49871" lon="2.65212">
        <ele>829.16879561191</ele>
        <time>2016-09-24T11:23:19Z</time>
      </trkpt>
      <trkpt lat="43.49862" lon="2.65208">
        <ele>829.1165927579</ele>
        <time>2016-09-24T11:23:24Z</time>
      </trkpt>
      <trkpt lat="43.49854" lon="2.65207">
        <ele>829.1165927579</ele>
        <time>2016-09-24T11:23:29Z</time>
      </trkpt>
      <trkpt lat="43.4985" lon="2.65214">
        <ele>829.07248191927</ele>
        <time>2016-09-24T11:23:34Z</time>
      </trkpt>
      <trkpt lat="43.49845" lon="2.65216">
        <ele>829.07248191927</ele>
        <time>2016-09-24T11:23:39Z</time>
      </trkpt>
      <trkpt lat="43.49837" lon="2.65219">
        <ele>829.02138253856</ele>
        <time>2016-09-24T11:23:44Z</time>
      </trkpt>
      <trkpt lat="43.49834" lon="2.65219">
        <ele>829.02138253856</ele>
        <time>2016-09-24T11:23:49Z</time>
      </trkpt>
      <trkpt lat="43.49831" lon="2.6522">
        <ele>829.02138253856</ele>
        <time>2016-09-24T11:23:54Z</time>
      </trkpt>
      <trkpt lat="43.4983" lon="2.65217">
        <ele>829.02138253856</ele>
        <time>2016-09-24T11:23:59Z</time>
      </trkpt>
      <trkpt lat="43.49828" lon="2.6521">
        <ele>828.96375504915</ele>
        <time>2016-09-24T11:24:04Z</time>
      </trkpt>
      <trkpt lat="43.49822" lon="2.65203">
        <ele>828.96375504915</ele>
        <time>2016-09-24T11:24:09Z</time>
      </trkpt>
      <trkpt lat="43.49818" lon="2.65198">
        <ele>828.90004678932</ele>
        <time>2016-09-24T11:24:14Z</time>
      </trkpt>
      <trkpt lat="43.49814" lon="2.65192">
        <ele>828.90004678932</ele>
        <time>2016-09-24T11:24:19Z</time>
      </trkpt>
      <trkpt lat="43.49808" lon="2.65189">
        <ele>828.83069162543</ele>
        <time>2016-09-24T11:24:24Z</time>
      </trkpt>
      <trkpt lat="43.49802" lon="2.65183">
        <ele>828.83069162543</ele>
        <time>2016-09-24T11:24:29Z</time>
      </trkpt>
      <trkpt lat="43.49802" lon="2.65176">
        <ele>828.75610958828</ele>
        <time>2016-09-24T11:24:34Z</time>
      </trkpt>
      <trkpt lat="43.49802" lon="2.65171">
        <ele>828.75610958828</ele>
        <time>2016-09-24T11:24:39Z</time>
      </trkpt>
      <trkpt lat="43.49798" lon="2.65168">
        <ele>828.75610958828</ele>
        <time>2016-09-24T11:24:44Z</time>
      </trkpt>
      <trkpt lat="43.49793" lon="2.65164">
        <ele>828.66229538898</ele>
        <time>2016-09-24T11:24:49Z</time>
      </trkpt>
      <trkpt lat="43.49791" lon="2.6516">
        <ele>828.66229538898</ele>
        <time>2016-09-24T11:24:54Z</time>
      </trkpt>
      <trkpt lat="43.49787" lon="2.65159">
        <ele>828.66229538898</ele>
        <time>2016-09-24T11:24:59Z</time>
      </trkpt>
      <trkpt lat="43.49789" lon="2.65156">
        <ele>828.56515047573</ele>
        <time>2016-09-24T11:25:04Z</time>
      </trkpt>
      <trkpt lat="43.49787" lon="2.65159">
        <ele>828.56515047573</ele>
        <time>2016-09-24T11:25:09Z</time>
      </trkpt>
      <trkpt lat="43.49778" lon="2.65162">
        <ele>828.46500783363</ele>
        <time>2016-09-24T11:25:14Z</time>
      </trkpt>
      <trkpt lat="43.49769" lon="2.65165">
        <ele>828.46500783363</ele>
        <time>2016-09-24T11:25:19Z</time>
      </trkpt>
      <trkpt lat="43.49752" lon="2.65155">
        <ele>828.34777432345</ele>
        <time>2016-09-24T11:25:24Z</time>
      </trkpt>
      <trkpt lat="43.49745" lon="2.65151">
        <ele>828.34777432345</ele>
        <time>2016-09-24T11:25:29Z</time>
      </trkpt>
      <trkpt lat="43.49739" lon="2.65151">
        <ele>828.22926288585</ele>
        <time>2016-09-24T11:25:34Z</time>
      </trkpt>
      <trkpt lat="43.49731" lon="2.65155">
        <ele>828.22926288585</ele>
        <time>2016-09-24T11:25:39Z</time>
      </trkpt>
      <trkpt lat="43.49727" lon="2.65161">
        <ele>828.09530637164</ele>
        <time>2016-09-24T11:25:44Z</time>
      </trkpt>
      <trkpt lat="43.49722" lon="2.65167">
        <ele>828.09530637164</ele>
        <time>2016-09-24T11:25:49Z</time>
      </trkpt>
      <trkpt lat="43.49719" lon="2.65175">
        <ele>827.94723244289</ele>
        <time>2016-09-24T11:25:54Z</time>
      </trkpt>
      <trkpt lat="43.49715" lon="2.65182">
        <ele>827.94723244289</ele>
        <time>2016-09-24T11:25:59Z</time>
      </trkpt>
      <trkpt lat="43.49711" lon="2.65191">
        <ele>827.78630992169</ele>
        <time>2016-09-24T11:26:04Z</time>
      </trkpt>
      <trkpt lat="43.49708" lon="2.65197">
        <ele>827.78630992169</ele>
        <time>2016-09-24T11:26:09Z</time>
      </trkpt>
      <trkpt lat="43.49708" lon="2.65199">
        <ele>827.78630992169</ele>
        <time>2016-09-24T11:26:14Z</time>
      </trkpt>
      <trkpt lat="43.49708" lon="2.65198">
        <ele>827.78630992169</ele>
        <time>2016-09-24T11:26:19Z</time>
      </trkpt>
      <trkpt lat="43.49707" lon="2.65198">
        <ele>827.78630992169</ele>
        <time>2016-09-24T11:26:24Z</time>
      </trkpt>
      <trkpt lat="43.49708" lon="2.65196">
        <ele>827.78630992169</ele>
        <time>2016-09-24T11:26:29Z</time>
      </trkpt>
      <trkpt lat="43.49708" lon="2.65197">
        <ele>827.55610436306</ele>
        <time>2016-09-24T11:26:34Z</time>
      </trkpt>
      <trkpt lat="43.49708" lon="2.65197">
        <ele>827.55610436306</ele>
        <time>2016-09-24T11:26:39Z</time>
      </trkpt>
      <trkpt lat="43.49708" lon="2.65197">
        <ele>827.55610436306</ele>
        <time>2016-09-24T11:26:44Z</time>
      </trkpt>
      <trkpt lat="43.49709" lon="2.65197">
        <ele>827.55610436306</ele>
        <time>2016-09-24T11:26:49Z</time>
      </trkpt>
      <trkpt lat="43.49709" lon="2.65198">
        <ele>827.55610436306</ele>
        <time>2016-09-24T11:26:54Z</time>
      </trkpt>
      <trkpt lat="43.49709" lon="2.65198">
        <ele>827.55610436306</ele>
        <time>2016-09-24T11:26:59Z</time>
      </trkpt>
      <trkpt lat="43.49708" lon="2.65199">
        <ele>827.55610436306</ele>
        <time>2016-09-24T11:27:04Z</time>
      </trkpt>
      <trkpt lat="43.49706" lon="2.65202">
        <ele>827.55610436306</ele>
        <time>2016-09-24T11:27:09Z</time>
      </trkpt>
      <trkpt lat="43.49708" lon="2.65203">
        <ele>827.55610436306</ele>
        <time>2016-09-24T11:27:14Z</time>
      </trkpt>
      <trkpt lat="43.49708" lon="2.65205">
        <ele>827.55610436306</ele>
        <time>2016-09-24T11:27:19Z</time>
      </trkpt>
      <trkpt lat="43.49708" lon="2.65204">
        <ele>827.19010750043</ele>
        <time>2016-09-24T11:27:24Z</time>
      </trkpt>
      <trkpt lat="43.49707" lon="2.65205">
        <ele>827.19010750043</ele>
        <time>2016-09-24T11:27:29Z</time>
      </trkpt>
      <trkpt lat="43.49706" lon="2.65205">
        <ele>827.19010750043</ele>
        <time>2016-09-24T11:27:34Z</time>
      </trkpt>
      <trkpt lat="43.49706" lon="2.65205">
        <ele>827.19010750043</ele>
        <time>2016-09-24T11:27:39Z</time>
      </trkpt>
      <trkpt lat="43.49705" lon="2.65204">
        <ele>827.19010750043</ele>
        <time>2016-09-24T11:27:44Z</time>
      </trkpt>
      <trkpt lat="43.49704" lon="2.65205">
        <ele>827.19010750043</ele>
        <time>2016-09-24T11:27:49Z</time>
      </trkpt>
      <trkpt lat="43.49705" lon="2.65204">
        <ele>827.19010750043</ele>
        <time>2016-09-24T11:27:54Z</time>
      </trkpt>
      <trkpt lat="43.49703" lon="2.65205">
        <ele>827.19010750043</ele>
        <time>2016-09-24T11:27:59Z</time>
      </trkpt>
      <trkpt lat="43.49703" lon="2.65205">
        <ele>827.19010750043</ele>
        <time>2016-09-24T11:28:04Z</time>
      </trkpt>
      <trkpt lat="43.49703" lon="2.65204">
        <ele>827.19010750043</ele>
        <time>2016-09-24T11:28:09Z</time>
      </trkpt>
      <trkpt lat="43.49702" lon="2.65205">
        <ele>827.19010750043</ele>
        <time>2016-09-24T11:28:14Z</time>
      </trkpt>
      <trkpt lat="43.49702" lon="2.65203">
        <ele>826.71354011444</ele>
        <time>2016-09-24T11:28:19Z</time>
      </trkpt>
      <trkpt lat="43.497" lon="2.65206">
        <ele>826.71354011444</ele>
        <time>2016-09-24T11:28:24Z</time>
      </trkpt>
      <trkpt lat="43.497" lon="2.65206">
        <ele>826.71354011444</ele>
        <time>2016-09-24T11:28:29Z</time>
      </trkpt>
      <trkpt lat="43.497" lon="2.65207">
        <ele>826.71354011444</ele>
        <time>2016-09-24T11:28:34Z</time>
      </trkpt>
      <trkpt lat="43.497" lon="2.65207">
        <ele>826.71354011444</ele>
        <time>2016-09-24T11:28:39Z</time>
      </trkpt>
      <trkpt lat="43.497" lon="2.65208">
        <ele>826.71354011444</ele>
        <time>2016-09-24T11:28:44Z</time>
      </trkpt>
      <trkpt lat="43.49699" lon="2.65209">
        <ele>826.71354011444</ele>
        <time>2016-09-24T11:28:49Z</time>
      </trkpt>
      <trkpt lat="43.49699" lon="2.6521">
        <ele>826.71354011444</ele>
        <time>2016-09-24T11:28:54Z</time>
      </trkpt>
      <trkpt lat="43.497" lon="2.65207">
        <ele>826.71354011444</ele>
        <time>2016-09-24T11:28:59Z</time>
      </trkpt>
      <trkpt lat="43.49703" lon="2.65204">
        <ele>826.16448521706</ele>
        <time>2016-09-24T11:29:04Z</time>
      </trkpt>
      <trkpt lat="43.49704" lon="2.65204">
        <ele>826.16448521706</ele>
        <time>2016-09-24T11:29:09Z</time>
      </trkpt>
      <trkpt lat="43.49706" lon="2.652">
        <ele>826.16448521706</ele>
        <time>2016-09-24T11:29:14Z</time>
      </trkpt>
      <trkpt lat="43.49705" lon="2.65199">
        <ele>826.16448521706</ele>
        <time>2016-09-24T11:29:19Z</time>
      </trkpt>
      <trkpt lat="43.49702" lon="2.65193">
        <ele>825.62165598202</ele>
        <time>2016-09-24T11:29:24Z</time>
      </trkpt>
      <trkpt lat="43.49702" lon="2.65194">
        <ele>825.62165598202</ele>
        <time>2016-09-24T11:29:29Z</time>
      </trkpt>
      <trkpt lat="43.49701" lon="2.65194">
        <ele>825.62165598202</ele>
        <time>2016-09-24T11:29:34Z</time>
      </trkpt>
      <trkpt lat="43.49702" lon="2.65195">
        <ele>825.62165598202</ele>
        <time>2016-09-24T11:29:39Z</time>
      </trkpt>
      <trkpt lat="43.49703" lon="2.65196">
        <ele>825.62165598202</ele>
        <time>2016-09-24T11:29:44Z</time>
      </trkpt>
      <trkpt lat="43.49706" lon="2.65192">
        <ele>825.62165598202</ele>
        <time>2016-09-24T11:29:49Z</time>
      </trkpt>
      <trkpt lat="43.4971" lon="2.6519">
        <ele>825.04266498143</ele>
        <time>2016-09-24T11:29:54Z</time>
      </trkpt>
      <trkpt lat="43.49711" lon="2.65189">
        <ele>825.04266498143</ele>
        <time>2016-09-24T11:29:59Z</time>
      </trkpt>
      <trkpt lat="43.49712" lon="2.6519">
        <ele>825.04266498143</ele>
        <time>2016-09-24T11:30:04Z</time>
      </trkpt>
      <trkpt lat="43.49712" lon="2.65191">
        <ele>825.04266498143</ele>
        <time>2016-09-24T11:30:09Z</time>
      </trkpt>
      <trkpt lat="43.49713" lon="2.6519">
        <ele>825.04266498143</ele>
        <time>2016-09-24T11:30:14Z</time>
      </trkpt>
      <trkpt lat="43.49714" lon="2.6519">
        <ele>825.04266498143</ele>
        <time>2016-09-24T11:30:19Z</time>
      </trkpt>
      <trkpt lat="43.49713" lon="2.6519">
        <ele>825.04266498143</ele>
        <time>2016-09-24T11:30:24Z</time>
      </trkpt>
      <trkpt lat="43.49713" lon="2.65191">
        <ele>825.04266498143</ele>
        <time>2016-09-24T11:30:29Z</time>
      </trkpt>
      <trkpt lat="43.49712" lon="2.65192">
        <ele>825.04266498143</ele>
        <time>2016-09-24T11:30:34Z</time>
      </trkpt>
      <trkpt lat="43.49711" lon="2.65191">
        <ele>825.04266498143</ele>
        <time>2016-09-24T11:30:39Z</time>
      </trkpt>
      <trkpt lat="43.49711" lon="2.6519">
        <ele>824.35950252873</ele>
        <time>2016-09-24T11:30:44Z</time>
      </trkpt>
      <trkpt lat="43.49711" lon="2.65189">
        <ele>824.35950252873</ele>
        <time>2016-09-24T11:30:49Z</time>
      </trkpt>
      <trkpt lat="43.49711" lon="2.65189">
        <ele>824.35950252873</ele>
        <time>2016-09-24T11:30:54Z</time>
      </trkpt>
      <trkpt lat="43.49712" lon="2.65188">
        <ele>824.35950252873</ele>
        <time>2016-09-24T11:30:59Z</time>
      </trkpt>
      <trkpt lat="43.49711" lon="2.65188">
        <ele>824.35950252873</ele>
        <time>2016-09-24T11:31:04Z</time>
      </trkpt>
      <trkpt lat="43.49711" lon="2.65188">
        <ele>824.35950252873</ele>
        <time>2016-09-24T11:31:09Z</time>
      </trkpt>
      <trkpt lat="43.4971" lon="2.65189">
        <ele>824.35950252873</ele>
        <time>2016-09-24T11:31:14Z</time>
      </trkpt>
      <trkpt lat="43.4971" lon="2.65191">
        <ele>824.35950252873</ele>
        <time>2016-09-24T11:31:19Z</time>
      </trkpt>
      <trkpt lat="43.4971" lon="2.65192">
        <ele>824.35950252873</ele>
        <time>2016-09-24T11:31:24Z</time>
      </trkpt>
      <trkpt lat="43.4971" lon="2.65192">
        <ele>824.35950252873</ele>
        <time>2016-09-24T11:31:29Z</time>
      </trkpt>
      <trkpt lat="43.49709" lon="2.65193">
        <ele>824.35950252873</ele>
        <time>2016-09-24T11:31:34Z</time>
      </trkpt>
      <trkpt lat="43.49709" lon="2.65192">
        <ele>824.35950252873</ele>
        <time>2016-09-24T11:31:39Z</time>
      </trkpt>
      <trkpt lat="43.49709" lon="2.65192">
        <ele>824.35950252873</ele>
        <time>2016-09-24T11:31:44Z</time>
      </trkpt>
      <trkpt lat="43.49709" lon="2.65192">
        <ele>824.35950252873</ele>
        <time>2016-09-24T11:31:49Z</time>
      </trkpt>
      <trkpt lat="43.49708" lon="2.65192">
        <ele>823.63912862844</ele>
        <time>2016-09-24T11:31:54Z</time>
      </trkpt>
      <trkpt lat="43.49708" lon="2.65192">
        <ele>823.63912862844</ele>
        <time>2016-09-24T11:31:59Z</time>
      </trkpt>
      <trkpt lat="43.49708" lon="2.65191">
        <ele>823.63912862844</ele>
        <time>2016-09-24T11:32:04Z</time>
      </trkpt>
      <trkpt lat="43.49709" lon="2.65191">
        <ele>823.63912862844</ele>
        <time>2016-09-24T11:32:09Z</time>
      </trkpt>
      <trkpt lat="43.49709" lon="2.6519">
        <ele>823.63912862844</ele>
        <time>2016-09-24T11:32:14Z</time>
      </trkpt>
      <trkpt lat="43.4971" lon="2.6519">
        <ele>823.63912862844</ele>
        <time>2016-09-24T11:32:19Z</time>
      </trkpt>
      <trkpt lat="43.4971" lon="2.6519">
        <ele>823.63912862844</ele>
        <time>2016-09-24T11:32:24Z</time>
      </trkpt>
      <trkpt lat="43.4971" lon="2.65191">
        <ele>823.63912862844</ele>
        <time>2016-09-24T11:32:29Z</time>
      </trkpt>
      <trkpt lat="43.4971" lon="2.65191">
        <ele>823.63912862844</ele>
        <time>2016-09-24T11:32:34Z</time>
      </trkpt>
      <trkpt lat="43.4971" lon="2.65191">
        <ele>823.63912862844</ele>
        <time>2016-09-24T11:32:39Z</time>
      </trkpt>
      <trkpt lat="43.49708" lon="2.65193">
        <ele>823.63912862844</ele>
        <time>2016-09-24T11:32:44Z</time>
      </trkpt>
      <trkpt lat="43.49708" lon="2.65193">
        <ele>823.63912862844</ele>
        <time>2016-09-24T11:32:49Z</time>
      </trkpt>
      <trkpt lat="43.49708" lon="2.65194">
        <ele>823.63912862844</ele>
        <time>2016-09-24T11:32:54Z</time>
      </trkpt>
      <trkpt lat="43.49708" lon="2.65194">
        <ele>823.63912862844</ele>
        <time>2016-09-24T11:32:59Z</time>
      </trkpt>
      <trkpt lat="43.49707" lon="2.65194">
        <ele>823.63912862844</ele>
        <time>2016-09-24T11:33:04Z</time>
      </trkpt>
      <trkpt lat="43.49707" lon="2.65193">
        <ele>823.63912862844</ele>
        <time>2016-09-24T11:33:09Z</time>
      </trkpt>
      <trkpt lat="43.49706" lon="2.65195">
        <ele>823.63912862844</ele>
        <time>2016-09-24T11:33:14Z</time>
      </trkpt>
      <trkpt lat="43.49704" lon="2.65192">
        <ele>822.90043357231</ele>
        <time>2016-09-24T11:33:19Z</time>
      </trkpt>
      <trkpt lat="43.49703" lon="2.65192">
        <ele>822.90043357231</ele>
        <time>2016-09-24T11:33:24Z</time>
      </trkpt>
      <trkpt lat="43.49703" lon="2.65192">
        <ele>822.90043357231</ele>
        <time>2016-09-24T11:33:29Z</time>
      </trkpt>
      <trkpt lat="43.49703" lon="2.65192">
        <ele>822.90043357231</ele>
        <time>2016-09-24T11:33:34Z</time>
      </trkpt>
      <trkpt lat="43.49704" lon="2.65192">
        <ele>822.90043357231</ele>
        <time>2016-09-24T11:33:39Z</time>
      </trkpt>
      <trkpt lat="43.49703" lon="2.65192">
        <ele>822.90043357231</ele>
        <time>2016-09-24T11:33:44Z</time>
      </trkpt>
      <trkpt lat="43.49705" lon="2.6519">
        <ele>822.90043357231</ele>
        <time>2016-09-24T11:33:49Z</time>
      </trkpt>
      <trkpt lat="43.49706" lon="2.6519">
        <ele>822.90043357231</ele>
        <time>2016-09-24T11:33:54Z</time>
      </trkpt>
      <trkpt lat="43.49706" lon="2.6519">
        <ele>822.90043357231</ele>
        <time>2016-09-24T11:33:59Z</time>
      </trkpt>
      <trkpt lat="43.49706" lon="2.65192">
        <ele>822.90043357231</ele>
        <time>2016-09-24T11:34:04Z</time>
      </trkpt>
      <trkpt lat="43.49706" lon="2.65192">
        <ele>822.90043357231</ele>
        <time>2016-09-24T11:34:09Z</time>
      </trkpt>
      <trkpt lat="43.49706" lon="2.65191">
        <ele>822.90043357231</ele>
        <time>2016-09-24T11:34:14Z</time>
      </trkpt>
      <trkpt lat="43.49707" lon="2.65192">
        <ele>822.17535720742</ele>
        <time>2016-09-24T11:34:19Z</time>
      </trkpt>
      <trkpt lat="43.49707" lon="2.65191">
        <ele>822.17535720742</ele>
        <time>2016-09-24T11:34:24Z</time>
      </trkpt>
      <trkpt lat="43.49707" lon="2.65188">
        <ele>822.17535720742</ele>
        <time>2016-09-24T11:34:29Z</time>
      </trkpt>
      <trkpt lat="43.49708" lon="2.65186">
        <ele>822.17535720742</ele>
        <time>2016-09-24T11:34:34Z</time>
      </trkpt>
      <trkpt lat="43.49707" lon="2.65188">
        <ele>822.17535720742</ele>
        <time>2016-09-24T11:34:39Z</time>
      </trkpt>
      <trkpt lat="43.49708" lon="2.65188">
        <ele>822.17535720742</ele>
        <time>2016-09-24T11:34:44Z</time>
      </trkpt>
      <trkpt lat="43.49708" lon="2.65189">
        <ele>822.17535720742</ele>
        <time>2016-09-24T11:34:49Z</time>
      </trkpt>
      <trkpt lat="43.49708" lon="2.6519">
        <ele>822.17535720742</ele>
        <time>2016-09-24T11:34:54Z</time>
      </trkpt>
      <trkpt lat="43.49706" lon="2.65188">
        <ele>821.49342640173</ele>
        <time>2016-09-24T11:34:59Z</time>
      </trkpt>
      <trkpt lat="43.49706" lon="2.65188">
        <ele>821.49342640173</ele>
        <time>2016-09-24T11:35:04Z</time>
      </trkpt>
      <trkpt lat="43.49706" lon="2.65188">
        <ele>821.49342640173</ele>
        <time>2016-09-24T11:35:09Z</time>
      </trkpt>
      <trkpt lat="43.49706" lon="2.65189">
        <ele>821.49342640173</ele>
        <time>2016-09-24T11:35:14Z</time>
      </trkpt>
      <trkpt lat="43.49706" lon="2.65191">
        <ele>821.49342640173</ele>
        <time>2016-09-24T11:35:19Z</time>
      </trkpt>
      <trkpt lat="43.49706" lon="2.65192">
        <ele>821.49342640173</ele>
        <time>2016-09-24T11:35:24Z</time>
      </trkpt>
      <trkpt lat="43.49706" lon="2.6519">
        <ele>821.49342640173</ele>
        <time>2016-09-24T11:35:29Z</time>
      </trkpt>
      <trkpt lat="43.49706" lon="2.6519">
        <ele>821.49342640173</ele>
        <time>2016-09-24T11:35:34Z</time>
      </trkpt>
      <trkpt lat="43.49706" lon="2.6519">
        <ele>821.49342640173</ele>
        <time>2016-09-24T11:35:39Z</time>
      </trkpt>
      <trkpt lat="43.49706" lon="2.6519">
        <ele>821.49342640173</ele>
        <time>2016-09-24T11:35:44Z</time>
      </trkpt>
      <trkpt lat="43.49706" lon="2.6519">
        <ele>821.49342640173</ele>
        <time>2016-09-24T11:35:49Z</time>
      </trkpt>
      <trkpt lat="43.49707" lon="2.6519">
        <ele>821.49342640173</ele>
        <time>2016-09-24T11:35:54Z</time>
      </trkpt>
      <trkpt lat="43.49708" lon="2.6519">
        <ele>821.49342640173</ele>
        <time>2016-09-24T11:35:59Z</time>
      </trkpt>
      <trkpt lat="43.49708" lon="2.65191">
        <ele>821.49342640173</ele>
        <time>2016-09-24T11:36:04Z</time>
      </trkpt>
      <trkpt lat="43.49708" lon="2.65191">
        <ele>821.49342640173</ele>
        <time>2016-09-24T11:36:09Z</time>
      </trkpt>
      <trkpt lat="43.49709" lon="2.65191">
        <ele>821.49342640173</ele>
        <time>2016-09-24T11:36:14Z</time>
      </trkpt>
      <trkpt lat="43.49709" lon="2.65191">
        <ele>821.49342640173</ele>
        <time>2016-09-24T11:36:19Z</time>
      </trkpt>
      <trkpt lat="43.49709" lon="2.65191">
        <ele>821.49342640173</ele>
        <time>2016-09-24T11:36:24Z</time>
      </trkpt>
      <trkpt lat="43.49709" lon="2.65191">
        <ele>821.49342640173</ele>
        <time>2016-09-24T11:36:29Z</time>
      </trkpt>
      <trkpt lat="43.49709" lon="2.65191">
        <ele>821.49342640173</ele>
        <time>2016-09-24T11:36:34Z</time>
      </trkpt>
      <trkpt lat="43.49709" lon="2.65191">
        <ele>821.49342640173</ele>
        <time>2016-09-24T11:36:39Z</time>
      </trkpt>
      <trkpt lat="43.49709" lon="2.65191">
        <ele>821.49342640173</ele>
        <time>2016-09-24T11:36:44Z</time>
      </trkpt>
      <trkpt lat="43.49709" lon="2.65191">
        <ele>821.49342640173</ele>
        <time>2016-09-24T11:36:49Z</time>
      </trkpt>
      <trkpt lat="43.49709" lon="2.65191">
        <ele>821.49342640173</ele>
        <time>2016-09-24T11:36:54Z</time>
      </trkpt>
      <trkpt lat="43.49709" lon="2.65191">
        <ele>821.49342640173</ele>
        <time>2016-09-24T11:36:59Z</time>
      </trkpt>
      <trkpt lat="43.49709" lon="2.65191">
        <ele>821.49342640173</ele>
        <time>2016-09-24T11:37:04Z</time>
      </trkpt>
      <trkpt lat="43.49709" lon="2.65191">
        <ele>821.49342640173</ele>
        <time>2016-09-24T11:37:09Z</time>
      </trkpt>
      <trkpt lat="43.4971" lon="2.65191">
        <ele>820.79537986556</ele>
        <time>2016-09-24T11:37:14Z</time>
      </trkpt>
      <trkpt lat="43.49709" lon="2.65189">
        <ele>820.79537986556</ele>
        <time>2016-09-24T11:37:19Z</time>
      </trkpt>
      <trkpt lat="43.49709" lon="2.65189">
        <ele>820.79537986556</ele>
        <time>2016-09-24T11:37:24Z</time>
      </trkpt>
      <trkpt lat="43.4971" lon="2.65187">
        <ele>820.79537986556</ele>
        <time>2016-09-24T11:37:29Z</time>
      </trkpt>
      <trkpt lat="43.4971" lon="2.65187">
        <ele>820.79537986556</ele>
        <time>2016-09-24T11:37:34Z</time>
      </trkpt>
      <trkpt lat="43.4971" lon="2.65186">
        <ele>820.79537986556</ele>
        <time>2016-09-24T11:37:39Z</time>
      </trkpt>
      <trkpt lat="43.49711" lon="2.65186">
        <ele>820.79537986556</ele>
        <time>2016-09-24T11:37:44Z</time>
      </trkpt>
      <trkpt lat="43.49711" lon="2.65185">
        <ele>820.79537986556</ele>
        <time>2016-09-24T11:37:49Z</time>
      </trkpt>
      <trkpt lat="43.49711" lon="2.65185">
        <ele>820.79537986556</ele>
        <time>2016-09-24T11:37:54Z</time>
      </trkpt>
      <trkpt lat="43.4971" lon="2.65183">
        <ele>820.79537986556</ele>
        <time>2016-09-24T11:37:59Z</time>
      </trkpt>
      <trkpt lat="43.4971" lon="2.65183">
        <ele>820.79537986556</ele>
        <time>2016-09-24T11:38:04Z</time>
      </trkpt>
      <trkpt lat="43.4971" lon="2.65183">
        <ele>820.79537986556</ele>
        <time>2016-09-24T11:38:09Z</time>
      </trkpt>
      <trkpt lat="43.49711" lon="2.65181">
        <ele>820.11278763232</ele>
        <time>2016-09-24T11:38:14Z</time>
      </trkpt>
      <trkpt lat="43.49712" lon="2.6518">
        <ele>820.11278763232</ele>
        <time>2016-09-24T11:38:19Z</time>
      </trkpt>
      <trkpt lat="43.49713" lon="2.65182">
        <ele>820.11278763232</ele>
        <time>2016-09-24T11:38:24Z</time>
      </trkpt>
      <trkpt lat="43.49713" lon="2.65183">
        <ele>820.11278763232</ele>
        <time>2016-09-24T11:38:29Z</time>
      </trkpt>
      <trkpt lat="43.49714" lon="2.65185">
        <ele>820.11278763232</ele>
        <time>2016-09-24T11:38:34Z</time>
      </trkpt>
      <trkpt lat="43.49716" lon="2.65179">
        <ele>819.44599906798</ele>
        <time>2016-09-24T11:38:39Z</time>
      </trkpt>
      <trkpt lat="43.49714" lon="2.65181">
        <ele>819.44599906798</ele>
        <time>2016-09-24T11:38:44Z</time>
      </trkpt>
      <trkpt lat="43.49713" lon="2.65183">
        <ele>819.44599906798</ele>
        <time>2016-09-24T11:38:49Z</time>
      </trkpt>
      <trkpt lat="43.49713" lon="2.65183">
        <ele>819.44599906798</ele>
        <time>2016-09-24T11:38:54Z</time>
      </trkpt>
      <trkpt lat="43.49712" lon="2.65184">
        <ele>819.44599906798</ele>
        <time>2016-09-24T11:38:59Z</time>
      </trkpt>
      <trkpt lat="43.49713" lon="2.65183">
        <ele>819.44599906798</ele>
        <time>2016-09-24T11:39:04Z</time>
      </trkpt>
      <trkpt lat="43.49713" lon="2.65182">
        <ele>819.44599906798</ele>
        <time>2016-09-24T11:39:09Z</time>
      </trkpt>
      <trkpt lat="43.49712" lon="2.65184">
        <ele>819.44599906798</ele>
        <time>2016-09-24T11:39:14Z</time>
      </trkpt>
      <trkpt lat="43.49712" lon="2.65183">
        <ele>819.44599906798</ele>
        <time>2016-09-24T11:39:19Z</time>
      </trkpt>
      <trkpt lat="43.49712" lon="2.65184">
        <ele>818.79525587252</ele>
        <time>2016-09-24T11:39:24Z</time>
      </trkpt>
      <trkpt lat="43.49713" lon="2.6518">
        <ele>818.79525587252</ele>
        <time>2016-09-24T11:39:29Z</time>
      </trkpt>
      <trkpt lat="43.49713" lon="2.65179">
        <ele>818.79525587252</ele>
        <time>2016-09-24T11:39:34Z</time>
      </trkpt>
      <trkpt lat="43.49713" lon="2.6518">
        <ele>818.79525587252</ele>
        <time>2016-09-24T11:39:39Z</time>
      </trkpt>
      <trkpt lat="43.49711" lon="2.65181">
        <ele>818.79525587252</ele>
        <time>2016-09-24T11:39:44Z</time>
      </trkpt>
      <trkpt lat="43.49711" lon="2.65182">
        <ele>818.79525587252</ele>
        <time>2016-09-24T11:39:49Z</time>
      </trkpt>
      <trkpt lat="43.49709" lon="2.65186">
        <ele>818.18952022569</ele>
        <time>2016-09-24T11:39:54Z</time>
      </trkpt>
      <trkpt lat="43.49705" lon="2.65191">
        <ele>818.18952022569</ele>
        <time>2016-09-24T11:39:59Z</time>
      </trkpt>
      <trkpt lat="43.49704" lon="2.65191">
        <ele>818.18952022569</ele>
        <time>2016-09-24T11:40:04Z</time>
      </trkpt>
      <trkpt lat="43.49706" lon="2.65193">
        <ele>818.18952022569</ele>
        <time>2016-09-24T11:40:09Z</time>
      </trkpt>
      <trkpt lat="43.49706" lon="2.65193">
        <ele>818.18952022569</ele>
        <time>2016-09-24T11:40:14Z</time>
      </trkpt>
      <trkpt lat="43.49708" lon="2.65195">
        <ele>817.64104954542</ele>
        <time>2016-09-24T11:40:19Z</time>
      </trkpt>
      <trkpt lat="43.49708" lon="2.65195">
        <ele>817.64104954542</ele>
        <time>2016-09-24T11:40:24Z</time>
      </trkpt>
      <trkpt lat="43.49708" lon="2.65194">
        <ele>817.64104954542</ele>
        <time>2016-09-24T11:40:29Z</time>
      </trkpt>
      <trkpt lat="43.49708" lon="2.65194">
        <ele>817.64104954542</ele>
        <time>2016-09-24T11:40:34Z</time>
      </trkpt>
      <trkpt lat="43.49707" lon="2.65194">
        <ele>817.64104954542</ele>
        <time>2016-09-24T11:40:39Z</time>
      </trkpt>
      <trkpt lat="43.49708" lon="2.65195">
        <ele>817.64104954542</ele>
        <time>2016-09-24T11:40:44Z</time>
      </trkpt>
      <trkpt lat="43.49708" lon="2.65195">
        <ele>817.64104954542</ele>
        <time>2016-09-24T11:40:49Z</time>
      </trkpt>
      <trkpt lat="43.49708" lon="2.65195">
        <ele>817.64104954542</ele>
        <time>2016-09-24T11:40:54Z</time>
      </trkpt>
      <trkpt lat="43.49708" lon="2.65195">
        <ele>817.64104954542</ele>
        <time>2016-09-24T11:40:59Z</time>
      </trkpt>
      <trkpt lat="43.49707" lon="2.65193">
        <ele>817.64104954542</ele>
        <time>2016-09-24T11:41:04Z</time>
      </trkpt>
      <trkpt lat="43.49707" lon="2.65193">
        <ele>817.64104954542</ele>
        <time>2016-09-24T11:41:09Z</time>
      </trkpt>
      <trkpt lat="43.49706" lon="2.65192">
        <ele>817.64104954542</ele>
        <time>2016-09-24T11:41:14Z</time>
      </trkpt>
      <trkpt lat="43.49706" lon="2.65192">
        <ele>817.64104954542</ele>
        <time>2016-09-24T11:41:19Z</time>
      </trkpt>
      <trkpt lat="43.49707" lon="2.65192">
        <ele>817.64104954542</ele>
        <time>2016-09-24T11:41:24Z</time>
      </trkpt>
      <trkpt lat="43.49707" lon="2.65192">
        <ele>817.64104954542</ele>
        <time>2016-09-24T11:41:29Z</time>
      </trkpt>
      <trkpt lat="43.49706" lon="2.65192">
        <ele>817.64104954542</ele>
        <time>2016-09-24T11:41:34Z</time>
      </trkpt>
      <trkpt lat="43.49706" lon="2.65193">
        <ele>817.64104954542</ele>
        <time>2016-09-24T11:41:39Z</time>
      </trkpt>
      <trkpt lat="43.49707" lon="2.65193">
        <ele>817.64104954542</ele>
        <time>2016-09-24T11:41:44Z</time>
      </trkpt>
      <trkpt lat="43.49707" lon="2.65191">
        <ele>817.64104954542</ele>
        <time>2016-09-24T11:41:49Z</time>
      </trkpt>
      <trkpt lat="43.49706" lon="2.6519">
        <ele>817.13217773033</ele>
        <time>2016-09-24T11:41:54Z</time>
      </trkpt>
      <trkpt lat="43.49706" lon="2.6519">
        <ele>817.13217773033</ele>
        <time>2016-09-24T11:41:59Z</time>
      </trkpt>
      <trkpt lat="43.49706" lon="2.6519">
        <ele>817.13217773033</ele>
        <time>2016-09-24T11:42:04Z</time>
      </trkpt>
      <trkpt lat="43.49706" lon="2.6519">
        <ele>817.13217773033</ele>
        <time>2016-09-24T11:42:09Z</time>
      </trkpt>
      <trkpt lat="43.49706" lon="2.65191">
        <ele>817.13217773033</ele>
        <time>2016-09-24T11:42:14Z</time>
      </trkpt>
      <trkpt lat="43.49706" lon="2.65192">
        <ele>817.13217773033</ele>
        <time>2016-09-24T11:42:19Z</time>
      </trkpt>
      <trkpt lat="43.49706" lon="2.65192">
        <ele>817.13217773033</ele>
        <time>2016-09-24T11:42:24Z</time>
      </trkpt>
      <trkpt lat="43.49706" lon="2.65191">
        <ele>817.13217773033</ele>
        <time>2016-09-24T11:42:29Z</time>
      </trkpt>
      <trkpt lat="43.49705" lon="2.6519">
        <ele>817.13217773033</ele>
        <time>2016-09-24T11:42:34Z</time>
      </trkpt>
      <trkpt lat="43.49704" lon="2.65187">
        <ele>817.13217773033</ele>
        <time>2016-09-24T11:42:39Z</time>
      </trkpt>
      <trkpt lat="43.49705" lon="2.65186">
        <ele>817.13217773033</ele>
        <time>2016-09-24T11:42:44Z</time>
      </trkpt>
      <trkpt lat="43.49705" lon="2.65185">
        <ele>817.13217773033</ele>
        <time>2016-09-24T11:42:49Z</time>
      </trkpt>
      <trkpt lat="43.49705" lon="2.65185">
        <ele>817.13217773033</ele>
        <time>2016-09-24T11:42:54Z</time>
      </trkpt>
      <trkpt lat="43.49705" lon="2.65186">
        <ele>817.13217773033</ele>
        <time>2016-09-24T11:42:59Z</time>
      </trkpt>
      <trkpt lat="43.49705" lon="2.65184">
        <ele>816.7040297785</ele>
        <time>2016-09-24T11:43:04Z</time>
      </trkpt>
      <trkpt lat="43.49703" lon="2.65183">
        <ele>816.7040297785</ele>
        <time>2016-09-24T11:43:09Z</time>
      </trkpt>
      <trkpt lat="43.49702" lon="2.65183">
        <ele>816.7040297785</ele>
        <time>2016-09-24T11:43:14Z</time>
      </trkpt>
      <trkpt lat="43.49702" lon="2.65186">
        <ele>816.7040297785</ele>
        <time>2016-09-24T11:43:19Z</time>
      </trkpt>
      <trkpt lat="43.49704" lon="2.65188">
        <ele>816.7040297785</ele>
        <time>2016-09-24T11:43:24Z</time>
      </trkpt>
      <trkpt lat="43.49703" lon="2.6519">
        <ele>816.3512106419</ele>
        <time>2016-09-24T11:43:29Z</time>
      </trkpt>
      <trkpt lat="43.49703" lon="2.65191">
        <ele>816.3512106419</ele>
        <time>2016-09-24T11:43:34Z</time>
      </trkpt>
      <trkpt lat="43.49703" lon="2.6519">
        <ele>816.3512106419</ele>
        <time>2016-09-24T11:43:39Z</time>
      </trkpt>
      <trkpt lat="43.49704" lon="2.65188">
        <ele>816.3512106419</ele>
        <time>2016-09-24T11:43:44Z</time>
      </trkpt>
      <trkpt lat="43.49705" lon="2.65185">
        <ele>816.3512106419</ele>
        <time>2016-09-24T11:43:49Z</time>
      </trkpt>
      <trkpt lat="43.49706" lon="2.65184">
        <ele>816.3512106419</ele>
        <time>2016-09-24T11:43:54Z</time>
      </trkpt>
      <trkpt lat="43.49706" lon="2.65183">
        <ele>816.3512106419</ele>
        <time>2016-09-24T11:43:59Z</time>
      </trkpt>
      <trkpt lat="43.49706" lon="2.65182">
        <ele>816.3512106419</ele>
        <time>2016-09-24T11:44:04Z</time>
      </trkpt>
      <trkpt lat="43.49706" lon="2.65182">
        <ele>816.3512106419</ele>
        <time>2016-09-24T11:44:09Z</time>
      </trkpt>
      <trkpt lat="43.49706" lon="2.65182">
        <ele>816.05406130641</ele>
        <time>2016-09-24T11:44:14Z</time>
      </trkpt>
      <trkpt lat="43.49704" lon="2.65183">
        <ele>816.05406130641</ele>
        <time>2016-09-24T11:44:19Z</time>
      </trkpt>
      <trkpt lat="43.49703" lon="2.65183">
        <ele>816.05406130641</ele>
        <time>2016-09-24T11:44:24Z</time>
      </trkpt>
      <trkpt lat="43.49701" lon="2.65184">
        <ele>816.05406130641</ele>
        <time>2016-09-24T11:44:29Z</time>
      </trkpt>
      <trkpt lat="43.497" lon="2.65186">
        <ele>816.05406130641</ele>
        <time>2016-09-24T11:44:34Z</time>
      </trkpt>
      <trkpt lat="43.49699" lon="2.65185">
        <ele>816.05406130641</ele>
        <time>2016-09-24T11:44:39Z</time>
      </trkpt>
      <trkpt lat="43.49699" lon="2.65186">
        <ele>816.05406130641</ele>
        <time>2016-09-24T11:44:44Z</time>
      </trkpt>
      <trkpt lat="43.497" lon="2.65185">
        <ele>815.85181934263</ele>
        <time>2016-09-24T11:44:49Z</time>
      </trkpt>
      <trkpt lat="43.49701" lon="2.65186">
        <ele>815.85181934263</ele>
        <time>2016-09-24T11:44:54Z</time>
      </trkpt>
      <trkpt lat="43.49703" lon="2.65186">
        <ele>815.85181934263</ele>
        <time>2016-09-24T11:44:59Z</time>
      </trkpt>
      <trkpt lat="43.49705" lon="2.65188">
        <ele>815.85181934263</ele>
        <time>2016-09-24T11:45:04Z</time>
      </trkpt>
      <trkpt lat="43.49705" lon="2.65188">
        <ele>815.85181934263</ele>
        <time>2016-09-24T11:45:09Z</time>
      </trkpt>
      <trkpt lat="43.49706" lon="2.6519">
        <ele>815.85181934263</ele>
        <time>2016-09-24T11:45:14Z</time>
      </trkpt>
      <trkpt lat="43.49706" lon="2.6519">
        <ele>815.85181934263</ele>
        <time>2016-09-24T11:45:19Z</time>
      </trkpt>
      <trkpt lat="43.49703" lon="2.65189">
        <ele>815.63642912218</ele>
        <time>2016-09-24T11:45:24Z</time>
      </trkpt>
      <trkpt lat="43.49706" lon="2.65192">
        <ele>815.63642912218</ele>
        <time>2016-09-24T11:45:29Z</time>
      </trkpt>
      <trkpt lat="43.49707" lon="2.65193">
        <ele>815.63642912218</ele>
        <time>2016-09-24T11:45:34Z</time>
      </trkpt>
      <trkpt lat="43.49706" lon="2.65194">
        <ele>815.63642912218</ele>
        <time>2016-09-24T11:45:39Z</time>
      </trkpt>
      <trkpt lat="43.49705" lon="2.65194">
        <ele>815.63642912218</ele>
        <time>2016-09-24T11:45:44Z</time>
      </trkpt>
      <trkpt lat="43.49704" lon="2.65195">
        <ele>815.63642912218</ele>
        <time>2016-09-24T11:45:49Z</time>
      </trkpt>
      <trkpt lat="43.49703" lon="2.65194">
        <ele>815.45189014161</ele>
        <time>2016-09-24T11:45:54Z</time>
      </trkpt>
      <trkpt lat="43.49701" lon="2.65194">
        <ele>815.45189014161</ele>
        <time>2016-09-24T11:45:59Z</time>
      </trkpt>
      <trkpt lat="43.49701" lon="2.65194">
        <ele>815.45189014161</ele>
        <time>2016-09-24T11:46:04Z</time>
      </trkpt>
      <trkpt lat="43.49701" lon="2.65194">
        <ele>815.45189014161</ele>
        <time>2016-09-24T11:46:09Z</time>
      </trkpt>
      <trkpt lat="43.497" lon="2.65194">
        <ele>815.45189014161</ele>
        <time>2016-09-24T11:46:14Z</time>
      </trkpt>
      <trkpt lat="43.497" lon="2.65195">
        <ele>815.45189014161</ele>
        <time>2016-09-24T11:46:19Z</time>
      </trkpt>
      <trkpt lat="43.497" lon="2.65195">
        <ele>815.45189014161</ele>
        <time>2016-09-24T11:46:24Z</time>
      </trkpt>
      <trkpt lat="43.497" lon="2.65193">
        <ele>815.45189014161</ele>
        <time>2016-09-24T11:46:29Z</time>
      </trkpt>
      <trkpt lat="43.497" lon="2.65193">
        <ele>815.45189014161</ele>
        <time>2016-09-24T11:46:34Z</time>
      </trkpt>
      <trkpt lat="43.497" lon="2.65193">
        <ele>815.45189014161</ele>
        <time>2016-09-24T11:46:39Z</time>
      </trkpt>
      <trkpt lat="43.497" lon="2.65194">
        <ele>815.45189014161</ele>
        <time>2016-09-24T11:46:44Z</time>
      </trkpt>
      <trkpt lat="43.497" lon="2.6519">
        <ele>815.45189014161</ele>
        <time>2016-09-24T11:46:49Z</time>
      </trkpt>
      <trkpt lat="43.497" lon="2.65191">
        <ele>815.45189014161</ele>
        <time>2016-09-24T11:46:54Z</time>
      </trkpt>
      <trkpt lat="43.49701" lon="2.65192">
        <ele>815.29562219354</ele>
        <time>2016-09-24T11:46:59Z</time>
      </trkpt>
      <trkpt lat="43.49701" lon="2.65192">
        <ele>815.29562219354</ele>
        <time>2016-09-24T11:47:04Z</time>
      </trkpt>
      <trkpt lat="43.49701" lon="2.65194">
        <ele>815.29562219354</ele>
        <time>2016-09-24T11:47:09Z</time>
      </trkpt>
      <trkpt lat="43.497" lon="2.65194">
        <ele>815.29562219354</ele>
        <time>2016-09-24T11:47:14Z</time>
      </trkpt>
      <trkpt lat="43.49699" lon="2.65194">
        <ele>815.29562219354</ele>
        <time>2016-09-24T11:47:19Z</time>
      </trkpt>
      <trkpt lat="43.49699" lon="2.65194">
        <ele>815.29562219354</ele>
        <time>2016-09-24T11:47:24Z</time>
      </trkpt>
      <trkpt lat="43.49699" lon="2.65194">
        <ele>815.29562219354</ele>
        <time>2016-09-24T11:47:29Z</time>
      </trkpt>
      <trkpt lat="43.49698" lon="2.65195">
        <ele>815.29562219354</ele>
        <time>2016-09-24T11:47:34Z</time>
      </trkpt>
      <trkpt lat="43.49698" lon="2.65195">
        <ele>815.29562219354</ele>
        <time>2016-09-24T11:47:39Z</time>
      </trkpt>
      <trkpt lat="43.49697" lon="2.65195">
        <ele>815.29562219354</ele>
        <time>2016-09-24T11:47:44Z</time>
      </trkpt>
      <trkpt lat="43.49696" lon="2.65194">
        <ele>815.29562219354</ele>
        <time>2016-09-24T11:47:49Z</time>
      </trkpt>
      <trkpt lat="43.49696" lon="2.65193">
        <ele>815.29562219354</ele>
        <time>2016-09-24T11:47:54Z</time>
      </trkpt>
      <trkpt lat="43.49696" lon="2.65193">
        <ele>815.29562219354</ele>
        <time>2016-09-24T11:47:59Z</time>
      </trkpt>
      <trkpt lat="43.49696" lon="2.65192">
        <ele>815.29562219354</ele>
        <time>2016-09-24T11:48:04Z</time>
      </trkpt>
      <trkpt lat="43.49696" lon="2.65192">
        <ele>815.29562219354</ele>
        <time>2016-09-24T11:48:09Z</time>
      </trkpt>
      <trkpt lat="43.49696" lon="2.65192">
        <ele>815.29562219354</ele>
        <time>2016-09-24T11:48:14Z</time>
      </trkpt>
      <trkpt lat="43.49696" lon="2.65192">
        <ele>815.19395305911</ele>
        <time>2016-09-24T11:48:19Z</time>
      </trkpt>
      <trkpt lat="43.49696" lon="2.65191">
        <ele>815.19395305911</ele>
        <time>2016-09-24T11:48:24Z</time>
      </trkpt>
      <trkpt lat="43.49696" lon="2.6519">
        <ele>815.19395305911</ele>
        <time>2016-09-24T11:48:29Z</time>
      </trkpt>
      <trkpt lat="43.49694" lon="2.65192">
        <ele>815.19395305911</ele>
        <time>2016-09-24T11:48:34Z</time>
      </trkpt>
      <trkpt lat="43.49694" lon="2.65193">
        <ele>815.19395305911</ele>
        <time>2016-09-24T11:48:39Z</time>
      </trkpt>
      <trkpt lat="43.49694" lon="2.65193">
        <ele>815.19395305911</ele>
        <time>2016-09-24T11:48:44Z</time>
      </trkpt>
      <trkpt lat="43.49694" lon="2.65193">
        <ele>815.19395305911</ele>
        <time>2016-09-24T11:48:49Z</time>
      </trkpt>
      <trkpt lat="43.49695" lon="2.65194">
        <ele>815.19395305911</ele>
        <time>2016-09-24T11:48:54Z</time>
      </trkpt>
      <trkpt lat="43.49695" lon="2.65194">
        <ele>815.19395305911</ele>
        <time>2016-09-24T11:48:59Z</time>
      </trkpt>
      <trkpt lat="43.49695" lon="2.65193">
        <ele>815.19395305911</ele>
        <time>2016-09-24T11:49:04Z</time>
      </trkpt>
      <trkpt lat="43.49696" lon="2.65195">
        <ele>815.19395305911</ele>
        <time>2016-09-24T11:49:09Z</time>
      </trkpt>
      <trkpt lat="43.49697" lon="2.65197">
        <ele>815.19395305911</ele>
        <time>2016-09-24T11:49:14Z</time>
      </trkpt>
      <trkpt lat="43.49696" lon="2.65196">
        <ele>815.21433557774</ele>
        <time>2016-09-24T11:49:19Z</time>
      </trkpt>
      <trkpt lat="43.49697" lon="2.65196">
        <ele>815.21433557774</ele>
        <time>2016-09-24T11:49:24Z</time>
      </trkpt>
      <trkpt lat="43.49696" lon="2.65193">
        <ele>815.21433557774</ele>
        <time>2016-09-24T11:49:29Z</time>
      </trkpt>
      <trkpt lat="43.49696" lon="2.65191">
        <ele>815.21433557774</ele>
        <time>2016-09-24T11:49:34Z</time>
      </trkpt>
      <trkpt lat="43.49696" lon="2.65191">
        <ele>815.21433557774</ele>
        <time>2016-09-24T11:49:39Z</time>
      </trkpt>
      <trkpt lat="43.49697" lon="2.65191">
        <ele>815.21433557774</ele>
        <time>2016-09-24T11:49:44Z</time>
      </trkpt>
      <trkpt lat="43.49698" lon="2.65193">
        <ele>815.21433557774</ele>
        <time>2016-09-24T11:49:49Z</time>
      </trkpt>
      <trkpt lat="43.49699" lon="2.65194">
        <ele>815.21433557774</ele>
        <time>2016-09-24T11:49:54Z</time>
      </trkpt>
      <trkpt lat="43.49699" lon="2.65195">
        <ele>815.27479650764</ele>
        <time>2016-09-24T11:49:59Z</time>
      </trkpt>
      <trkpt lat="43.49699" lon="2.65195">
        <ele>815.27479650764</ele>
        <time>2016-09-24T11:50:04Z</time>
      </trkpt>
      <trkpt lat="43.497" lon="2.65196">
        <ele>815.27479650764</ele>
        <time>2016-09-24T11:50:09Z</time>
      </trkpt>
      <trkpt lat="43.49699" lon="2.65198">
        <ele>815.27479650764</ele>
        <time>2016-09-24T11:50:14Z</time>
      </trkpt>
      <trkpt lat="43.49699" lon="2.65198">
        <ele>815.27479650764</ele>
        <time>2016-09-24T11:50:19Z</time>
      </trkpt>
      <trkpt lat="43.497" lon="2.65198">
        <ele>815.27479650764</ele>
        <time>2016-09-24T11:50:24Z</time>
      </trkpt>
      <trkpt lat="43.49699" lon="2.65197">
        <ele>815.27479650764</ele>
        <time>2016-09-24T11:50:29Z</time>
      </trkpt>
      <trkpt lat="43.49699" lon="2.65198">
        <ele>815.27479650764</ele>
        <time>2016-09-24T11:50:34Z</time>
      </trkpt>
      <trkpt lat="43.49698" lon="2.65197">
        <ele>815.27479650764</ele>
        <time>2016-09-24T11:50:39Z</time>
      </trkpt>
      <trkpt lat="43.49698" lon="2.65197">
        <ele>815.27479650764</ele>
        <time>2016-09-24T11:50:44Z</time>
      </trkpt>
      <trkpt lat="43.49698" lon="2.65196">
        <ele>815.27479650764</ele>
        <time>2016-09-24T11:50:49Z</time>
      </trkpt>
      <trkpt lat="43.49698" lon="2.65196">
        <ele>815.27479650764</ele>
        <time>2016-09-24T11:50:54Z</time>
      </trkpt>
      <trkpt lat="43.49698" lon="2.65196">
        <ele>815.27479650764</ele>
        <time>2016-09-24T11:50:59Z</time>
      </trkpt>
      <trkpt lat="43.49698" lon="2.65196">
        <ele>815.27479650764</ele>
        <time>2016-09-24T11:51:04Z</time>
      </trkpt>
      <trkpt lat="43.49698" lon="2.65195">
        <ele>815.27479650764</ele>
        <time>2016-09-24T11:51:09Z</time>
      </trkpt>
      <trkpt lat="43.49697" lon="2.65194">
        <ele>815.27479650764</ele>
        <time>2016-09-24T11:51:14Z</time>
      </trkpt>
      <trkpt lat="43.49697" lon="2.65193">
        <ele>815.27479650764</ele>
        <time>2016-09-24T11:51:19Z</time>
      </trkpt>
      <trkpt lat="43.49697" lon="2.65193">
        <ele>815.34249161942</ele>
        <time>2016-09-24T11:51:24Z</time>
      </trkpt>
      <trkpt lat="43.49697" lon="2.65193">
        <ele>815.34249161942</ele>
        <time>2016-09-24T11:51:29Z</time>
      </trkpt>
      <trkpt lat="43.49698" lon="2.65194">
        <ele>815.34249161942</ele>
        <time>2016-09-24T11:51:34Z</time>
      </trkpt>
      <trkpt lat="43.49699" lon="2.65195">
        <ele>815.34249161942</ele>
        <time>2016-09-24T11:51:39Z</time>
      </trkpt>
      <trkpt lat="43.497" lon="2.65195">
        <ele>815.34249161942</ele>
        <time>2016-09-24T11:51:44Z</time>
      </trkpt>
      <trkpt lat="43.497" lon="2.65195">
        <ele>815.34249161942</ele>
        <time>2016-09-24T11:51:49Z</time>
      </trkpt>
      <trkpt lat="43.497" lon="2.65195">
        <ele>815.34249161942</ele>
        <time>2016-09-24T11:51:54Z</time>
      </trkpt>
      <trkpt lat="43.49701" lon="2.65195">
        <ele>815.34249161942</ele>
        <time>2016-09-24T11:51:59Z</time>
      </trkpt>
      <trkpt lat="43.497" lon="2.65193">
        <ele>815.34249161942</ele>
        <time>2016-09-24T11:52:04Z</time>
      </trkpt>
      <trkpt lat="43.497" lon="2.65192">
        <ele>815.34249161942</ele>
        <time>2016-09-24T11:52:09Z</time>
      </trkpt>
      <trkpt lat="43.497" lon="2.65192">
        <ele>815.34249161942</ele>
        <time>2016-09-24T11:52:14Z</time>
      </trkpt>
      <trkpt lat="43.49701" lon="2.6519">
        <ele>815.45901518556</ele>
        <time>2016-09-24T11:52:19Z</time>
      </trkpt>
      <trkpt lat="43.49703" lon="2.65188">
        <ele>815.45901518556</ele>
        <time>2016-09-24T11:52:24Z</time>
      </trkpt>
      <trkpt lat="43.49705" lon="2.65187">
        <ele>815.45901518556</ele>
        <time>2016-09-24T11:52:29Z</time>
      </trkpt>
      <trkpt lat="43.49707" lon="2.65186">
        <ele>815.45901518556</ele>
        <time>2016-09-24T11:52:34Z</time>
      </trkpt>
      <trkpt lat="43.49706" lon="2.65188">
        <ele>815.45901518556</ele>
        <time>2016-09-24T11:52:39Z</time>
      </trkpt>
      <trkpt lat="43.49708" lon="2.65188">
        <ele>815.60511923771</ele>
        <time>2016-09-24T11:52:44Z</time>
      </trkpt>
      <trkpt lat="43.49708" lon="2.65188">
        <ele>815.60511923771</ele>
        <time>2016-09-24T11:52:49Z</time>
      </trkpt>
      <trkpt lat="43.49709" lon="2.65188">
        <ele>815.60511923771</ele>
        <time>2016-09-24T11:52:54Z</time>
      </trkpt>
      <trkpt lat="43.4971" lon="2.65189">
        <ele>815.60511923771</ele>
        <time>2016-09-24T11:52:59Z</time>
      </trkpt>
      <trkpt lat="43.4971" lon="2.65189">
        <ele>815.60511923771</ele>
        <time>2016-09-24T11:53:04Z</time>
      </trkpt>
      <trkpt lat="43.4971" lon="2.65189">
        <ele>815.60511923771</ele>
        <time>2016-09-24T11:53:09Z</time>
      </trkpt>
      <trkpt lat="43.4971" lon="2.6519">
        <ele>815.60511923771</ele>
        <time>2016-09-24T11:53:14Z</time>
      </trkpt>
      <trkpt lat="43.4971" lon="2.65191">
        <ele>815.60511923771</ele>
        <time>2016-09-24T11:53:19Z</time>
      </trkpt>
      <trkpt lat="43.4971" lon="2.65191">
        <ele>815.60511923771</ele>
        <time>2016-09-24T11:53:24Z</time>
      </trkpt>
      <trkpt lat="43.4971" lon="2.65191">
        <ele>815.60511923771</ele>
        <time>2016-09-24T11:53:29Z</time>
      </trkpt>
      <trkpt lat="43.4971" lon="2.65191">
        <ele>815.60511923771</ele>
        <time>2016-09-24T11:53:34Z</time>
      </trkpt>
      <trkpt lat="43.49712" lon="2.65193">
        <ele>815.60511923771</ele>
        <time>2016-09-24T11:53:39Z</time>
      </trkpt>
      <trkpt lat="43.49711" lon="2.65193">
        <ele>815.60511923771</ele>
        <time>2016-09-24T11:53:44Z</time>
      </trkpt>
      <trkpt lat="43.49711" lon="2.65193">
        <ele>815.60511923771</ele>
        <time>2016-09-24T11:53:49Z</time>
      </trkpt>
      <trkpt lat="43.49711" lon="2.65192">
        <ele>815.77729673146</ele>
        <time>2016-09-24T11:53:54Z</time>
      </trkpt>
      <trkpt lat="43.4971" lon="2.65192">
        <ele>815.77729673146</ele>
        <time>2016-09-24T11:53:59Z</time>
      </trkpt>
      <trkpt lat="43.49709" lon="2.6519">
        <ele>815.77729673146</ele>
        <time>2016-09-24T11:54:04Z</time>
      </trkpt>
      <trkpt lat="43.49709" lon="2.65189">
        <ele>815.77729673146</ele>
        <time>2016-09-24T11:54:09Z</time>
      </trkpt>
      <trkpt lat="43.49709" lon="2.65189">
        <ele>815.77729673146</ele>
        <time>2016-09-24T11:54:14Z</time>
      </trkpt>
      <trkpt lat="43.4971" lon="2.6519">
        <ele>815.77729673146</ele>
        <time>2016-09-24T11:54:19Z</time>
      </trkpt>
      <trkpt lat="43.49709" lon="2.65192">
        <ele>815.77729673146</ele>
        <time>2016-09-24T11:54:24Z</time>
      </trkpt>
      <trkpt lat="43.49708" lon="2.65192">
        <ele>815.77729673146</ele>
        <time>2016-09-24T11:54:29Z</time>
      </trkpt>
      <trkpt lat="43.49709" lon="2.65193">
        <ele>815.77729673146</ele>
        <time>2016-09-24T11:54:34Z</time>
      </trkpt>
      <trkpt lat="43.49709" lon="2.65193">
        <ele>815.77729673146</ele>
        <time>2016-09-24T11:54:39Z</time>
      </trkpt>
      <trkpt lat="43.49709" lon="2.65193">
        <ele>815.77729673146</ele>
        <time>2016-09-24T11:54:44Z</time>
      </trkpt>
      <trkpt lat="43.49708" lon="2.65193">
        <ele>815.77729673146</ele>
        <time>2016-09-24T11:54:49Z</time>
      </trkpt>
      <trkpt lat="43.49708" lon="2.65193">
        <ele>815.77729673146</ele>
        <time>2016-09-24T11:54:54Z</time>
      </trkpt>
      <trkpt lat="43.49708" lon="2.65194">
        <ele>815.95781688691</ele>
        <time>2016-09-24T11:54:59Z</time>
      </trkpt>
      <trkpt lat="43.49708" lon="2.65194">
        <ele>815.95781688691</ele>
        <time>2016-09-24T11:55:04Z</time>
      </trkpt>
      <trkpt lat="43.49708" lon="2.65194">
        <ele>815.95781688691</ele>
        <time>2016-09-24T11:55:09Z</time>
      </trkpt>
      <trkpt lat="43.49708" lon="2.65195">
        <ele>815.95781688691</ele>
        <time>2016-09-24T11:55:14Z</time>
      </trkpt>
      <trkpt lat="43.49708" lon="2.65196">
        <ele>815.95781688691</ele>
        <time>2016-09-24T11:55:19Z</time>
      </trkpt>
      <trkpt lat="43.49708" lon="2.65196">
        <ele>815.95781688691</ele>
        <time>2016-09-24T11:55:24Z</time>
      </trkpt>
      <trkpt lat="43.49708" lon="2.65196">
        <ele>815.95781688691</ele>
        <time>2016-09-24T11:55:29Z</time>
      </trkpt>
      <trkpt lat="43.49708" lon="2.65196">
        <ele>815.95781688691</ele>
        <time>2016-09-24T11:55:34Z</time>
      </trkpt>
      <trkpt lat="43.49708" lon="2.65196">
        <ele>815.95781688691</ele>
        <time>2016-09-24T11:55:39Z</time>
      </trkpt>
      <trkpt lat="43.4971" lon="2.65194">
        <ele>815.95781688691</ele>
        <time>2016-09-24T11:55:44Z</time>
      </trkpt>
      <trkpt lat="43.4971" lon="2.65194">
        <ele>815.95781688691</ele>
        <time>2016-09-24T11:55:49Z</time>
      </trkpt>
      <trkpt lat="43.49709" lon="2.65194">
        <ele>815.95781688691</ele>
        <time>2016-09-24T11:55:54Z</time>
      </trkpt>
      <trkpt lat="43.49708" lon="2.65192">
        <ele>815.95781688691</ele>
        <time>2016-09-24T11:55:59Z</time>
      </trkpt>
      <trkpt lat="43.49709" lon="2.6519">
        <ele>816.2022905339</ele>
        <time>2016-09-24T11:56:04Z</time>
      </trkpt>
      <trkpt lat="43.49708" lon="2.65186">
        <ele>816.2022905339</ele>
        <time>2016-09-24T11:56:09Z</time>
      </trkpt>
      <trkpt lat="43.49708" lon="2.65184">
        <ele>816.2022905339</ele>
        <time>2016-09-24T11:56:14Z</time>
      </trkpt>
      <trkpt lat="43.49707" lon="2.65184">
        <ele>816.2022905339</ele>
        <time>2016-09-24T11:56:19Z</time>
      </trkpt>
      <trkpt lat="43.49707" lon="2.65186">
        <ele>816.2022905339</ele>
        <time>2016-09-24T11:56:24Z</time>
      </trkpt>
      <trkpt lat="43.49707" lon="2.65186">
        <ele>816.2022905339</ele>
        <time>2016-09-24T11:56:29Z</time>
      </trkpt>
      <trkpt lat="43.49706" lon="2.65187">
        <ele>816.2022905339</ele>
        <time>2016-09-24T11:56:34Z</time>
      </trkpt>
      <trkpt lat="43.49705" lon="2.65191">
        <ele>816.49001928852</ele>
        <time>2016-09-24T11:56:39Z</time>
      </trkpt>
      <trkpt lat="43.49705" lon="2.65192">
        <ele>816.49001928852</ele>
        <time>2016-09-24T11:56:44Z</time>
      </trkpt>
      <trkpt lat="43.49706" lon="2.6519">
        <ele>816.49001928852</ele>
        <time>2016-09-24T11:56:49Z</time>
      </trkpt>
      <trkpt lat="43.49706" lon="2.6519">
        <ele>816.49001928852</ele>
        <time>2016-09-24T11:56:54Z</time>
      </trkpt>
      <trkpt lat="43.49705" lon="2.65191">
        <ele>816.49001928852</ele>
        <time>2016-09-24T11:56:59Z</time>
      </trkpt>
      <trkpt lat="43.49706" lon="2.6519">
        <ele>816.49001928852</ele>
        <time>2016-09-24T11:57:04Z</time>
      </trkpt>
      <trkpt lat="43.49706" lon="2.6519">
        <ele>816.49001928852</ele>
        <time>2016-09-24T11:57:09Z</time>
      </trkpt>
      <trkpt lat="43.49707" lon="2.6519">
        <ele>816.49001928852</ele>
        <time>2016-09-24T11:57:14Z</time>
      </trkpt>
      <trkpt lat="43.49707" lon="2.6519">
        <ele>816.49001928852</ele>
        <time>2016-09-24T11:57:19Z</time>
      </trkpt>
      <trkpt lat="43.49707" lon="2.6519">
        <ele>816.49001928852</ele>
        <time>2016-09-24T11:57:24Z</time>
      </trkpt>
      <trkpt lat="43.49707" lon="2.65189">
        <ele>816.49001928852</ele>
        <time>2016-09-24T11:57:29Z</time>
      </trkpt>
      <trkpt lat="43.49708" lon="2.6519">
        <ele>816.49001928852</ele>
        <time>2016-09-24T11:57:34Z</time>
      </trkpt>
      <trkpt lat="43.49708" lon="2.65189">
        <ele>816.49001928852</ele>
        <time>2016-09-24T11:57:39Z</time>
      </trkpt>
      <trkpt lat="43.49708" lon="2.65189">
        <ele>816.49001928852</ele>
        <time>2016-09-24T11:57:44Z</time>
      </trkpt>
      <trkpt lat="43.49708" lon="2.65189">
        <ele>816.49001928852</ele>
        <time>2016-09-24T11:57:49Z</time>
      </trkpt>
      <trkpt lat="43.49708" lon="2.65189">
        <ele>816.49001928852</ele>
        <time>2016-09-24T11:57:54Z</time>
      </trkpt>
      <trkpt lat="43.49709" lon="2.65189">
        <ele>816.49001928852</ele>
        <time>2016-09-24T11:58:04Z</time>
      </trkpt>
      <trkpt lat="43.49708" lon="2.65188">
        <ele>816.49001928852</ele>
        <time>2016-09-24T11:58:09Z</time>
      </trkpt>
      <trkpt lat="43.49709" lon="2.65189">
        <ele>816.77289647426</ele>
        <time>2016-09-24T11:58:14Z</time>
      </trkpt>
      <trkpt lat="43.49712" lon="2.65191">
        <ele>816.77289647426</ele>
        <time>2016-09-24T11:58:19Z</time>
      </trkpt>
      <trkpt lat="43.49713" lon="2.65191">
        <ele>816.77289647426</ele>
        <time>2016-09-24T11:58:24Z</time>
      </trkpt>
      <trkpt lat="43.49714" lon="2.6519">
        <ele>816.77289647426</ele>
        <time>2016-09-24T11:58:29Z</time>
      </trkpt>
      <trkpt lat="43.49713" lon="2.6519">
        <ele>816.77289647426</ele>
        <time>2016-09-24T11:58:34Z</time>
      </trkpt>
      <trkpt lat="43.49714" lon="2.65188">
        <ele>816.77289647426</ele>
        <time>2016-09-24T11:58:39Z</time>
      </trkpt>
      <trkpt lat="43.49715" lon="2.65184">
        <ele>817.04961480215</ele>
        <time>2016-09-24T11:58:44Z</time>
      </trkpt>
      <trkpt lat="43.49715" lon="2.65179">
        <ele>817.04961480215</ele>
        <time>2016-09-24T11:58:49Z</time>
      </trkpt>
      <trkpt lat="43.49713" lon="2.65179">
        <ele>817.04961480215</ele>
        <time>2016-09-24T11:58:54Z</time>
      </trkpt>
      <trkpt lat="43.49712" lon="2.65176">
        <ele>817.04961480215</ele>
        <time>2016-09-24T11:58:59Z</time>
      </trkpt>
      <trkpt lat="43.49711" lon="2.65176">
        <ele>817.33341352101</ele>
        <time>2016-09-24T11:59:04Z</time>
      </trkpt>
      <trkpt lat="43.49711" lon="2.65176">
        <ele>817.33341352101</ele>
        <time>2016-09-24T11:59:09Z</time>
      </trkpt>
      <trkpt lat="43.4971" lon="2.65176">
        <ele>817.33341352101</ele>
        <time>2016-09-24T11:59:14Z</time>
      </trkpt>
      <trkpt lat="43.49709" lon="2.65177">
        <ele>817.33341352101</ele>
        <time>2016-09-24T11:59:19Z</time>
      </trkpt>
      <trkpt lat="43.49708" lon="2.65177">
        <ele>817.33341352101</ele>
        <time>2016-09-24T11:59:24Z</time>
      </trkpt>
      <trkpt lat="43.49708" lon="2.65177">
        <ele>817.33341352101</ele>
        <time>2016-09-24T11:59:29Z</time>
      </trkpt>
      <trkpt lat="43.49708" lon="2.65177">
        <ele>817.33341352101</ele>
        <time>2016-09-24T11:59:34Z</time>
      </trkpt>
      <trkpt lat="43.49708" lon="2.65177">
        <ele>817.33341352101</ele>
        <time>2016-09-24T11:59:39Z</time>
      </trkpt>
      <trkpt lat="43.49708" lon="2.65177">
        <ele>817.33341352101</ele>
        <time>2016-09-24T11:59:44Z</time>
      </trkpt>
      <trkpt lat="43.49708" lon="2.65177">
        <ele>817.33341352101</ele>
        <time>2016-09-24T11:59:49Z</time>
      </trkpt>
      <trkpt lat="43.49709" lon="2.65176">
        <ele>817.33341352101</ele>
        <time>2016-09-24T11:59:54Z</time>
      </trkpt>
      <trkpt lat="43.49709" lon="2.65177">
        <ele>817.33341352101</ele>
        <time>2016-09-24T11:59:59Z</time>
      </trkpt>
      <trkpt lat="43.49709" lon="2.65177">
        <ele>817.33341352101</ele>
        <time>2016-09-24T12:00:04Z</time>
      </trkpt>
      <trkpt lat="43.49709" lon="2.65177">
        <ele>817.33341352101</ele>
        <time>2016-09-24T12:00:09Z</time>
      </trkpt>
      <trkpt lat="43.49709" lon="2.65177">
        <ele>817.33341352101</ele>
        <time>2016-09-24T12:00:14Z</time>
      </trkpt>
      <trkpt lat="43.49708" lon="2.65177">
        <ele>817.33341352101</ele>
        <time>2016-09-24T12:00:19Z</time>
      </trkpt>
      <trkpt lat="43.49708" lon="2.65177">
        <ele>817.33341352101</ele>
        <time>2016-09-24T12:00:24Z</time>
      </trkpt>
      <trkpt lat="43.49708" lon="2.65178">
        <ele>817.33341352101</ele>
        <time>2016-09-24T12:00:29Z</time>
      </trkpt>
      <trkpt lat="43.49708" lon="2.65178">
        <ele>817.33341352101</ele>
        <time>2016-09-24T12:00:34Z</time>
      </trkpt>
      <trkpt lat="43.49707" lon="2.6518">
        <ele>817.33341352101</ele>
        <time>2016-09-24T12:00:39Z</time>
      </trkpt>
      <trkpt lat="43.49707" lon="2.6518">
        <ele>817.33341352101</ele>
        <time>2016-09-24T12:00:44Z</time>
      </trkpt>
      <trkpt lat="43.49707" lon="2.6518">
        <ele>817.33341352101</ele>
        <time>2016-09-24T12:00:49Z</time>
      </trkpt>
      <trkpt lat="43.49707" lon="2.65181">
        <ele>817.33341352101</ele>
        <time>2016-09-24T12:00:54Z</time>
      </trkpt>
      <trkpt lat="43.49707" lon="2.65183">
        <ele>817.63656489279</ele>
        <time>2016-09-24T12:00:59Z</time>
      </trkpt>
      <trkpt lat="43.49706" lon="2.65185">
        <ele>817.63656489279</ele>
        <time>2016-09-24T12:01:04Z</time>
      </trkpt>
      <trkpt lat="43.49706" lon="2.65185">
        <ele>817.63656489279</ele>
        <time>2016-09-24T12:01:09Z</time>
      </trkpt>
      <trkpt lat="43.49706" lon="2.65186">
        <ele>817.63656489279</ele>
        <time>2016-09-24T12:01:14Z</time>
      </trkpt>
      <trkpt lat="43.49706" lon="2.65187">
        <ele>817.63656489279</ele>
        <time>2016-09-24T12:01:19Z</time>
      </trkpt>
      <trkpt lat="43.49706" lon="2.65186">
        <ele>817.63656489279</ele>
        <time>2016-09-24T12:01:24Z</time>
      </trkpt>
      <trkpt lat="43.49705" lon="2.65187">
        <ele>817.63656489279</ele>
        <time>2016-09-24T12:01:29Z</time>
      </trkpt>
      <trkpt lat="43.49705" lon="2.65187">
        <ele>817.63656489279</ele>
        <time>2016-09-24T12:01:34Z</time>
      </trkpt>
      <trkpt lat="43.49705" lon="2.65188">
        <ele>817.63656489279</ele>
        <time>2016-09-24T12:01:39Z</time>
      </trkpt>
      <trkpt lat="43.49706" lon="2.65189">
        <ele>817.63656489279</ele>
        <time>2016-09-24T12:01:44Z</time>
      </trkpt>
      <trkpt lat="43.49706" lon="2.65188">
        <ele>817.63656489279</ele>
        <time>2016-09-24T12:01:49Z</time>
      </trkpt>
      <trkpt lat="43.49706" lon="2.65189">
        <ele>817.63656489279</ele>
        <time>2016-09-24T12:01:54Z</time>
      </trkpt>
      <trkpt lat="43.49706" lon="2.6519">
        <ele>817.97041385708</ele>
        <time>2016-09-24T12:01:59Z</time>
      </trkpt>
      <trkpt lat="43.49706" lon="2.6519">
        <ele>817.97041385708</ele>
        <time>2016-09-24T12:02:04Z</time>
      </trkpt>
      <trkpt lat="43.49706" lon="2.6519">
        <ele>817.97041385708</ele>
        <time>2016-09-24T12:02:09Z</time>
      </trkpt>
      <trkpt lat="43.49706" lon="2.65192">
        <ele>817.97041385708</ele>
        <time>2016-09-24T12:02:14Z</time>
      </trkpt>
      <trkpt lat="43.49706" lon="2.65192">
        <ele>817.97041385708</ele>
        <time>2016-09-24T12:02:19Z</time>
      </trkpt>
      <trkpt lat="43.49706" lon="2.65192">
        <ele>817.97041385708</ele>
        <time>2016-09-24T12:02:24Z</time>
      </trkpt>
      <trkpt lat="43.49706" lon="2.65192">
        <ele>817.97041385708</ele>
        <time>2016-09-24T12:02:29Z</time>
      </trkpt>
      <trkpt lat="43.49706" lon="2.65192">
        <ele>817.97041385708</ele>
        <time>2016-09-24T12:02:34Z</time>
      </trkpt>
      <trkpt lat="43.49706" lon="2.65193">
        <ele>817.97041385708</ele>
        <time>2016-09-24T12:02:39Z</time>
      </trkpt>
      <trkpt lat="43.49706" lon="2.65193">
        <ele>817.97041385708</ele>
        <time>2016-09-24T12:02:44Z</time>
      </trkpt>
      <trkpt lat="43.49706" lon="2.65194">
        <ele>817.97041385708</ele>
        <time>2016-09-24T12:02:49Z</time>
      </trkpt>
      <trkpt lat="43.49708" lon="2.65196">
        <ele>817.97041385708</ele>
        <time>2016-09-24T12:02:54Z</time>
      </trkpt>
      <trkpt lat="43.4971" lon="2.65194">
        <ele>818.33100608069</ele>
        <time>2016-09-24T12:02:59Z</time>
      </trkpt>
      <trkpt lat="43.49712" lon="2.65192">
        <ele>818.33100608069</ele>
        <time>2016-09-24T12:03:04Z</time>
      </trkpt>
      <trkpt lat="43.49715" lon="2.65187">
        <ele>818.33100608069</ele>
        <time>2016-09-24T12:03:09Z</time>
      </trkpt>
      <trkpt lat="43.49717" lon="2.65186">
        <ele>818.33100608069</ele>
        <time>2016-09-24T12:03:14Z</time>
      </trkpt>
      <trkpt lat="43.49718" lon="2.6518">
        <ele>818.68581450441</ele>
        <time>2016-09-24T12:03:19Z</time>
      </trkpt>
      <trkpt lat="43.49721" lon="2.65172">
        <ele>818.68581450441</ele>
        <time>2016-09-24T12:03:24Z</time>
      </trkpt>
      <trkpt lat="43.49724" lon="2.65168">
        <ele>819.01916536041</ele>
        <time>2016-09-24T12:03:29Z</time>
      </trkpt>
      <trkpt lat="43.49726" lon="2.65166">
        <ele>819.01916536041</ele>
        <time>2016-09-24T12:03:34Z</time>
      </trkpt>
      <trkpt lat="43.49729" lon="2.65166">
        <ele>819.01916536041</ele>
        <time>2016-09-24T12:03:39Z</time>
      </trkpt>
      <trkpt lat="43.49732" lon="2.65164">
        <ele>819.01916536041</ele>
        <time>2016-09-24T12:03:44Z</time>
      </trkpt>
      <trkpt lat="43.49736" lon="2.65165">
        <ele>819.33104630967</ele>
        <time>2016-09-24T12:03:49Z</time>
      </trkpt>
      <trkpt lat="43.49739" lon="2.65162">
        <ele>819.33104630967</ele>
        <time>2016-09-24T12:03:54Z</time>
      </trkpt>
      <trkpt lat="43.49741" lon="2.6516">
        <ele>819.33104630967</ele>
        <time>2016-09-24T12:03:59Z</time>
      </trkpt>
      <trkpt lat="43.49744" lon="2.65159">
        <ele>819.62154671105</ele>
        <time>2016-09-24T12:04:04Z</time>
      </trkpt>
      <trkpt lat="43.49746" lon="2.65157">
        <ele>819.62154671105</ele>
        <time>2016-09-24T12:04:09Z</time>
      </trkpt>
      <trkpt lat="43.49747" lon="2.65154">
        <ele>819.62154671105</ele>
        <time>2016-09-24T12:04:14Z</time>
      </trkpt>
      <trkpt lat="43.49748" lon="2.65153">
        <ele>819.62154671105</ele>
        <time>2016-09-24T12:04:19Z</time>
      </trkpt>
      <trkpt lat="43.49748" lon="2.65152">
        <ele>819.62154671105</ele>
        <time>2016-09-24T12:04:24Z</time>
      </trkpt>
      <trkpt lat="43.49748" lon="2.65151">
        <ele>819.62154671105</ele>
        <time>2016-09-24T12:04:29Z</time>
      </trkpt>
      <trkpt lat="43.49749" lon="2.65151">
        <ele>819.62154671105</ele>
        <time>2016-09-24T12:04:34Z</time>
      </trkpt>
      <trkpt lat="43.49748" lon="2.65149">
        <ele>819.89085130768</ele>
        <time>2016-09-24T12:04:39Z</time>
      </trkpt>
      <trkpt lat="43.49748" lon="2.65148">
        <ele>819.89085130768</ele>
        <time>2016-09-24T12:04:44Z</time>
      </trkpt>
      <trkpt lat="43.49749" lon="2.65148">
        <ele>819.89085130768</ele>
        <time>2016-09-24T12:04:49Z</time>
      </trkpt>
      <trkpt lat="43.49748" lon="2.65147">
        <ele>819.89085130768</ele>
        <time>2016-09-24T12:04:54Z</time>
      </trkpt>
      <trkpt lat="43.49745" lon="2.65146">
        <ele>819.89085130768</ele>
        <time>2016-09-24T12:04:59Z</time>
      </trkpt>
      <trkpt lat="43.49741" lon="2.65149">
        <ele>820.08158912772</ele>
        <time>2016-09-24T12:05:04Z</time>
      </trkpt>
      <trkpt lat="43.49739" lon="2.65152">
        <ele>820.08158912772</ele>
        <time>2016-09-24T12:05:09Z</time>
      </trkpt>
      <trkpt lat="43.49736" lon="2.65153">
        <ele>820.08158912772</ele>
        <time>2016-09-24T12:05:14Z</time>
      </trkpt>
      <trkpt lat="43.49733" lon="2.65152">
        <ele>820.08158912772</ele>
        <time>2016-09-24T12:05:19Z</time>
      </trkpt>
      <trkpt lat="43.4973" lon="2.65149">
        <ele>820.19851171458</ele>
        <time>2016-09-24T12:05:24Z</time>
      </trkpt>
      <trkpt lat="43.49724" lon="2.65152">
        <ele>820.19851171458</ele>
        <time>2016-09-24T12:05:29Z</time>
      </trkpt>
      <trkpt lat="43.49721" lon="2.65157">
        <ele>820.27509386703</ele>
        <time>2016-09-24T12:05:34Z</time>
      </trkpt>
      <trkpt lat="43.49718" lon="2.6516">
        <ele>820.27509386703</ele>
        <time>2016-09-24T12:05:39Z</time>
      </trkpt>
      <trkpt lat="43.49715" lon="2.65163">
        <ele>820.27509386703</ele>
        <time>2016-09-24T12:05:44Z</time>
      </trkpt>
      <trkpt lat="43.49714" lon="2.65165">
        <ele>820.32809562929</ele>
        <time>2016-09-24T12:05:49Z</time>
      </trkpt>
      <trkpt lat="43.49712" lon="2.65169">
        <ele>820.32809562929</ele>
        <time>2016-09-24T12:05:54Z</time>
      </trkpt>
      <trkpt lat="43.49709" lon="2.65174">
        <ele>820.32809562929</ele>
        <time>2016-09-24T12:05:59Z</time>
      </trkpt>
      <trkpt lat="43.49708" lon="2.65175">
        <ele>820.34433075136</ele>
        <time>2016-09-24T12:06:04Z</time>
      </trkpt>
      <trkpt lat="43.49705" lon="2.6518">
        <ele>820.34433075136</ele>
        <time>2016-09-24T12:06:09Z</time>
      </trkpt>
      <trkpt lat="43.49702" lon="2.65183">
        <ele>820.34433075136</ele>
        <time>2016-09-24T12:06:14Z</time>
      </trkpt>
      <trkpt lat="43.49699" lon="2.65185">
        <ele>820.34054638095</ele>
        <time>2016-09-24T12:06:19Z</time>
      </trkpt>
      <trkpt lat="43.49697" lon="2.65187">
        <ele>820.34054638095</ele>
        <time>2016-09-24T12:06:24Z</time>
      </trkpt>
      <trkpt lat="43.49698" lon="2.65191">
        <ele>820.34054638095</ele>
        <time>2016-09-24T12:06:29Z</time>
      </trkpt>
      <trkpt lat="43.49697" lon="2.65194">
        <ele>820.34054638095</ele>
        <time>2016-09-24T12:06:34Z</time>
      </trkpt>
      <trkpt lat="43.49699" lon="2.65201">
        <ele>820.3179420059</ele>
        <time>2016-09-24T12:06:39Z</time>
      </trkpt>
      <trkpt lat="43.49702" lon="2.652">
        <ele>820.3179420059</ele>
        <time>2016-09-24T12:06:44Z</time>
      </trkpt>
      <trkpt lat="43.49702" lon="2.65201">
        <ele>820.3179420059</ele>
        <time>2016-09-24T12:06:49Z</time>
      </trkpt>
      <trkpt lat="43.49702" lon="2.65201">
        <ele>820.3179420059</ele>
        <time>2016-09-24T12:06:54Z</time>
      </trkpt>
      <trkpt lat="43.49702" lon="2.65201">
        <ele>820.3179420059</ele>
        <time>2016-09-24T12:06:59Z</time>
      </trkpt>
      <trkpt lat="43.49702" lon="2.65203">
        <ele>820.3179420059</ele>
        <time>2016-09-24T12:07:04Z</time>
      </trkpt>
      <trkpt lat="43.49702" lon="2.65203">
        <ele>820.3179420059</ele>
        <time>2016-09-24T12:07:09Z</time>
      </trkpt>
      <trkpt lat="43.49701" lon="2.65203">
        <ele>820.3179420059</ele>
        <time>2016-09-24T12:07:14Z</time>
      </trkpt>
      <trkpt lat="43.49703" lon="2.65204">
        <ele>820.3179420059</ele>
        <time>2016-09-24T12:07:19Z</time>
      </trkpt>
      <trkpt lat="43.49705" lon="2.65203">
        <ele>820.29212845654</ele>
        <time>2016-09-24T12:07:24Z</time>
      </trkpt>
      <trkpt lat="43.49709" lon="2.652">
        <ele>820.29212845654</ele>
        <time>2016-09-24T12:07:29Z</time>
      </trkpt>
      <trkpt lat="43.49709" lon="2.652">
        <ele>820.29212845654</ele>
        <time>2016-09-24T12:07:34Z</time>
      </trkpt>
      <trkpt lat="43.49709" lon="2.652">
        <ele>820.29212845654</ele>
        <time>2016-09-24T12:07:39Z</time>
      </trkpt>
      <trkpt lat="43.49711" lon="2.65198">
        <ele>820.29212845654</ele>
        <time>2016-09-24T12:07:44Z</time>
      </trkpt>
      <trkpt lat="43.49714" lon="2.652">
        <ele>820.26320114851</ele>
        <time>2016-09-24T12:07:49Z</time>
      </trkpt>
      <trkpt lat="43.49716" lon="2.652">
        <ele>820.26320114851</ele>
        <time>2016-09-24T12:07:54Z</time>
      </trkpt>
      <trkpt lat="43.49716" lon="2.65198">
        <ele>820.26320114851</ele>
        <time>2016-09-24T12:07:59Z</time>
      </trkpt>
      <trkpt lat="43.49714" lon="2.65197">
        <ele>820.26320114851</ele>
        <time>2016-09-24T12:08:04Z</time>
      </trkpt>
      <trkpt lat="43.49714" lon="2.65197">
        <ele>820.26320114851</ele>
        <time>2016-09-24T12:08:09Z</time>
      </trkpt>
      <trkpt lat="43.49715" lon="2.65197">
        <ele>820.26320114851</ele>
        <time>2016-09-24T12:08:14Z</time>
      </trkpt>
      <trkpt lat="43.49719" lon="2.65191">
        <ele>820.23128857954</ele>
        <time>2016-09-24T12:08:19Z</time>
      </trkpt>
      <trkpt lat="43.4972" lon="2.6519">
        <ele>820.23128857954</ele>
        <time>2016-09-24T12:08:24Z</time>
      </trkpt>
      <trkpt lat="43.49719" lon="2.6519">
        <ele>820.23128857954</ele>
        <time>2016-09-24T12:08:29Z</time>
      </trkpt>
      <trkpt lat="43.49717" lon="2.65193">
        <ele>820.23128857954</ele>
        <time>2016-09-24T12:08:34Z</time>
      </trkpt>
      <trkpt lat="43.49717" lon="2.65193">
        <ele>820.23128857954</ele>
        <time>2016-09-24T12:08:39Z</time>
      </trkpt>
      <trkpt lat="43.49716" lon="2.65194">
        <ele>820.23128857954</ele>
        <time>2016-09-24T12:08:44Z</time>
      </trkpt>
      <trkpt lat="43.49714" lon="2.65195">
        <ele>820.23128857954</ele>
        <time>2016-09-24T12:08:49Z</time>
      </trkpt>
      <trkpt lat="43.49714" lon="2.65194">
        <ele>820.23128857954</ele>
        <time>2016-09-24T12:08:54Z</time>
      </trkpt>
      <trkpt lat="43.49715" lon="2.65195">
        <ele>820.23128857954</ele>
        <time>2016-09-24T12:08:59Z</time>
      </trkpt>
      <trkpt lat="43.49715" lon="2.65195">
        <ele>820.23128857954</ele>
        <time>2016-09-24T12:09:04Z</time>
      </trkpt>
      <trkpt lat="43.49715" lon="2.65195">
        <ele>820.23128857954</ele>
        <time>2016-09-24T12:09:09Z</time>
      </trkpt>
      <trkpt lat="43.4971" lon="2.65198">
        <ele>820.1965474518</ele>
        <time>2016-09-24T12:09:14Z</time>
      </trkpt>
      <trkpt lat="43.49714" lon="2.65197">
        <ele>820.1965474518</ele>
        <time>2016-09-24T12:09:19Z</time>
      </trkpt>
      <trkpt lat="43.49711" lon="2.65195">
        <ele>820.1965474518</ele>
        <time>2016-09-24T12:09:24Z</time>
      </trkpt>
      <trkpt lat="43.49713" lon="2.65195">
        <ele>820.1965474518</ele>
        <time>2016-09-24T12:09:29Z</time>
      </trkpt>
      <trkpt lat="43.49715" lon="2.65192">
        <ele>820.14474697718</ele>
        <time>2016-09-24T12:09:34Z</time>
      </trkpt>
      <trkpt lat="43.49719" lon="2.65193">
        <ele>820.14474697718</ele>
        <time>2016-09-24T12:09:39Z</time>
      </trkpt>
      <trkpt lat="43.49716" lon="2.65193">
        <ele>820.14474697718</ele>
        <time>2016-09-24T12:09:44Z</time>
      </trkpt>
      <trkpt lat="43.49714" lon="2.65191">
        <ele>820.09159701278</ele>
        <time>2016-09-24T12:09:49Z</time>
      </trkpt>
      <trkpt lat="43.49715" lon="2.65191">
        <ele>820.09159701278</ele>
        <time>2016-09-24T12:09:54Z</time>
      </trkpt>
      <trkpt lat="43.49718" lon="2.65189">
        <ele>820.09159701278</ele>
        <time>2016-09-24T12:09:59Z</time>
      </trkpt>
      <trkpt lat="43.49718" lon="2.65189">
        <ele>820.09159701278</ele>
        <time>2016-09-24T12:10:04Z</time>
      </trkpt>
      <trkpt lat="43.4972" lon="2.6519">
        <ele>820.09159701278</ele>
        <time>2016-09-24T12:10:09Z</time>
      </trkpt>
      <trkpt lat="43.49719" lon="2.65195">
        <ele>820.03726921559</ele>
        <time>2016-09-24T12:10:14Z</time>
      </trkpt>
      <trkpt lat="43.49719" lon="2.65195">
        <ele>820.03726921559</ele>
        <time>2016-09-24T12:10:19Z</time>
      </trkpt>
      <trkpt lat="43.49719" lon="2.65195">
        <ele>820.03726921559</ele>
        <time>2016-09-24T12:10:24Z</time>
      </trkpt>
      <trkpt lat="43.49719" lon="2.65197">
        <ele>820.03726921559</ele>
        <time>2016-09-24T12:10:29Z</time>
      </trkpt>
      <trkpt lat="43.49719" lon="2.652">
        <ele>820.03726921559</ele>
        <time>2016-09-24T12:10:34Z</time>
      </trkpt>
      <trkpt lat="43.49719" lon="2.652">
        <ele>820.03726921559</ele>
        <time>2016-09-24T12:10:39Z</time>
      </trkpt>
      <trkpt lat="43.4972" lon="2.65197">
        <ele>820.03726921559</ele>
        <time>2016-09-24T12:10:44Z</time>
      </trkpt>
      <trkpt lat="43.49717" lon="2.65201">
        <ele>819.96753599915</ele>
        <time>2016-09-24T12:10:49Z</time>
      </trkpt>
      <trkpt lat="43.49717" lon="2.65203">
        <ele>819.96753599915</ele>
        <time>2016-09-24T12:10:54Z</time>
      </trkpt>
      <trkpt lat="43.49716" lon="2.65204">
        <ele>819.96753599915</ele>
        <time>2016-09-24T12:10:59Z</time>
      </trkpt>
      <trkpt lat="43.49717" lon="2.65206">
        <ele>819.96753599915</ele>
        <time>2016-09-24T12:11:04Z</time>
      </trkpt>
      <trkpt lat="43.49717" lon="2.6521">
        <ele>819.96753599915</ele>
        <time>2016-09-24T12:11:09Z</time>
      </trkpt>
      <trkpt lat="43.49721" lon="2.65212">
        <ele>819.88368846471</ele>
        <time>2016-09-24T12:11:14Z</time>
      </trkpt>
      <trkpt lat="43.49724" lon="2.65209">
        <ele>819.88368846471</ele>
        <time>2016-09-24T12:11:19Z</time>
      </trkpt>
      <trkpt lat="43.49722" lon="2.65205">
        <ele>819.88368846471</ele>
        <time>2016-09-24T12:11:24Z</time>
      </trkpt>
      <trkpt lat="43.4972" lon="2.65205">
        <ele>819.78697970944</ele>
        <time>2016-09-24T12:11:29Z</time>
      </trkpt>
      <trkpt lat="43.4972" lon="2.65206">
        <ele>819.78697970944</ele>
        <time>2016-09-24T12:11:34Z</time>
      </trkpt>
      <trkpt lat="43.49718" lon="2.65206">
        <ele>819.78697970944</ele>
        <time>2016-09-24T12:11:39Z</time>
      </trkpt>
      <trkpt lat="43.49717" lon="2.65204">
        <ele>819.78697970944</ele>
        <time>2016-09-24T12:11:44Z</time>
      </trkpt>
      <trkpt lat="43.49712" lon="2.65199">
        <ele>819.6786221419</ele>
        <time>2016-09-24T12:11:49Z</time>
      </trkpt>
      <trkpt lat="43.49711" lon="2.65198">
        <ele>819.6786221419</ele>
        <time>2016-09-24T12:11:54Z</time>
      </trkpt>
      <trkpt lat="43.49714" lon="2.65192">
        <ele>819.6786221419</ele>
        <time>2016-09-24T12:11:59Z</time>
      </trkpt>
      <trkpt lat="43.49711" lon="2.65201">
        <ele>819.55978510264</ele>
        <time>2016-09-24T12:12:04Z</time>
      </trkpt>
      <trkpt lat="43.49709" lon="2.65198">
        <ele>819.55978510264</ele>
        <time>2016-09-24T12:12:09Z</time>
      </trkpt>
      <trkpt lat="43.49706" lon="2.65195">
        <ele>819.55978510264</ele>
        <time>2016-09-24T12:12:14Z</time>
      </trkpt>
      <trkpt lat="43.49705" lon="2.65194">
        <ele>819.55978510264</ele>
        <time>2016-09-24T12:12:19Z</time>
      </trkpt>
      <trkpt lat="43.49703" lon="2.65194">
        <ele>819.44600393274</ele>
        <time>2016-09-24T12:12:24Z</time>
      </trkpt>
      <trkpt lat="43.49702" lon="2.65194">
        <ele>819.44600393274</ele>
        <time>2016-09-24T12:12:29Z</time>
      </trkpt>
      <trkpt lat="43.49702" lon="2.65194">
        <ele>819.44600393274</ele>
        <time>2016-09-24T12:12:34Z</time>
      </trkpt>
      <trkpt lat="43.49701" lon="2.65194">
        <ele>819.44600393274</ele>
        <time>2016-09-24T12:12:39Z</time>
      </trkpt>
      <trkpt lat="43.49701" lon="2.65194">
        <ele>819.44600393274</ele>
        <time>2016-09-24T12:12:44Z</time>
      </trkpt>
      <trkpt lat="43.49701" lon="2.65187">
        <ele>819.44600393274</ele>
        <time>2016-09-24T12:12:49Z</time>
      </trkpt>
      <trkpt lat="43.497" lon="2.65177">
        <ele>819.32284583432</ele>
        <time>2016-09-24T12:12:54Z</time>
      </trkpt>
      <trkpt lat="43.497" lon="2.65177">
        <ele>819.32284583432</ele>
        <time>2016-09-24T12:12:59Z</time>
      </trkpt>
      <trkpt lat="43.497" lon="2.65176">
        <ele>819.32284583432</ele>
        <time>2016-09-24T12:13:04Z</time>
      </trkpt>
      <trkpt lat="43.497" lon="2.65176">
        <ele>819.32284583432</ele>
        <time>2016-09-24T12:13:09Z</time>
      </trkpt>
      <trkpt lat="43.49701" lon="2.65176">
        <ele>819.32284583432</ele>
        <time>2016-09-24T12:13:14Z</time>
      </trkpt>
      <trkpt lat="43.49701" lon="2.65176">
        <ele>819.32284583432</ele>
        <time>2016-09-24T12:13:19Z</time>
      </trkpt>
      <trkpt lat="43.49703" lon="2.6518">
        <ele>819.32284583432</ele>
        <time>2016-09-24T12:13:24Z</time>
      </trkpt>
      <trkpt lat="43.49703" lon="2.65183">
        <ele>819.32284583432</ele>
        <time>2016-09-24T12:13:29Z</time>
      </trkpt>
      <trkpt lat="43.49703" lon="2.65185">
        <ele>819.32284583432</ele>
        <time>2016-09-24T12:13:34Z</time>
      </trkpt>
      <trkpt lat="43.49704" lon="2.65187">
        <ele>819.22020560563</ele>
        <time>2016-09-24T12:13:39Z</time>
      </trkpt>
      <trkpt lat="43.49705" lon="2.65186">
        <ele>819.22020560563</ele>
        <time>2016-09-24T12:13:44Z</time>
      </trkpt>
      <trkpt lat="43.49704" lon="2.65183">
        <ele>819.22020560563</ele>
        <time>2016-09-24T12:13:49Z</time>
      </trkpt>
      <trkpt lat="43.49704" lon="2.65183">
        <ele>819.22020560563</ele>
        <time>2016-09-24T12:13:54Z</time>
      </trkpt>
      <trkpt lat="43.49703" lon="2.65183">
        <ele>819.22020560563</ele>
        <time>2016-09-24T12:13:59Z</time>
      </trkpt>
      <trkpt lat="43.49702" lon="2.65183">
        <ele>819.22020560563</ele>
        <time>2016-09-24T12:14:04Z</time>
      </trkpt>
      <trkpt lat="43.497" lon="2.65189">
        <ele>819.15131942838</ele>
        <time>2016-09-24T12:14:09Z</time>
      </trkpt>
      <trkpt lat="43.49702" lon="2.65186">
        <ele>819.15131942838</ele>
        <time>2016-09-24T12:14:14Z</time>
      </trkpt>
      <trkpt lat="43.49701" lon="2.65195">
        <ele>819.11395009952</ele>
        <time>2016-09-24T12:14:19Z</time>
      </trkpt>
      <trkpt lat="43.497" lon="2.65195">
        <ele>819.11395009952</ele>
        <time>2016-09-24T12:14:24Z</time>
      </trkpt>
      <trkpt lat="43.49699" lon="2.65196">
        <ele>819.11395009952</ele>
        <time>2016-09-24T12:14:29Z</time>
      </trkpt>
      <trkpt lat="43.49699" lon="2.65196">
        <ele>819.11395009952</ele>
        <time>2016-09-24T12:14:34Z</time>
      </trkpt>
      <trkpt lat="43.49698" lon="2.65195">
        <ele>819.11395009952</ele>
        <time>2016-09-24T12:14:39Z</time>
      </trkpt>
      <trkpt lat="43.49698" lon="2.65195">
        <ele>819.11395009952</ele>
        <time>2016-09-24T12:14:44Z</time>
      </trkpt>
      <trkpt lat="43.49697" lon="2.65194">
        <ele>819.11395009952</ele>
        <time>2016-09-24T12:14:49Z</time>
      </trkpt>
      <trkpt lat="43.49697" lon="2.65193">
        <ele>819.11395009952</ele>
        <time>2016-09-24T12:14:54Z</time>
      </trkpt>
      <trkpt lat="43.49698" lon="2.65191">
        <ele>819.11395009952</ele>
        <time>2016-09-24T12:14:59Z</time>
      </trkpt>
      <trkpt lat="43.49698" lon="2.6519">
        <ele>819.11395009952</ele>
        <time>2016-09-24T12:15:04Z</time>
      </trkpt>
      <trkpt lat="43.49698" lon="2.65188">
        <ele>819.11395009952</ele>
        <time>2016-09-24T12:15:09Z</time>
      </trkpt>
      <trkpt lat="43.49698" lon="2.65188">
        <ele>819.14917342675</ele>
        <time>2016-09-24T12:15:14Z</time>
      </trkpt>
      <trkpt lat="43.49699" lon="2.65187">
        <ele>819.14917342675</ele>
        <time>2016-09-24T12:15:19Z</time>
      </trkpt>
      <trkpt lat="43.49699" lon="2.65186">
        <ele>819.14917342675</ele>
        <time>2016-09-24T12:15:24Z</time>
      </trkpt>
      <trkpt lat="43.49699" lon="2.65186">
        <ele>819.14917342675</ele>
        <time>2016-09-24T12:15:29Z</time>
      </trkpt>
      <trkpt lat="43.49699" lon="2.65185">
        <ele>819.14917342675</ele>
        <time>2016-09-24T12:15:34Z</time>
      </trkpt>
      <trkpt lat="43.49699" lon="2.65185">
        <ele>819.14917342675</ele>
        <time>2016-09-24T12:15:39Z</time>
      </trkpt>
      <trkpt lat="43.49698" lon="2.65187">
        <ele>819.14917342675</ele>
        <time>2016-09-24T12:15:44Z</time>
      </trkpt>
      <trkpt lat="43.49698" lon="2.65187">
        <ele>819.14917342675</ele>
        <time>2016-09-24T12:15:49Z</time>
      </trkpt>
      <trkpt lat="43.49698" lon="2.65188">
        <ele>819.14917342675</ele>
        <time>2016-09-24T12:15:54Z</time>
      </trkpt>
      <trkpt lat="43.49698" lon="2.652">
        <ele>819.28043626129</ele>
        <time>2016-09-24T12:15:59Z</time>
      </trkpt>
      <trkpt lat="43.49699" lon="2.65201">
        <ele>819.28043626129</ele>
        <time>2016-09-24T12:16:04Z</time>
      </trkpt>
      <trkpt lat="43.49702" lon="2.65205">
        <ele>819.28043626129</ele>
        <time>2016-09-24T12:16:09Z</time>
      </trkpt>
      <trkpt lat="43.49701" lon="2.6521">
        <ele>819.51478580903</ele>
        <time>2016-09-24T12:16:14Z</time>
      </trkpt>
      <trkpt lat="43.49702" lon="2.65209">
        <ele>819.51478580903</ele>
        <time>2016-09-24T12:16:19Z</time>
      </trkpt>
      <trkpt lat="43.49702" lon="2.65214">
        <ele>819.51478580903</ele>
        <time>2016-09-24T12:16:24Z</time>
      </trkpt>
      <trkpt lat="43.49701" lon="2.65215">
        <ele>819.51478580903</ele>
        <time>2016-09-24T12:16:29Z</time>
      </trkpt>
      <trkpt lat="43.49701" lon="2.65214">
        <ele>819.51478580903</ele>
        <time>2016-09-24T12:16:34Z</time>
      </trkpt>
      <trkpt lat="43.49702" lon="2.65213">
        <ele>819.51478580903</ele>
        <time>2016-09-24T12:16:39Z</time>
      </trkpt>
      <trkpt lat="43.497" lon="2.65211">
        <ele>819.84405531591</ele>
        <time>2016-09-24T12:16:44Z</time>
      </trkpt>
      <trkpt lat="43.497" lon="2.6521">
        <ele>819.84405531591</ele>
        <time>2016-09-24T12:16:49Z</time>
      </trkpt>
      <trkpt lat="43.497" lon="2.6521">
        <ele>819.84405531591</ele>
        <time>2016-09-24T12:16:54Z</time>
      </trkpt>
      <trkpt lat="43.49701" lon="2.65213">
        <ele>819.84405531591</ele>
        <time>2016-09-24T12:16:59Z</time>
      </trkpt>
      <trkpt lat="43.49704" lon="2.65202">
        <ele>820.1883614531</ele>
        <time>2016-09-24T12:17:04Z</time>
      </trkpt>
      <trkpt lat="43.49711" lon="2.6521">
        <ele>820.53129848479</ele>
        <time>2016-09-24T12:17:09Z</time>
      </trkpt>
      <trkpt lat="43.49708" lon="2.65209">
        <ele>820.53129848479</ele>
        <time>2016-09-24T12:17:14Z</time>
      </trkpt>
      <trkpt lat="43.49708" lon="2.65211">
        <ele>820.53129848479</ele>
        <time>2016-09-24T12:17:19Z</time>
      </trkpt>
      <trkpt lat="43.49708" lon="2.652">
        <ele>821.03061243601</ele>
        <time>2016-09-24T12:17:24Z</time>
      </trkpt>
      <trkpt lat="43.49709" lon="2.65195">
        <ele>821.03061243601</ele>
        <time>2016-09-24T12:17:29Z</time>
      </trkpt>
      <trkpt lat="43.49707" lon="2.65194">
        <ele>821.03061243601</ele>
        <time>2016-09-24T12:17:39Z</time>
      </trkpt>
      <trkpt lat="43.49709" lon="2.65191">
        <ele>821.54381217906</ele>
        <time>2016-09-24T12:17:44Z</time>
      </trkpt>
      <trkpt lat="43.49712" lon="2.65186">
        <ele>821.54381217906</ele>
        <time>2016-09-24T12:17:49Z</time>
      </trkpt>
      <trkpt lat="43.49714" lon="2.65179">
        <ele>822.01090481048</ele>
        <time>2016-09-24T12:17:54Z</time>
      </trkpt>
      <trkpt lat="43.49714" lon="2.65179">
        <ele>822.01090481048</ele>
        <time>2016-09-24T12:17:59Z</time>
      </trkpt>
      <trkpt lat="43.49715" lon="2.65178">
        <ele>822.01090481048</ele>
        <time>2016-09-24T12:18:04Z</time>
      </trkpt>
      <trkpt lat="43.49715" lon="2.65177">
        <ele>822.01090481048</ele>
        <time>2016-09-24T12:18:09Z</time>
      </trkpt>
      <trkpt lat="43.49714" lon="2.65172">
        <ele>822.01090481048</ele>
        <time>2016-09-24T12:18:14Z</time>
      </trkpt>
      <trkpt lat="43.49714" lon="2.65173">
        <ele>822.01090481048</ele>
        <time>2016-09-24T12:18:19Z</time>
      </trkpt>
      <trkpt lat="43.49714" lon="2.65173">
        <ele>822.01090481048</ele>
        <time>2016-09-24T12:18:24Z</time>
      </trkpt>
      <trkpt lat="43.49712" lon="2.65173">
        <ele>822.43409501483</ele>
        <time>2016-09-24T12:18:29Z</time>
      </trkpt>
      <trkpt lat="43.49708" lon="2.65181">
        <ele>822.43409501483</ele>
        <time>2016-09-24T12:18:34Z</time>
      </trkpt>
      <trkpt lat="43.49708" lon="2.65181">
        <ele>822.43409501483</ele>
        <time>2016-09-24T12:18:39Z</time>
      </trkpt>
      <trkpt lat="43.49709" lon="2.6518">
        <ele>822.82997878657</ele>
        <time>2016-09-24T12:18:44Z</time>
      </trkpt>
      <trkpt lat="43.49711" lon="2.65177">
        <ele>822.82997878657</ele>
        <time>2016-09-24T12:18:49Z</time>
      </trkpt>
      <trkpt lat="43.49713" lon="2.65175">
        <ele>822.82997878657</ele>
        <time>2016-09-24T12:18:54Z</time>
      </trkpt>
      <trkpt lat="43.49713" lon="2.65175">
        <ele>822.82997878657</ele>
        <time>2016-09-24T12:18:59Z</time>
      </trkpt>
      <trkpt lat="43.49713" lon="2.65176">
        <ele>822.82997878657</ele>
        <time>2016-09-24T12:19:04Z</time>
      </trkpt>
      <trkpt lat="43.49713" lon="2.65178">
        <ele>822.82997878657</ele>
        <time>2016-09-24T12:19:09Z</time>
      </trkpt>
      <trkpt lat="43.49713" lon="2.65178">
        <ele>822.82997878657</ele>
        <time>2016-09-24T12:19:14Z</time>
      </trkpt>
      <trkpt lat="43.49713" lon="2.65178">
        <ele>822.82997878657</ele>
        <time>2016-09-24T12:19:19Z</time>
      </trkpt>
      <trkpt lat="43.49711" lon="2.65182">
        <ele>823.19961924276</ele>
        <time>2016-09-24T12:19:24Z</time>
      </trkpt>
      <trkpt lat="43.49711" lon="2.65187">
        <ele>823.19961924276</ele>
        <time>2016-09-24T12:19:29Z</time>
      </trkpt>
      <trkpt lat="43.49706" lon="2.6519">
        <ele>823.19961924276</ele>
        <time>2016-09-24T12:19:34Z</time>
      </trkpt>
      <trkpt lat="43.49704" lon="2.65191">
        <ele>823.55850823105</ele>
        <time>2016-09-24T12:19:39Z</time>
      </trkpt>
      <trkpt lat="43.49703" lon="2.65189">
        <ele>823.55850823105</ele>
        <time>2016-09-24T12:19:44Z</time>
      </trkpt>
      <trkpt lat="43.49708" lon="2.65194">
        <ele>823.55850823105</ele>
        <time>2016-09-24T12:19:49Z</time>
      </trkpt>
      <trkpt lat="43.49714" lon="2.65186">
        <ele>823.89223052166</ele>
        <time>2016-09-24T12:19:54Z</time>
      </trkpt>
      <trkpt lat="43.49716" lon="2.65188">
        <ele>823.89223052166</ele>
        <time>2016-09-24T12:19:59Z</time>
      </trkpt>
      <trkpt lat="43.49716" lon="2.65187">
        <ele>823.89223052166</ele>
        <time>2016-09-24T12:20:04Z</time>
      </trkpt>
      <trkpt lat="43.49718" lon="2.65188">
        <ele>823.89223052166</ele>
        <time>2016-09-24T12:20:09Z</time>
      </trkpt>
      <trkpt lat="43.49717" lon="2.65189">
        <ele>823.89223052166</ele>
        <time>2016-09-24T12:20:14Z</time>
      </trkpt>
      <trkpt lat="43.49715" lon="2.65189">
        <ele>823.89223052166</ele>
        <time>2016-09-24T12:20:19Z</time>
      </trkpt>
      <trkpt lat="43.49714" lon="2.65188">
        <ele>824.20193515245</ele>
        <time>2016-09-24T12:20:24Z</time>
      </trkpt>
      <trkpt lat="43.49718" lon="2.65198">
        <ele>824.20193515245</ele>
        <time>2016-09-24T12:20:29Z</time>
      </trkpt>
      <trkpt lat="43.49723" lon="2.65202">
        <ele>824.47436690698</ele>
        <time>2016-09-24T12:20:34Z</time>
      </trkpt>
      <trkpt lat="43.49724" lon="2.65204">
        <ele>824.47436690698</ele>
        <time>2016-09-24T12:20:39Z</time>
      </trkpt>
      <trkpt lat="43.49723" lon="2.65208">
        <ele>824.47436690698</ele>
        <time>2016-09-24T12:20:44Z</time>
      </trkpt>
      <trkpt lat="43.49721" lon="2.65206">
        <ele>824.47436690698</ele>
        <time>2016-09-24T12:20:49Z</time>
      </trkpt>
      <trkpt lat="43.49722" lon="2.65197">
        <ele>824.71178381892</ele>
        <time>2016-09-24T12:20:54Z</time>
      </trkpt>
      <trkpt lat="43.49722" lon="2.65199">
        <ele>824.71178381892</ele>
        <time>2016-09-24T12:20:59Z</time>
      </trkpt>
      <trkpt lat="43.49724" lon="2.65208">
        <ele>824.71178381892</ele>
        <time>2016-09-24T12:21:04Z</time>
      </trkpt>
      <trkpt lat="43.49728" lon="2.65209">
        <ele>824.90198861145</ele>
        <time>2016-09-24T12:21:09Z</time>
      </trkpt>
      <trkpt lat="43.49731" lon="2.652">
        <ele>824.90198861145</ele>
        <time>2016-09-24T12:21:14Z</time>
      </trkpt>
      <trkpt lat="43.49717" lon="2.65198">
        <ele>825.06265741004</ele>
        <time>2016-09-24T12:21:19Z</time>
      </trkpt>
      <trkpt lat="43.49711" lon="2.65201">
        <ele>825.06265741004</ele>
        <time>2016-09-24T12:21:24Z</time>
      </trkpt>
      <trkpt lat="43.49715" lon="2.65196">
        <ele>825.18145013081</ele>
        <time>2016-09-24T12:21:29Z</time>
      </trkpt>
      <trkpt lat="43.49714" lon="2.65193">
        <ele>825.18145013081</ele>
        <time>2016-09-24T12:21:34Z</time>
      </trkpt>
      <trkpt lat="43.49713" lon="2.65194">
        <ele>825.18145013081</ele>
        <time>2016-09-24T12:21:39Z</time>
      </trkpt>
      <trkpt lat="43.49711" lon="2.65196">
        <ele>825.18145013081</ele>
        <time>2016-09-24T12:21:44Z</time>
      </trkpt>
      <trkpt lat="43.49708" lon="2.65192">
        <ele>825.26148203606</ele>
        <time>2016-09-24T12:21:49Z</time>
      </trkpt>
      <trkpt lat="43.4971" lon="2.65193">
        <ele>825.26148203606</ele>
        <time>2016-09-24T12:21:54Z</time>
      </trkpt>
      <trkpt lat="43.49711" lon="2.65192">
        <ele>825.26148203606</ele>
        <time>2016-09-24T12:21:59Z</time>
      </trkpt>
      <trkpt lat="43.49714" lon="2.65194">
        <ele>825.26148203606</ele>
        <time>2016-09-24T12:22:04Z</time>
      </trkpt>
      <trkpt lat="43.49715" lon="2.65196">
        <ele>825.26148203606</ele>
        <time>2016-09-24T12:22:09Z</time>
      </trkpt>
      <trkpt lat="43.49716" lon="2.65187">
        <ele>825.29135573181</ele>
        <time>2016-09-24T12:22:14Z</time>
      </trkpt>
      <trkpt lat="43.49713" lon="2.65184">
        <ele>825.29135573181</ele>
        <time>2016-09-24T12:22:19Z</time>
      </trkpt>
      <trkpt lat="43.49707" lon="2.65187">
        <ele>825.28949063964</ele>
        <time>2016-09-24T12:22:24Z</time>
      </trkpt>
      <trkpt lat="43.49713" lon="2.65192">
        <ele>825.28949063964</ele>
        <time>2016-09-24T12:22:29Z</time>
      </trkpt>
      <trkpt lat="43.49708" lon="2.65195">
        <ele>825.25864547411</ele>
        <time>2016-09-24T12:22:34Z</time>
      </trkpt>
      <trkpt lat="43.49706" lon="2.65198">
        <ele>825.25864547411</ele>
        <time>2016-09-24T12:22:39Z</time>
      </trkpt>
      <trkpt lat="43.49709" lon="2.65194">
        <ele>825.25864547411</ele>
        <time>2016-09-24T12:22:44Z</time>
      </trkpt>
      <trkpt lat="43.4971" lon="2.65194">
        <ele>825.25864547411</ele>
        <time>2016-09-24T12:22:49Z</time>
      </trkpt>
      <trkpt lat="43.49713" lon="2.65195">
        <ele>825.2014696914</ele>
        <time>2016-09-24T12:22:54Z</time>
      </trkpt>
      <trkpt lat="43.49714" lon="2.65199">
        <ele>825.2014696914</ele>
        <time>2016-09-24T12:22:59Z</time>
      </trkpt>
      <trkpt lat="43.49715" lon="2.65207">
        <ele>825.13491274435</ele>
        <time>2016-09-24T12:23:04Z</time>
      </trkpt>
      <trkpt lat="43.49716" lon="2.65211">
        <ele>825.13491274435</ele>
        <time>2016-09-24T12:23:09Z</time>
      </trkpt>
      <trkpt lat="43.49716" lon="2.65217">
        <ele>825.13491274435</ele>
        <time>2016-09-24T12:23:14Z</time>
      </trkpt>
      <trkpt lat="43.49716" lon="2.65215">
        <ele>825.04589021127</ele>
        <time>2016-09-24T12:23:19Z</time>
      </trkpt>
      <trkpt lat="43.49717" lon="2.65208">
        <ele>825.04589021127</ele>
        <time>2016-09-24T12:23:24Z</time>
      </trkpt>
      <trkpt lat="43.49708" lon="2.65198">
        <ele>824.95116875333</ele>
        <time>2016-09-24T12:23:29Z</time>
      </trkpt>
      <trkpt lat="43.49699" lon="2.65193">
        <ele>824.85189045978</ele>
        <time>2016-09-24T12:23:34Z</time>
      </trkpt>
      <trkpt lat="43.497" lon="2.65182">
        <ele>824.85189045978</ele>
        <time>2016-09-24T12:23:39Z</time>
      </trkpt>
      <trkpt lat="43.49699" lon="2.65186">
        <ele>824.74912620297</ele>
        <time>2016-09-24T12:23:44Z</time>
      </trkpt>
      <trkpt lat="43.49704" lon="2.65182">
        <ele>824.74912620297</ele>
        <time>2016-09-24T12:23:49Z</time>
      </trkpt>
      <trkpt lat="43.49704" lon="2.65175">
        <ele>824.62946451225</ele>
        <time>2016-09-24T12:23:54Z</time>
      </trkpt>
      <trkpt lat="43.49704" lon="2.65169">
        <ele>824.62946451225</ele>
        <time>2016-09-24T12:23:59Z</time>
      </trkpt>
      <trkpt lat="43.49699" lon="2.65174">
        <ele>824.50934430474</ele>
        <time>2016-09-24T12:24:04Z</time>
      </trkpt>
      <trkpt lat="43.49698" lon="2.65179">
        <ele>824.50934430474</ele>
        <time>2016-09-24T12:24:09Z</time>
      </trkpt>
      <trkpt lat="43.49699" lon="2.65178">
        <ele>824.50934430474</ele>
        <time>2016-09-24T12:24:14Z</time>
      </trkpt>
      <trkpt lat="43.49701" lon="2.65177">
        <ele>824.50934430474</ele>
        <time>2016-09-24T12:24:19Z</time>
      </trkpt>
      <trkpt lat="43.49702" lon="2.65178">
        <ele>824.50934430474</ele>
        <time>2016-09-24T12:24:24Z</time>
      </trkpt>
      <trkpt lat="43.49701" lon="2.65182">
        <ele>824.38958064688</ele>
        <time>2016-09-24T12:24:29Z</time>
      </trkpt>
      <trkpt lat="43.49706" lon="2.65182">
        <ele>824.38958064688</ele>
        <time>2016-09-24T12:24:34Z</time>
      </trkpt>
      <trkpt lat="43.4971" lon="2.65182">
        <ele>824.38958064688</ele>
        <time>2016-09-24T12:24:39Z</time>
      </trkpt>
      <trkpt lat="43.49712" lon="2.65184">
        <ele>824.25650831474</ele>
        <time>2016-09-24T12:24:44Z</time>
      </trkpt>
      <trkpt lat="43.49713" lon="2.65185">
        <ele>824.25650831474</ele>
        <time>2016-09-24T12:24:49Z</time>
      </trkpt>
      <trkpt lat="43.49713" lon="2.65186">
        <ele>824.25650831474</ele>
        <time>2016-09-24T12:24:54Z</time>
      </trkpt>
      <trkpt lat="43.49715" lon="2.65187">
        <ele>824.25650831474</ele>
        <time>2016-09-24T12:24:59Z</time>
      </trkpt>
      <trkpt lat="43.49719" lon="2.65182">
        <ele>824.25650831474</ele>
        <time>2016-09-24T12:25:04Z</time>
      </trkpt>
      <trkpt lat="43.49719" lon="2.65186">
        <ele>824.1119043107</ele>
        <time>2016-09-24T12:25:09Z</time>
      </trkpt>
      <trkpt lat="43.49719" lon="2.65182">
        <ele>824.1119043107</ele>
        <time>2016-09-24T12:25:14Z</time>
      </trkpt>
      <trkpt lat="43.49718" lon="2.65176">
        <ele>824.1119043107</ele>
        <time>2016-09-24T12:25:19Z</time>
      </trkpt>
      <trkpt lat="43.49711" lon="2.65174">
        <ele>823.97184686654</ele>
        <time>2016-09-24T12:25:24Z</time>
      </trkpt>
      <trkpt lat="43.49714" lon="2.65178">
        <ele>823.97184686654</ele>
        <time>2016-09-24T12:25:29Z</time>
      </trkpt>
      <trkpt lat="43.49714" lon="2.65179">
        <ele>823.97184686654</ele>
        <time>2016-09-24T12:25:34Z</time>
      </trkpt>
      <trkpt lat="43.49714" lon="2.65181">
        <ele>823.97184686654</ele>
        <time>2016-09-24T12:25:39Z</time>
      </trkpt>
      <trkpt lat="43.49713" lon="2.65181">
        <ele>823.97184686654</ele>
        <time>2016-09-24T12:25:44Z</time>
      </trkpt>
      <trkpt lat="43.49713" lon="2.65182">
        <ele>823.97184686654</ele>
        <time>2016-09-24T12:25:49Z</time>
      </trkpt>
      <trkpt lat="43.49714" lon="2.65185">
        <ele>823.83679603608</ele>
        <time>2016-09-24T12:25:54Z</time>
      </trkpt>
      <trkpt lat="43.49716" lon="2.65191">
        <ele>823.83679603608</ele>
        <time>2016-09-24T12:25:59Z</time>
      </trkpt>
      <trkpt lat="43.49723" lon="2.65191">
        <ele>823.70714945304</ele>
        <time>2016-09-24T12:26:04Z</time>
      </trkpt>
      <trkpt lat="43.49727" lon="2.65189">
        <ele>823.70714945304</ele>
        <time>2016-09-24T12:26:09Z</time>
      </trkpt>
      <trkpt lat="43.49726" lon="2.65189">
        <ele>823.70714945304</ele>
        <time>2016-09-24T12:26:14Z</time>
      </trkpt>
      <trkpt lat="43.4972" lon="2.6519">
        <ele>823.59765574177</ele>
        <time>2016-09-24T12:26:19Z</time>
      </trkpt>
      <trkpt lat="43.49706" lon="2.65189">
        <ele>823.4930846021</ele>
        <time>2016-09-24T12:26:24Z</time>
      </trkpt>
      <trkpt lat="43.49704" lon="2.65185">
        <ele>823.4930846021</ele>
        <time>2016-09-24T12:26:29Z</time>
      </trkpt>
      <trkpt lat="43.49704" lon="2.65185">
        <ele>823.4930846021</ele>
        <time>2016-09-24T12:26:34Z</time>
      </trkpt>
      <trkpt lat="43.49704" lon="2.65186">
        <ele>823.4930846021</ele>
        <time>2016-09-24T12:26:39Z</time>
      </trkpt>
      <trkpt lat="43.49706" lon="2.65181">
        <ele>823.4930846021</ele>
        <time>2016-09-24T12:26:44Z</time>
      </trkpt>
      <trkpt lat="43.49712" lon="2.65183">
        <ele>823.39370434305</ele>
        <time>2016-09-24T12:26:49Z</time>
      </trkpt>
      <trkpt lat="43.49713" lon="2.65182">
        <ele>823.39370434305</ele>
        <time>2016-09-24T12:26:54Z</time>
      </trkpt>
      <trkpt lat="43.49713" lon="2.65182">
        <ele>823.39370434305</ele>
        <time>2016-09-24T12:26:59Z</time>
      </trkpt>
      <trkpt lat="43.49713" lon="2.65182">
        <ele>823.39370434305</ele>
        <time>2016-09-24T12:27:04Z</time>
      </trkpt>
      <trkpt lat="43.49716" lon="2.65172">
        <ele>823.29973090504</ele>
        <time>2016-09-24T12:27:09Z</time>
      </trkpt>
      <trkpt lat="43.49713" lon="2.65176">
        <ele>823.29973090504</ele>
        <time>2016-09-24T12:27:14Z</time>
      </trkpt>
      <trkpt lat="43.49715" lon="2.6518">
        <ele>823.29973090504</ele>
        <time>2016-09-24T12:27:19Z</time>
      </trkpt>
      <trkpt lat="43.49719" lon="2.65183">
        <ele>823.21133067583</ele>
        <time>2016-09-24T12:27:24Z</time>
      </trkpt>
      <trkpt lat="43.49719" lon="2.65175">
        <ele>823.21133067583</ele>
        <time>2016-09-24T12:27:29Z</time>
      </trkpt>
      <trkpt lat="43.49719" lon="2.65173">
        <ele>823.21133067583</ele>
        <time>2016-09-24T12:27:34Z</time>
      </trkpt>
      <trkpt lat="43.49718" lon="2.65171">
        <ele>823.114212231</ele>
        <time>2016-09-24T12:27:39Z</time>
      </trkpt>
      <trkpt lat="43.49715" lon="2.65172">
        <ele>823.114212231</ele>
        <time>2016-09-24T12:27:44Z</time>
      </trkpt>
      <trkpt lat="43.49714" lon="2.65172">
        <ele>823.114212231</ele>
        <time>2016-09-24T12:27:49Z</time>
      </trkpt>
      <trkpt lat="43.49705" lon="2.65181">
        <ele>823.02396163235</ele>
        <time>2016-09-24T12:27:54Z</time>
      </trkpt>
      <trkpt lat="43.49709" lon="2.65177">
        <ele>823.02396163235</ele>
        <time>2016-09-24T12:27:59Z</time>
      </trkpt>
      <trkpt lat="43.49709" lon="2.65182">
        <ele>822.94057046121</ele>
        <time>2016-09-24T12:28:04Z</time>
      </trkpt>
      <trkpt lat="43.49712" lon="2.65189">
        <ele>822.94057046121</ele>
        <time>2016-09-24T12:28:09Z</time>
      </trkpt>
      <trkpt lat="43.49712" lon="2.65189">
        <ele>822.94057046121</ele>
        <time>2016-09-24T12:28:14Z</time>
      </trkpt>
      <trkpt lat="43.49711" lon="2.6519">
        <ele>822.94057046121</ele>
        <time>2016-09-24T12:28:19Z</time>
      </trkpt>
      <trkpt lat="43.49711" lon="2.65192">
        <ele>822.94057046121</ele>
        <time>2016-09-24T12:28:24Z</time>
      </trkpt>
      <trkpt lat="43.49709" lon="2.65191">
        <ele>822.84958135954</ele>
        <time>2016-09-24T12:28:29Z</time>
      </trkpt>
      <trkpt lat="43.49709" lon="2.65196">
        <ele>822.84958135954</ele>
        <time>2016-09-24T12:28:34Z</time>
      </trkpt>
      <trkpt lat="43.49715" lon="2.65198">
        <ele>822.76642338455</ele>
        <time>2016-09-24T12:28:39Z</time>
      </trkpt>
      <trkpt lat="43.49718" lon="2.65192">
        <ele>822.76642338455</ele>
        <time>2016-09-24T12:28:44Z</time>
      </trkpt>
      <trkpt lat="43.49718" lon="2.65192">
        <ele>822.76642338455</ele>
        <time>2016-09-24T12:28:49Z</time>
      </trkpt>
      <trkpt lat="43.49715" lon="2.65193">
        <ele>822.76642338455</ele>
        <time>2016-09-24T12:28:54Z</time>
      </trkpt>
      <trkpt lat="43.49715" lon="2.65193">
        <ele>822.76642338455</ele>
        <time>2016-09-24T12:28:59Z</time>
      </trkpt>
      <trkpt lat="43.49713" lon="2.65205">
        <ele>822.69094006048</ele>
        <time>2016-09-24T12:29:04Z</time>
      </trkpt>
      <trkpt lat="43.49714" lon="2.65201">
        <ele>822.69094006048</ele>
        <time>2016-09-24T12:29:09Z</time>
      </trkpt>
      <trkpt lat="43.49714" lon="2.65198">
        <ele>822.69094006048</ele>
        <time>2016-09-24T12:29:14Z</time>
      </trkpt>
      <trkpt lat="43.49718" lon="2.65195">
        <ele>822.63735718514</ele>
        <time>2016-09-24T12:29:19Z</time>
      </trkpt>
      <trkpt lat="43.49718" lon="2.65199">
        <ele>822.63735718514</ele>
        <time>2016-09-24T12:29:24Z</time>
      </trkpt>
      <trkpt lat="43.49711" lon="2.65203">
        <ele>822.58995338979</ele>
        <time>2016-09-24T12:29:29Z</time>
      </trkpt>
      <trkpt lat="43.49706" lon="2.65189">
        <ele>822.54853794455</ele>
        <time>2016-09-24T12:29:34Z</time>
      </trkpt>
      <trkpt lat="43.49708" lon="2.65189">
        <ele>822.54853794455</ele>
        <time>2016-09-24T12:29:39Z</time>
      </trkpt>
      <trkpt lat="43.49701" lon="2.65204">
        <ele>822.51289986135</ele>
        <time>2016-09-24T12:29:44Z</time>
      </trkpt>
      <trkpt lat="43.497" lon="2.65206">
        <ele>822.51289986135</ele>
        <time>2016-09-24T12:29:49Z</time>
      </trkpt>
      <trkpt lat="43.49698" lon="2.65203">
        <ele>822.51289986135</ele>
        <time>2016-09-24T12:29:54Z</time>
      </trkpt>
      <trkpt lat="43.49699" lon="2.65195">
        <ele>822.48281061235</ele>
        <time>2016-09-24T12:29:59Z</time>
      </trkpt>
      <trkpt lat="43.49703" lon="2.65191">
        <ele>822.48281061235</ele>
        <time>2016-09-24T12:30:04Z</time>
      </trkpt>
      <trkpt lat="43.49702" lon="2.65197">
        <ele>822.45802674907</ele>
        <time>2016-09-24T12:30:09Z</time>
      </trkpt>
      <trkpt lat="43.49701" lon="2.652">
        <ele>822.45802674907</ele>
        <time>2016-09-24T12:30:14Z</time>
      </trkpt>
      <trkpt lat="43.49702" lon="2.65199">
        <ele>822.45802674907</ele>
        <time>2016-09-24T12:30:19Z</time>
      </trkpt>
      <trkpt lat="43.49706" lon="2.65194">
        <ele>822.43829241414</ele>
        <time>2016-09-24T12:30:24Z</time>
      </trkpt>
      <trkpt lat="43.49712" lon="2.65191">
        <ele>822.43829241414</ele>
        <time>2016-09-24T12:30:29Z</time>
      </trkpt>
      <trkpt lat="43.49714" lon="2.65187">
        <ele>822.42334173905</ele>
        <time>2016-09-24T12:30:34Z</time>
      </trkpt>
      <trkpt lat="43.49714" lon="2.65185">
        <ele>822.42334173905</ele>
        <time>2016-09-24T12:30:39Z</time>
      </trkpt>
      <trkpt lat="43.49716" lon="2.65183">
        <ele>822.42334173905</ele>
        <time>2016-09-24T12:30:44Z</time>
      </trkpt>
      <trkpt lat="43.49717" lon="2.65183">
        <ele>822.42334173905</ele>
        <time>2016-09-24T12:30:49Z</time>
      </trkpt>
      <trkpt lat="43.49714" lon="2.65182">
        <ele>822.42334173905</ele>
        <time>2016-09-24T12:30:54Z</time>
      </trkpt>
      <trkpt lat="43.49716" lon="2.65182">
        <ele>822.39848998061</ele>
        <time>2016-09-24T12:30:59Z</time>
      </trkpt>
      <trkpt lat="43.49718" lon="2.65185">
        <ele>822.39848998061</ele>
        <time>2016-09-24T12:31:04Z</time>
      </trkpt>
      <trkpt lat="43.49718" lon="2.65184">
        <ele>822.39848998061</ele>
        <time>2016-09-24T12:31:09Z</time>
      </trkpt>
      <trkpt lat="43.49717" lon="2.65183">
        <ele>822.39848998061</ele>
        <time>2016-09-24T12:31:14Z</time>
      </trkpt>
      <trkpt lat="43.4972" lon="2.65187">
        <ele>822.37896804608</ele>
        <time>2016-09-24T12:31:19Z</time>
      </trkpt>
      <trkpt lat="43.4972" lon="2.65189">
        <ele>822.37896804608</ele>
        <time>2016-09-24T12:31:24Z</time>
      </trkpt>
      <trkpt lat="43.4972" lon="2.65189">
        <ele>822.37896804608</ele>
        <time>2016-09-24T12:31:29Z</time>
      </trkpt>
      <trkpt lat="43.49719" lon="2.65188">
        <ele>822.37896804608</ele>
        <time>2016-09-24T12:31:34Z</time>
      </trkpt>
      <trkpt lat="43.49718" lon="2.65185">
        <ele>822.37896804608</ele>
        <time>2016-09-24T12:31:39Z</time>
      </trkpt>
      <trkpt lat="43.49709" lon="2.65172">
        <ele>822.3500384584</ele>
        <time>2016-09-24T12:31:44Z</time>
      </trkpt>
      <trkpt lat="43.49708" lon="2.65171">
        <ele>822.3500384584</ele>
        <time>2016-09-24T12:31:49Z</time>
      </trkpt>
      <trkpt lat="43.49708" lon="2.65172">
        <ele>822.3500384584</ele>
        <time>2016-09-24T12:31:54Z</time>
      </trkpt>
      <trkpt lat="43.49708" lon="2.65173">
        <ele>822.3500384584</ele>
        <time>2016-09-24T12:31:59Z</time>
      </trkpt>
      <trkpt lat="43.49708" lon="2.65176">
        <ele>822.3500384584</ele>
        <time>2016-09-24T12:32:04Z</time>
      </trkpt>
      <trkpt lat="43.49708" lon="2.65179">
        <ele>822.3500384584</ele>
        <time>2016-09-24T12:32:09Z</time>
      </trkpt>
      <trkpt lat="43.49709" lon="2.6518">
        <ele>822.3500384584</ele>
        <time>2016-09-24T12:32:14Z</time>
      </trkpt>
      <trkpt lat="43.49709" lon="2.65187">
        <ele>822.3268833466</ele>
        <time>2016-09-24T12:32:19Z</time>
      </trkpt>
      <trkpt lat="43.49708" lon="2.65193">
        <ele>822.3268833466</ele>
        <time>2016-09-24T12:32:24Z</time>
      </trkpt>
      <trkpt lat="43.49707" lon="2.65197">
        <ele>822.3268833466</ele>
        <time>2016-09-24T12:32:29Z</time>
      </trkpt>
      <trkpt lat="43.49705" lon="2.65198">
        <ele>822.30913132475</ele>
        <time>2016-09-24T12:32:34Z</time>
      </trkpt>
      <trkpt lat="43.49705" lon="2.65199">
        <ele>822.30913132475</ele>
        <time>2016-09-24T12:32:39Z</time>
      </trkpt>
      <trkpt lat="43.49706" lon="2.65201">
        <ele>822.30913132475</ele>
        <time>2016-09-24T12:32:44Z</time>
      </trkpt>
      <trkpt lat="43.49709" lon="2.65199">
        <ele>822.30913132475</ele>
        <time>2016-09-24T12:32:49Z</time>
      </trkpt>
      <trkpt lat="43.49709" lon="2.65199">
        <ele>822.30913132475</ele>
        <time>2016-09-24T12:32:54Z</time>
      </trkpt>
      <trkpt lat="43.49709" lon="2.65198">
        <ele>822.30913132475</ele>
        <time>2016-09-24T12:32:59Z</time>
      </trkpt>
      <trkpt lat="43.49709" lon="2.65196">
        <ele>822.30913132475</ele>
        <time>2016-09-24T12:33:04Z</time>
      </trkpt>
      <trkpt lat="43.49708" lon="2.65191">
        <ele>822.29641289499</ele>
        <time>2016-09-24T12:33:09Z</time>
      </trkpt>
      <trkpt lat="43.49709" lon="2.65183">
        <ele>822.29641289499</ele>
        <time>2016-09-24T12:33:14Z</time>
      </trkpt>
      <trkpt lat="43.4971" lon="2.65182">
        <ele>822.29641289499</ele>
        <time>2016-09-24T12:33:19Z</time>
      </trkpt>
      <trkpt lat="43.49711" lon="2.65182">
        <ele>822.29641289499</ele>
        <time>2016-09-24T12:33:24Z</time>
      </trkpt>
      <trkpt lat="43.49711" lon="2.6518">
        <ele>822.25953975724</ele>
        <time>2016-09-24T12:33:29Z</time>
      </trkpt>
      <trkpt lat="43.49712" lon="2.65183">
        <ele>822.25953975724</ele>
        <time>2016-09-24T12:33:34Z</time>
      </trkpt>
      <trkpt lat="43.49714" lon="2.65187">
        <ele>822.25953975724</ele>
        <time>2016-09-24T12:33:39Z</time>
      </trkpt>
      <trkpt lat="43.49715" lon="2.6519">
        <ele>822.25953975724</ele>
        <time>2016-09-24T12:33:44Z</time>
      </trkpt>
      <trkpt lat="43.49715" lon="2.65189">
        <ele>822.25953975724</ele>
        <time>2016-09-24T12:33:49Z</time>
      </trkpt>
      <trkpt lat="43.49714" lon="2.65188">
        <ele>822.1715264692</ele>
        <time>2016-09-24T12:33:54Z</time>
      </trkpt>
      <trkpt lat="43.49714" lon="2.65188">
        <ele>822.1715264692</ele>
        <time>2016-09-24T12:33:59Z</time>
      </trkpt>
      <trkpt lat="43.49712" lon="2.65186">
        <ele>822.1715264692</ele>
        <time>2016-09-24T12:34:04Z</time>
      </trkpt>
      <trkpt lat="43.49712" lon="2.65187">
        <ele>822.1715264692</ele>
        <time>2016-09-24T12:34:09Z</time>
      </trkpt>
      <trkpt lat="43.49712" lon="2.65188">
        <ele>822.1715264692</ele>
        <time>2016-09-24T12:34:14Z</time>
      </trkpt>
      <trkpt lat="43.49713" lon="2.65189">
        <ele>822.1715264692</ele>
        <time>2016-09-24T12:34:19Z</time>
      </trkpt>
      <trkpt lat="43.49713" lon="2.6519">
        <ele>822.1715264692</ele>
        <time>2016-09-24T12:34:24Z</time>
      </trkpt>
      <trkpt lat="43.49715" lon="2.65188">
        <ele>822.1715264692</ele>
        <time>2016-09-24T12:34:29Z</time>
      </trkpt>
      <trkpt lat="43.49714" lon="2.65184">
        <ele>822.00750461419</ele>
        <time>2016-09-24T12:34:34Z</time>
      </trkpt>
      <trkpt lat="43.49714" lon="2.65185">
        <ele>822.00750461419</ele>
        <time>2016-09-24T12:34:39Z</time>
      </trkpt>
      <trkpt lat="43.49712" lon="2.65184">
        <ele>822.00750461419</ele>
        <time>2016-09-24T12:34:44Z</time>
      </trkpt>
      <trkpt lat="43.49713" lon="2.65185">
        <ele>822.00750461419</ele>
        <time>2016-09-24T12:34:49Z</time>
      </trkpt>
      <trkpt lat="43.49716" lon="2.65188">
        <ele>822.00750461419</ele>
        <time>2016-09-24T12:34:54Z</time>
      </trkpt>
      <trkpt lat="43.49718" lon="2.6519">
        <ele>821.81669262825</ele>
        <time>2016-09-24T12:34:59Z</time>
      </trkpt>
      <trkpt lat="43.49718" lon="2.65192">
        <ele>821.81669262825</ele>
        <time>2016-09-24T12:35:04Z</time>
      </trkpt>
      <trkpt lat="43.49718" lon="2.65192">
        <ele>821.81669262825</ele>
        <time>2016-09-24T12:35:09Z</time>
      </trkpt>
      <trkpt lat="43.49718" lon="2.65191">
        <ele>821.81669262825</ele>
        <time>2016-09-24T12:35:14Z</time>
      </trkpt>
      <trkpt lat="43.49717" lon="2.6519">
        <ele>821.81669262825</ele>
        <time>2016-09-24T12:35:19Z</time>
      </trkpt>
      <trkpt lat="43.49714" lon="2.6519">
        <ele>821.81669262825</ele>
        <time>2016-09-24T12:35:24Z</time>
      </trkpt>
      <trkpt lat="43.49711" lon="2.65189">
        <ele>821.61593721313</ele>
        <time>2016-09-24T12:35:29Z</time>
      </trkpt>
      <trkpt lat="43.49708" lon="2.65188">
        <ele>821.61593721313</ele>
        <time>2016-09-24T12:35:34Z</time>
      </trkpt>
      <trkpt lat="43.49708" lon="2.65187">
        <ele>821.61593721313</ele>
        <time>2016-09-24T12:35:39Z</time>
      </trkpt>
      <trkpt lat="43.49711" lon="2.6519">
        <ele>821.61593721313</ele>
        <time>2016-09-24T12:35:44Z</time>
      </trkpt>
      <trkpt lat="43.49713" lon="2.65187">
        <ele>821.37763234413</ele>
        <time>2016-09-24T12:35:49Z</time>
      </trkpt>
      <trkpt lat="43.49714" lon="2.65185">
        <ele>821.37763234413</ele>
        <time>2016-09-24T12:35:54Z</time>
      </trkpt>
      <trkpt lat="43.49712" lon="2.65182">
        <ele>821.37763234413</ele>
        <time>2016-09-24T12:35:59Z</time>
      </trkpt>
      <trkpt lat="43.49711" lon="2.65182">
        <ele>821.37763234413</ele>
        <time>2016-09-24T12:36:04Z</time>
      </trkpt>
      <trkpt lat="43.49711" lon="2.65183">
        <ele>821.37763234413</ele>
        <time>2016-09-24T12:36:09Z</time>
      </trkpt>
      <trkpt lat="43.49711" lon="2.65184">
        <ele>821.37763234413</ele>
        <time>2016-09-24T12:36:14Z</time>
      </trkpt>
      <trkpt lat="43.4971" lon="2.65186">
        <ele>821.37763234413</ele>
        <time>2016-09-24T12:36:19Z</time>
      </trkpt>
      <trkpt lat="43.4971" lon="2.65187">
        <ele>821.10511693343</ele>
        <time>2016-09-24T12:36:24Z</time>
      </trkpt>
      <trkpt lat="43.49707" lon="2.65189">
        <ele>821.10511693343</ele>
        <time>2016-09-24T12:36:29Z</time>
      </trkpt>
      <trkpt lat="43.49704" lon="2.65189">
        <ele>821.10511693343</ele>
        <time>2016-09-24T12:36:34Z</time>
      </trkpt>
      <trkpt lat="43.49702" lon="2.65191">
        <ele>821.10511693343</ele>
        <time>2016-09-24T12:36:39Z</time>
      </trkpt>
      <trkpt lat="43.49701" lon="2.65189">
        <ele>820.81598020306</ele>
        <time>2016-09-24T12:36:44Z</time>
      </trkpt>
      <trkpt lat="43.49698" lon="2.65187">
        <ele>820.81598020306</ele>
        <time>2016-09-24T12:36:49Z</time>
      </trkpt>
      <trkpt lat="43.49694" lon="2.65186">
        <ele>820.81598020306</ele>
        <time>2016-09-24T12:36:54Z</time>
      </trkpt>
      <trkpt lat="43.49691" lon="2.65184">
        <ele>820.51214224289</ele>
        <time>2016-09-24T12:36:59Z</time>
      </trkpt>
      <trkpt lat="43.49686" lon="2.65182">
        <ele>820.51214224289</ele>
        <time>2016-09-24T12:37:04Z</time>
      </trkpt>
      <trkpt lat="43.49682" lon="2.65184">
        <ele>820.20982080358</ele>
        <time>2016-09-24T12:37:09Z</time>
      </trkpt>
      <trkpt lat="43.4968" lon="2.65182">
        <ele>820.20982080358</ele>
        <time>2016-09-24T12:37:14Z</time>
      </trkpt>
      <trkpt lat="43.49679" lon="2.65183">
        <ele>820.20982080358</ele>
        <time>2016-09-24T12:37:19Z</time>
      </trkpt>
      <trkpt lat="43.49679" lon="2.65183">
        <ele>820.20982080358</ele>
        <time>2016-09-24T12:37:24Z</time>
      </trkpt>
      <trkpt lat="43.4966" lon="2.65176">
        <ele>819.80873419986</ele>
        <time>2016-09-24T12:38:04Z</time>
      </trkpt>
      <trkpt lat="43.4966" lon="2.65176">
        <ele>819.80873419986</ele>
        <time>2016-09-24T12:38:09Z</time>
      </trkpt>
      <trkpt lat="43.4966" lon="2.65175">
        <ele>819.80873419986</ele>
        <time>2016-09-24T12:38:14Z</time>
      </trkpt>
      <trkpt lat="43.4966" lon="2.65176">
        <ele>819.80873419986</ele>
        <time>2016-09-24T12:38:19Z</time>
      </trkpt>
      <trkpt lat="43.4966" lon="2.65175">
        <ele>819.80873419986</ele>
        <time>2016-09-24T12:38:24Z</time>
      </trkpt>
      <trkpt lat="43.4966" lon="2.65179">
        <ele>819.80873419986</ele>
        <time>2016-09-24T12:38:29Z</time>
      </trkpt>
      <trkpt lat="43.49657" lon="2.65176">
        <ele>819.80873419986</ele>
        <time>2016-09-24T12:38:34Z</time>
      </trkpt>
      <trkpt lat="43.49653" lon="2.65174">
        <ele>819.37475047536</ele>
        <time>2016-09-24T12:38:39Z</time>
      </trkpt>
      <trkpt lat="43.49649" lon="2.65172">
        <ele>819.37475047536</ele>
        <time>2016-09-24T12:38:44Z</time>
      </trkpt>
      <trkpt lat="43.49644" lon="2.65169">
        <ele>818.95456252269</ele>
        <time>2016-09-24T12:38:49Z</time>
      </trkpt>
      <trkpt lat="43.49642" lon="2.65167">
        <ele>818.95456252269</ele>
        <time>2016-09-24T12:38:54Z</time>
      </trkpt>
      <trkpt lat="43.4964" lon="2.65167">
        <ele>818.95456252269</ele>
        <time>2016-09-24T12:38:59Z</time>
      </trkpt>
      <trkpt lat="43.49636" lon="2.65166">
        <ele>818.95456252269</ele>
        <time>2016-09-24T12:39:04Z</time>
      </trkpt>
      <trkpt lat="43.49631" lon="2.65161">
        <ele>818.51931967857</ele>
        <time>2016-09-24T12:39:09Z</time>
      </trkpt>
      <trkpt lat="43.49627" lon="2.65158">
        <ele>818.51931967857</ele>
        <time>2016-09-24T12:39:14Z</time>
      </trkpt>
      <trkpt lat="43.49625" lon="2.65157">
        <ele>818.51931967857</ele>
        <time>2016-09-24T12:39:19Z</time>
      </trkpt>
      <trkpt lat="43.49621" lon="2.65155">
        <ele>818.08554541778</ele>
        <time>2016-09-24T12:39:24Z</time>
      </trkpt>
      <trkpt lat="43.49617" lon="2.65153">
        <ele>818.08554541778</ele>
        <time>2016-09-24T12:39:29Z</time>
      </trkpt>
      <trkpt lat="43.49616" lon="2.65151">
        <ele>818.08554541778</ele>
        <time>2016-09-24T12:39:34Z</time>
      </trkpt>
      <trkpt lat="43.49615" lon="2.65151">
        <ele>818.08554541778</ele>
        <time>2016-09-24T12:39:39Z</time>
      </trkpt>
      <trkpt lat="43.49615" lon="2.6515">
        <ele>818.08554541778</ele>
        <time>2016-09-24T12:39:44Z</time>
      </trkpt>
      <trkpt lat="43.49615" lon="2.6515">
        <ele>818.08554541778</ele>
        <time>2016-09-24T12:39:49Z</time>
      </trkpt>
      <trkpt lat="43.49616" lon="2.65148">
        <ele>817.63970081466</ele>
        <time>2016-09-24T12:39:54Z</time>
      </trkpt>
      <trkpt lat="43.49619" lon="2.65148">
        <ele>817.63970081466</ele>
        <time>2016-09-24T12:39:59Z</time>
      </trkpt>
      <trkpt lat="43.49624" lon="2.65151">
        <ele>817.63970081466</ele>
        <time>2016-09-24T12:40:04Z</time>
      </trkpt>
      <trkpt lat="43.49627" lon="2.65154">
        <ele>817.19807407256</ele>
        <time>2016-09-24T12:40:09Z</time>
      </trkpt>
      <trkpt lat="43.4963" lon="2.65156">
        <ele>817.19807407256</ele>
        <time>2016-09-24T12:40:14Z</time>
      </trkpt>
      <trkpt lat="43.49633" lon="2.65159">
        <ele>817.19807407256</ele>
        <time>2016-09-24T12:40:19Z</time>
      </trkpt>
      <trkpt lat="43.49637" lon="2.65163">
        <ele>816.77572039579</ele>
        <time>2016-09-24T12:40:24Z</time>
      </trkpt>
      <trkpt lat="43.49638" lon="2.65167">
        <ele>816.77572039579</ele>
        <time>2016-09-24T12:40:29Z</time>
      </trkpt>
      <trkpt lat="43.49641" lon="2.65171">
        <ele>816.77572039579</ele>
        <time>2016-09-24T12:40:34Z</time>
      </trkpt>
      <trkpt lat="43.49645" lon="2.65172">
        <ele>816.37209830072</ele>
        <time>2016-09-24T12:40:39Z</time>
      </trkpt>
      <trkpt lat="43.49648" lon="2.6518">
        <ele>816.37209830072</ele>
        <time>2016-09-24T12:40:44Z</time>
      </trkpt>
      <trkpt lat="43.49649" lon="2.6518">
        <ele>816.37209830072</ele>
        <time>2016-09-24T12:40:49Z</time>
      </trkpt>
      <trkpt lat="43.49649" lon="2.6518">
        <ele>816.37209830072</ele>
        <time>2016-09-24T12:40:54Z</time>
      </trkpt>
      <trkpt lat="43.4965" lon="2.6518">
        <ele>816.37209830072</ele>
        <time>2016-09-24T12:40:59Z</time>
      </trkpt>
      <trkpt lat="43.49654" lon="2.65179">
        <ele>816.00103843872</ele>
        <time>2016-09-24T12:41:04Z</time>
      </trkpt>
      <trkpt lat="43.49658" lon="2.6518">
        <ele>816.00103843872</ele>
        <time>2016-09-24T12:41:09Z</time>
      </trkpt>
      <trkpt lat="43.49663" lon="2.65177">
        <ele>815.66082645143</ele>
        <time>2016-09-24T12:41:14Z</time>
      </trkpt>
      <trkpt lat="43.49667" lon="2.65181">
        <ele>815.66082645143</ele>
        <time>2016-09-24T12:41:19Z</time>
      </trkpt>
      <trkpt lat="43.49673" lon="2.65186">
        <ele>815.364171951</ele>
        <time>2016-09-24T12:41:24Z</time>
      </trkpt>
      <trkpt lat="43.49676" lon="2.65187">
        <ele>815.364171951</ele>
        <time>2016-09-24T12:41:29Z</time>
      </trkpt>
      <trkpt lat="43.49679" lon="2.65188">
        <ele>815.364171951</ele>
        <time>2016-09-24T12:41:34Z</time>
      </trkpt>
      <trkpt lat="43.49683" lon="2.65189">
        <ele>815.10829142927</ele>
        <time>2016-09-24T12:41:39Z</time>
      </trkpt>
      <trkpt lat="43.49686" lon="2.65187">
        <ele>815.10829142927</ele>
        <time>2016-09-24T12:41:44Z</time>
      </trkpt>
      <trkpt lat="43.49688" lon="2.65188">
        <ele>815.10829142927</ele>
        <time>2016-09-24T12:41:49Z</time>
      </trkpt>
      <trkpt lat="43.49692" lon="2.65192">
        <ele>814.89046603855</ele>
        <time>2016-09-24T12:41:54Z</time>
      </trkpt>
      <trkpt lat="43.49694" lon="2.65197">
        <ele>814.89046603855</ele>
        <time>2016-09-24T12:41:59Z</time>
      </trkpt>
      <trkpt lat="43.49698" lon="2.65196">
        <ele>814.89046603855</ele>
        <time>2016-09-24T12:42:04Z</time>
      </trkpt>
      <trkpt lat="43.497" lon="2.65192">
        <ele>814.70804555461</ele>
        <time>2016-09-24T12:42:09Z</time>
      </trkpt>
      <trkpt lat="43.49704" lon="2.65186">
        <ele>814.70804555461</ele>
        <time>2016-09-24T12:42:14Z</time>
      </trkpt>
      <trkpt lat="43.49711" lon="2.65185">
        <ele>814.57286331205</ele>
        <time>2016-09-24T12:42:19Z</time>
      </trkpt>
      <trkpt lat="43.49714" lon="2.65183">
        <ele>814.57286331205</ele>
        <time>2016-09-24T12:42:24Z</time>
      </trkpt>
      <trkpt lat="43.49718" lon="2.65181">
        <ele>814.57286331205</ele>
        <time>2016-09-24T12:42:29Z</time>
      </trkpt>
      <trkpt lat="43.49719" lon="2.65179">
        <ele>814.45249626688</ele>
        <time>2016-09-24T12:42:34Z</time>
      </trkpt>
      <trkpt lat="43.4972" lon="2.65174">
        <ele>814.45249626688</ele>
        <time>2016-09-24T12:42:39Z</time>
      </trkpt>
      <trkpt lat="43.4972" lon="2.65164">
        <ele>814.36007560336</ele>
        <time>2016-09-24T12:42:44Z</time>
      </trkpt>
      <trkpt lat="43.49721" lon="2.65154">
        <ele>814.36007560336</ele>
        <time>2016-09-24T12:42:49Z</time>
      </trkpt>
      <trkpt lat="43.49721" lon="2.65152">
        <ele>814.36007560336</ele>
        <time>2016-09-24T12:42:54Z</time>
      </trkpt>
      <trkpt lat="43.4972" lon="2.65151">
        <ele>814.27884997327</ele>
        <time>2016-09-24T12:42:59Z</time>
      </trkpt>
      <trkpt lat="43.4972" lon="2.65151">
        <ele>814.27884997327</ele>
        <time>2016-09-24T12:43:04Z</time>
      </trkpt>
      <trkpt lat="43.4972" lon="2.65151">
        <ele>814.27884997327</ele>
        <time>2016-09-24T12:43:09Z</time>
      </trkpt>
      <trkpt lat="43.49718" lon="2.65152">
        <ele>814.27884997327</ele>
        <time>2016-09-24T12:43:14Z</time>
      </trkpt>
      <trkpt lat="43.49718" lon="2.65152">
        <ele>814.27884997327</ele>
        <time>2016-09-24T12:43:19Z</time>
      </trkpt>
      <trkpt lat="43.49718" lon="2.65155">
        <ele>814.27884997327</ele>
        <time>2016-09-24T12:43:24Z</time>
      </trkpt>
      <trkpt lat="43.49719" lon="2.65155">
        <ele>814.27884997327</ele>
        <time>2016-09-24T12:43:29Z</time>
      </trkpt>
      <trkpt lat="43.49723" lon="2.65155">
        <ele>814.22207425947</ele>
        <time>2016-09-24T12:43:34Z</time>
      </trkpt>
      <trkpt lat="43.49725" lon="2.65156">
        <ele>814.22207425947</ele>
        <time>2016-09-24T12:43:39Z</time>
      </trkpt>
      <trkpt lat="43.49725" lon="2.65156">
        <ele>814.22207425947</ele>
        <time>2016-09-24T12:43:44Z</time>
      </trkpt>
      <trkpt lat="43.49726" lon="2.65156">
        <ele>814.22207425947</ele>
        <time>2016-09-24T12:43:49Z</time>
      </trkpt>
      <trkpt lat="43.49728" lon="2.65157">
        <ele>814.22207425947</ele>
        <time>2016-09-24T12:43:54Z</time>
      </trkpt>
      <trkpt lat="43.49732" lon="2.65157">
        <ele>814.20194814711</ele>
        <time>2016-09-24T12:43:59Z</time>
      </trkpt>
      <trkpt lat="43.49731" lon="2.65156">
        <ele>814.20194814711</ele>
        <time>2016-09-24T12:44:04Z</time>
      </trkpt>
      <trkpt lat="43.49731" lon="2.65156">
        <ele>814.20194814711</ele>
        <time>2016-09-24T12:44:09Z</time>
      </trkpt>
      <trkpt lat="43.49732" lon="2.65156">
        <ele>814.20194814711</ele>
        <time>2016-09-24T12:44:14Z</time>
      </trkpt>
      <trkpt lat="43.49732" lon="2.65155">
        <ele>814.20194814711</ele>
        <time>2016-09-24T12:44:19Z</time>
      </trkpt>
      <trkpt lat="43.49733" lon="2.65156">
        <ele>814.20194814711</ele>
        <time>2016-09-24T12:44:24Z</time>
      </trkpt>
      <trkpt lat="43.49735" lon="2.65154">
        <ele>814.20194814711</ele>
        <time>2016-09-24T12:44:29Z</time>
      </trkpt>
      <trkpt lat="43.49735" lon="2.65154">
        <ele>814.20194814711</ele>
        <time>2016-09-24T12:44:34Z</time>
      </trkpt>
      <trkpt lat="43.49736" lon="2.65153">
        <ele>814.20194814711</ele>
        <time>2016-09-24T12:44:39Z</time>
      </trkpt>
      <trkpt lat="43.49738" lon="2.65151">
        <ele>814.17201718775</ele>
        <time>2016-09-24T12:44:44Z</time>
      </trkpt>
      <trkpt lat="43.49739" lon="2.6515">
        <ele>814.17201718775</ele>
        <time>2016-09-24T12:44:49Z</time>
      </trkpt>
      <trkpt lat="43.4974" lon="2.65148">
        <ele>814.17201718775</ele>
        <time>2016-09-24T12:44:54Z</time>
      </trkpt>
      <trkpt lat="43.4974" lon="2.65147">
        <ele>814.17201718775</ele>
        <time>2016-09-24T12:44:59Z</time>
      </trkpt>
      <trkpt lat="43.4974" lon="2.65148">
        <ele>814.17201718775</ele>
        <time>2016-09-24T12:45:04Z</time>
      </trkpt>
      <trkpt lat="43.4974" lon="2.65147">
        <ele>814.17201718775</ele>
        <time>2016-09-24T12:45:09Z</time>
      </trkpt>
      <trkpt lat="43.4974" lon="2.65147">
        <ele>814.17201718775</ele>
        <time>2016-09-24T12:45:14Z</time>
      </trkpt>
      <trkpt lat="43.49741" lon="2.65139">
        <ele>814.13249184372</ele>
        <time>2016-09-24T12:45:19Z</time>
      </trkpt>
      <trkpt lat="43.49745" lon="2.65136">
        <ele>814.13249184372</ele>
        <time>2016-09-24T12:45:24Z</time>
      </trkpt>
      <trkpt lat="43.49745" lon="2.65136">
        <ele>814.13249184372</ele>
        <time>2016-09-24T12:45:29Z</time>
      </trkpt>
      <trkpt lat="43.49745" lon="2.65136">
        <ele>814.13249184372</ele>
        <time>2016-09-24T12:45:34Z</time>
      </trkpt>
      <trkpt lat="43.49744" lon="2.65137">
        <ele>814.13249184372</ele>
        <time>2016-09-24T12:45:39Z</time>
      </trkpt>
      <trkpt lat="43.49744" lon="2.65141">
        <ele>814.13249184372</ele>
        <time>2016-09-24T12:45:44Z</time>
      </trkpt>
      <trkpt lat="43.49744" lon="2.65141">
        <ele>814.13249184372</ele>
        <time>2016-09-24T12:45:49Z</time>
      </trkpt>
      <trkpt lat="43.49745" lon="2.65138">
        <ele>814.09799883777</ele>
        <time>2016-09-24T12:45:54Z</time>
      </trkpt>
      <trkpt lat="43.49748" lon="2.6514">
        <ele>814.09799883777</ele>
        <time>2016-09-24T12:45:59Z</time>
      </trkpt>
      <trkpt lat="43.49747" lon="2.65143">
        <ele>814.09799883777</ele>
        <time>2016-09-24T12:46:04Z</time>
      </trkpt>
      <trkpt lat="43.49742" lon="2.65144">
        <ele>814.06766090726</ele>
        <time>2016-09-24T12:46:09Z</time>
      </trkpt>
      <trkpt lat="43.49739" lon="2.65148">
        <ele>814.06766090726</ele>
        <time>2016-09-24T12:46:14Z</time>
      </trkpt>
      <trkpt lat="43.49735" lon="2.65145">
        <ele>814.0550623144</ele>
        <time>2016-09-24T12:46:19Z</time>
      </trkpt>
      <trkpt lat="43.49731" lon="2.6515">
        <ele>814.0550623144</ele>
        <time>2016-09-24T12:46:24Z</time>
      </trkpt>
      <trkpt lat="43.49728" lon="2.65156">
        <ele>814.04391684968</ele>
        <time>2016-09-24T12:46:29Z</time>
      </trkpt>
      <trkpt lat="43.49724" lon="2.65163">
        <ele>814.04391684968</ele>
        <time>2016-09-24T12:46:34Z</time>
      </trkpt>
      <trkpt lat="43.49723" lon="2.65166">
        <ele>814.04391684968</ele>
        <time>2016-09-24T12:46:39Z</time>
      </trkpt>
      <trkpt lat="43.49722" lon="2.65171">
        <ele>814.03354285272</ele>
        <time>2016-09-24T12:46:44Z</time>
      </trkpt>
      <trkpt lat="43.49722" lon="2.65173">
        <ele>814.03354285272</ele>
        <time>2016-09-24T12:46:49Z</time>
      </trkpt>
      <trkpt lat="43.49718" lon="2.65178">
        <ele>814.03354285272</ele>
        <time>2016-09-24T12:46:54Z</time>
      </trkpt>
      <trkpt lat="43.49717" lon="2.65181">
        <ele>814.02330933393</ele>
        <time>2016-09-24T12:46:59Z</time>
      </trkpt>
      <trkpt lat="43.49715" lon="2.65181">
        <ele>814.02330933393</ele>
        <time>2016-09-24T12:47:04Z</time>
      </trkpt>
      <trkpt lat="43.49713" lon="2.65186">
        <ele>814.02330933393</ele>
        <time>2016-09-24T12:47:09Z</time>
      </trkpt>
      <trkpt lat="43.49711" lon="2.65192">
        <ele>814.01263554494</ele>
        <time>2016-09-24T12:47:14Z</time>
      </trkpt>
      <trkpt lat="43.49709" lon="2.65193">
        <ele>814.01263554494</ele>
        <time>2016-09-24T12:47:19Z</time>
      </trkpt>
      <trkpt lat="43.49708" lon="2.65192">
        <ele>814.01263554494</ele>
        <time>2016-09-24T12:47:24Z</time>
      </trkpt>
      <trkpt lat="43.49708" lon="2.65192">
        <ele>814.01263554494</ele>
        <time>2016-09-24T12:47:29Z</time>
      </trkpt>
      <trkpt lat="43.49707" lon="2.65192">
        <ele>814.01263554494</ele>
        <time>2016-09-24T12:47:34Z</time>
      </trkpt>
      <trkpt lat="43.49707" lon="2.65192">
        <ele>814.01263554494</ele>
        <time>2016-09-24T12:47:39Z</time>
      </trkpt>
      <trkpt lat="43.49707" lon="2.65193">
        <ele>814.01263554494</ele>
        <time>2016-09-24T12:47:44Z</time>
      </trkpt>
      <trkpt lat="43.49707" lon="2.65193">
        <ele>814.01263554494</ele>
        <time>2016-09-24T12:47:49Z</time>
      </trkpt>
      <trkpt lat="43.49707" lon="2.65193">
        <ele>814.01263554494</ele>
        <time>2016-09-24T12:47:54Z</time>
      </trkpt>
      <trkpt lat="43.49707" lon="2.65192">
        <ele>814.01263554494</ele>
        <time>2016-09-24T12:47:59Z</time>
      </trkpt>
      <trkpt lat="43.49707" lon="2.65191">
        <ele>814.01263554494</ele>
        <time>2016-09-24T12:48:04Z</time>
      </trkpt>
      <trkpt lat="43.49706" lon="2.65191">
        <ele>814.01263554494</ele>
        <time>2016-09-24T12:48:09Z</time>
      </trkpt>
      <trkpt lat="43.49707" lon="2.65189">
        <ele>814.01263554494</ele>
        <time>2016-09-24T12:48:14Z</time>
      </trkpt>
      <trkpt lat="43.49707" lon="2.65189">
        <ele>814.01263554494</ele>
        <time>2016-09-24T12:48:19Z</time>
      </trkpt>
      <trkpt lat="43.49707" lon="2.65191">
        <ele>814.01540145384</ele>
        <time>2016-09-24T12:48:24Z</time>
      </trkpt>
      <trkpt lat="43.49707" lon="2.6519">
        <ele>814.01540145384</ele>
        <time>2016-09-24T12:48:29Z</time>
      </trkpt>
      <trkpt lat="43.49707" lon="2.65189">
        <ele>814.01540145384</ele>
        <time>2016-09-24T12:48:34Z</time>
      </trkpt>
      <trkpt lat="43.49707" lon="2.65189">
        <ele>814.01540145384</ele>
        <time>2016-09-24T12:48:39Z</time>
      </trkpt>
      <trkpt lat="43.49707" lon="2.6519">
        <ele>814.01540145384</ele>
        <time>2016-09-24T12:48:44Z</time>
      </trkpt>
      <trkpt lat="43.49707" lon="2.6519">
        <ele>814.01540145384</ele>
        <time>2016-09-24T12:48:49Z</time>
      </trkpt>
      <trkpt lat="43.49707" lon="2.65191">
        <ele>814.01540145384</ele>
        <time>2016-09-24T12:48:54Z</time>
      </trkpt>
      <trkpt lat="43.49707" lon="2.65191">
        <ele>814.01540145384</ele>
        <time>2016-09-24T12:48:59Z</time>
      </trkpt>
      <trkpt lat="43.49707" lon="2.65191">
        <ele>814.01540145384</ele>
        <time>2016-09-24T12:49:04Z</time>
      </trkpt>
      <trkpt lat="43.49707" lon="2.65192">
        <ele>814.01540145384</ele>
        <time>2016-09-24T12:49:09Z</time>
      </trkpt>
      <trkpt lat="43.49707" lon="2.65192">
        <ele>814.01540145384</ele>
        <time>2016-09-24T12:49:14Z</time>
      </trkpt>
      <trkpt lat="43.49707" lon="2.65192">
        <ele>814.01540145384</ele>
        <time>2016-09-24T12:49:19Z</time>
      </trkpt>
      <trkpt lat="43.49707" lon="2.65191">
        <ele>814.01540145384</ele>
        <time>2016-09-24T12:49:24Z</time>
      </trkpt>
      <trkpt lat="43.49707" lon="2.65191">
        <ele>814.01540145384</ele>
        <time>2016-09-24T12:49:29Z</time>
      </trkpt>
      <trkpt lat="43.49707" lon="2.65191">
        <ele>814.01540145384</ele>
        <time>2016-09-24T12:49:34Z</time>
      </trkpt>
      <trkpt lat="43.49708" lon="2.6519">
        <ele>814.01540145384</ele>
        <time>2016-09-24T12:49:39Z</time>
      </trkpt>
      <trkpt lat="43.49708" lon="2.65189">
        <ele>814.01540145384</ele>
        <time>2016-09-24T12:49:44Z</time>
      </trkpt>
      <trkpt lat="43.49709" lon="2.65189">
        <ele>814.01540145384</ele>
        <time>2016-09-24T12:49:49Z</time>
      </trkpt>
      <trkpt lat="43.49709" lon="2.6519">
        <ele>814.01540145384</ele>
        <time>2016-09-24T12:49:54Z</time>
      </trkpt>
      <trkpt lat="43.49709" lon="2.65186">
        <ele>814.04443677409</ele>
        <time>2016-09-24T12:49:59Z</time>
      </trkpt>
      <trkpt lat="43.4971" lon="2.65187">
        <ele>814.04443677409</ele>
        <time>2016-09-24T12:50:04Z</time>
      </trkpt>
      <trkpt lat="43.49709" lon="2.65189">
        <ele>814.04443677409</ele>
        <time>2016-09-24T12:50:09Z</time>
      </trkpt>
      <trkpt lat="43.49708" lon="2.65188">
        <ele>814.04443677409</ele>
        <time>2016-09-24T12:50:14Z</time>
      </trkpt>
      <trkpt lat="43.49709" lon="2.65188">
        <ele>814.04443677409</ele>
        <time>2016-09-24T12:50:19Z</time>
      </trkpt>
      <trkpt lat="43.49709" lon="2.65186">
        <ele>814.04443677409</ele>
        <time>2016-09-24T12:50:24Z</time>
      </trkpt>
      <trkpt lat="43.49709" lon="2.65186">
        <ele>814.04443677409</ele>
        <time>2016-09-24T12:50:29Z</time>
      </trkpt>
      <trkpt lat="43.49709" lon="2.65186">
        <ele>814.04443677409</ele>
        <time>2016-09-24T12:50:34Z</time>
      </trkpt>
      <trkpt lat="43.49709" lon="2.65186">
        <ele>814.04443677409</ele>
        <time>2016-09-24T12:50:39Z</time>
      </trkpt>
      <trkpt lat="43.49709" lon="2.65186">
        <ele>814.04443677409</ele>
        <time>2016-09-24T12:50:44Z</time>
      </trkpt>
      <trkpt lat="43.49709" lon="2.65186">
        <ele>814.04443677409</ele>
        <time>2016-09-24T12:50:49Z</time>
      </trkpt>
      <trkpt lat="43.49709" lon="2.65186">
        <ele>814.04443677409</ele>
        <time>2016-09-24T12:50:54Z</time>
      </trkpt>
      <trkpt lat="43.49709" lon="2.65186">
        <ele>814.04443677409</ele>
        <time>2016-09-24T12:50:59Z</time>
      </trkpt>
      <trkpt lat="43.49709" lon="2.65185">
        <ele>814.04443677409</ele>
        <time>2016-09-24T12:51:04Z</time>
      </trkpt>
      <trkpt lat="43.4971" lon="2.65187">
        <ele>814.05391891978</ele>
        <time>2016-09-24T12:51:09Z</time>
      </trkpt>
      <trkpt lat="43.49713" lon="2.65183">
        <ele>814.05391891978</ele>
        <time>2016-09-24T12:51:14Z</time>
      </trkpt>
      <trkpt lat="43.49716" lon="2.65181">
        <ele>814.05391891978</ele>
        <time>2016-09-24T12:51:19Z</time>
      </trkpt>
      <trkpt lat="43.49718" lon="2.65177">
        <ele>814.07351137689</ele>
        <time>2016-09-24T12:51:24Z</time>
      </trkpt>
      <trkpt lat="43.49721" lon="2.65173">
        <ele>814.07351137689</ele>
        <time>2016-09-24T12:51:29Z</time>
      </trkpt>
      <trkpt lat="43.49723" lon="2.65168">
        <ele>814.07351137689</ele>
        <time>2016-09-24T12:51:34Z</time>
      </trkpt>
      <trkpt lat="43.49724" lon="2.65165">
        <ele>814.10185865941</ele>
        <time>2016-09-24T12:51:39Z</time>
      </trkpt>
      <trkpt lat="43.49725" lon="2.65163">
        <ele>814.10185865941</ele>
        <time>2016-09-24T12:51:44Z</time>
      </trkpt>
      <trkpt lat="43.49727" lon="2.65158">
        <ele>814.10185865941</ele>
        <time>2016-09-24T12:51:49Z</time>
      </trkpt>
      <trkpt lat="43.49728" lon="2.65154">
        <ele>814.13769205288</ele>
        <time>2016-09-24T12:51:54Z</time>
      </trkpt>
      <trkpt lat="43.49729" lon="2.65152">
        <ele>814.13769205288</ele>
        <time>2016-09-24T12:51:59Z</time>
      </trkpt>
      <trkpt lat="43.4973" lon="2.6515">
        <ele>814.13769205288</ele>
        <time>2016-09-24T12:52:04Z</time>
      </trkpt>
      <trkpt lat="43.49732" lon="2.6515">
        <ele>814.13769205288</ele>
        <time>2016-09-24T12:52:09Z</time>
      </trkpt>
      <trkpt lat="43.49734" lon="2.6515">
        <ele>814.13769205288</ele>
        <time>2016-09-24T12:52:14Z</time>
      </trkpt>
      <trkpt lat="43.49736" lon="2.6515">
        <ele>814.17982778676</ele>
        <time>2016-09-24T12:52:19Z</time>
      </trkpt>
      <trkpt lat="43.49741" lon="2.65151">
        <ele>814.17982778676</ele>
        <time>2016-09-24T12:52:24Z</time>
      </trkpt>
      <trkpt lat="43.49743" lon="2.65152">
        <ele>814.17982778676</ele>
        <time>2016-09-24T12:52:29Z</time>
      </trkpt>
      <trkpt lat="43.49746" lon="2.65151">
        <ele>814.22716505306</ele>
        <time>2016-09-24T12:52:34Z</time>
      </trkpt>
      <trkpt lat="43.49754" lon="2.6515">
        <ele>814.22716505306</ele>
        <time>2016-09-24T12:52:39Z</time>
      </trkpt>
      <trkpt lat="43.49757" lon="2.65147">
        <ele>814.27868387888</ele>
        <time>2016-09-24T12:52:44Z</time>
      </trkpt>
      <trkpt lat="43.49757" lon="2.65147">
        <ele>814.27868387888</ele>
        <time>2016-09-24T12:52:49Z</time>
      </trkpt>
      <trkpt lat="43.49759" lon="2.65145">
        <ele>814.27868387888</ele>
        <time>2016-09-24T12:52:54Z</time>
      </trkpt>
      <trkpt lat="43.49761" lon="2.65145">
        <ele>814.27868387888</ele>
        <time>2016-09-24T12:52:59Z</time>
      </trkpt>
      <trkpt lat="43.49761" lon="2.65144">
        <ele>814.27868387888</ele>
        <time>2016-09-24T12:53:04Z</time>
      </trkpt>
      <trkpt lat="43.49763" lon="2.65145">
        <ele>814.27868387888</ele>
        <time>2016-09-24T12:53:09Z</time>
      </trkpt>
      <trkpt lat="43.49765" lon="2.65145">
        <ele>814.33344286199</ele>
        <time>2016-09-24T12:53:14Z</time>
      </trkpt>
      <trkpt lat="43.49767" lon="2.65144">
        <ele>814.33344286199</ele>
        <time>2016-09-24T12:53:19Z</time>
      </trkpt>
      <trkpt lat="43.49768" lon="2.65143">
        <ele>814.33344286199</ele>
        <time>2016-09-24T12:53:24Z</time>
      </trkpt>
      <trkpt lat="43.49771" lon="2.65143">
        <ele>814.33344286199</ele>
        <time>2016-09-24T12:53:29Z</time>
      </trkpt>
      <trkpt lat="43.49777" lon="2.65143">
        <ele>814.39057678002</ele>
        <time>2016-09-24T12:53:34Z</time>
      </trkpt>
      <trkpt lat="43.49779" lon="2.65141">
        <ele>814.39057678002</ele>
        <time>2016-09-24T12:53:39Z</time>
      </trkpt>
      <trkpt lat="43.49781" lon="2.6514">
        <ele>814.39057678002</ele>
        <time>2016-09-24T12:53:44Z</time>
      </trkpt>
      <trkpt lat="43.49783" lon="2.65141">
        <ele>814.39057678002</ele>
        <time>2016-09-24T12:53:49Z</time>
      </trkpt>
      <trkpt lat="43.49788" lon="2.65143">
        <ele>814.43488294252</ele>
        <time>2016-09-24T12:53:54Z</time>
      </trkpt>
      <trkpt lat="43.49792" lon="2.65143">
        <ele>814.43488294252</ele>
        <time>2016-09-24T12:53:59Z</time>
      </trkpt>
      <trkpt lat="43.49798" lon="2.65145">
        <ele>814.46673981085</ele>
        <time>2016-09-24T12:54:04Z</time>
      </trkpt>
      <trkpt lat="43.49803" lon="2.65144">
        <ele>814.46673981085</ele>
        <time>2016-09-24T12:54:09Z</time>
      </trkpt>
      <trkpt lat="43.4981" lon="2.65142">
        <ele>814.50096174931</ele>
        <time>2016-09-24T12:54:14Z</time>
      </trkpt>
      <trkpt lat="43.49815" lon="2.65141">
        <ele>814.50096174931</ele>
        <time>2016-09-24T12:54:19Z</time>
      </trkpt>
      <trkpt lat="43.49822" lon="2.65137">
        <ele>814.53687504984</ele>
        <time>2016-09-24T12:54:24Z</time>
      </trkpt>
      <trkpt lat="43.49826" lon="2.65137">
        <ele>814.53687504984</ele>
        <time>2016-09-24T12:54:29Z</time>
      </trkpt>
      <trkpt lat="43.49833" lon="2.65134">
        <ele>814.57386884493</ele>
        <time>2016-09-24T12:54:34Z</time>
      </trkpt>
      <trkpt lat="43.49836" lon="2.65132">
        <ele>814.57386884493</ele>
        <time>2016-09-24T12:54:39Z</time>
      </trkpt>
      <trkpt lat="43.49844" lon="2.65131">
        <ele>814.59698115145</ele>
        <time>2016-09-24T12:54:44Z</time>
      </trkpt>
      <trkpt lat="43.49848" lon="2.65129">
        <ele>814.59698115145</ele>
        <time>2016-09-24T12:54:49Z</time>
      </trkpt>
      <trkpt lat="43.49855" lon="2.65128">
        <ele>814.62122841346</ele>
        <time>2016-09-24T12:54:54Z</time>
      </trkpt>
      <trkpt lat="43.49861" lon="2.65127">
        <ele>814.62122841346</ele>
        <time>2016-09-24T12:54:59Z</time>
      </trkpt>
      <trkpt lat="43.49865" lon="2.65122">
        <ele>814.63171660674</ele>
        <time>2016-09-24T12:55:04Z</time>
      </trkpt>
      <trkpt lat="43.49872" lon="2.65115">
        <ele>814.63171660674</ele>
        <time>2016-09-24T12:55:09Z</time>
      </trkpt>
      <trkpt lat="43.49876" lon="2.65109">
        <ele>814.62911335905</ele>
        <time>2016-09-24T12:55:14Z</time>
      </trkpt>
      <trkpt lat="43.49879" lon="2.65105">
        <ele>814.62911335905</ele>
        <time>2016-09-24T12:55:19Z</time>
      </trkpt>
      <trkpt lat="43.49881" lon="2.65105">
        <ele>814.62911335905</ele>
        <time>2016-09-24T12:55:24Z</time>
      </trkpt>
      <trkpt lat="43.49883" lon="2.65103">
        <ele>814.61409147211</ele>
        <time>2016-09-24T12:55:29Z</time>
      </trkpt>
      <trkpt lat="43.49885" lon="2.65099">
        <ele>814.61409147211</ele>
        <time>2016-09-24T12:55:34Z</time>
      </trkpt>
      <trkpt lat="43.49886" lon="2.65097">
        <ele>814.61409147211</ele>
        <time>2016-09-24T12:55:39Z</time>
      </trkpt>
      <trkpt lat="43.49887" lon="2.65095">
        <ele>814.61409147211</ele>
        <time>2016-09-24T12:55:44Z</time>
      </trkpt>
      <trkpt lat="43.49889" lon="2.65089">
        <ele>814.55850391494</ele>
        <time>2016-09-24T12:55:49Z</time>
      </trkpt>
      <trkpt lat="43.49889" lon="2.65086">
        <ele>814.55850391494</ele>
        <time>2016-09-24T12:55:54Z</time>
      </trkpt>
      <trkpt lat="43.49889" lon="2.65085">
        <ele>814.55850391494</ele>
        <time>2016-09-24T12:55:59Z</time>
      </trkpt>
      <trkpt lat="43.49888" lon="2.65082">
        <ele>814.55850391494</ele>
        <time>2016-09-24T12:56:04Z</time>
      </trkpt>
      <trkpt lat="43.49886" lon="2.65081">
        <ele>814.55850391494</ele>
        <time>2016-09-24T12:56:09Z</time>
      </trkpt>
      <trkpt lat="43.49883" lon="2.65079">
        <ele>814.50845705535</ele>
        <time>2016-09-24T12:56:14Z</time>
      </trkpt>
      <trkpt lat="43.49883" lon="2.65078">
        <ele>814.50845705535</ele>
        <time>2016-09-24T12:56:19Z</time>
      </trkpt>
      <trkpt lat="43.49883" lon="2.65078">
        <ele>814.50845705535</ele>
        <time>2016-09-24T12:56:24Z</time>
      </trkpt>
      <trkpt lat="43.49882" lon="2.65079">
        <ele>814.50845705535</ele>
        <time>2016-09-24T12:56:29Z</time>
      </trkpt>
      <trkpt lat="43.49881" lon="2.65079">
        <ele>814.50845705535</ele>
        <time>2016-09-24T12:56:34Z</time>
      </trkpt>
      <trkpt lat="43.49876" lon="2.65079">
        <ele>814.50845705535</ele>
        <time>2016-09-24T12:56:39Z</time>
      </trkpt>
      <trkpt lat="43.49875" lon="2.65079">
        <ele>814.44902588727</ele>
        <time>2016-09-24T12:56:44Z</time>
      </trkpt>
      <trkpt lat="43.49875" lon="2.65079">
        <ele>814.44902588727</ele>
        <time>2016-09-24T12:56:49Z</time>
      </trkpt>
      <trkpt lat="43.49874" lon="2.65082">
        <ele>814.44902588727</ele>
        <time>2016-09-24T12:56:54Z</time>
      </trkpt>
      <trkpt lat="43.49872" lon="2.65088">
        <ele>814.44902588727</ele>
        <time>2016-09-24T12:56:59Z</time>
      </trkpt>
      <trkpt lat="43.49872" lon="2.65093">
        <ele>814.38083393949</ele>
        <time>2016-09-24T12:57:04Z</time>
      </trkpt>
      <trkpt lat="43.49875" lon="2.65099">
        <ele>814.38083393949</ele>
        <time>2016-09-24T12:57:09Z</time>
      </trkpt>
      <trkpt lat="43.49876" lon="2.65099">
        <ele>814.38083393949</ele>
        <time>2016-09-24T12:57:14Z</time>
      </trkpt>
      <trkpt lat="43.49881" lon="2.65096">
        <ele>814.30449728387</ele>
        <time>2016-09-24T12:57:19Z</time>
      </trkpt>
      <trkpt lat="43.49886" lon="2.65094">
        <ele>814.30449728387</ele>
        <time>2016-09-24T12:57:24Z</time>
      </trkpt>
      <trkpt lat="43.49892" lon="2.65089">
        <ele>814.22062239194</ele>
        <time>2016-09-24T12:57:29Z</time>
      </trkpt>
      <trkpt lat="43.49889" lon="2.65088">
        <ele>814.22062239194</ele>
        <time>2016-09-24T12:57:34Z</time>
      </trkpt>
      <trkpt lat="43.49893" lon="2.65089">
        <ele>814.22062239194</ele>
        <time>2016-09-24T12:57:39Z</time>
      </trkpt>
      <trkpt lat="43.499" lon="2.65084">
        <ele>814.12980414134</ele>
        <time>2016-09-24T12:57:44Z</time>
      </trkpt>
      <trkpt lat="43.49905" lon="2.65076">
        <ele>814.12980414134</ele>
        <time>2016-09-24T12:57:49Z</time>
      </trkpt>
      <trkpt lat="43.49907" lon="2.65069">
        <ele>814.03262397758</ele>
        <time>2016-09-24T12:57:54Z</time>
      </trkpt>
      <trkpt lat="43.4991" lon="2.65062">
        <ele>814.03262397758</ele>
        <time>2016-09-24T12:57:59Z</time>
      </trkpt>
      <trkpt lat="43.49912" lon="2.65056">
        <ele>813.92964823472</ele>
        <time>2016-09-24T12:58:04Z</time>
      </trkpt>
      <trkpt lat="43.49914" lon="2.65051">
        <ele>813.92964823472</ele>
        <time>2016-09-24T12:58:09Z</time>
      </trkpt>
      <trkpt lat="43.49916" lon="2.65044">
        <ele>813.82142661711</ele>
        <time>2016-09-24T12:58:14Z</time>
      </trkpt>
      <trkpt lat="43.49918" lon="2.65039">
        <ele>813.82142661711</ele>
        <time>2016-09-24T12:58:19Z</time>
      </trkpt>
      <trkpt lat="43.4992" lon="2.65035">
        <ele>813.82142661711</ele>
        <time>2016-09-24T12:58:24Z</time>
      </trkpt>
      <trkpt lat="43.49923" lon="2.65027">
        <ele>813.70849084303</ele>
        <time>2016-09-24T12:58:29Z</time>
      </trkpt>
      <trkpt lat="43.49924" lon="2.65021">
        <ele>813.70849084303</ele>
        <time>2016-09-24T12:58:34Z</time>
      </trkpt>
      <trkpt lat="43.49925" lon="2.65017">
        <ele>813.70849084303</ele>
        <time>2016-09-24T12:58:39Z</time>
      </trkpt>
      <trkpt lat="43.49928" lon="2.6501">
        <ele>813.59135344944</ele>
        <time>2016-09-24T12:58:44Z</time>
      </trkpt>
      <trkpt lat="43.49929" lon="2.65001">
        <ele>813.59135344944</ele>
        <time>2016-09-24T12:58:49Z</time>
      </trkpt>
      <trkpt lat="43.4993" lon="2.6499">
        <ele>813.47050675635</ele>
        <time>2016-09-24T12:58:54Z</time>
      </trkpt>
      <trkpt lat="43.49932" lon="2.64981">
        <ele>813.47050675635</ele>
        <time>2016-09-24T12:58:59Z</time>
      </trkpt>
      <trkpt lat="43.49933" lon="2.64978">
        <ele>813.34642198781</ele>
        <time>2016-09-24T12:59:04Z</time>
      </trkpt>
      <trkpt lat="43.49933" lon="2.64972">
        <ele>813.34642198781</ele>
        <time>2016-09-24T12:59:09Z</time>
      </trkpt>
      <trkpt lat="43.49931" lon="2.64963">
        <ele>813.2339596877</ele>
        <time>2016-09-24T12:59:14Z</time>
      </trkpt>
      <trkpt lat="43.49932" lon="2.64956">
        <ele>813.2339596877</ele>
        <time>2016-09-24T12:59:19Z</time>
      </trkpt>
      <trkpt lat="43.49934" lon="2.64945">
        <ele>813.11803677115</ele>
        <time>2016-09-24T12:59:24Z</time>
      </trkpt>
      <trkpt lat="43.49935" lon="2.64936">
        <ele>813.11803677115</ele>
        <time>2016-09-24T12:59:29Z</time>
      </trkpt>
      <trkpt lat="43.49936" lon="2.64927">
        <ele>812.99910100999</ele>
        <time>2016-09-24T12:59:34Z</time>
      </trkpt>
      <trkpt lat="43.49938" lon="2.6492">
        <ele>812.99910100999</ele>
        <time>2016-09-24T12:59:39Z</time>
      </trkpt>
      <trkpt lat="43.49939" lon="2.6491">
        <ele>812.89198815499</ele>
        <time>2016-09-24T12:59:44Z</time>
      </trkpt>
      <trkpt lat="43.49938" lon="2.64907">
        <ele>812.89198815499</ele>
        <time>2016-09-24T12:59:49Z</time>
      </trkpt>
      <trkpt lat="43.49939" lon="2.64898">
        <ele>812.89198815499</ele>
        <time>2016-09-24T12:59:54Z</time>
      </trkpt>
      <trkpt lat="43.49938" lon="2.64888">
        <ele>812.76717822391</ele>
        <time>2016-09-24T12:59:59Z</time>
      </trkpt>
      <trkpt lat="43.49939" lon="2.64882">
        <ele>812.76717822391</ele>
        <time>2016-09-24T13:00:04Z</time>
      </trkpt>
      <trkpt lat="43.4994" lon="2.64877">
        <ele>812.76717822391</ele>
        <time>2016-09-24T13:00:09Z</time>
      </trkpt>
      <trkpt lat="43.4994" lon="2.6487">
        <ele>812.65501384516</ele>
        <time>2016-09-24T13:00:14Z</time>
      </trkpt>
      <trkpt lat="43.49939" lon="2.64862">
        <ele>812.65501384516</ele>
        <time>2016-09-24T13:00:19Z</time>
      </trkpt>
      <trkpt lat="43.49938" lon="2.64857">
        <ele>812.54033926161</ele>
        <time>2016-09-24T13:00:24Z</time>
      </trkpt>
      <trkpt lat="43.49939" lon="2.6485">
        <ele>812.54033926161</ele>
        <time>2016-09-24T13:00:29Z</time>
      </trkpt>
      <trkpt lat="43.49941" lon="2.64841">
        <ele>812.43794019893</ele>
        <time>2016-09-24T13:00:34Z</time>
      </trkpt>
      <trkpt lat="43.49941" lon="2.64835">
        <ele>812.43794019893</ele>
        <time>2016-09-24T13:00:39Z</time>
      </trkpt>
      <trkpt lat="43.49944" lon="2.64826">
        <ele>812.33265797117</ele>
        <time>2016-09-24T13:00:44Z</time>
      </trkpt>
      <trkpt lat="43.49944" lon="2.64818">
        <ele>812.33265797117</ele>
        <time>2016-09-24T13:00:49Z</time>
      </trkpt>
      <trkpt lat="43.49944" lon="2.64809">
        <ele>812.23927579963</ele>
        <time>2016-09-24T13:00:54Z</time>
      </trkpt>
      <trkpt lat="43.49944" lon="2.64798">
        <ele>812.23927579963</ele>
        <time>2016-09-24T13:00:59Z</time>
      </trkpt>
      <trkpt lat="43.49943" lon="2.64792">
        <ele>812.14263304856</ele>
        <time>2016-09-24T13:01:04Z</time>
      </trkpt>
      <trkpt lat="43.49942" lon="2.64785">
        <ele>812.14263304856</ele>
        <time>2016-09-24T13:01:09Z</time>
      </trkpt>
      <trkpt lat="43.4994" lon="2.64774">
        <ele>812.04310050841</ele>
        <time>2016-09-24T13:01:14Z</time>
      </trkpt>
      <trkpt lat="43.49938" lon="2.64764">
        <ele>812.04310050841</ele>
        <time>2016-09-24T13:01:19Z</time>
      </trkpt>
      <trkpt lat="43.49937" lon="2.64755">
        <ele>811.95543822832</ele>
        <time>2016-09-24T13:01:24Z</time>
      </trkpt>
      <trkpt lat="43.49937" lon="2.6475">
        <ele>811.95543822832</ele>
        <time>2016-09-24T13:01:29Z</time>
      </trkpt>
      <trkpt lat="43.49937" lon="2.64745">
        <ele>811.95543822832</ele>
        <time>2016-09-24T13:01:34Z</time>
      </trkpt>
      <trkpt lat="43.49937" lon="2.64737">
        <ele>811.85005243097</ele>
        <time>2016-09-24T13:01:39Z</time>
      </trkpt>
      <trkpt lat="43.49936" lon="2.64728">
        <ele>811.85005243097</ele>
        <time>2016-09-24T13:01:44Z</time>
      </trkpt>
      <trkpt lat="43.49935" lon="2.64721">
        <ele>811.74280326222</ele>
        <time>2016-09-24T13:01:49Z</time>
      </trkpt>
      <trkpt lat="43.49935" lon="2.64712">
        <ele>811.74280326222</ele>
        <time>2016-09-24T13:01:54Z</time>
      </trkpt>
      <trkpt lat="43.49935" lon="2.64705">
        <ele>811.64838778057</ele>
        <time>2016-09-24T13:01:59Z</time>
      </trkpt>
      <trkpt lat="43.49934" lon="2.64696">
        <ele>811.64838778057</ele>
        <time>2016-09-24T13:02:04Z</time>
      </trkpt>
      <trkpt lat="43.49934" lon="2.64688">
        <ele>811.55156179544</ele>
        <time>2016-09-24T13:02:09Z</time>
      </trkpt>
      <trkpt lat="43.49935" lon="2.64679">
        <ele>811.55156179544</ele>
        <time>2016-09-24T13:02:14Z</time>
      </trkpt>
      <trkpt lat="43.49935" lon="2.64674">
        <ele>811.45261532206</ele>
        <time>2016-09-24T13:02:19Z</time>
      </trkpt>
      <trkpt lat="43.49936" lon="2.6466">
        <ele>811.35181942383</ele>
        <time>2016-09-24T13:02:24Z</time>
      </trkpt>
      <trkpt lat="43.49938" lon="2.64651">
        <ele>811.35181942383</ele>
        <time>2016-09-24T13:02:29Z</time>
      </trkpt>
      <trkpt lat="43.49939" lon="2.64644">
        <ele>811.24942677126</ele>
        <time>2016-09-24T13:02:34Z</time>
      </trkpt>
      <trkpt lat="43.49938" lon="2.64638">
        <ele>811.24942677126</ele>
        <time>2016-09-24T13:02:39Z</time>
      </trkpt>
      <trkpt lat="43.49939" lon="2.64629">
        <ele>811.14567221242</ele>
        <time>2016-09-24T13:02:44Z</time>
      </trkpt>
      <trkpt lat="43.49942" lon="2.64617">
        <ele>811.04077335448</ele>
        <time>2016-09-24T13:02:49Z</time>
      </trkpt>
      <trkpt lat="43.49946" lon="2.6461">
        <ele>811.04077335448</ele>
        <time>2016-09-24T13:02:54Z</time>
      </trkpt>
      <trkpt lat="43.49947" lon="2.64604">
        <ele>810.93493115611</ele>
        <time>2016-09-24T13:02:59Z</time>
      </trkpt>
      <trkpt lat="43.49948" lon="2.64597">
        <ele>810.93493115611</ele>
        <time>2016-09-24T13:03:04Z</time>
      </trkpt>
      <trkpt lat="43.49949" lon="2.64589">
        <ele>810.82833052978</ele>
        <time>2016-09-24T13:03:09Z</time>
      </trkpt>
      <trkpt lat="43.49948" lon="2.64581">
        <ele>810.82833052978</ele>
        <time>2016-09-24T13:03:14Z</time>
      </trkpt>
      <trkpt lat="43.49949" lon="2.64574">
        <ele>810.72114095289</ele>
        <time>2016-09-24T13:03:19Z</time>
      </trkpt>
      <trkpt lat="43.49951" lon="2.64562">
        <ele>810.72114095289</ele>
        <time>2016-09-24T13:03:24Z</time>
      </trkpt>
      <trkpt lat="43.49955" lon="2.64554">
        <ele>810.61351708667</ele>
        <time>2016-09-24T13:03:29Z</time>
      </trkpt>
      <trkpt lat="43.4996" lon="2.64545">
        <ele>810.61351708667</ele>
        <time>2016-09-24T13:03:34Z</time>
      </trkpt>
      <trkpt lat="43.49964" lon="2.6454">
        <ele>810.50559940112</ele>
        <time>2016-09-24T13:03:39Z</time>
      </trkpt>
      <trkpt lat="43.4997" lon="2.64533">
        <ele>810.50559940112</ele>
        <time>2016-09-24T13:03:44Z</time>
      </trkpt>
      <trkpt lat="43.49975" lon="2.64524">
        <ele>810.3975148047</ele>
        <time>2016-09-24T13:03:49Z</time>
      </trkpt>
      <trkpt lat="43.49978" lon="2.64521">
        <ele>810.3975148047</ele>
        <time>2016-09-24T13:03:54Z</time>
      </trkpt>
      <trkpt lat="43.49982" lon="2.64516">
        <ele>810.28937727681</ele>
        <time>2016-09-24T13:03:59Z</time>
      </trkpt>
      <trkpt lat="43.49987" lon="2.64511">
        <ele>810.28937727681</ele>
        <time>2016-09-24T13:04:04Z</time>
      </trkpt>
      <trkpt lat="43.49991" lon="2.64508">
        <ele>810.16687735994</ele>
        <time>2016-09-24T13:04:09Z</time>
      </trkpt>
      <trkpt lat="43.49997" lon="2.64504">
        <ele>810.16687735994</ele>
        <time>2016-09-24T13:04:14Z</time>
      </trkpt>
      <trkpt lat="43.50004" lon="2.64497">
        <ele>810.04561516381</ele>
        <time>2016-09-24T13:04:19Z</time>
      </trkpt>
      <trkpt lat="43.5001" lon="2.64492">
        <ele>810.04561516381</ele>
        <time>2016-09-24T13:04:24Z</time>
      </trkpt>
      <trkpt lat="43.50016" lon="2.64487">
        <ele>809.92562607644</ele>
        <time>2016-09-24T13:04:29Z</time>
      </trkpt>
      <trkpt lat="43.50017" lon="2.64482">
        <ele>809.92562607644</ele>
        <time>2016-09-24T13:04:34Z</time>
      </trkpt>
      <trkpt lat="43.50021" lon="2.64476">
        <ele>809.79252397151</ele>
        <time>2016-09-24T13:04:39Z</time>
      </trkpt>
      <trkpt lat="43.50024" lon="2.64471">
        <ele>809.79252397151</ele>
        <time>2016-09-24T13:04:44Z</time>
      </trkpt>
      <trkpt lat="43.5003" lon="2.64466">
        <ele>809.66183423307</ele>
        <time>2016-09-24T13:04:49Z</time>
      </trkpt>
      <trkpt lat="43.50034" lon="2.6446">
        <ele>809.66183423307</ele>
        <time>2016-09-24T13:04:54Z</time>
      </trkpt>
      <trkpt lat="43.5004" lon="2.64456">
        <ele>809.53351949555</ele>
        <time>2016-09-24T13:04:59Z</time>
      </trkpt>
      <trkpt lat="43.50045" lon="2.6445">
        <ele>809.53351949555</ele>
        <time>2016-09-24T13:05:04Z</time>
      </trkpt>
      <trkpt lat="43.50051" lon="2.64446">
        <ele>809.4075340275</ele>
        <time>2016-09-24T13:05:09Z</time>
      </trkpt>
      <trkpt lat="43.50056" lon="2.64439">
        <ele>809.4075340275</ele>
        <time>2016-09-24T13:05:14Z</time>
      </trkpt>
      <trkpt lat="43.50063" lon="2.64434">
        <ele>809.28382442393</ele>
        <time>2016-09-24T13:05:19Z</time>
      </trkpt>
      <trkpt lat="43.50068" lon="2.64429">
        <ele>809.28382442393</ele>
        <time>2016-09-24T13:05:24Z</time>
      </trkpt>
      <trkpt lat="43.50069" lon="2.64426">
        <ele>809.28382442393</ele>
        <time>2016-09-24T13:05:29Z</time>
      </trkpt>
      <trkpt lat="43.5007" lon="2.64424">
        <ele>809.14791916485</ele>
        <time>2016-09-24T13:05:34Z</time>
      </trkpt>
      <trkpt lat="43.50068" lon="2.64419">
        <ele>809.14791916485</ele>
        <time>2016-09-24T13:05:39Z</time>
      </trkpt>
      <trkpt lat="43.50067" lon="2.64418">
        <ele>809.14791916485</ele>
        <time>2016-09-24T13:05:44Z</time>
      </trkpt>
      <trkpt lat="43.50066" lon="2.64416">
        <ele>809.14791916485</ele>
        <time>2016-09-24T13:05:49Z</time>
      </trkpt>
      <trkpt lat="43.50062" lon="2.6441">
        <ele>809.00085054672</ele>
        <time>2016-09-24T13:05:54Z</time>
      </trkpt>
      <trkpt lat="43.50062" lon="2.6441">
        <ele>809.00085054672</ele>
        <time>2016-09-24T13:05:59Z</time>
      </trkpt>
      <trkpt lat="43.50061" lon="2.64409">
        <ele>809.00085054672</ele>
        <time>2016-09-24T13:06:04Z</time>
      </trkpt>
      <trkpt lat="43.5006" lon="2.64408">
        <ele>809.00085054672</ele>
        <time>2016-09-24T13:06:09Z</time>
      </trkpt>
      <trkpt lat="43.50058" lon="2.64404">
        <ele>809.00085054672</ele>
        <time>2016-09-24T13:06:14Z</time>
      </trkpt>
      <trkpt lat="43.50053" lon="2.64403">
        <ele>808.84360169095</ele>
        <time>2016-09-24T13:06:19Z</time>
      </trkpt>
      <trkpt lat="43.50052" lon="2.64407">
        <ele>808.84360169095</ele>
        <time>2016-09-24T13:06:24Z</time>
      </trkpt>
      <trkpt lat="43.50052" lon="2.6441">
        <ele>808.84360169095</ele>
        <time>2016-09-24T13:06:29Z</time>
      </trkpt>
      <trkpt lat="43.50058" lon="2.64413">
        <ele>808.67710726674</ele>
        <time>2016-09-24T13:06:34Z</time>
      </trkpt>
      <trkpt lat="43.50056" lon="2.64414">
        <ele>808.67710726674</ele>
        <time>2016-09-24T13:06:39Z</time>
      </trkpt>
      <trkpt lat="43.5006" lon="2.64416">
        <ele>808.67710726674</ele>
        <time>2016-09-24T13:06:44Z</time>
      </trkpt>
      <trkpt lat="43.50067" lon="2.64413">
        <ele>808.50225423453</ele>
        <time>2016-09-24T13:06:49Z</time>
      </trkpt>
      <trkpt lat="43.50072" lon="2.64407">
        <ele>808.50225423453</ele>
        <time>2016-09-24T13:06:54Z</time>
      </trkpt>
      <trkpt lat="43.50079" lon="2.64405">
        <ele>808.33429376153</ele>
        <time>2016-09-24T13:06:59Z</time>
      </trkpt>
      <trkpt lat="43.50085" lon="2.64403">
        <ele>808.33429376153</ele>
        <time>2016-09-24T13:07:04Z</time>
      </trkpt>
      <trkpt lat="43.50093" lon="2.64399">
        <ele>808.17292080417</ele>
        <time>2016-09-24T13:07:09Z</time>
      </trkpt>
      <trkpt lat="43.50097" lon="2.64393">
        <ele>808.17292080417</ele>
        <time>2016-09-24T13:07:14Z</time>
      </trkpt>
      <trkpt lat="43.50098" lon="2.64384">
        <ele>808.01782865397</ele>
        <time>2016-09-24T13:07:19Z</time>
      </trkpt>
      <trkpt lat="43.50096" lon="2.64375">
        <ele>808.01782865397</ele>
        <time>2016-09-24T13:07:24Z</time>
      </trkpt>
      <trkpt lat="43.50092" lon="2.64371">
        <ele>807.86870980879</ele>
        <time>2016-09-24T13:07:29Z</time>
      </trkpt>
      <trkpt lat="43.50085" lon="2.64365">
        <ele>807.86870980879</ele>
        <time>2016-09-24T13:07:34Z</time>
      </trkpt>
      <trkpt lat="43.50082" lon="2.64359">
        <ele>807.7396680031</ele>
        <time>2016-09-24T13:07:39Z</time>
      </trkpt>
      <trkpt lat="43.50077" lon="2.64352">
        <ele>807.7396680031</ele>
        <time>2016-09-24T13:07:44Z</time>
      </trkpt>
      <trkpt lat="43.50073" lon="2.64346">
        <ele>807.61488673045</ele>
        <time>2016-09-24T13:07:49Z</time>
      </trkpt>
      <trkpt lat="43.50068" lon="2.64341">
        <ele>807.61488673045</ele>
        <time>2016-09-24T13:07:54Z</time>
      </trkpt>
      <trkpt lat="43.50063" lon="2.64339">
        <ele>807.4941050508</ele>
        <time>2016-09-24T13:07:59Z</time>
      </trkpt>
      <trkpt lat="43.50057" lon="2.64333">
        <ele>807.4941050508</ele>
        <time>2016-09-24T13:08:04Z</time>
      </trkpt>
      <trkpt lat="43.50053" lon="2.64328">
        <ele>807.37706473993</ele>
        <time>2016-09-24T13:08:09Z</time>
      </trkpt>
      <trkpt lat="43.50046" lon="2.64324">
        <ele>807.37706473993</ele>
        <time>2016-09-24T13:08:14Z</time>
      </trkpt>
      <trkpt lat="43.50041" lon="2.64323">
        <ele>807.26351110414</ele>
        <time>2016-09-24T13:08:19Z</time>
      </trkpt>
      <trkpt lat="43.50036" lon="2.64323">
        <ele>807.26351110414</ele>
        <time>2016-09-24T13:08:24Z</time>
      </trkpt>
      <trkpt lat="43.50029" lon="2.64319">
        <ele>807.15319374964</ele>
        <time>2016-09-24T13:08:29Z</time>
      </trkpt>
      <trkpt lat="43.50025" lon="2.64318">
        <ele>807.15319374964</ele>
        <time>2016-09-24T13:08:34Z</time>
      </trkpt>
      <trkpt lat="43.50017" lon="2.64318">
        <ele>807.04586730317</ele>
        <time>2016-09-24T13:08:39Z</time>
      </trkpt>
      <trkpt lat="43.50012" lon="2.64318">
        <ele>807.04586730317</ele>
        <time>2016-09-24T13:08:44Z</time>
      </trkpt>
      <trkpt lat="43.50014" lon="2.64326">
        <ele>806.95570322219</ele>
        <time>2016-09-24T13:08:49Z</time>
      </trkpt>
      <trkpt lat="43.50017" lon="2.64333">
        <ele>806.95570322219</ele>
        <time>2016-09-24T13:08:54Z</time>
      </trkpt>
      <trkpt lat="43.50017" lon="2.64334">
        <ele>806.95570322219</ele>
        <time>2016-09-24T13:08:59Z</time>
      </trkpt>
      <trkpt lat="43.50017" lon="2.64335">
        <ele>806.95570322219</ele>
        <time>2016-09-24T13:09:04Z</time>
      </trkpt>
      <trkpt lat="43.50017" lon="2.64335">
        <ele>806.95570322219</ele>
        <time>2016-09-24T13:09:09Z</time>
      </trkpt>
      <trkpt lat="43.50017" lon="2.64335">
        <ele>806.95570322219</ele>
        <time>2016-09-24T13:09:14Z</time>
      </trkpt>
      <trkpt lat="43.50015" lon="2.64336">
        <ele>806.85254689647</ele>
        <time>2016-09-24T13:09:19Z</time>
      </trkpt>
      <trkpt lat="43.50016" lon="2.64332">
        <ele>806.85254689647</ele>
        <time>2016-09-24T13:09:24Z</time>
      </trkpt>
      <trkpt lat="43.50003" lon="2.64323">
        <ele>806.73731435532</ele>
        <time>2016-09-24T13:09:29Z</time>
      </trkpt>
      <trkpt lat="43.49993" lon="2.64322">
        <ele>806.62529649756</ele>
        <time>2016-09-24T13:09:34Z</time>
      </trkpt>
      <trkpt lat="43.49988" lon="2.6432">
        <ele>806.62529649756</ele>
        <time>2016-09-24T13:09:39Z</time>
      </trkpt>
      <trkpt lat="43.49977" lon="2.64317">
        <ele>806.50182716303</ele>
        <time>2016-09-24T13:09:44Z</time>
      </trkpt>
      <trkpt lat="43.49972" lon="2.64316">
        <ele>806.50182716303</ele>
        <time>2016-09-24T13:09:49Z</time>
      </trkpt>
      <trkpt lat="43.49964" lon="2.64315">
        <ele>806.36775845668</ele>
        <time>2016-09-24T13:09:54Z</time>
      </trkpt>
      <trkpt lat="43.4996" lon="2.64313">
        <ele>806.36775845668</ele>
        <time>2016-09-24T13:09:59Z</time>
      </trkpt>
      <trkpt lat="43.49955" lon="2.64312">
        <ele>806.23831855076</ele>
        <time>2016-09-24T13:10:04Z</time>
      </trkpt>
      <trkpt lat="43.49947" lon="2.6431">
        <ele>806.23831855076</ele>
        <time>2016-09-24T13:10:09Z</time>
      </trkpt>
      <trkpt lat="43.4994" lon="2.64306">
        <ele>806.09877965624</ele>
        <time>2016-09-24T13:10:14Z</time>
      </trkpt>
      <trkpt lat="43.49934" lon="2.64308">
        <ele>806.09877965624</ele>
        <time>2016-09-24T13:10:19Z</time>
      </trkpt>
      <trkpt lat="43.49926" lon="2.64309">
        <ele>805.96434441788</ele>
        <time>2016-09-24T13:10:24Z</time>
      </trkpt>
      <trkpt lat="43.49919" lon="2.64309">
        <ele>805.96434441788</ele>
        <time>2016-09-24T13:10:29Z</time>
      </trkpt>
      <trkpt lat="43.4991" lon="2.64307">
        <ele>805.82026015829</ele>
        <time>2016-09-24T13:10:34Z</time>
      </trkpt>
      <trkpt lat="43.49905" lon="2.64309">
        <ele>805.82026015829</ele>
        <time>2016-09-24T13:10:39Z</time>
      </trkpt>
      <trkpt lat="43.49899" lon="2.6431">
        <ele>805.68170525813</ele>
        <time>2016-09-24T13:10:44Z</time>
      </trkpt>
      <trkpt lat="43.49892" lon="2.64309">
        <ele>805.68170525813</ele>
        <time>2016-09-24T13:10:49Z</time>
      </trkpt>
      <trkpt lat="43.49887" lon="2.64308">
        <ele>805.53390339116</ele>
        <time>2016-09-24T13:10:54Z</time>
      </trkpt>
      <trkpt lat="43.49885" lon="2.64309">
        <ele>805.53390339116</ele>
        <time>2016-09-24T13:10:59Z</time>
      </trkpt>
      <trkpt lat="43.49884" lon="2.64308">
        <ele>805.53390339116</ele>
        <time>2016-09-24T13:11:04Z</time>
      </trkpt>
      <trkpt lat="43.49883" lon="2.64308">
        <ele>805.53390339116</ele>
        <time>2016-09-24T13:11:09Z</time>
      </trkpt>
      <trkpt lat="43.49878" lon="2.64304">
        <ele>805.39200990037</ele>
        <time>2016-09-24T13:11:14Z</time>
      </trkpt>
      <trkpt lat="43.49876" lon="2.64304">
        <ele>805.39200990037</ele>
        <time>2016-09-24T13:11:19Z</time>
      </trkpt>
      <trkpt lat="43.49873" lon="2.64304">
        <ele>805.39200990037</ele>
        <time>2016-09-24T13:11:24Z</time>
      </trkpt>
      <trkpt lat="43.49868" lon="2.64303">
        <ele>805.24122603283</ele>
        <time>2016-09-24T13:11:29Z</time>
      </trkpt>
      <trkpt lat="43.49863" lon="2.64305">
        <ele>805.24122603283</ele>
        <time>2016-09-24T13:11:34Z</time>
      </trkpt>
      <trkpt lat="43.49858" lon="2.64304">
        <ele>805.09668531865</ele>
        <time>2016-09-24T13:11:39Z</time>
      </trkpt>
      <trkpt lat="43.49853" lon="2.64306">
        <ele>805.09668531865</ele>
        <time>2016-09-24T13:11:44Z</time>
      </trkpt>
      <trkpt lat="43.49848" lon="2.64306">
        <ele>804.9435678111</ele>
        <time>2016-09-24T13:11:49Z</time>
      </trkpt>
      <trkpt lat="43.49841" lon="2.64308">
        <ele>804.9435678111</ele>
        <time>2016-09-24T13:11:54Z</time>
      </trkpt>
      <trkpt lat="43.49835" lon="2.64309">
        <ele>804.78257533081</ele>
        <time>2016-09-24T13:11:59Z</time>
      </trkpt>
      <trkpt lat="43.49824" lon="2.64306">
        <ele>804.62878922654</ele>
        <time>2016-09-24T13:12:04Z</time>
      </trkpt>
      <trkpt lat="43.49817" lon="2.64307">
        <ele>804.62878922654</ele>
        <time>2016-09-24T13:12:09Z</time>
      </trkpt>
      <trkpt lat="43.49811" lon="2.64306">
        <ele>804.48174947896</ele>
        <time>2016-09-24T13:12:14Z</time>
      </trkpt>
      <trkpt lat="43.49805" lon="2.64305">
        <ele>804.48174947896</ele>
        <time>2016-09-24T13:12:19Z</time>
      </trkpt>
      <trkpt lat="43.49798" lon="2.64305">
        <ele>804.32659759958</ele>
        <time>2016-09-24T13:12:24Z</time>
      </trkpt>
      <trkpt lat="43.49792" lon="2.64304">
        <ele>804.32659759958</ele>
        <time>2016-09-24T13:12:29Z</time>
      </trkpt>
      <trkpt lat="43.49785" lon="2.64302">
        <ele>804.16399820259</ele>
        <time>2016-09-24T13:12:34Z</time>
      </trkpt>
      <trkpt lat="43.49781" lon="2.64301">
        <ele>804.16399820259</ele>
        <time>2016-09-24T13:12:39Z</time>
      </trkpt>
      <trkpt lat="43.49775" lon="2.64302">
        <ele>803.99458565398</ele>
        <time>2016-09-24T13:12:44Z</time>
      </trkpt>
      <trkpt lat="43.49769" lon="2.64301">
        <ele>803.99458565398</ele>
        <time>2016-09-24T13:12:49Z</time>
      </trkpt>
      <trkpt lat="43.49768" lon="2.64302">
        <ele>803.99458565398</ele>
        <time>2016-09-24T13:12:54Z</time>
      </trkpt>
      <trkpt lat="43.49763" lon="2.64302">
        <ele>803.81896443081</ele>
        <time>2016-09-24T13:12:59Z</time>
      </trkpt>
      <trkpt lat="43.49763" lon="2.64305">
        <ele>803.81896443081</ele>
        <time>2016-09-24T13:13:04Z</time>
      </trkpt>
      <trkpt lat="43.49764" lon="2.64306">
        <ele>803.81896443081</ele>
        <time>2016-09-24T13:13:09Z</time>
      </trkpt>
      <trkpt lat="43.4976" lon="2.64305">
        <ele>803.81896443081</ele>
        <time>2016-09-24T13:13:14Z</time>
      </trkpt>
      <trkpt lat="43.49753" lon="2.64305">
        <ele>803.63770949364</ele>
        <time>2016-09-24T13:13:19Z</time>
      </trkpt>
      <trkpt lat="43.49746" lon="2.64304">
        <ele>803.63770949364</ele>
        <time>2016-09-24T13:13:24Z</time>
      </trkpt>
      <trkpt lat="43.49739" lon="2.64303">
        <ele>803.45136667879</ele>
        <time>2016-09-24T13:13:29Z</time>
      </trkpt>
      <trkpt lat="43.49734" lon="2.64302">
        <ele>803.45136667879</ele>
        <time>2016-09-24T13:13:34Z</time>
      </trkpt>
      <trkpt lat="43.49728" lon="2.64301">
        <ele>803.26045311617</ele>
        <time>2016-09-24T13:13:39Z</time>
      </trkpt>
      <trkpt lat="43.49723" lon="2.64301">
        <ele>803.26045311617</ele>
        <time>2016-09-24T13:13:44Z</time>
      </trkpt>
      <trkpt lat="43.49717" lon="2.64301">
        <ele>803.06545767677</ele>
        <time>2016-09-24T13:13:49Z</time>
      </trkpt>
      <trkpt lat="43.4971" lon="2.64299">
        <ele>803.06545767677</ele>
        <time>2016-09-24T13:13:54Z</time>
      </trkpt>
      <trkpt lat="43.49704" lon="2.64298">
        <ele>802.866841453</ele>
        <time>2016-09-24T13:13:59Z</time>
      </trkpt>
      <trkpt lat="43.49697" lon="2.64295">
        <ele>802.866841453</ele>
        <time>2016-09-24T13:14:04Z</time>
      </trkpt>
      <trkpt lat="43.49691" lon="2.64294">
        <ele>802.65062713231</ele>
        <time>2016-09-24T13:14:09Z</time>
      </trkpt>
      <trkpt lat="43.49685" lon="2.64291">
        <ele>802.65062713231</ele>
        <time>2016-09-24T13:14:14Z</time>
      </trkpt>
      <trkpt lat="43.49678" lon="2.64291">
        <ele>802.43273191959</ele>
        <time>2016-09-24T13:14:19Z</time>
      </trkpt>
      <trkpt lat="43.49671" lon="2.64289">
        <ele>802.43273191959</ele>
        <time>2016-09-24T13:14:24Z</time>
      </trkpt>
      <trkpt lat="43.49664" lon="2.64289">
        <ele>802.19908206363</ele>
        <time>2016-09-24T13:14:29Z</time>
      </trkpt>
      <trkpt lat="43.49659" lon="2.64289">
        <ele>802.19908206363</ele>
        <time>2016-09-24T13:14:34Z</time>
      </trkpt>
      <trkpt lat="43.49652" lon="2.64287">
        <ele>801.96549957459</ele>
        <time>2016-09-24T13:14:39Z</time>
      </trkpt>
      <trkpt lat="43.49648" lon="2.64288">
        <ele>801.96549957459</ele>
        <time>2016-09-24T13:14:44Z</time>
      </trkpt>
      <trkpt lat="43.49643" lon="2.64288">
        <ele>801.71781685485</ele>
        <time>2016-09-24T13:14:49Z</time>
      </trkpt>
      <trkpt lat="43.49636" lon="2.64288">
        <ele>801.71781685485</ele>
        <time>2016-09-24T13:14:54Z</time>
      </trkpt>
      <trkpt lat="43.49632" lon="2.64289">
        <ele>801.45735239026</ele>
        <time>2016-09-24T13:14:59Z</time>
      </trkpt>
      <trkpt lat="43.49626" lon="2.64287">
        <ele>801.45735239026</ele>
        <time>2016-09-24T13:15:04Z</time>
      </trkpt>
      <trkpt lat="43.49621" lon="2.64285">
        <ele>801.19976901667</ele>
        <time>2016-09-24T13:15:09Z</time>
      </trkpt>
      <trkpt lat="43.49616" lon="2.6428">
        <ele>801.19976901667</ele>
        <time>2016-09-24T13:15:14Z</time>
      </trkpt>
      <trkpt lat="43.49608" lon="2.64275">
        <ele>800.9307424479</ele>
        <time>2016-09-24T13:15:19Z</time>
      </trkpt>
      <trkpt lat="43.49601" lon="2.64273">
        <ele>800.9307424479</ele>
        <time>2016-09-24T13:15:24Z</time>
      </trkpt>
      <trkpt lat="43.49596" lon="2.64271">
        <ele>800.65143717181</ele>
        <time>2016-09-24T13:15:29Z</time>
      </trkpt>
      <trkpt lat="43.49589" lon="2.64265">
        <ele>800.65143717181</ele>
        <time>2016-09-24T13:15:34Z</time>
      </trkpt>
      <trkpt lat="43.49583" lon="2.64263">
        <ele>800.36295378812</ele>
        <time>2016-09-24T13:15:39Z</time>
      </trkpt>
      <trkpt lat="43.49579" lon="2.64263">
        <ele>800.36295378812</ele>
        <time>2016-09-24T13:15:44Z</time>
      </trkpt>
      <trkpt lat="43.49573" lon="2.6426">
        <ele>800.08074126526</ele>
        <time>2016-09-24T13:15:49Z</time>
      </trkpt>
      <trkpt lat="43.49565" lon="2.64259">
        <ele>800.08074126526</ele>
        <time>2016-09-24T13:15:54Z</time>
      </trkpt>
      <trkpt lat="43.49558" lon="2.64257">
        <ele>799.79026576103</ele>
        <time>2016-09-24T13:15:59Z</time>
      </trkpt>
      <trkpt lat="43.49553" lon="2.64256">
        <ele>799.79026576103</ele>
        <time>2016-09-24T13:16:04Z</time>
      </trkpt>
      <trkpt lat="43.4955" lon="2.64257">
        <ele>799.79026576103</ele>
        <time>2016-09-24T13:16:09Z</time>
      </trkpt>
      <trkpt lat="43.49544" lon="2.64256">
        <ele>799.47807567159</ele>
        <time>2016-09-24T13:16:14Z</time>
      </trkpt>
      <trkpt lat="43.49536" lon="2.64255">
        <ele>799.47807567159</ele>
        <time>2016-09-24T13:16:19Z</time>
      </trkpt>
      <trkpt lat="43.49531" lon="2.64252">
        <ele>799.1461704894</ele>
        <time>2016-09-24T13:16:24Z</time>
      </trkpt>
      <trkpt lat="43.49527" lon="2.64249">
        <ele>799.1461704894</ele>
        <time>2016-09-24T13:16:29Z</time>
      </trkpt>
      <trkpt lat="43.49521" lon="2.64251">
        <ele>798.79644851022</ele>
        <time>2016-09-24T13:16:34Z</time>
      </trkpt>
      <trkpt lat="43.49518" lon="2.6425">
        <ele>798.79644851022</ele>
        <time>2016-09-24T13:16:39Z</time>
      </trkpt>
      <trkpt lat="43.49519" lon="2.64251">
        <ele>798.79644851022</ele>
        <time>2016-09-24T13:16:44Z</time>
      </trkpt>
      <trkpt lat="43.49519" lon="2.64251">
        <ele>798.79644851022</ele>
        <time>2016-09-24T13:16:49Z</time>
      </trkpt>
      <trkpt lat="43.49514" lon="2.6425">
        <ele>798.79644851022</ele>
        <time>2016-09-24T13:16:54Z</time>
      </trkpt>
      <trkpt lat="43.49511" lon="2.64255">
        <ele>798.27218576756</ele>
        <time>2016-09-24T13:16:59Z</time>
      </trkpt>
      <trkpt lat="43.49508" lon="2.64254">
        <ele>798.27218576756</ele>
        <time>2016-09-24T13:17:04Z</time>
      </trkpt>
      <trkpt lat="43.49504" lon="2.64251">
        <ele>798.27218576756</ele>
        <time>2016-09-24T13:17:09Z</time>
      </trkpt>
      <trkpt lat="43.49503" lon="2.64252">
        <ele>797.63040456889</ele>
        <time>2016-09-24T13:17:14Z</time>
      </trkpt>
      <trkpt lat="43.49502" lon="2.64253">
        <ele>797.63040456889</ele>
        <time>2016-09-24T13:17:19Z</time>
      </trkpt>
      <trkpt lat="43.49496" lon="2.64251">
        <ele>797.63040456889</ele>
        <time>2016-09-24T13:17:24Z</time>
      </trkpt>
      <trkpt lat="43.49491" lon="2.64252">
        <ele>796.79455405865</ele>
        <time>2016-09-24T13:17:29Z</time>
      </trkpt>
      <trkpt lat="43.49486" lon="2.64252">
        <ele>796.79455405865</ele>
        <time>2016-09-24T13:17:34Z</time>
      </trkpt>
      <trkpt lat="43.49481" lon="2.64253">
        <ele>795.86716767783</ele>
        <time>2016-09-24T13:17:39Z</time>
      </trkpt>
      <trkpt lat="43.49477" lon="2.64251">
        <ele>795.86716767783</ele>
        <time>2016-09-24T13:17:44Z</time>
      </trkpt>
      <trkpt lat="43.4948" lon="2.64251">
        <ele>795.86716767783</ele>
        <time>2016-09-24T13:17:49Z</time>
      </trkpt>
      <trkpt lat="43.49482" lon="2.64251">
        <ele>794.81378276974</ele>
        <time>2016-09-24T13:17:54Z</time>
      </trkpt>
      <trkpt lat="43.49483" lon="2.64251">
        <ele>794.81378276974</ele>
        <time>2016-09-24T13:17:59Z</time>
      </trkpt>
      <trkpt lat="43.49483" lon="2.64252">
        <ele>794.81378276974</ele>
        <time>2016-09-24T13:18:04Z</time>
      </trkpt>
      <trkpt lat="43.49486" lon="2.64254">
        <ele>794.81378276974</ele>
        <time>2016-09-24T13:18:09Z</time>
      </trkpt>
      <trkpt lat="43.49486" lon="2.64254">
        <ele>794.81378276974</ele>
        <time>2016-09-24T13:18:14Z</time>
      </trkpt>
      <trkpt lat="43.49487" lon="2.64254">
        <ele>794.81378276974</ele>
        <time>2016-09-24T13:18:19Z</time>
      </trkpt>
      <trkpt lat="43.49487" lon="2.64255">
        <ele>794.81378276974</ele>
        <time>2016-09-24T13:18:24Z</time>
      </trkpt>
      <trkpt lat="43.49487" lon="2.64255">
        <ele>794.81378276974</ele>
        <time>2016-09-24T13:18:29Z</time>
      </trkpt>
      <trkpt lat="43.49489" lon="2.64257">
        <ele>794.81378276974</ele>
        <time>2016-09-24T13:18:34Z</time>
      </trkpt>
      <trkpt lat="43.4949" lon="2.64258">
        <ele>793.6172074026</ele>
        <time>2016-09-24T13:18:39Z</time>
      </trkpt>
      <trkpt lat="43.49489" lon="2.64263">
        <ele>793.6172074026</ele>
        <time>2016-09-24T13:18:44Z</time>
      </trkpt>
      <trkpt lat="43.49489" lon="2.64266">
        <ele>793.6172074026</ele>
        <time>2016-09-24T13:18:49Z</time>
      </trkpt>
      <trkpt lat="43.49489" lon="2.64266">
        <ele>793.6172074026</ele>
        <time>2016-09-24T13:18:54Z</time>
      </trkpt>
      <trkpt lat="43.49489" lon="2.64266">
        <ele>793.6172074026</ele>
        <time>2016-09-24T13:18:59Z</time>
      </trkpt>
      <trkpt lat="43.49489" lon="2.64266">
        <ele>793.6172074026</ele>
        <time>2016-09-24T13:19:04Z</time>
      </trkpt>
      <trkpt lat="43.49488" lon="2.64267">
        <ele>793.6172074026</ele>
        <time>2016-09-24T13:19:09Z</time>
      </trkpt>
      <trkpt lat="43.49486" lon="2.64268">
        <ele>792.16100537733</ele>
        <time>2016-09-24T13:19:14Z</time>
      </trkpt>
      <trkpt lat="43.49487" lon="2.64268">
        <ele>792.16100537733</ele>
        <time>2016-09-24T13:19:19Z</time>
      </trkpt>
      <trkpt lat="43.49489" lon="2.64269">
        <ele>792.16100537733</ele>
        <time>2016-09-24T13:19:24Z</time>
      </trkpt>
      <trkpt lat="43.49487" lon="2.64269">
        <ele>792.16100537733</ele>
        <time>2016-09-24T13:19:29Z</time>
      </trkpt>
      <trkpt lat="43.49487" lon="2.64269">
        <ele>792.16100537733</ele>
        <time>2016-09-24T13:19:34Z</time>
      </trkpt>
      <trkpt lat="43.49486" lon="2.64269">
        <ele>792.16100537733</ele>
        <time>2016-09-24T13:19:39Z</time>
      </trkpt>
      <trkpt lat="43.49486" lon="2.64269">
        <ele>792.16100537733</ele>
        <time>2016-09-24T13:19:44Z</time>
      </trkpt>
      <trkpt lat="43.49485" lon="2.64267">
        <ele>792.16100537733</ele>
        <time>2016-09-24T13:19:49Z</time>
      </trkpt>
      <trkpt lat="43.49483" lon="2.64265">
        <ele>790.42445123183</ele>
        <time>2016-09-24T13:19:54Z</time>
      </trkpt>
      <trkpt lat="43.49484" lon="2.64265">
        <ele>790.42445123183</ele>
        <time>2016-09-24T13:19:59Z</time>
      </trkpt>
      <trkpt lat="43.49483" lon="2.64261">
        <ele>790.42445123183</ele>
        <time>2016-09-24T13:20:04Z</time>
      </trkpt>
      <trkpt lat="43.49483" lon="2.64259">
        <ele>790.42445123183</ele>
        <time>2016-09-24T13:20:09Z</time>
      </trkpt>
      <trkpt lat="43.49483" lon="2.64259">
        <ele>790.42445123183</ele>
        <time>2016-09-24T13:20:14Z</time>
      </trkpt>
      <trkpt lat="43.49484" lon="2.6426">
        <ele>790.42445123183</ele>
        <time>2016-09-24T13:20:19Z</time>
      </trkpt>
      <trkpt lat="43.49484" lon="2.6426">
        <ele>790.42445123183</ele>
        <time>2016-09-24T13:20:24Z</time>
      </trkpt>
      <trkpt lat="43.49484" lon="2.6426">
        <ele>790.42445123183</ele>
        <time>2016-09-24T13:20:29Z</time>
      </trkpt>
      <trkpt lat="43.49484" lon="2.6426">
        <ele>790.42445123183</ele>
        <time>2016-09-24T13:20:34Z</time>
      </trkpt>
      <trkpt lat="43.49484" lon="2.64261">
        <ele>790.42445123183</ele>
        <time>2016-09-24T13:20:39Z</time>
      </trkpt>
      <trkpt lat="43.49484" lon="2.64261">
        <ele>790.42445123183</ele>
        <time>2016-09-24T13:20:44Z</time>
      </trkpt>
      <trkpt lat="43.49485" lon="2.64261">
        <ele>790.42445123183</ele>
        <time>2016-09-24T13:20:49Z</time>
      </trkpt>
      <trkpt lat="43.49485" lon="2.64261">
        <ele>790.42445123183</ele>
        <time>2016-09-24T13:20:54Z</time>
      </trkpt>
      <trkpt lat="43.49485" lon="2.6426">
        <ele>790.42445123183</ele>
        <time>2016-09-24T13:20:59Z</time>
      </trkpt>
      <trkpt lat="43.49486" lon="2.6426">
        <ele>790.42445123183</ele>
        <time>2016-09-24T13:21:04Z</time>
      </trkpt>
      <trkpt lat="43.49486" lon="2.64259">
        <ele>790.42445123183</ele>
        <time>2016-09-24T13:21:09Z</time>
      </trkpt>
      <trkpt lat="43.49487" lon="2.64259">
        <ele>790.42445123183</ele>
        <time>2016-09-24T13:21:14Z</time>
      </trkpt>
      <trkpt lat="43.49488" lon="2.6426">
        <ele>788.37467183913</ele>
        <time>2016-09-24T13:21:19Z</time>
      </trkpt>
      <trkpt lat="43.49488" lon="2.6426">
        <ele>788.37467183913</ele>
        <time>2016-09-24T13:21:24Z</time>
      </trkpt>
      <trkpt lat="43.4949" lon="2.64258">
        <ele>788.37467183913</ele>
        <time>2016-09-24T13:21:29Z</time>
      </trkpt>
      <trkpt lat="43.49492" lon="2.64257">
        <ele>788.37467183913</ele>
        <time>2016-09-24T13:21:34Z</time>
      </trkpt>
      <trkpt lat="43.49493" lon="2.64257">
        <ele>788.37467183913</ele>
        <time>2016-09-24T13:21:39Z</time>
      </trkpt>
      <trkpt lat="43.49493" lon="2.64257">
        <ele>788.37467183913</ele>
        <time>2016-09-24T13:21:44Z</time>
      </trkpt>
      <trkpt lat="43.49493" lon="2.64259">
        <ele>788.37467183913</ele>
        <time>2016-09-24T13:21:49Z</time>
      </trkpt>
      <trkpt lat="43.49494" lon="2.64259">
        <ele>788.37467183913</ele>
        <time>2016-09-24T13:21:54Z</time>
      </trkpt>
      <trkpt lat="43.49494" lon="2.64259">
        <ele>788.37467183913</ele>
        <time>2016-09-24T13:21:59Z</time>
      </trkpt>
      <trkpt lat="43.49494" lon="2.64259">
        <ele>788.37467183913</ele>
        <time>2016-09-24T13:22:04Z</time>
      </trkpt>
      <trkpt lat="43.49495" lon="2.64259">
        <ele>788.37467183913</ele>
        <time>2016-09-24T13:22:09Z</time>
      </trkpt>
      <trkpt lat="43.49495" lon="2.64259">
        <ele>788.37467183913</ele>
        <time>2016-09-24T13:22:14Z</time>
      </trkpt>
      <trkpt lat="43.49495" lon="2.64259">
        <ele>788.37467183913</ele>
        <time>2016-09-24T13:22:19Z</time>
      </trkpt>
      <trkpt lat="43.49495" lon="2.64259">
        <ele>788.37467183913</ele>
        <time>2016-09-24T13:22:24Z</time>
      </trkpt>
      <trkpt lat="43.49495" lon="2.64259">
        <ele>786.1837886481</ele>
        <time>2016-09-24T13:22:29Z</time>
      </trkpt>
      <trkpt lat="43.49495" lon="2.64258">
        <ele>786.1837886481</ele>
        <time>2016-09-24T13:22:34Z</time>
      </trkpt>
      <trkpt lat="43.49494" lon="2.64258">
        <ele>786.1837886481</ele>
        <time>2016-09-24T13:22:39Z</time>
      </trkpt>
      <trkpt lat="43.49494" lon="2.64258">
        <ele>786.1837886481</ele>
        <time>2016-09-24T13:22:44Z</time>
      </trkpt>
      <trkpt lat="43.49494" lon="2.64258">
        <ele>786.1837886481</ele>
        <time>2016-09-24T13:22:49Z</time>
      </trkpt>
      <trkpt lat="43.49494" lon="2.64259">
        <ele>786.1837886481</ele>
        <time>2016-09-24T13:22:54Z</time>
      </trkpt>
      <trkpt lat="43.49494" lon="2.64256">
        <ele>786.1837886481</ele>
        <time>2016-09-24T13:22:59Z</time>
      </trkpt>
      <trkpt lat="43.49494" lon="2.64256">
        <ele>786.1837886481</ele>
        <time>2016-09-24T13:23:04Z</time>
      </trkpt>
      <trkpt lat="43.49494" lon="2.64256">
        <ele>786.1837886481</ele>
        <time>2016-09-24T13:23:09Z</time>
      </trkpt>
      <trkpt lat="43.49494" lon="2.64256">
        <ele>786.1837886481</ele>
        <time>2016-09-24T13:23:14Z</time>
      </trkpt>
      <trkpt lat="43.49494" lon="2.64256">
        <ele>786.1837886481</ele>
        <time>2016-09-24T13:23:19Z</time>
      </trkpt>
      <trkpt lat="43.49488" lon="2.6425">
        <ele>783.68015421582</ele>
        <time>2016-09-24T13:23:24Z</time>
      </trkpt>
      <trkpt lat="43.49487" lon="2.64251">
        <ele>783.68015421582</ele>
        <time>2016-09-24T13:23:29Z</time>
      </trkpt>
      <trkpt lat="43.49479" lon="2.64244">
        <ele>781.20992037887</ele>
        <time>2016-09-24T13:23:34Z</time>
      </trkpt>
      <trkpt lat="43.49479" lon="2.64243">
        <ele>781.20992037887</ele>
        <time>2016-09-24T13:23:39Z</time>
      </trkpt>
      <trkpt lat="43.49478" lon="2.64242">
        <ele>781.20992037887</ele>
        <time>2016-09-24T13:23:44Z</time>
      </trkpt>
      <trkpt lat="43.49475" lon="2.6424">
        <ele>781.20992037887</ele>
        <time>2016-09-24T13:23:49Z</time>
      </trkpt>
      <trkpt lat="43.4947" lon="2.64239">
        <ele>778.76217383884</ele>
        <time>2016-09-24T13:23:54Z</time>
      </trkpt>
      <trkpt lat="43.49468" lon="2.64239">
        <ele>778.76217383884</ele>
        <time>2016-09-24T13:23:59Z</time>
      </trkpt>
      <trkpt lat="43.49467" lon="2.64238">
        <ele>778.76217383884</ele>
        <time>2016-09-24T13:24:04Z</time>
      </trkpt>
      <trkpt lat="43.49465" lon="2.64239">
        <ele>778.76217383884</ele>
        <time>2016-09-24T13:24:09Z</time>
      </trkpt>
      <trkpt lat="43.4946" lon="2.64237">
        <ele>776.25458562313</ele>
        <time>2016-09-24T13:24:14Z</time>
      </trkpt>
      <trkpt lat="43.49458" lon="2.64239">
        <ele>776.25458562313</ele>
        <time>2016-09-24T13:24:19Z</time>
      </trkpt>
      <trkpt lat="43.49454" lon="2.64238">
        <ele>776.25458562313</ele>
        <time>2016-09-24T13:24:24Z</time>
      </trkpt>
      <trkpt lat="43.49447" lon="2.64233">
        <ele>773.82710036784</ele>
        <time>2016-09-24T13:24:29Z</time>
      </trkpt>
      <trkpt lat="43.49442" lon="2.64232">
        <ele>773.82710036784</ele>
        <time>2016-09-24T13:24:34Z</time>
      </trkpt>
      <trkpt lat="43.49439" lon="2.64231">
        <ele>773.82710036784</ele>
        <time>2016-09-24T13:24:39Z</time>
      </trkpt>
      <trkpt lat="43.49436" lon="2.64231">
        <ele>771.52257342528</ele>
        <time>2016-09-24T13:24:44Z</time>
      </trkpt>
      <trkpt lat="43.49432" lon="2.64231">
        <ele>771.52257342528</ele>
        <time>2016-09-24T13:24:49Z</time>
      </trkpt>
      <trkpt lat="43.49429" lon="2.6423">
        <ele>771.52257342528</ele>
        <time>2016-09-24T13:24:54Z</time>
      </trkpt>
      <trkpt lat="43.49424" lon="2.64229">
        <ele>769.35141995976</ele>
        <time>2016-09-24T13:24:59Z</time>
      </trkpt>
      <trkpt lat="43.49423" lon="2.6423">
        <ele>769.35141995976</ele>
        <time>2016-09-24T13:25:04Z</time>
      </trkpt>
      <trkpt lat="43.49421" lon="2.64229">
        <ele>769.35141995976</ele>
        <time>2016-09-24T13:25:09Z</time>
      </trkpt>
      <trkpt lat="43.49416" lon="2.64228">
        <ele>769.35141995976</ele>
        <time>2016-09-24T13:25:14Z</time>
      </trkpt>
      <trkpt lat="43.49413" lon="2.64229">
        <ele>767.29396313674</ele>
        <time>2016-09-24T13:25:19Z</time>
      </trkpt>
      <trkpt lat="43.4941" lon="2.64227">
        <ele>767.29396313674</ele>
        <time>2016-09-24T13:25:24Z</time>
      </trkpt>
      <trkpt lat="43.49405" lon="2.64227">
        <ele>767.29396313674</ele>
        <time>2016-09-24T13:25:29Z</time>
      </trkpt>
      <trkpt lat="43.49402" lon="2.64228">
        <ele>765.40357394455</ele>
        <time>2016-09-24T13:25:34Z</time>
      </trkpt>
      <trkpt lat="43.49397" lon="2.64228">
        <ele>765.40357394455</ele>
        <time>2016-09-24T13:25:39Z</time>
      </trkpt>
      <trkpt lat="43.49392" lon="2.64226">
        <ele>763.68586463717</ele>
        <time>2016-09-24T13:25:44Z</time>
      </trkpt>
      <trkpt lat="43.49386" lon="2.64228">
        <ele>763.68586463717</ele>
        <time>2016-09-24T13:25:49Z</time>
      </trkpt>
      <trkpt lat="43.49384" lon="2.64229">
        <ele>763.68586463717</ele>
        <time>2016-09-24T13:25:54Z</time>
      </trkpt>
      <trkpt lat="43.49381" lon="2.64227">
        <ele>762.13100351911</ele>
        <time>2016-09-24T13:25:59Z</time>
      </trkpt>
      <trkpt lat="43.49378" lon="2.64228">
        <ele>762.13100351911</ele>
        <time>2016-09-24T13:26:04Z</time>
      </trkpt>
      <trkpt lat="43.49375" lon="2.64229">
        <ele>762.13100351911</ele>
        <time>2016-09-24T13:26:09Z</time>
      </trkpt>
      <trkpt lat="43.4937" lon="2.64229">
        <ele>760.72928985524</ele>
        <time>2016-09-24T13:26:14Z</time>
      </trkpt>
      <trkpt lat="43.49364" lon="2.64229">
        <ele>760.72928985524</ele>
        <time>2016-09-24T13:26:19Z</time>
      </trkpt>
      <trkpt lat="43.4936" lon="2.6423">
        <ele>759.48558595249</ele>
        <time>2016-09-24T13:26:24Z</time>
      </trkpt>
      <trkpt lat="43.49356" lon="2.64229">
        <ele>759.48558595249</ele>
        <time>2016-09-24T13:26:29Z</time>
      </trkpt>
      <trkpt lat="43.49351" lon="2.64229">
        <ele>758.38941634793</ele>
        <time>2016-09-24T13:26:34Z</time>
      </trkpt>
      <trkpt lat="43.49345" lon="2.64229">
        <ele>758.38941634793</ele>
        <time>2016-09-24T13:26:39Z</time>
      </trkpt>
      <trkpt lat="43.49339" lon="2.6423">
        <ele>757.43054116985</ele>
        <time>2016-09-24T13:26:44Z</time>
      </trkpt>
      <trkpt lat="43.49335" lon="2.64232">
        <ele>757.43054116985</ele>
        <time>2016-09-24T13:26:49Z</time>
      </trkpt>
      <trkpt lat="43.49329" lon="2.64232">
        <ele>756.61338597916</ele>
        <time>2016-09-24T13:26:54Z</time>
      </trkpt>
      <trkpt lat="43.49325" lon="2.64231">
        <ele>756.61338597916</ele>
        <time>2016-09-24T13:26:59Z</time>
      </trkpt>
      <trkpt lat="43.4932" lon="2.64231">
        <ele>755.91272696361</ele>
        <time>2016-09-24T13:27:04Z</time>
      </trkpt>
      <trkpt lat="43.49315" lon="2.64231">
        <ele>755.91272696361</ele>
        <time>2016-09-24T13:27:09Z</time>
      </trkpt>
      <trkpt lat="43.4931" lon="2.64229">
        <ele>755.31918214024</ele>
        <time>2016-09-24T13:27:14Z</time>
      </trkpt>
      <trkpt lat="43.49307" lon="2.64228">
        <ele>755.31918214024</ele>
        <time>2016-09-24T13:27:19Z</time>
      </trkpt>
      <trkpt lat="43.49303" lon="2.64226">
        <ele>755.31918214024</ele>
        <time>2016-09-24T13:27:24Z</time>
      </trkpt>
      <trkpt lat="43.49298" lon="2.64224">
        <ele>754.82367251343</ele>
        <time>2016-09-24T13:27:29Z</time>
      </trkpt>
      <trkpt lat="43.49293" lon="2.64227">
        <ele>754.82367251343</ele>
        <time>2016-09-24T13:27:34Z</time>
      </trkpt>
      <trkpt lat="43.49286" lon="2.64228">
        <ele>754.41743542635</ele>
        <time>2016-09-24T13:27:39Z</time>
      </trkpt>
      <trkpt lat="43.49281" lon="2.64229">
        <ele>754.41743542635</ele>
        <time>2016-09-24T13:27:44Z</time>
      </trkpt>
      <trkpt lat="43.49276" lon="2.6423">
        <ele>754.10644747528</ele>
        <time>2016-09-24T13:27:49Z</time>
      </trkpt>
      <trkpt lat="43.49269" lon="2.6423">
        <ele>754.10644747528</ele>
        <time>2016-09-24T13:27:54Z</time>
      </trkpt>
      <trkpt lat="43.49265" lon="2.64231">
        <ele>753.86710228739</ele>
        <time>2016-09-24T13:27:59Z</time>
      </trkpt>
      <trkpt lat="43.49259" lon="2.64228">
        <ele>753.86710228739</ele>
        <time>2016-09-24T13:28:04Z</time>
      </trkpt>
      <trkpt lat="43.49252" lon="2.64228">
        <ele>753.69169394047</ele>
        <time>2016-09-24T13:28:09Z</time>
      </trkpt>
      <trkpt lat="43.49245" lon="2.64231">
        <ele>753.69169394047</ele>
        <time>2016-09-24T13:28:14Z</time>
      </trkpt>
      <trkpt lat="43.4924" lon="2.64232">
        <ele>753.58728122635</ele>
        <time>2016-09-24T13:28:19Z</time>
      </trkpt>
      <trkpt lat="43.49231" lon="2.64235">
        <ele>753.54577158604</ele>
        <time>2016-09-24T13:28:24Z</time>
      </trkpt>
      <trkpt lat="43.49226" lon="2.64234">
        <ele>753.54577158604</ele>
        <time>2016-09-24T13:28:29Z</time>
      </trkpt>
      <trkpt lat="43.4922" lon="2.64234">
        <ele>753.54506718659</ele>
        <time>2016-09-24T13:28:34Z</time>
      </trkpt>
      <trkpt lat="43.49215" lon="2.64235">
        <ele>753.54506718659</ele>
        <time>2016-09-24T13:28:39Z</time>
      </trkpt>
      <trkpt lat="43.49211" lon="2.64233">
        <ele>753.59339919076</ele>
        <time>2016-09-24T13:28:44Z</time>
      </trkpt>
      <trkpt lat="43.49205" lon="2.64234">
        <ele>753.59339919076</ele>
        <time>2016-09-24T13:28:49Z</time>
      </trkpt>
      <trkpt lat="43.49201" lon="2.64235">
        <ele>753.68385315591</ele>
        <time>2016-09-24T13:28:54Z</time>
      </trkpt>
      <trkpt lat="43.49195" lon="2.64232">
        <ele>753.68385315591</ele>
        <time>2016-09-24T13:28:59Z</time>
      </trkpt>
      <trkpt lat="43.49189" lon="2.64231">
        <ele>753.7955103992</ele>
        <time>2016-09-24T13:29:04Z</time>
      </trkpt>
      <trkpt lat="43.49183" lon="2.64231">
        <ele>753.7955103992</ele>
        <time>2016-09-24T13:29:09Z</time>
      </trkpt>
      <trkpt lat="43.49176" lon="2.64229">
        <ele>753.90895542587</ele>
        <time>2016-09-24T13:29:14Z</time>
      </trkpt>
      <trkpt lat="43.49171" lon="2.64229">
        <ele>753.90895542587</ele>
        <time>2016-09-24T13:29:19Z</time>
      </trkpt>
      <trkpt lat="43.49167" lon="2.6423">
        <ele>754.03505055297</ele>
        <time>2016-09-24T13:29:24Z</time>
      </trkpt>
      <trkpt lat="43.49161" lon="2.6423">
        <ele>754.03505055297</ele>
        <time>2016-09-24T13:29:29Z</time>
      </trkpt>
      <trkpt lat="43.49155" lon="2.64232">
        <ele>754.16945563893</ele>
        <time>2016-09-24T13:29:34Z</time>
      </trkpt>
      <trkpt lat="43.49146" lon="2.6423">
        <ele>754.16945563893</ele>
        <time>2016-09-24T13:29:39Z</time>
      </trkpt>
      <trkpt lat="43.4914" lon="2.6423">
        <ele>754.30817524036</ele>
        <time>2016-09-24T13:29:44Z</time>
      </trkpt>
      <trkpt lat="43.49135" lon="2.64229">
        <ele>754.30817524036</ele>
        <time>2016-09-24T13:29:49Z</time>
      </trkpt>
      <trkpt lat="43.49133" lon="2.64229">
        <ele>754.30817524036</ele>
        <time>2016-09-24T13:29:54Z</time>
      </trkpt>
      <trkpt lat="43.49129" lon="2.64228">
        <ele>754.41872867807</ele>
        <time>2016-09-24T13:29:59Z</time>
      </trkpt>
      <trkpt lat="43.49127" lon="2.64229">
        <ele>754.41872867807</ele>
        <time>2016-09-24T13:30:04Z</time>
      </trkpt>
      <trkpt lat="43.49125" lon="2.64228">
        <ele>754.41872867807</ele>
        <time>2016-09-24T13:30:09Z</time>
      </trkpt>
      <trkpt lat="43.49124" lon="2.64227">
        <ele>754.41872867807</ele>
        <time>2016-09-24T13:30:14Z</time>
      </trkpt>
      <trkpt lat="43.4912" lon="2.64225">
        <ele>754.47116155589</ele>
        <time>2016-09-24T13:30:19Z</time>
      </trkpt>
      <trkpt lat="43.49113" lon="2.64221">
        <ele>754.47116155589</ele>
        <time>2016-09-24T13:30:24Z</time>
      </trkpt>
      <trkpt lat="43.49105" lon="2.64218">
        <ele>754.52441583957</ele>
        <time>2016-09-24T13:30:29Z</time>
      </trkpt>
      <trkpt lat="43.491" lon="2.64215">
        <ele>754.52441583957</ele>
        <time>2016-09-24T13:30:34Z</time>
      </trkpt>
      <trkpt lat="43.49097" lon="2.64214">
        <ele>754.52441583957</ele>
        <time>2016-09-24T13:30:39Z</time>
      </trkpt>
      <trkpt lat="43.49089" lon="2.6421">
        <ele>754.56111610343</ele>
        <time>2016-09-24T13:30:44Z</time>
      </trkpt>
      <trkpt lat="43.49078" lon="2.64204">
        <ele>754.60851690562</ele>
        <time>2016-09-24T13:30:49Z</time>
      </trkpt>
      <trkpt lat="43.49071" lon="2.64204">
        <ele>754.60851690562</ele>
        <time>2016-09-24T13:30:54Z</time>
      </trkpt>
      <trkpt lat="43.49066" lon="2.64204">
        <ele>754.61986172619</ele>
        <time>2016-09-24T13:30:59Z</time>
      </trkpt>
      <trkpt lat="43.49061" lon="2.64203">
        <ele>754.61986172619</ele>
        <time>2016-09-24T13:31:04Z</time>
      </trkpt>
      <trkpt lat="43.49055" lon="2.64201">
        <ele>754.59524212933</ele>
        <time>2016-09-24T13:31:09Z</time>
      </trkpt>
      <trkpt lat="43.49051" lon="2.64201">
        <ele>754.59524212933</ele>
        <time>2016-09-24T13:31:14Z</time>
      </trkpt>
      <trkpt lat="43.49048" lon="2.64201">
        <ele>754.59524212933</ele>
        <time>2016-09-24T13:31:19Z</time>
      </trkpt>
      <trkpt lat="43.49045" lon="2.64201">
        <ele>754.50610209725</ele>
        <time>2016-09-24T13:31:24Z</time>
      </trkpt>
      <trkpt lat="43.4904" lon="2.64196">
        <ele>754.50610209725</ele>
        <time>2016-09-24T13:31:29Z</time>
      </trkpt>
      <trkpt lat="43.49036" lon="2.64194">
        <ele>754.38389023782</ele>
        <time>2016-09-24T13:31:34Z</time>
      </trkpt>
      <trkpt lat="43.49027" lon="2.64188">
        <ele>754.25791953166</ele>
        <time>2016-09-24T13:31:39Z</time>
      </trkpt>
      <trkpt lat="43.49021" lon="2.64185">
        <ele>754.25791953166</ele>
        <time>2016-09-24T13:31:44Z</time>
      </trkpt>
      <trkpt lat="43.49014" lon="2.64187">
        <ele>754.08338613156</ele>
        <time>2016-09-24T13:31:49Z</time>
      </trkpt>
      <trkpt lat="43.49007" lon="2.64182">
        <ele>754.08338613156</ele>
        <time>2016-09-24T13:31:54Z</time>
      </trkpt>
      <trkpt lat="43.49002" lon="2.64178">
        <ele>753.86222776077</ele>
        <time>2016-09-24T13:31:59Z</time>
      </trkpt>
      <trkpt lat="43.48996" lon="2.64174">
        <ele>753.86222776077</ele>
        <time>2016-09-24T13:32:04Z</time>
      </trkpt>
      <trkpt lat="43.48993" lon="2.64174">
        <ele>753.86222776077</ele>
        <time>2016-09-24T13:32:09Z</time>
      </trkpt>
      <trkpt lat="43.4899" lon="2.64175">
        <ele>753.50998319154</ele>
        <time>2016-09-24T13:32:14Z</time>
      </trkpt>
      <trkpt lat="43.48991" lon="2.64176">
        <ele>753.50998319154</ele>
        <time>2016-09-24T13:32:19Z</time>
      </trkpt>
      <trkpt lat="43.48997" lon="2.6418">
        <ele>753.50998319154</ele>
        <time>2016-09-24T13:32:24Z</time>
      </trkpt>
      <trkpt lat="43.48998" lon="2.6418">
        <ele>753.50998319154</ele>
        <time>2016-09-24T13:32:29Z</time>
      </trkpt>
      <trkpt lat="43.48999" lon="2.6418">
        <ele>753.07854067966</ele>
        <time>2016-09-24T13:32:34Z</time>
      </trkpt>
      <trkpt lat="43.48999" lon="2.64181">
        <ele>753.07854067966</ele>
        <time>2016-09-24T13:32:39Z</time>
      </trkpt>
      <trkpt lat="43.49" lon="2.64181">
        <ele>753.07854067966</ele>
        <time>2016-09-24T13:32:44Z</time>
      </trkpt>
      <trkpt lat="43.49004" lon="2.64184">
        <ele>753.07854067966</ele>
        <time>2016-09-24T13:32:49Z</time>
      </trkpt>
      <trkpt lat="43.49004" lon="2.64181">
        <ele>753.07854067966</ele>
        <time>2016-09-24T13:32:54Z</time>
      </trkpt>
      <trkpt lat="43.49004" lon="2.6418">
        <ele>752.42892862344</ele>
        <time>2016-09-24T13:32:59Z</time>
      </trkpt>
      <trkpt lat="43.49004" lon="2.6418">
        <ele>752.42892862344</ele>
        <time>2016-09-24T13:33:04Z</time>
      </trkpt>
      <trkpt lat="43.49003" lon="2.64181">
        <ele>752.42892862344</ele>
        <time>2016-09-24T13:33:09Z</time>
      </trkpt>
      <trkpt lat="43.49003" lon="2.6418">
        <ele>752.42892862344</ele>
        <time>2016-09-24T13:33:14Z</time>
      </trkpt>
      <trkpt lat="43.49003" lon="2.6418">
        <ele>752.42892862344</ele>
        <time>2016-09-24T13:33:19Z</time>
      </trkpt>
      <trkpt lat="43.49003" lon="2.6418">
        <ele>752.42892862344</ele>
        <time>2016-09-24T13:33:24Z</time>
      </trkpt>
      <trkpt lat="43.49003" lon="2.6418">
        <ele>752.42892862344</ele>
        <time>2016-09-24T13:33:29Z</time>
      </trkpt>
      <trkpt lat="43.49003" lon="2.6418">
        <ele>752.42892862344</ele>
        <time>2016-09-24T13:33:34Z</time>
      </trkpt>
      <trkpt lat="43.49003" lon="2.6418">
        <ele>752.42892862344</ele>
        <time>2016-09-24T13:33:39Z</time>
      </trkpt>
      <trkpt lat="43.49003" lon="2.64179">
        <ele>752.42892862344</ele>
        <time>2016-09-24T13:33:44Z</time>
      </trkpt>
      <trkpt lat="43.49007" lon="2.6418">
        <ele>752.42892862344</ele>
        <time>2016-09-24T13:33:49Z</time>
      </trkpt>
      <trkpt lat="43.4901" lon="2.64186">
        <ele>751.21689883035</ele>
        <time>2016-09-24T13:33:54Z</time>
      </trkpt>
      <trkpt lat="43.49013" lon="2.64189">
        <ele>751.21689883035</ele>
        <time>2016-09-24T13:33:59Z</time>
      </trkpt>
      <trkpt lat="43.49017" lon="2.64191">
        <ele>751.21689883035</ele>
        <time>2016-09-24T13:34:04Z</time>
      </trkpt>
      <trkpt lat="43.49019" lon="2.64194">
        <ele>749.61510957898</ele>
        <time>2016-09-24T13:34:09Z</time>
      </trkpt>
      <trkpt lat="43.49022" lon="2.64193">
        <ele>749.61510957898</ele>
        <time>2016-09-24T13:34:14Z</time>
      </trkpt>
      <trkpt lat="43.49024" lon="2.64193">
        <ele>749.61510957898</ele>
        <time>2016-09-24T13:34:19Z</time>
      </trkpt>
      <trkpt lat="43.49026" lon="2.64194">
        <ele>749.61510957898</ele>
        <time>2016-09-24T13:34:24Z</time>
      </trkpt>
      <trkpt lat="43.49029" lon="2.642">
        <ele>747.65498222001</ele>
        <time>2016-09-24T13:34:29Z</time>
      </trkpt>
      <trkpt lat="43.49038" lon="2.64208">
        <ele>745.71254356633</ele>
        <time>2016-09-24T13:34:34Z</time>
      </trkpt>
      <trkpt lat="43.49045" lon="2.64217">
        <ele>743.80472109111</ele>
        <time>2016-09-24T13:34:39Z</time>
      </trkpt>
      <trkpt lat="43.49048" lon="2.6422">
        <ele>743.80472109111</ele>
        <time>2016-09-24T13:34:44Z</time>
      </trkpt>
      <trkpt lat="43.49052" lon="2.64226">
        <ele>741.74536125449</ele>
        <time>2016-09-24T13:34:49Z</time>
      </trkpt>
      <trkpt lat="43.49057" lon="2.64235">
        <ele>741.74536125449</ele>
        <time>2016-09-24T13:34:54Z</time>
      </trkpt>
      <trkpt lat="43.4906" lon="2.64243">
        <ele>739.59299020272</ele>
        <time>2016-09-24T13:34:59Z</time>
      </trkpt>
      <trkpt lat="43.49063" lon="2.64251">
        <ele>739.59299020272</ele>
        <time>2016-09-24T13:35:04Z</time>
      </trkpt>
      <trkpt lat="43.49066" lon="2.64255">
        <ele>737.30120706513</ele>
        <time>2016-09-24T13:35:09Z</time>
      </trkpt>
      <trkpt lat="43.4907" lon="2.64262">
        <ele>737.30120706513</ele>
        <time>2016-09-24T13:35:14Z</time>
      </trkpt>
      <trkpt lat="43.49073" lon="2.64269">
        <ele>734.92826505652</ele>
        <time>2016-09-24T13:35:19Z</time>
      </trkpt>
      <trkpt lat="43.49079" lon="2.64274">
        <ele>734.92826505652</ele>
        <time>2016-09-24T13:35:24Z</time>
      </trkpt>
      <trkpt lat="43.49083" lon="2.64279">
        <ele>732.48509661032</ele>
        <time>2016-09-24T13:35:29Z</time>
      </trkpt>
      <trkpt lat="43.49088" lon="2.64285">
        <ele>732.48509661032</ele>
        <time>2016-09-24T13:35:34Z</time>
      </trkpt>
      <trkpt lat="43.49092" lon="2.64291">
        <ele>729.99639119185</ele>
        <time>2016-09-24T13:35:39Z</time>
      </trkpt>
      <trkpt lat="43.49096" lon="2.64298">
        <ele>729.99639119185</ele>
        <time>2016-09-24T13:35:44Z</time>
      </trkpt>
      <trkpt lat="43.49099" lon="2.64301">
        <ele>727.4995038122</ele>
        <time>2016-09-24T13:35:49Z</time>
      </trkpt>
      <trkpt lat="43.49101" lon="2.64309">
        <ele>727.4995038122</ele>
        <time>2016-09-24T13:35:54Z</time>
      </trkpt>
      <trkpt lat="43.49103" lon="2.64315">
        <ele>725.00017555059</ele>
        <time>2016-09-24T13:35:59Z</time>
      </trkpt>
      <trkpt lat="43.4911" lon="2.64322">
        <ele>725.00017555059</ele>
        <time>2016-09-24T13:36:04Z</time>
      </trkpt>
      <trkpt lat="43.49116" lon="2.64326">
        <ele>722.56129650342</ele>
        <time>2016-09-24T13:36:09Z</time>
      </trkpt>
      <trkpt lat="43.4912" lon="2.64329">
        <ele>722.56129650342</ele>
        <time>2016-09-24T13:36:14Z</time>
      </trkpt>
      <trkpt lat="43.49126" lon="2.64334">
        <ele>720.15441113182</ele>
        <time>2016-09-24T13:36:19Z</time>
      </trkpt>
      <trkpt lat="43.49132" lon="2.64341">
        <ele>720.15441113182</ele>
        <time>2016-09-24T13:36:24Z</time>
      </trkpt>
      <trkpt lat="43.49138" lon="2.64346">
        <ele>717.79620059434</ele>
        <time>2016-09-24T13:36:29Z</time>
      </trkpt>
      <trkpt lat="43.49146" lon="2.64348">
        <ele>717.79620059434</ele>
        <time>2016-09-24T13:36:34Z</time>
      </trkpt>
      <trkpt lat="43.4915" lon="2.64351">
        <ele>715.53070267346</ele>
        <time>2016-09-24T13:36:39Z</time>
      </trkpt>
      <trkpt lat="43.49159" lon="2.64355">
        <ele>715.53070267346</ele>
        <time>2016-09-24T13:36:44Z</time>
      </trkpt>
      <trkpt lat="43.49164" lon="2.64357">
        <ele>713.38394022125</ele>
        <time>2016-09-24T13:36:49Z</time>
      </trkpt>
      <trkpt lat="43.49169" lon="2.6436">
        <ele>713.38394022125</ele>
        <time>2016-09-24T13:36:54Z</time>
      </trkpt>
      <trkpt lat="43.49171" lon="2.6436">
        <ele>713.38394022125</ele>
        <time>2016-09-24T13:36:59Z</time>
      </trkpt>
      <trkpt lat="43.49175" lon="2.64363">
        <ele>711.26428989614</ele>
        <time>2016-09-24T13:37:04Z</time>
      </trkpt>
      <trkpt lat="43.49177" lon="2.64366">
        <ele>711.26428989614</ele>
        <time>2016-09-24T13:37:09Z</time>
      </trkpt>
      <trkpt lat="43.49181" lon="2.64369">
        <ele>711.26428989614</ele>
        <time>2016-09-24T13:37:14Z</time>
      </trkpt>
      <trkpt lat="43.49187" lon="2.6437">
        <ele>709.21636787315</ele>
        <time>2016-09-24T13:37:19Z</time>
      </trkpt>
      <trkpt lat="43.49195" lon="2.64374">
        <ele>709.21636787315</ele>
        <time>2016-09-24T13:37:24Z</time>
      </trkpt>
      <trkpt lat="43.49199" lon="2.64378">
        <ele>707.32442871064</ele>
        <time>2016-09-24T13:37:29Z</time>
      </trkpt>
      <trkpt lat="43.49209" lon="2.64384">
        <ele>705.63716176987</ele>
        <time>2016-09-24T13:37:34Z</time>
      </trkpt>
      <trkpt lat="43.49217" lon="2.64391">
        <ele>705.63716176987</ele>
        <time>2016-09-24T13:37:39Z</time>
      </trkpt>
      <trkpt lat="43.49223" lon="2.64396">
        <ele>704.06929090393</ele>
        <time>2016-09-24T13:37:44Z</time>
      </trkpt>
      <trkpt lat="43.49227" lon="2.64398">
        <ele>704.06929090393</ele>
        <time>2016-09-24T13:37:49Z</time>
      </trkpt>
      <trkpt lat="43.49229" lon="2.64399">
        <ele>704.06929090393</ele>
        <time>2016-09-24T13:37:54Z</time>
      </trkpt>
      <trkpt lat="43.49229" lon="2.64398">
        <ele>704.06929090393</ele>
        <time>2016-09-24T13:37:59Z</time>
      </trkpt>
      <trkpt lat="43.49231" lon="2.64395">
        <ele>702.5701798302</ele>
        <time>2016-09-24T13:38:04Z</time>
      </trkpt>
      <trkpt lat="43.49231" lon="2.64393">
        <ele>702.5701798302</ele>
        <time>2016-09-24T13:38:09Z</time>
      </trkpt>
      <trkpt lat="43.49229" lon="2.64392">
        <ele>702.5701798302</ele>
        <time>2016-09-24T13:38:14Z</time>
      </trkpt>
      <trkpt lat="43.49225" lon="2.64391">
        <ele>702.5701798302</ele>
        <time>2016-09-24T13:38:19Z</time>
      </trkpt>
      <trkpt lat="43.49221" lon="2.64393">
        <ele>701.15025584354</ele>
        <time>2016-09-24T13:38:24Z</time>
      </trkpt>
      <trkpt lat="43.49218" lon="2.64394">
        <ele>701.15025584354</ele>
        <time>2016-09-24T13:38:29Z</time>
      </trkpt>
      <trkpt lat="43.49211" lon="2.64397">
        <ele>699.8909111009</ele>
        <time>2016-09-24T13:38:34Z</time>
      </trkpt>
      <trkpt lat="43.49198" lon="2.64402">
        <ele>698.80936722666</ele>
        <time>2016-09-24T13:38:39Z</time>
      </trkpt>
      <trkpt lat="43.49185" lon="2.64407">
        <ele>697.90658126578</ele>
        <time>2016-09-24T13:38:44Z</time>
      </trkpt>
      <trkpt lat="43.49183" lon="2.64405">
        <ele>697.90658126578</ele>
        <time>2016-09-24T13:38:49Z</time>
      </trkpt>
      <trkpt lat="43.49181" lon="2.64403">
        <ele>697.90658126578</ele>
        <time>2016-09-24T13:38:54Z</time>
      </trkpt>
      <trkpt lat="43.49177" lon="2.64404">
        <ele>697.11080126196</ele>
        <time>2016-09-24T13:38:59Z</time>
      </trkpt>
      <trkpt lat="43.49175" lon="2.64405">
        <ele>697.11080126196</ele>
        <time>2016-09-24T13:39:04Z</time>
      </trkpt>
      <trkpt lat="43.49172" lon="2.64407">
        <ele>697.11080126196</ele>
        <time>2016-09-24T13:39:09Z</time>
      </trkpt>
      <trkpt lat="43.49168" lon="2.64412">
        <ele>696.41281759182</ele>
        <time>2016-09-24T13:39:14Z</time>
      </trkpt>
      <trkpt lat="43.49162" lon="2.64413">
        <ele>696.41281759182</ele>
        <time>2016-09-24T13:39:19Z</time>
      </trkpt>
      <trkpt lat="43.49158" lon="2.64418">
        <ele>695.83258178293</ele>
        <time>2016-09-24T13:39:24Z</time>
      </trkpt>
      <trkpt lat="43.4915" lon="2.6442">
        <ele>695.83258178293</ele>
        <time>2016-09-24T13:39:29Z</time>
      </trkpt>
      <trkpt lat="43.49147" lon="2.64423">
        <ele>695.35937392054</ele>
        <time>2016-09-24T13:39:34Z</time>
      </trkpt>
      <trkpt lat="43.49145" lon="2.64421">
        <ele>695.35937392054</ele>
        <time>2016-09-24T13:39:39Z</time>
      </trkpt>
      <trkpt lat="43.49146" lon="2.64416">
        <ele>695.35937392054</ele>
        <time>2016-09-24T13:39:44Z</time>
      </trkpt>
      <trkpt lat="43.49144" lon="2.64418">
        <ele>695.35937392054</ele>
        <time>2016-09-24T13:39:49Z</time>
      </trkpt>
      <trkpt lat="43.49144" lon="2.64419">
        <ele>695.35937392054</ele>
        <time>2016-09-24T13:39:54Z</time>
      </trkpt>
      <trkpt lat="43.49143" lon="2.6442">
        <ele>694.95409607289</ele>
        <time>2016-09-24T13:39:59Z</time>
      </trkpt>
      <trkpt lat="43.49142" lon="2.64421">
        <ele>694.95409607289</ele>
        <time>2016-09-24T13:40:04Z</time>
      </trkpt>
      <trkpt lat="43.49138" lon="2.64421">
        <ele>694.95409607289</ele>
        <time>2016-09-24T13:40:09Z</time>
      </trkpt>
      <trkpt lat="43.49135" lon="2.6442">
        <ele>694.95409607289</ele>
        <time>2016-09-24T13:40:14Z</time>
      </trkpt>
      <trkpt lat="43.49131" lon="2.64422">
        <ele>694.60912145085</ele>
        <time>2016-09-24T13:40:19Z</time>
      </trkpt>
      <trkpt lat="43.49131" lon="2.6442">
        <ele>694.60912145085</ele>
        <time>2016-09-24T13:40:24Z</time>
      </trkpt>
      <trkpt lat="43.4913" lon="2.64421">
        <ele>694.60912145085</ele>
        <time>2016-09-24T13:40:29Z</time>
      </trkpt>
      <trkpt lat="43.49126" lon="2.64418">
        <ele>694.60912145085</ele>
        <time>2016-09-24T13:40:34Z</time>
      </trkpt>
      <trkpt lat="43.4912" lon="2.64416">
        <ele>694.33160323287</ele>
        <time>2016-09-24T13:40:39Z</time>
      </trkpt>
      <trkpt lat="43.49117" lon="2.64415">
        <ele>694.33160323287</ele>
        <time>2016-09-24T13:40:44Z</time>
      </trkpt>
      <trkpt lat="43.49111" lon="2.64414">
        <ele>694.14237909158</ele>
        <time>2016-09-24T13:40:49Z</time>
      </trkpt>
      <trkpt lat="43.49102" lon="2.64413">
        <ele>694.14237909158</ele>
        <time>2016-09-24T13:40:54Z</time>
      </trkpt>
      <trkpt lat="43.49091" lon="2.64411">
        <ele>694.03168430964</ele>
        <time>2016-09-24T13:40:59Z</time>
      </trkpt>
      <trkpt lat="43.49086" lon="2.64408">
        <ele>694.03168430964</ele>
        <time>2016-09-24T13:41:04Z</time>
      </trkpt>
      <trkpt lat="43.49081" lon="2.64408">
        <ele>693.99025946901</ele>
        <time>2016-09-24T13:41:09Z</time>
      </trkpt>
      <trkpt lat="43.49081" lon="2.64407">
        <ele>693.99025946901</ele>
        <time>2016-09-24T13:41:14Z</time>
      </trkpt>
      <trkpt lat="43.4908" lon="2.64406">
        <ele>693.99025946901</ele>
        <time>2016-09-24T13:41:19Z</time>
      </trkpt>
      <trkpt lat="43.49077" lon="2.64407">
        <ele>693.99025946901</ele>
        <time>2016-09-24T13:41:24Z</time>
      </trkpt>
      <trkpt lat="43.49073" lon="2.64406">
        <ele>693.93729346588</ele>
        <time>2016-09-24T13:41:29Z</time>
      </trkpt>
      <trkpt lat="43.49072" lon="2.64406">
        <ele>693.93729346588</ele>
        <time>2016-09-24T13:41:34Z</time>
      </trkpt>
      <trkpt lat="43.49069" lon="2.64405">
        <ele>693.93729346588</ele>
        <time>2016-09-24T13:41:39Z</time>
      </trkpt>
      <trkpt lat="43.49064" lon="2.64403">
        <ele>693.89884912733</ele>
        <time>2016-09-24T13:41:44Z</time>
      </trkpt>
      <trkpt lat="43.49058" lon="2.64405">
        <ele>693.89884912733</ele>
        <time>2016-09-24T13:41:49Z</time>
      </trkpt>
      <trkpt lat="43.4905" lon="2.64406">
        <ele>693.89907026784</ele>
        <time>2016-09-24T13:41:54Z</time>
      </trkpt>
      <trkpt lat="43.49044" lon="2.64407">
        <ele>693.89907026784</ele>
        <time>2016-09-24T13:41:59Z</time>
      </trkpt>
      <trkpt lat="43.4904" lon="2.6441">
        <ele>693.93144099977</ele>
        <time>2016-09-24T13:42:04Z</time>
      </trkpt>
      <trkpt lat="43.49033" lon="2.6441">
        <ele>693.93144099977</ele>
        <time>2016-09-24T13:42:09Z</time>
      </trkpt>
      <trkpt lat="43.49027" lon="2.64413">
        <ele>693.97547506536</ele>
        <time>2016-09-24T13:42:14Z</time>
      </trkpt>
      <trkpt lat="43.49024" lon="2.64413">
        <ele>693.97547506536</ele>
        <time>2016-09-24T13:42:19Z</time>
      </trkpt>
      <trkpt lat="43.49017" lon="2.64418">
        <ele>694.05545121758</ele>
        <time>2016-09-24T13:42:24Z</time>
      </trkpt>
      <trkpt lat="43.49001" lon="2.64424">
        <ele>694.16500781748</ele>
        <time>2016-09-24T13:42:29Z</time>
      </trkpt>
      <trkpt lat="43.48993" lon="2.64429">
        <ele>694.16500781748</ele>
        <time>2016-09-24T13:42:34Z</time>
      </trkpt>
      <trkpt lat="43.48987" lon="2.6443">
        <ele>694.28382880885</ele>
        <time>2016-09-24T13:42:39Z</time>
      </trkpt>
      <trkpt lat="43.48983" lon="2.64431">
        <ele>694.28382880885</ele>
        <time>2016-09-24T13:42:44Z</time>
      </trkpt>
      <trkpt lat="43.48977" lon="2.64436">
        <ele>694.40755369242</ele>
        <time>2016-09-24T13:42:49Z</time>
      </trkpt>
      <trkpt lat="43.48973" lon="2.64441">
        <ele>694.40755369242</ele>
        <time>2016-09-24T13:42:54Z</time>
      </trkpt>
      <trkpt lat="43.48967" lon="2.64447">
        <ele>694.54662282965</ele>
        <time>2016-09-24T13:42:59Z</time>
      </trkpt>
      <trkpt lat="43.48962" lon="2.6445">
        <ele>694.54662282965</ele>
        <time>2016-09-24T13:43:04Z</time>
      </trkpt>
      <trkpt lat="43.48958" lon="2.64453">
        <ele>694.68193213687</ele>
        <time>2016-09-24T13:43:09Z</time>
      </trkpt>
      <trkpt lat="43.48956" lon="2.64461">
        <ele>694.68193213687</ele>
        <time>2016-09-24T13:43:14Z</time>
      </trkpt>
      <trkpt lat="43.48953" lon="2.64468">
        <ele>694.8247055028</ele>
        <time>2016-09-24T13:43:19Z</time>
      </trkpt>
      <trkpt lat="43.4895" lon="2.64472">
        <ele>694.8247055028</ele>
        <time>2016-09-24T13:43:24Z</time>
      </trkpt>
      <trkpt lat="43.48947" lon="2.64478">
        <ele>694.97100557778</ele>
        <time>2016-09-24T13:43:29Z</time>
      </trkpt>
      <trkpt lat="43.48943" lon="2.64485">
        <ele>694.97100557778</ele>
        <time>2016-09-24T13:43:34Z</time>
      </trkpt>
      <trkpt lat="43.48938" lon="2.64487">
        <ele>695.11727264991</ele>
        <time>2016-09-24T13:43:39Z</time>
      </trkpt>
      <trkpt lat="43.48934" lon="2.64493">
        <ele>695.11727264991</ele>
        <time>2016-09-24T13:43:44Z</time>
      </trkpt>
      <trkpt lat="43.48931" lon="2.64497">
        <ele>695.26030935532</ele>
        <time>2016-09-24T13:43:49Z</time>
      </trkpt>
      <trkpt lat="43.48926" lon="2.645">
        <ele>695.26030935532</ele>
        <time>2016-09-24T13:43:54Z</time>
      </trkpt>
      <trkpt lat="43.48922" lon="2.64505">
        <ele>695.39726500441</ele>
        <time>2016-09-24T13:43:59Z</time>
      </trkpt>
      <trkpt lat="43.48919" lon="2.64507">
        <ele>695.39726500441</ele>
        <time>2016-09-24T13:44:04Z</time>
      </trkpt>
      <trkpt lat="43.48916" lon="2.64508">
        <ele>695.39726500441</ele>
        <time>2016-09-24T13:44:09Z</time>
      </trkpt>
      <trkpt lat="43.48911" lon="2.64513">
        <ele>695.48238617527</ele>
        <time>2016-09-24T13:44:14Z</time>
      </trkpt>
      <trkpt lat="43.48906" lon="2.64515">
        <ele>695.48238617527</ele>
        <time>2016-09-24T13:44:19Z</time>
      </trkpt>
      <trkpt lat="43.489" lon="2.64515">
        <ele>695.54558647157</ele>
        <time>2016-09-24T13:44:24Z</time>
      </trkpt>
      <trkpt lat="43.48894" lon="2.6452">
        <ele>695.54558647157</ele>
        <time>2016-09-24T13:44:29Z</time>
      </trkpt>
      <trkpt lat="43.4889" lon="2.64527">
        <ele>695.57151547998</ele>
        <time>2016-09-24T13:44:34Z</time>
      </trkpt>
      <trkpt lat="43.48887" lon="2.6453">
        <ele>695.57151547998</ele>
        <time>2016-09-24T13:44:39Z</time>
      </trkpt>
      <trkpt lat="43.48882" lon="2.64534">
        <ele>695.57498216196</ele>
        <time>2016-09-24T13:44:44Z</time>
      </trkpt>
      <trkpt lat="43.48877" lon="2.64536">
        <ele>695.57498216196</ele>
        <time>2016-09-24T13:44:49Z</time>
      </trkpt>
      <trkpt lat="43.4887" lon="2.64539">
        <ele>695.54105245272</ele>
        <time>2016-09-24T13:44:54Z</time>
      </trkpt>
      <trkpt lat="43.48867" lon="2.64543">
        <ele>695.54105245272</ele>
        <time>2016-09-24T13:44:59Z</time>
      </trkpt>
      <trkpt lat="43.48859" lon="2.64544">
        <ele>695.45609685789</ele>
        <time>2016-09-24T13:45:04Z</time>
      </trkpt>
      <trkpt lat="43.48853" lon="2.64547">
        <ele>695.45609685789</ele>
        <time>2016-09-24T13:45:09Z</time>
      </trkpt>
      <trkpt lat="43.48844" lon="2.6455">
        <ele>695.30773086691</ele>
        <time>2016-09-24T13:45:14Z</time>
      </trkpt>
      <trkpt lat="43.4884" lon="2.64551">
        <ele>695.30773086691</ele>
        <time>2016-09-24T13:45:19Z</time>
      </trkpt>
      <trkpt lat="43.48832" lon="2.64554">
        <ele>695.09916681505</ele>
        <time>2016-09-24T13:45:24Z</time>
      </trkpt>
      <trkpt lat="43.48829" lon="2.64554">
        <ele>695.09916681505</ele>
        <time>2016-09-24T13:45:29Z</time>
      </trkpt>
      <trkpt lat="43.48825" lon="2.64553">
        <ele>695.09916681505</ele>
        <time>2016-09-24T13:45:34Z</time>
      </trkpt>
      <trkpt lat="43.4882" lon="2.64552">
        <ele>694.77600034639</ele>
        <time>2016-09-24T13:45:39Z</time>
      </trkpt>
      <trkpt lat="43.48816" lon="2.6455">
        <ele>694.77600034639</ele>
        <time>2016-09-24T13:45:44Z</time>
      </trkpt>
      <trkpt lat="43.48813" lon="2.6455">
        <ele>694.77600034639</ele>
        <time>2016-09-24T13:45:49Z</time>
      </trkpt>
      <trkpt lat="43.48808" lon="2.64549">
        <ele>694.36029168838</ele>
        <time>2016-09-24T13:45:54Z</time>
      </trkpt>
      <trkpt lat="43.48802" lon="2.64547">
        <ele>694.36029168838</ele>
        <time>2016-09-24T13:45:59Z</time>
      </trkpt>
      <trkpt lat="43.48798" lon="2.64546">
        <ele>693.90164886926</ele>
        <time>2016-09-24T13:46:04Z</time>
      </trkpt>
      <trkpt lat="43.48795" lon="2.64544">
        <ele>693.90164886926</ele>
        <time>2016-09-24T13:46:09Z</time>
      </trkpt>
      <trkpt lat="43.48788" lon="2.64539">
        <ele>693.40300427458</ele>
        <time>2016-09-24T13:46:14Z</time>
      </trkpt>
      <trkpt lat="43.48781" lon="2.64534">
        <ele>693.40300427458</ele>
        <time>2016-09-24T13:46:19Z</time>
      </trkpt>
      <trkpt lat="43.48776" lon="2.64527">
        <ele>692.85285193666</ele>
        <time>2016-09-24T13:46:24Z</time>
      </trkpt>
      <trkpt lat="43.48773" lon="2.64522">
        <ele>692.85285193666</ele>
        <time>2016-09-24T13:46:29Z</time>
      </trkpt>
      <trkpt lat="43.4877" lon="2.64518">
        <ele>692.85285193666</ele>
        <time>2016-09-24T13:46:34Z</time>
      </trkpt>
      <trkpt lat="43.48766" lon="2.64515">
        <ele>692.21192351327</ele>
        <time>2016-09-24T13:46:39Z</time>
      </trkpt>
      <trkpt lat="43.48761" lon="2.64511">
        <ele>692.21192351327</ele>
        <time>2016-09-24T13:46:44Z</time>
      </trkpt>
      <trkpt lat="43.48755" lon="2.64506">
        <ele>691.54503190949</ele>
        <time>2016-09-24T13:46:49Z</time>
      </trkpt>
      <trkpt lat="43.48749" lon="2.64506">
        <ele>691.54503190949</ele>
        <time>2016-09-24T13:46:54Z</time>
      </trkpt>
      <trkpt lat="43.48744" lon="2.64505">
        <ele>690.86912641839</ele>
        <time>2016-09-24T13:46:59Z</time>
      </trkpt>
      <trkpt lat="43.48736" lon="2.64505">
        <ele>690.86912641839</ele>
        <time>2016-09-24T13:47:04Z</time>
      </trkpt>
      <trkpt lat="43.48732" lon="2.64508">
        <ele>690.18557727496</ele>
        <time>2016-09-24T13:47:09Z</time>
      </trkpt>
      <trkpt lat="43.48726" lon="2.64509">
        <ele>690.18557727496</ele>
        <time>2016-09-24T13:47:14Z</time>
      </trkpt>
      <trkpt lat="43.48721" lon="2.6451">
        <ele>689.48131014948</ele>
        <time>2016-09-24T13:47:19Z</time>
      </trkpt>
      <trkpt lat="43.48712" lon="2.64518">
        <ele>688.80195367875</ele>
        <time>2016-09-24T13:47:24Z</time>
      </trkpt>
      <trkpt lat="43.48707" lon="2.6452">
        <ele>688.80195367875</ele>
        <time>2016-09-24T13:47:29Z</time>
      </trkpt>
      <trkpt lat="43.48699" lon="2.64526">
        <ele>688.11769358795</ele>
        <time>2016-09-24T13:47:34Z</time>
      </trkpt>
      <trkpt lat="43.48694" lon="2.64529">
        <ele>688.11769358795</ele>
        <time>2016-09-24T13:47:39Z</time>
      </trkpt>
      <trkpt lat="43.48691" lon="2.64538">
        <ele>687.44418204276</ele>
        <time>2016-09-24T13:47:44Z</time>
      </trkpt>
      <trkpt lat="43.48686" lon="2.64543">
        <ele>687.44418204276</ele>
        <time>2016-09-24T13:47:49Z</time>
      </trkpt>
      <trkpt lat="43.48684" lon="2.64547">
        <ele>686.76709333676</ele>
        <time>2016-09-24T13:47:54Z</time>
      </trkpt>
      <trkpt lat="43.48681" lon="2.6455">
        <ele>686.76709333676</ele>
        <time>2016-09-24T13:47:59Z</time>
      </trkpt>
      <trkpt lat="43.48674" lon="2.64557">
        <ele>686.10200618141</ele>
        <time>2016-09-24T13:48:04Z</time>
      </trkpt>
      <trkpt lat="43.48669" lon="2.64562">
        <ele>686.10200618141</ele>
        <time>2016-09-24T13:48:09Z</time>
      </trkpt>
      <trkpt lat="43.48666" lon="2.64566">
        <ele>685.44892570016</ele>
        <time>2016-09-24T13:48:14Z</time>
      </trkpt>
      <trkpt lat="43.48661" lon="2.64572">
        <ele>685.44892570016</ele>
        <time>2016-09-24T13:48:19Z</time>
      </trkpt>
      <trkpt lat="43.48658" lon="2.64581">
        <ele>684.79342356511</ele>
        <time>2016-09-24T13:48:24Z</time>
      </trkpt>
      <trkpt lat="43.48657" lon="2.64588">
        <ele>684.79342356511</ele>
        <time>2016-09-24T13:48:29Z</time>
      </trkpt>
      <trkpt lat="43.48655" lon="2.64596">
        <ele>684.15096854319</ele>
        <time>2016-09-24T13:48:34Z</time>
      </trkpt>
      <trkpt lat="43.48652" lon="2.64602">
        <ele>684.15096854319</ele>
        <time>2016-09-24T13:48:39Z</time>
      </trkpt>
      <trkpt lat="43.48647" lon="2.64612">
        <ele>683.50703915612</ele>
        <time>2016-09-24T13:48:44Z</time>
      </trkpt>
      <trkpt lat="43.48645" lon="2.64619">
        <ele>683.50703915612</ele>
        <time>2016-09-24T13:48:49Z</time>
      </trkpt>
      <trkpt lat="43.48642" lon="2.64626">
        <ele>682.87700898772</ele>
        <time>2016-09-24T13:48:54Z</time>
      </trkpt>
      <trkpt lat="43.4864" lon="2.64628">
        <ele>682.87700898772</ele>
        <time>2016-09-24T13:48:59Z</time>
      </trkpt>
      <trkpt lat="43.48638" lon="2.64631">
        <ele>682.87700898772</ele>
        <time>2016-09-24T13:49:04Z</time>
      </trkpt>
      <trkpt lat="43.48635" lon="2.64635">
        <ele>682.24626031119</ele>
        <time>2016-09-24T13:49:09Z</time>
      </trkpt>
      <trkpt lat="43.48633" lon="2.64642">
        <ele>682.24626031119</ele>
        <time>2016-09-24T13:49:14Z</time>
      </trkpt>
      <trkpt lat="43.48632" lon="2.64648">
        <ele>681.6156591363</ele>
        <time>2016-09-24T13:49:19Z</time>
      </trkpt>
      <trkpt lat="43.48628" lon="2.64651">
        <ele>681.6156591363</ele>
        <time>2016-09-24T13:49:24Z</time>
      </trkpt>
      <trkpt lat="43.48624" lon="2.64655">
        <ele>681.00041314794</ele>
        <time>2016-09-24T13:49:29Z</time>
      </trkpt>
      <trkpt lat="43.48622" lon="2.64663">
        <ele>681.00041314794</ele>
        <time>2016-09-24T13:49:34Z</time>
      </trkpt>
      <trkpt lat="43.48622" lon="2.64669">
        <ele>680.41456246452</ele>
        <time>2016-09-24T13:49:39Z</time>
      </trkpt>
      <trkpt lat="43.48621" lon="2.64674">
        <ele>680.41456246452</ele>
        <time>2016-09-24T13:49:44Z</time>
      </trkpt>
      <trkpt lat="43.48622" lon="2.64681">
        <ele>680.41456246452</ele>
        <time>2016-09-24T13:49:49Z</time>
      </trkpt>
      <trkpt lat="43.48624" lon="2.64688">
        <ele>679.82779097657</ele>
        <time>2016-09-24T13:49:54Z</time>
      </trkpt>
      <trkpt lat="43.48624" lon="2.64694">
        <ele>679.82779097657</ele>
        <time>2016-09-24T13:49:59Z</time>
      </trkpt>
      <trkpt lat="43.48623" lon="2.64705">
        <ele>679.26964619406</ele>
        <time>2016-09-24T13:50:04Z</time>
      </trkpt>
      <trkpt lat="43.48624" lon="2.64712">
        <ele>679.26964619406</ele>
        <time>2016-09-24T13:50:09Z</time>
      </trkpt>
      <trkpt lat="43.48625" lon="2.64718">
        <ele>678.73859101468</ele>
        <time>2016-09-24T13:50:14Z</time>
      </trkpt>
      <trkpt lat="43.48623" lon="2.64727">
        <ele>678.73859101468</ele>
        <time>2016-09-24T13:50:19Z</time>
      </trkpt>
      <trkpt lat="43.48622" lon="2.64731">
        <ele>678.23311292668</ele>
        <time>2016-09-24T13:50:24Z</time>
      </trkpt>
      <trkpt lat="43.48619" lon="2.64736">
        <ele>678.23311292668</ele>
        <time>2016-09-24T13:50:29Z</time>
      </trkpt>
      <trkpt lat="43.48615" lon="2.6474">
        <ele>677.75172593181</ele>
        <time>2016-09-24T13:50:34Z</time>
      </trkpt>
      <trkpt lat="43.48612" lon="2.64744">
        <ele>677.75172593181</ele>
        <time>2016-09-24T13:50:39Z</time>
      </trkpt>
      <trkpt lat="43.48609" lon="2.6475">
        <ele>677.2929725477</ele>
        <time>2016-09-24T13:50:44Z</time>
      </trkpt>
      <trkpt lat="43.48605" lon="2.64754">
        <ele>677.2929725477</ele>
        <time>2016-09-24T13:50:49Z</time>
      </trkpt>
      <trkpt lat="43.48601" lon="2.64758">
        <ele>676.8554258441</ele>
        <time>2016-09-24T13:50:54Z</time>
      </trkpt>
      <trkpt lat="43.48598" lon="2.64764">
        <ele>676.8554258441</ele>
        <time>2016-09-24T13:50:59Z</time>
      </trkpt>
      <trkpt lat="43.48595" lon="2.64769">
        <ele>676.42328033039</ele>
        <time>2016-09-24T13:51:04Z</time>
      </trkpt>
      <trkpt lat="43.48593" lon="2.6477">
        <ele>676.42328033039</ele>
        <time>2016-09-24T13:51:09Z</time>
      </trkpt>
      <trkpt lat="43.48587" lon="2.64771">
        <ele>676.42328033039</ele>
        <time>2016-09-24T13:51:14Z</time>
      </trkpt>
      <trkpt lat="43.48583" lon="2.64767">
        <ele>675.99627517172</ele>
        <time>2016-09-24T13:51:19Z</time>
      </trkpt>
      <trkpt lat="43.4858" lon="2.64765">
        <ele>675.99627517172</ele>
        <time>2016-09-24T13:51:24Z</time>
      </trkpt>
      <trkpt lat="43.48577" lon="2.64766">
        <ele>675.99627517172</ele>
        <time>2016-09-24T13:51:29Z</time>
      </trkpt>
      <trkpt lat="43.48573" lon="2.64767">
        <ele>675.55973127047</ele>
        <time>2016-09-24T13:51:34Z</time>
      </trkpt>
      <trkpt lat="43.48567" lon="2.64762">
        <ele>675.55973127047</ele>
        <time>2016-09-24T13:51:39Z</time>
      </trkpt>
      <trkpt lat="43.48565" lon="2.6476">
        <ele>675.15770776657</ele>
        <time>2016-09-24T13:51:44Z</time>
      </trkpt>
      <trkpt lat="43.48562" lon="2.64758">
        <ele>675.15770776657</ele>
        <time>2016-09-24T13:51:49Z</time>
      </trkpt>
      <trkpt lat="43.48559" lon="2.64758">
        <ele>675.15770776657</ele>
        <time>2016-09-24T13:51:54Z</time>
      </trkpt>
      <trkpt lat="43.48551" lon="2.64762">
        <ele>674.74445299103</ele>
        <time>2016-09-24T13:51:59Z</time>
      </trkpt>
      <trkpt lat="43.48545" lon="2.64771">
        <ele>674.37847548718</ele>
        <time>2016-09-24T13:52:04Z</time>
      </trkpt>
      <trkpt lat="43.48527" lon="2.64789">
        <ele>674.04178841502</ele>
        <time>2016-09-24T13:52:09Z</time>
      </trkpt>
      <trkpt lat="43.4852" lon="2.64796">
        <ele>673.74645816126</ele>
        <time>2016-09-24T13:52:14Z</time>
      </trkpt>
      <trkpt lat="43.48515" lon="2.64804">
        <ele>673.74645816126</ele>
        <time>2016-09-24T13:52:19Z</time>
      </trkpt>
      <trkpt lat="43.4851" lon="2.64806">
        <ele>673.46030839996</ele>
        <time>2016-09-24T13:52:24Z</time>
      </trkpt>
      <trkpt lat="43.48508" lon="2.64805">
        <ele>673.46030839996</ele>
        <time>2016-09-24T13:52:29Z</time>
      </trkpt>
      <trkpt lat="43.485" lon="2.64806">
        <ele>673.16790619256</ele>
        <time>2016-09-24T13:52:34Z</time>
      </trkpt>
      <trkpt lat="43.48497" lon="2.64809">
        <ele>673.16790619256</ele>
        <time>2016-09-24T13:52:39Z</time>
      </trkpt>
      <trkpt lat="43.48493" lon="2.64812">
        <ele>673.16790619256</ele>
        <time>2016-09-24T13:52:44Z</time>
      </trkpt>
      <trkpt lat="43.48489" lon="2.64815">
        <ele>672.82614326116</ele>
        <time>2016-09-24T13:52:49Z</time>
      </trkpt>
      <trkpt lat="43.48486" lon="2.64816">
        <ele>672.82614326116</ele>
        <time>2016-09-24T13:52:54Z</time>
      </trkpt>
      <trkpt lat="43.48484" lon="2.64819">
        <ele>672.82614326116</ele>
        <time>2016-09-24T13:52:59Z</time>
      </trkpt>
      <trkpt lat="43.48482" lon="2.6482">
        <ele>672.82614326116</ele>
        <time>2016-09-24T13:53:04Z</time>
      </trkpt>
      <trkpt lat="43.48476" lon="2.64819">
        <ele>672.4096243529</ele>
        <time>2016-09-24T13:53:09Z</time>
      </trkpt>
      <trkpt lat="43.48468" lon="2.64823">
        <ele>672.4096243529</ele>
        <time>2016-09-24T13:53:14Z</time>
      </trkpt>
      <trkpt lat="43.48459" lon="2.64826">
        <ele>671.96708250957</ele>
        <time>2016-09-24T13:53:19Z</time>
      </trkpt>
      <trkpt lat="43.48451" lon="2.64831">
        <ele>671.96708250957</ele>
        <time>2016-09-24T13:53:24Z</time>
      </trkpt>
      <trkpt lat="43.48445" lon="2.64834">
        <ele>671.47168608271</ele>
        <time>2016-09-24T13:53:29Z</time>
      </trkpt>
      <trkpt lat="43.4844" lon="2.64835">
        <ele>671.47168608271</ele>
        <time>2016-09-24T13:53:34Z</time>
      </trkpt>
      <trkpt lat="43.48433" lon="2.64836">
        <ele>670.91313148756</ele>
        <time>2016-09-24T13:53:39Z</time>
      </trkpt>
      <trkpt lat="43.48433" lon="2.64834">
        <ele>670.91313148756</ele>
        <time>2016-09-24T13:53:44Z</time>
      </trkpt>
      <trkpt lat="43.48429" lon="2.64835">
        <ele>670.91313148756</ele>
        <time>2016-09-24T13:53:49Z</time>
      </trkpt>
      <trkpt lat="43.48426" lon="2.64834">
        <ele>670.91313148756</ele>
        <time>2016-09-24T13:53:54Z</time>
      </trkpt>
      <trkpt lat="43.48422" lon="2.64832">
        <ele>670.1235236819</ele>
        <time>2016-09-24T13:53:59Z</time>
      </trkpt>
      <trkpt lat="43.48416" lon="2.64829">
        <ele>670.1235236819</ele>
        <time>2016-09-24T13:54:04Z</time>
      </trkpt>
      <trkpt lat="43.4841" lon="2.64828">
        <ele>669.2649890792</ele>
        <time>2016-09-24T13:54:09Z</time>
      </trkpt>
      <trkpt lat="43.48402" lon="2.64826">
        <ele>669.2649890792</ele>
        <time>2016-09-24T13:54:14Z</time>
      </trkpt>
      <trkpt lat="43.48397" lon="2.64828">
        <ele>668.30058614369</ele>
        <time>2016-09-24T13:54:19Z</time>
      </trkpt>
      <trkpt lat="43.48389" lon="2.64825">
        <ele>668.30058614369</ele>
        <time>2016-09-24T13:54:24Z</time>
      </trkpt>
      <trkpt lat="43.48387" lon="2.64822">
        <ele>667.26842945985</ele>
        <time>2016-09-24T13:54:29Z</time>
      </trkpt>
      <trkpt lat="43.48382" lon="2.64823">
        <ele>667.26842945985</ele>
        <time>2016-09-24T13:54:34Z</time>
      </trkpt>
      <trkpt lat="43.48378" lon="2.6482">
        <ele>666.10313202878</ele>
        <time>2016-09-24T13:54:39Z</time>
      </trkpt>
      <trkpt lat="43.48374" lon="2.64818">
        <ele>666.10313202878</ele>
        <time>2016-09-24T13:54:44Z</time>
      </trkpt>
      <trkpt lat="43.48371" lon="2.64817">
        <ele>666.10313202878</ele>
        <time>2016-09-24T13:54:49Z</time>
      </trkpt>
      <trkpt lat="43.48367" lon="2.64813">
        <ele>664.70123182542</ele>
        <time>2016-09-24T13:54:54Z</time>
      </trkpt>
      <trkpt lat="43.4836" lon="2.64805">
        <ele>664.70123182542</ele>
        <time>2016-09-24T13:54:59Z</time>
      </trkpt>
      <trkpt lat="43.48355" lon="2.64799">
        <ele>663.18367393237</ele>
        <time>2016-09-24T13:55:04Z</time>
      </trkpt>
      <trkpt lat="43.48351" lon="2.64796">
        <ele>663.18367393237</ele>
        <time>2016-09-24T13:55:09Z</time>
      </trkpt>
      <trkpt lat="43.48348" lon="2.64794">
        <ele>663.18367393237</ele>
        <time>2016-09-24T13:55:14Z</time>
      </trkpt>
      <trkpt lat="43.48342" lon="2.64791">
        <ele>661.38900228143</ele>
        <time>2016-09-24T13:55:19Z</time>
      </trkpt>
      <trkpt lat="43.48336" lon="2.64786">
        <ele>661.38900228143</ele>
        <time>2016-09-24T13:55:24Z</time>
      </trkpt>
      <trkpt lat="43.48331" lon="2.6478">
        <ele>659.44217288505</ele>
        <time>2016-09-24T13:55:29Z</time>
      </trkpt>
      <trkpt lat="43.48328" lon="2.64776">
        <ele>659.44217288505</ele>
        <time>2016-09-24T13:55:34Z</time>
      </trkpt>
      <trkpt lat="43.48326" lon="2.64774">
        <ele>659.44217288505</ele>
        <time>2016-09-24T13:55:39Z</time>
      </trkpt>
      <trkpt lat="43.48323" lon="2.64771">
        <ele>657.24317740579</ele>
        <time>2016-09-24T13:55:44Z</time>
      </trkpt>
      <trkpt lat="43.48321" lon="2.64772">
        <ele>657.24317740579</ele>
        <time>2016-09-24T13:55:49Z</time>
      </trkpt>
      <trkpt lat="43.48316" lon="2.64771">
        <ele>657.24317740579</ele>
        <time>2016-09-24T13:55:54Z</time>
      </trkpt>
      <trkpt lat="43.48311" lon="2.6477">
        <ele>654.93058502014</ele>
        <time>2016-09-24T13:55:59Z</time>
      </trkpt>
      <trkpt lat="43.4831" lon="2.6477">
        <ele>654.93058502014</ele>
        <time>2016-09-24T13:56:04Z</time>
      </trkpt>
      <trkpt lat="43.48308" lon="2.64769">
        <ele>654.93058502014</ele>
        <time>2016-09-24T13:56:09Z</time>
      </trkpt>
      <trkpt lat="43.48306" lon="2.6477">
        <ele>654.93058502014</ele>
        <time>2016-09-24T13:56:14Z</time>
      </trkpt>
      <trkpt lat="43.48306" lon="2.64772">
        <ele>654.93058502014</ele>
        <time>2016-09-24T13:56:19Z</time>
      </trkpt>
      <trkpt lat="43.48306" lon="2.64775">
        <ele>654.93058502014</ele>
        <time>2016-09-24T13:56:24Z</time>
      </trkpt>
      <trkpt lat="43.48306" lon="2.64776">
        <ele>652.08541715175</ele>
        <time>2016-09-24T13:56:29Z</time>
      </trkpt>
      <trkpt lat="43.48307" lon="2.64778">
        <ele>652.08541715175</ele>
        <time>2016-09-24T13:56:34Z</time>
      </trkpt>
      <trkpt lat="43.48307" lon="2.64778">
        <ele>652.08541715175</ele>
        <time>2016-09-24T13:56:39Z</time>
      </trkpt>
      <trkpt lat="43.48306" lon="2.64778">
        <ele>652.08541715175</ele>
        <time>2016-09-24T13:56:44Z</time>
      </trkpt>
      <trkpt lat="43.48305" lon="2.6478">
        <ele>652.08541715175</ele>
        <time>2016-09-24T13:56:49Z</time>
      </trkpt>
      <trkpt lat="43.48305" lon="2.64779">
        <ele>652.08541715175</ele>
        <time>2016-09-24T13:56:54Z</time>
      </trkpt>
      <trkpt lat="43.48304" lon="2.64779">
        <ele>652.08541715175</ele>
        <time>2016-09-24T13:56:59Z</time>
      </trkpt>
      <trkpt lat="43.48304" lon="2.6478">
        <ele>652.08541715175</ele>
        <time>2016-09-24T13:57:04Z</time>
      </trkpt>
      <trkpt lat="43.48304" lon="2.6478">
        <ele>652.08541715175</ele>
        <time>2016-09-24T13:57:09Z</time>
      </trkpt>
      <trkpt lat="43.48307" lon="2.64779">
        <ele>652.08541715175</ele>
        <time>2016-09-24T13:57:14Z</time>
      </trkpt>
      <trkpt lat="43.48307" lon="2.64779">
        <ele>652.08541715175</ele>
        <time>2016-09-24T13:57:19Z</time>
      </trkpt>
      <trkpt lat="43.48307" lon="2.64779">
        <ele>652.08541715175</ele>
        <time>2016-09-24T13:57:24Z</time>
      </trkpt>
      <trkpt lat="43.48307" lon="2.64779">
        <ele>652.08541715175</ele>
        <time>2016-09-24T13:57:29Z</time>
      </trkpt>
      <trkpt lat="43.48307" lon="2.6478">
        <ele>652.08541715175</ele>
        <time>2016-09-24T13:57:34Z</time>
      </trkpt>
      <trkpt lat="43.48307" lon="2.6478">
        <ele>652.08541715175</ele>
        <time>2016-09-24T13:57:39Z</time>
      </trkpt>
      <trkpt lat="43.48307" lon="2.6478">
        <ele>652.08541715175</ele>
        <time>2016-09-24T13:57:44Z</time>
      </trkpt>
      <trkpt lat="43.48307" lon="2.6478">
        <ele>648.34971193879</ele>
        <time>2016-09-24T13:57:49Z</time>
      </trkpt>
      <trkpt lat="43.48307" lon="2.6478">
        <ele>648.34971193879</ele>
        <time>2016-09-24T13:57:54Z</time>
      </trkpt>
      <trkpt lat="43.48308" lon="2.64781">
        <ele>648.34971193879</ele>
        <time>2016-09-24T13:57:59Z</time>
      </trkpt>
      <trkpt lat="43.48308" lon="2.64781">
        <ele>648.34971193879</ele>
        <time>2016-09-24T13:58:04Z</time>
      </trkpt>
      <trkpt lat="43.48308" lon="2.64782">
        <ele>648.34971193879</ele>
        <time>2016-09-24T13:58:09Z</time>
      </trkpt>
      <trkpt lat="43.48309" lon="2.64782">
        <ele>648.34971193879</ele>
        <time>2016-09-24T13:58:14Z</time>
      </trkpt>
      <trkpt lat="43.48308" lon="2.64783">
        <ele>648.34971193879</ele>
        <time>2016-09-24T13:58:19Z</time>
      </trkpt>
      <trkpt lat="43.48308" lon="2.64783">
        <ele>648.34971193879</ele>
        <time>2016-09-24T13:58:24Z</time>
      </trkpt>
      <trkpt lat="43.48308" lon="2.64783">
        <ele>648.34971193879</ele>
        <time>2016-09-24T13:58:29Z</time>
      </trkpt>
      <trkpt lat="43.48308" lon="2.64783">
        <ele>648.34971193879</ele>
        <time>2016-09-24T13:58:34Z</time>
      </trkpt>
      <trkpt lat="43.48308" lon="2.64783">
        <ele>648.34971193879</ele>
        <time>2016-09-24T13:58:39Z</time>
      </trkpt>
      <trkpt lat="43.48308" lon="2.64783">
        <ele>648.34971193879</ele>
        <time>2016-09-24T13:58:44Z</time>
      </trkpt>
      <trkpt lat="43.4831" lon="2.64784">
        <ele>648.34971193879</ele>
        <time>2016-09-24T13:58:49Z</time>
      </trkpt>
      <trkpt lat="43.48309" lon="2.64789">
        <ele>648.34971193879</ele>
        <time>2016-09-24T13:58:54Z</time>
      </trkpt>
      <trkpt lat="43.48309" lon="2.64794">
        <ele>643.43744089674</ele>
        <time>2016-09-24T13:58:59Z</time>
      </trkpt>
      <trkpt lat="43.48309" lon="2.64794">
        <ele>643.43744089674</ele>
        <time>2016-09-24T13:59:04Z</time>
      </trkpt>
      <trkpt lat="43.48308" lon="2.64796">
        <ele>643.43744089674</ele>
        <time>2016-09-24T13:59:09Z</time>
      </trkpt>
      <trkpt lat="43.48308" lon="2.64803">
        <ele>643.43744089674</ele>
        <time>2016-09-24T13:59:14Z</time>
      </trkpt>
      <trkpt lat="43.48309" lon="2.64808">
        <ele>638.19642970657</ele>
        <time>2016-09-24T13:59:19Z</time>
      </trkpt>
      <trkpt lat="43.4831" lon="2.6481">
        <ele>638.19642970657</ele>
        <time>2016-09-24T13:59:24Z</time>
      </trkpt>
      <trkpt lat="43.48311" lon="2.6481">
        <ele>638.19642970657</ele>
        <time>2016-09-24T13:59:29Z</time>
      </trkpt>
      <trkpt lat="43.48312" lon="2.64811">
        <ele>638.19642970657</ele>
        <time>2016-09-24T13:59:34Z</time>
      </trkpt>
      <trkpt lat="43.4831" lon="2.64808">
        <ele>638.19642970657</ele>
        <time>2016-09-24T13:59:39Z</time>
      </trkpt>
      <trkpt lat="43.48308" lon="2.64805">
        <ele>632.64921831522</ele>
        <time>2016-09-24T13:59:44Z</time>
      </trkpt>
      <trkpt lat="43.48306" lon="2.64802">
        <ele>632.64921831522</ele>
        <time>2016-09-24T13:59:49Z</time>
      </trkpt>
      <trkpt lat="43.48304" lon="2.64799">
        <ele>632.64921831522</ele>
        <time>2016-09-24T13:59:54Z</time>
      </trkpt>
      <trkpt lat="43.48302" lon="2.64799">
        <ele>632.64921831522</ele>
        <time>2016-09-24T13:59:59Z</time>
      </trkpt>
      <trkpt lat="43.48299" lon="2.6479">
        <ele>627.17766347738</ele>
        <time>2016-09-24T14:00:04Z</time>
      </trkpt>
      <trkpt lat="43.48292" lon="2.64789">
        <ele>627.17766347738</ele>
        <time>2016-09-24T14:00:09Z</time>
      </trkpt>
      <trkpt lat="43.48287" lon="2.64785">
        <ele>622.07752398854</ele>
        <time>2016-09-24T14:00:14Z</time>
      </trkpt>
      <trkpt lat="43.48286" lon="2.64784">
        <ele>622.07752398854</ele>
        <time>2016-09-24T14:00:19Z</time>
      </trkpt>
      <trkpt lat="43.48282" lon="2.64782">
        <ele>622.07752398854</ele>
        <time>2016-09-24T14:00:24Z</time>
      </trkpt>
      <trkpt lat="43.4828" lon="2.64778">
        <ele>617.2757100762</ele>
        <time>2016-09-24T14:00:29Z</time>
      </trkpt>
      <trkpt lat="43.48276" lon="2.64774">
        <ele>617.2757100762</ele>
        <time>2016-09-24T14:00:34Z</time>
      </trkpt>
      <trkpt lat="43.48274" lon="2.64771">
        <ele>617.2757100762</ele>
        <time>2016-09-24T14:00:39Z</time>
      </trkpt>
      <trkpt lat="43.4827" lon="2.64768">
        <ele>612.78989791712</ele>
        <time>2016-09-24T14:00:44Z</time>
      </trkpt>
      <trkpt lat="43.48265" lon="2.64765">
        <ele>612.78989791712</ele>
        <time>2016-09-24T14:00:49Z</time>
      </trkpt>
      <trkpt lat="43.48261" lon="2.64759">
        <ele>608.6929755271</ele>
        <time>2016-09-24T14:00:54Z</time>
      </trkpt>
      <trkpt lat="43.48256" lon="2.64755">
        <ele>608.6929755271</ele>
        <time>2016-09-24T14:00:59Z</time>
      </trkpt>
      <trkpt lat="43.48252" lon="2.64749">
        <ele>604.96466139667</ele>
        <time>2016-09-24T14:01:04Z</time>
      </trkpt>
      <trkpt lat="43.48248" lon="2.64747">
        <ele>604.96466139667</ele>
        <time>2016-09-24T14:01:09Z</time>
      </trkpt>
      <trkpt lat="43.48242" lon="2.64743">
        <ele>601.59927798048</ele>
        <time>2016-09-24T14:01:14Z</time>
      </trkpt>
      <trkpt lat="43.48237" lon="2.6474">
        <ele>601.59927798048</ele>
        <time>2016-09-24T14:01:19Z</time>
      </trkpt>
      <trkpt lat="43.48234" lon="2.64736">
        <ele>598.57587144315</ele>
        <time>2016-09-24T14:01:24Z</time>
      </trkpt>
      <trkpt lat="43.4823" lon="2.64733">
        <ele>598.57587144315</ele>
        <time>2016-09-24T14:01:29Z</time>
      </trkpt>
      <trkpt lat="43.48222" lon="2.6473">
        <ele>595.87380650958</ele>
        <time>2016-09-24T14:01:34Z</time>
      </trkpt>
      <trkpt lat="43.48217" lon="2.64728">
        <ele>595.87380650958</ele>
        <time>2016-09-24T14:01:39Z</time>
      </trkpt>
      <trkpt lat="43.48211" lon="2.64725">
        <ele>593.48721832053</ele>
        <time>2016-09-24T14:01:44Z</time>
      </trkpt>
      <trkpt lat="43.48207" lon="2.6472">
        <ele>593.48721832053</ele>
        <time>2016-09-24T14:01:49Z</time>
      </trkpt>
      <trkpt lat="43.48203" lon="2.6471">
        <ele>591.3807198026</ele>
        <time>2016-09-24T14:01:54Z</time>
      </trkpt>
      <trkpt lat="43.48196" lon="2.64705">
        <ele>591.3807198026</ele>
        <time>2016-09-24T14:01:59Z</time>
      </trkpt>
      <trkpt lat="43.48193" lon="2.64702">
        <ele>589.53491488556</ele>
        <time>2016-09-24T14:02:04Z</time>
      </trkpt>
      <trkpt lat="43.48189" lon="2.64699">
        <ele>589.53491488556</ele>
        <time>2016-09-24T14:02:09Z</time>
      </trkpt>
      <trkpt lat="43.48187" lon="2.64696">
        <ele>589.53491488556</ele>
        <time>2016-09-24T14:02:14Z</time>
      </trkpt>
      <trkpt lat="43.48182" lon="2.6469">
        <ele>587.88764780551</ele>
        <time>2016-09-24T14:02:19Z</time>
      </trkpt>
      <trkpt lat="43.48178" lon="2.6469">
        <ele>587.88764780551</ele>
        <time>2016-09-24T14:02:24Z</time>
      </trkpt>
      <trkpt lat="43.48174" lon="2.64688">
        <ele>586.45262330568</ele>
        <time>2016-09-24T14:02:29Z</time>
      </trkpt>
      <trkpt lat="43.4817" lon="2.64687">
        <ele>586.45262330568</ele>
        <time>2016-09-24T14:02:34Z</time>
      </trkpt>
      <trkpt lat="43.48166" lon="2.64684">
        <ele>586.45262330568</ele>
        <time>2016-09-24T14:02:39Z</time>
      </trkpt>
      <trkpt lat="43.48161" lon="2.64679">
        <ele>585.18411256837</ele>
        <time>2016-09-24T14:02:44Z</time>
      </trkpt>
      <trkpt lat="43.48156" lon="2.64673">
        <ele>585.18411256837</ele>
        <time>2016-09-24T14:02:49Z</time>
      </trkpt>
      <trkpt lat="43.48153" lon="2.6467">
        <ele>584.08234332659</ele>
        <time>2016-09-24T14:02:54Z</time>
      </trkpt>
      <trkpt lat="43.48146" lon="2.64665">
        <ele>584.08234332659</ele>
        <time>2016-09-24T14:02:59Z</time>
      </trkpt>
      <trkpt lat="43.48141" lon="2.64659">
        <ele>583.13249753256</ele>
        <time>2016-09-24T14:03:04Z</time>
      </trkpt>
      <trkpt lat="43.48132" lon="2.64659">
        <ele>583.13249753256</ele>
        <time>2016-09-24T14:03:09Z</time>
      </trkpt>
      <trkpt lat="43.48124" lon="2.64658">
        <ele>582.30587730475</ele>
        <time>2016-09-24T14:03:14Z</time>
      </trkpt>
      <trkpt lat="43.4811" lon="2.6465">
        <ele>581.64749112934</ele>
        <time>2016-09-24T14:03:19Z</time>
      </trkpt>
      <trkpt lat="43.48102" lon="2.64646">
        <ele>581.64749112934</ele>
        <time>2016-09-24T14:03:24Z</time>
      </trkpt>
      <trkpt lat="43.48097" lon="2.64646">
        <ele>581.02554351095</ele>
        <time>2016-09-24T14:03:29Z</time>
      </trkpt>
      <trkpt lat="43.48092" lon="2.64644">
        <ele>581.02554351095</ele>
        <time>2016-09-24T14:03:34Z</time>
      </trkpt>
      <trkpt lat="43.48086" lon="2.64641">
        <ele>580.44744511559</ele>
        <time>2016-09-24T14:03:39Z</time>
      </trkpt>
      <trkpt lat="43.48083" lon="2.64638">
        <ele>580.44744511559</ele>
        <time>2016-09-24T14:03:44Z</time>
      </trkpt>
      <trkpt lat="43.48081" lon="2.64634">
        <ele>580.44744511559</ele>
        <time>2016-09-24T14:03:49Z</time>
      </trkpt>
      <trkpt lat="43.48077" lon="2.64629">
        <ele>579.83341762372</ele>
        <time>2016-09-24T14:03:54Z</time>
      </trkpt>
      <trkpt lat="43.48075" lon="2.64626">
        <ele>579.83341762372</ele>
        <time>2016-09-24T14:03:59Z</time>
      </trkpt>
      <trkpt lat="43.48074" lon="2.64625">
        <ele>579.83341762372</ele>
        <time>2016-09-24T14:04:04Z</time>
      </trkpt>
      <trkpt lat="43.48071" lon="2.64622">
        <ele>579.83341762372</ele>
        <time>2016-09-24T14:04:09Z</time>
      </trkpt>
      <trkpt lat="43.48068" lon="2.64621">
        <ele>578.86461698488</ele>
        <time>2016-09-24T14:04:14Z</time>
      </trkpt>
      <trkpt lat="43.48066" lon="2.64619">
        <ele>578.86461698488</ele>
        <time>2016-09-24T14:04:19Z</time>
      </trkpt>
      <trkpt lat="43.48065" lon="2.64616">
        <ele>578.86461698488</ele>
        <time>2016-09-24T14:04:24Z</time>
      </trkpt>
      <trkpt lat="43.48055" lon="2.6462">
        <ele>577.79421603543</ele>
        <time>2016-09-24T14:04:29Z</time>
      </trkpt>
      <trkpt lat="43.48049" lon="2.64622">
        <ele>577.79421603543</ele>
        <time>2016-09-24T14:04:34Z</time>
      </trkpt>
      <trkpt lat="43.48044" lon="2.64626">
        <ele>576.51119780809</ele>
        <time>2016-09-24T14:04:39Z</time>
      </trkpt>
      <trkpt lat="43.48042" lon="2.64626">
        <ele>576.51119780809</ele>
        <time>2016-09-24T14:04:44Z</time>
      </trkpt>
      <trkpt lat="43.4804" lon="2.64625">
        <ele>576.51119780809</ele>
        <time>2016-09-24T14:04:49Z</time>
      </trkpt>
      <trkpt lat="43.48036" lon="2.64626">
        <ele>576.51119780809</ele>
        <time>2016-09-24T14:04:54Z</time>
      </trkpt>
      <trkpt lat="43.48034" lon="2.64626">
        <ele>574.92770812545</ele>
        <time>2016-09-24T14:04:59Z</time>
      </trkpt>
      <trkpt lat="43.48034" lon="2.64627">
        <ele>574.92770812545</ele>
        <time>2016-09-24T14:05:04Z</time>
      </trkpt>
      <trkpt lat="43.48032" lon="2.64624">
        <ele>574.92770812545</ele>
        <time>2016-09-24T14:05:09Z</time>
      </trkpt>
      <trkpt lat="43.48029" lon="2.64618">
        <ele>574.92770812545</ele>
        <time>2016-09-24T14:05:14Z</time>
      </trkpt>
      <trkpt lat="43.48027" lon="2.64614">
        <ele>572.90555196606</ele>
        <time>2016-09-24T14:05:19Z</time>
      </trkpt>
      <trkpt lat="43.48023" lon="2.6461">
        <ele>572.90555196606</ele>
        <time>2016-09-24T14:05:24Z</time>
      </trkpt>
      <trkpt lat="43.48018" lon="2.64606">
        <ele>570.85113957022</ele>
        <time>2016-09-24T14:05:29Z</time>
      </trkpt>
      <trkpt lat="43.48013" lon="2.646">
        <ele>570.85113957022</ele>
        <time>2016-09-24T14:05:34Z</time>
      </trkpt>
      <trkpt lat="43.48009" lon="2.64593">
        <ele>568.80967539468</ele>
        <time>2016-09-24T14:05:39Z</time>
      </trkpt>
      <trkpt lat="43.48008" lon="2.6459">
        <ele>568.80967539468</ele>
        <time>2016-09-24T14:05:44Z</time>
      </trkpt>
      <trkpt lat="43.48002" lon="2.64582">
        <ele>566.82302192037</ele>
        <time>2016-09-24T14:05:49Z</time>
      </trkpt>
      <trkpt lat="43.47999" lon="2.6458">
        <ele>566.82302192037</ele>
        <time>2016-09-24T14:05:54Z</time>
      </trkpt>
      <trkpt lat="43.47992" lon="2.64579">
        <ele>564.90100588694</ele>
        <time>2016-09-24T14:05:59Z</time>
      </trkpt>
      <trkpt lat="43.47988" lon="2.64577">
        <ele>564.90100588694</ele>
        <time>2016-09-24T14:06:04Z</time>
      </trkpt>
      <trkpt lat="43.47981" lon="2.64572">
        <ele>563.06697806414</ele>
        <time>2016-09-24T14:06:09Z</time>
      </trkpt>
      <trkpt lat="43.47976" lon="2.64567">
        <ele>563.06697806414</ele>
        <time>2016-09-24T14:06:14Z</time>
      </trkpt>
      <trkpt lat="43.4797" lon="2.64564">
        <ele>561.31352200926</ele>
        <time>2016-09-24T14:06:19Z</time>
      </trkpt>
      <trkpt lat="43.47966" lon="2.6456">
        <ele>561.31352200926</ele>
        <time>2016-09-24T14:06:24Z</time>
      </trkpt>
      <trkpt lat="43.47962" lon="2.64555">
        <ele>559.64796995498</ele>
        <time>2016-09-24T14:06:29Z</time>
      </trkpt>
      <trkpt lat="43.47959" lon="2.64553">
        <ele>559.64796995498</ele>
        <time>2016-09-24T14:06:34Z</time>
      </trkpt>
      <trkpt lat="43.47956" lon="2.64548">
        <ele>559.64796995498</ele>
        <time>2016-09-24T14:06:39Z</time>
      </trkpt>
      <trkpt lat="43.47953" lon="2.64543">
        <ele>557.99042296866</ele>
        <time>2016-09-24T14:06:44Z</time>
      </trkpt>
      <trkpt lat="43.47947" lon="2.64537">
        <ele>557.99042296866</ele>
        <time>2016-09-24T14:06:49Z</time>
      </trkpt>
      <trkpt lat="43.47944" lon="2.64536">
        <ele>556.43978556043</ele>
        <time>2016-09-24T14:06:54Z</time>
      </trkpt>
      <trkpt lat="43.47935" lon="2.64532">
        <ele>555.05860070085</ele>
        <time>2016-09-24T14:06:59Z</time>
      </trkpt>
      <trkpt lat="43.47931" lon="2.64531">
        <ele>555.05860070085</ele>
        <time>2016-09-24T14:07:04Z</time>
      </trkpt>
      <trkpt lat="43.47924" lon="2.64527">
        <ele>553.74584872113</ele>
        <time>2016-09-24T14:07:09Z</time>
      </trkpt>
      <trkpt lat="43.47917" lon="2.64526">
        <ele>553.74584872113</ele>
        <time>2016-09-24T14:07:14Z</time>
      </trkpt>
      <trkpt lat="43.47913" lon="2.64525">
        <ele>552.49423863561</ele>
        <time>2016-09-24T14:07:19Z</time>
      </trkpt>
      <trkpt lat="43.47906" lon="2.64523">
        <ele>552.49423863561</ele>
        <time>2016-09-24T14:07:24Z</time>
      </trkpt>
      <trkpt lat="43.47901" lon="2.64521">
        <ele>551.31129193228</ele>
        <time>2016-09-24T14:07:29Z</time>
      </trkpt>
      <trkpt lat="43.47895" lon="2.64517">
        <ele>551.31129193228</ele>
        <time>2016-09-24T14:07:34Z</time>
      </trkpt>
      <trkpt lat="43.47889" lon="2.64515">
        <ele>550.18941555773</ele>
        <time>2016-09-24T14:07:39Z</time>
      </trkpt>
      <trkpt lat="43.47883" lon="2.64514">
        <ele>550.18941555773</ele>
        <time>2016-09-24T14:07:44Z</time>
      </trkpt>
      <trkpt lat="43.47875" lon="2.64512">
        <ele>549.12144914125</ele>
        <time>2016-09-24T14:07:49Z</time>
      </trkpt>
      <trkpt lat="43.47868" lon="2.64514">
        <ele>549.12144914125</ele>
        <time>2016-09-24T14:07:54Z</time>
      </trkpt>
      <trkpt lat="43.47862" lon="2.64514">
        <ele>548.14389124035</ele>
        <time>2016-09-24T14:07:59Z</time>
      </trkpt>
      <trkpt lat="43.47858" lon="2.64515">
        <ele>548.14389124035</ele>
        <time>2016-09-24T14:08:04Z</time>
      </trkpt>
      <trkpt lat="43.47855" lon="2.64515">
        <ele>548.14389124035</ele>
        <time>2016-09-24T14:08:09Z</time>
      </trkpt>
      <trkpt lat="43.47853" lon="2.64512">
        <ele>547.16066091912</ele>
        <time>2016-09-24T14:08:14Z</time>
      </trkpt>
      <trkpt lat="43.47853" lon="2.64509">
        <ele>547.16066091912</ele>
        <time>2016-09-24T14:08:19Z</time>
      </trkpt>
      <trkpt lat="43.47851" lon="2.64503">
        <ele>547.16066091912</ele>
        <time>2016-09-24T14:08:24Z</time>
      </trkpt>
      <trkpt lat="43.47849" lon="2.64497">
        <ele>546.18368875531</ele>
        <time>2016-09-24T14:08:29Z</time>
      </trkpt>
      <trkpt lat="43.47847" lon="2.64492">
        <ele>546.18368875531</ele>
        <time>2016-09-24T14:08:34Z</time>
      </trkpt>
      <trkpt lat="43.47843" lon="2.64486">
        <ele>545.26730867596</ele>
        <time>2016-09-24T14:08:39Z</time>
      </trkpt>
      <trkpt lat="43.47841" lon="2.6448">
        <ele>545.26730867596</ele>
        <time>2016-09-24T14:08:44Z</time>
      </trkpt>
      <trkpt lat="43.47838" lon="2.64473">
        <ele>544.41852794993</ele>
        <time>2016-09-24T14:08:49Z</time>
      </trkpt>
      <trkpt lat="43.47837" lon="2.6447">
        <ele>544.41852794993</ele>
        <time>2016-09-24T14:08:54Z</time>
      </trkpt>
      <trkpt lat="43.47836" lon="2.64469">
        <ele>544.41852794993</ele>
        <time>2016-09-24T14:08:59Z</time>
      </trkpt>
      <trkpt lat="43.47834" lon="2.64469">
        <ele>544.41852794993</ele>
        <time>2016-09-24T14:09:04Z</time>
      </trkpt>
      <trkpt lat="43.47832" lon="2.64469">
        <ele>544.41852794993</ele>
        <time>2016-09-24T14:09:09Z</time>
      </trkpt>
      <trkpt lat="43.4783" lon="2.6447">
        <ele>543.52843221016</ele>
        <time>2016-09-24T14:09:14Z</time>
      </trkpt>
      <trkpt lat="43.4783" lon="2.64471">
        <ele>543.52843221016</ele>
        <time>2016-09-24T14:09:19Z</time>
      </trkpt>
      <trkpt lat="43.4783" lon="2.64471">
        <ele>543.52843221016</ele>
        <time>2016-09-24T14:09:24Z</time>
      </trkpt>
      <trkpt lat="43.4783" lon="2.64471">
        <ele>543.52843221016</ele>
        <time>2016-09-24T14:09:29Z</time>
      </trkpt>
      <trkpt lat="43.4783" lon="2.64471">
        <ele>543.52843221016</ele>
        <time>2016-09-24T14:09:34Z</time>
      </trkpt>
      <trkpt lat="43.4783" lon="2.64471">
        <ele>543.52843221016</ele>
        <time>2016-09-24T14:09:39Z</time>
      </trkpt>
      <trkpt lat="43.4783" lon="2.64471">
        <ele>543.52843221016</ele>
        <time>2016-09-24T14:09:44Z</time>
      </trkpt>
      <trkpt lat="43.4783" lon="2.64471">
        <ele>543.52843221016</ele>
        <time>2016-09-24T14:09:49Z</time>
      </trkpt>
      <trkpt lat="43.4783" lon="2.64471">
        <ele>543.52843221016</ele>
        <time>2016-09-24T14:09:54Z</time>
      </trkpt>
      <trkpt lat="43.4783" lon="2.64471">
        <ele>543.52843221016</ele>
        <time>2016-09-24T14:09:59Z</time>
      </trkpt>
      <trkpt lat="43.4783" lon="2.64471">
        <ele>543.52843221016</ele>
        <time>2016-09-24T14:10:04Z</time>
      </trkpt>
      <trkpt lat="43.4783" lon="2.64471">
        <ele>543.52843221016</ele>
        <time>2016-09-24T14:10:09Z</time>
      </trkpt>
      <trkpt lat="43.4783" lon="2.64471">
        <ele>543.52843221016</ele>
        <time>2016-09-24T14:10:14Z</time>
      </trkpt>
      <trkpt lat="43.47829" lon="2.64471">
        <ele>543.52843221016</ele>
        <time>2016-09-24T14:10:19Z</time>
      </trkpt>
      <trkpt lat="43.47829" lon="2.64469">
        <ele>543.52843221016</ele>
        <time>2016-09-24T14:10:24Z</time>
      </trkpt>
      <trkpt lat="43.4783" lon="2.64467">
        <ele>543.52843221016</ele>
        <time>2016-09-24T14:10:29Z</time>
      </trkpt>
      <trkpt lat="43.47831" lon="2.64465">
        <ele>543.52843221016</ele>
        <time>2016-09-24T14:10:34Z</time>
      </trkpt>
      <trkpt lat="43.47832" lon="2.64459">
        <ele>542.3089537603</ele>
        <time>2016-09-24T14:10:39Z</time>
      </trkpt>
      <trkpt lat="43.47831" lon="2.64455">
        <ele>542.3089537603</ele>
        <time>2016-09-24T14:10:44Z</time>
      </trkpt>
      <trkpt lat="43.47831" lon="2.64455">
        <ele>542.3089537603</ele>
        <time>2016-09-24T14:10:49Z</time>
      </trkpt>
      <trkpt lat="43.47831" lon="2.64455">
        <ele>542.3089537603</ele>
        <time>2016-09-24T14:10:54Z</time>
      </trkpt>
      <trkpt lat="43.47832" lon="2.64454">
        <ele>542.3089537603</ele>
        <time>2016-09-24T14:10:59Z</time>
      </trkpt>
      <trkpt lat="43.47832" lon="2.64454">
        <ele>542.3089537603</ele>
        <time>2016-09-24T14:11:04Z</time>
      </trkpt>
      <trkpt lat="43.47832" lon="2.64454">
        <ele>542.3089537603</ele>
        <time>2016-09-24T14:11:09Z</time>
      </trkpt>
      <trkpt lat="43.47832" lon="2.64453">
        <ele>542.3089537603</ele>
        <time>2016-09-24T14:11:14Z</time>
      </trkpt>
      <trkpt lat="43.47832" lon="2.64453">
        <ele>542.3089537603</ele>
        <time>2016-09-24T14:11:19Z</time>
      </trkpt>
      <trkpt lat="43.47832" lon="2.64453">
        <ele>542.3089537603</ele>
        <time>2016-09-24T14:11:24Z</time>
      </trkpt>
      <trkpt lat="43.47832" lon="2.64454">
        <ele>542.3089537603</ele>
        <time>2016-09-24T14:11:29Z</time>
      </trkpt>
      <trkpt lat="43.47832" lon="2.64453">
        <ele>542.3089537603</ele>
        <time>2016-09-24T14:11:34Z</time>
      </trkpt>
      <trkpt lat="43.47832" lon="2.64453">
        <ele>542.3089537603</ele>
        <time>2016-09-24T14:11:39Z</time>
      </trkpt>
      <trkpt lat="43.47832" lon="2.64453">
        <ele>542.3089537603</ele>
        <time>2016-09-24T14:11:44Z</time>
      </trkpt>
      <trkpt lat="43.47832" lon="2.64453">
        <ele>542.3089537603</ele>
        <time>2016-09-24T14:11:49Z</time>
      </trkpt>
      <trkpt lat="43.47832" lon="2.64453">
        <ele>542.3089537603</ele>
        <time>2016-09-24T14:11:54Z</time>
      </trkpt>
      <trkpt lat="43.47832" lon="2.64453">
        <ele>542.3089537603</ele>
        <time>2016-09-24T14:11:59Z</time>
      </trkpt>
      <trkpt lat="43.47832" lon="2.64453">
        <ele>542.3089537603</ele>
        <time>2016-09-24T14:12:04Z</time>
      </trkpt>
      <trkpt lat="43.47832" lon="2.64453">
        <ele>542.3089537603</ele>
        <time>2016-09-24T14:12:09Z</time>
      </trkpt>
      <trkpt lat="43.47831" lon="2.64454">
        <ele>542.3089537603</ele>
        <time>2016-09-24T14:12:14Z</time>
      </trkpt>
      <trkpt lat="43.47831" lon="2.64454">
        <ele>542.3089537603</ele>
        <time>2016-09-24T14:12:19Z</time>
      </trkpt>
      <trkpt lat="43.47831" lon="2.64454">
        <ele>542.3089537603</ele>
        <time>2016-09-24T14:12:24Z</time>
      </trkpt>
      <trkpt lat="43.47831" lon="2.64454">
        <ele>542.3089537603</ele>
        <time>2016-09-24T14:12:29Z</time>
      </trkpt>
      <trkpt lat="43.47831" lon="2.64455">
        <ele>542.3089537603</ele>
        <time>2016-09-24T14:12:34Z</time>
      </trkpt>
      <trkpt lat="43.47829" lon="2.64453">
        <ele>540.84005313776</ele>
        <time>2016-09-24T14:12:39Z</time>
      </trkpt>
      <trkpt lat="43.47826" lon="2.64452">
        <ele>540.84005313776</ele>
        <time>2016-09-24T14:12:44Z</time>
      </trkpt>
      <trkpt lat="43.47824" lon="2.64452">
        <ele>540.84005313776</ele>
        <time>2016-09-24T14:12:49Z</time>
      </trkpt>
      <trkpt lat="43.47823" lon="2.64454">
        <ele>540.84005313776</ele>
        <time>2016-09-24T14:12:54Z</time>
      </trkpt>
      <trkpt lat="43.47821" lon="2.64455">
        <ele>540.84005313776</ele>
        <time>2016-09-24T14:12:59Z</time>
      </trkpt>
      <trkpt lat="43.4782" lon="2.64456">
        <ele>539.25423740289</ele>
        <time>2016-09-24T14:13:04Z</time>
      </trkpt>
      <trkpt lat="43.4782" lon="2.64456">
        <ele>539.25423740289</ele>
        <time>2016-09-24T14:13:09Z</time>
      </trkpt>
      <trkpt lat="43.4782" lon="2.64456">
        <ele>539.25423740289</ele>
        <time>2016-09-24T14:13:14Z</time>
      </trkpt>
      <trkpt lat="43.4782" lon="2.64457">
        <ele>539.25423740289</ele>
        <time>2016-09-24T14:13:19Z</time>
      </trkpt>
      <trkpt lat="43.4782" lon="2.64457">
        <ele>539.25423740289</ele>
        <time>2016-09-24T14:13:24Z</time>
      </trkpt>
      <trkpt lat="43.4782" lon="2.64458">
        <ele>539.25423740289</ele>
        <time>2016-09-24T14:13:29Z</time>
      </trkpt>
      <trkpt lat="43.47818" lon="2.64461">
        <ele>539.25423740289</ele>
        <time>2016-09-24T14:13:34Z</time>
      </trkpt>
      <trkpt lat="43.47816" lon="2.64463">
        <ele>539.25423740289</ele>
        <time>2016-09-24T14:13:39Z</time>
      </trkpt>
      <trkpt lat="43.47815" lon="2.64463">
        <ele>539.25423740289</ele>
        <time>2016-09-24T14:13:44Z</time>
      </trkpt>
      <trkpt lat="43.47813" lon="2.64463">
        <ele>537.68909352083</ele>
        <time>2016-09-24T14:13:49Z</time>
      </trkpt>
      <trkpt lat="43.47813" lon="2.64463">
        <ele>537.68909352083</ele>
        <time>2016-09-24T14:13:54Z</time>
      </trkpt>
      <trkpt lat="43.47813" lon="2.64463">
        <ele>537.68909352083</ele>
        <time>2016-09-24T14:13:59Z</time>
      </trkpt>
      <trkpt lat="43.47813" lon="2.64463">
        <ele>537.68909352083</ele>
        <time>2016-09-24T14:14:04Z</time>
      </trkpt>
      <trkpt lat="43.47813" lon="2.64463">
        <ele>537.68909352083</ele>
        <time>2016-09-24T14:14:09Z</time>
      </trkpt>
      <trkpt lat="43.47813" lon="2.64463">
        <ele>537.68909352083</ele>
        <time>2016-09-24T14:14:14Z</time>
      </trkpt>
      <trkpt lat="43.47813" lon="2.64463">
        <ele>537.68909352083</ele>
        <time>2016-09-24T14:14:19Z</time>
      </trkpt>
      <trkpt lat="43.47813" lon="2.64463">
        <ele>537.68909352083</ele>
        <time>2016-09-24T14:14:24Z</time>
      </trkpt>
      <trkpt lat="43.47813" lon="2.64463">
        <ele>537.68909352083</ele>
        <time>2016-09-24T14:14:29Z</time>
      </trkpt>
      <trkpt lat="43.47811" lon="2.64463">
        <ele>537.68909352083</ele>
        <time>2016-09-24T14:14:34Z</time>
      </trkpt>
      <trkpt lat="43.47811" lon="2.64463">
        <ele>537.68909352083</ele>
        <time>2016-09-24T14:14:39Z</time>
      </trkpt>
      <trkpt lat="43.47811" lon="2.64463">
        <ele>537.68909352083</ele>
        <time>2016-09-24T14:14:44Z</time>
      </trkpt>
      <trkpt lat="43.47811" lon="2.64463">
        <ele>537.68909352083</ele>
        <time>2016-09-24T14:14:49Z</time>
      </trkpt>
      <trkpt lat="43.47811" lon="2.64463">
        <ele>537.68909352083</ele>
        <time>2016-09-24T14:14:54Z</time>
      </trkpt>
      <trkpt lat="43.47811" lon="2.64463">
        <ele>537.68909352083</ele>
        <time>2016-09-24T14:14:59Z</time>
      </trkpt>
      <trkpt lat="43.47811" lon="2.64463">
        <ele>537.68909352083</ele>
        <time>2016-09-24T14:15:04Z</time>
      </trkpt>
      <trkpt lat="43.47811" lon="2.64463">
        <ele>537.68909352083</ele>
        <time>2016-09-24T14:15:09Z</time>
      </trkpt>
      <trkpt lat="43.47811" lon="2.64463">
        <ele>537.68909352083</ele>
        <time>2016-09-24T14:15:14Z</time>
      </trkpt>
      <trkpt lat="43.47811" lon="2.64462">
        <ele>537.68909352083</ele>
        <time>2016-09-24T14:15:19Z</time>
      </trkpt>
      <trkpt lat="43.47811" lon="2.64462">
        <ele>537.68909352083</ele>
        <time>2016-09-24T14:15:24Z</time>
      </trkpt>
      <trkpt lat="43.47811" lon="2.64462">
        <ele>537.68909352083</ele>
        <time>2016-09-24T14:15:29Z</time>
      </trkpt>
      <trkpt lat="43.47811" lon="2.64462">
        <ele>537.68909352083</ele>
        <time>2016-09-24T14:15:34Z</time>
      </trkpt>
      <trkpt lat="43.47811" lon="2.64464">
        <ele>537.68909352083</ele>
        <time>2016-09-24T14:15:39Z</time>
      </trkpt>
      <trkpt lat="43.47829" lon="2.64423">
        <ele>535.75331448373</ele>
        <time>2016-09-24T14:15:44Z</time>
      </trkpt>
      <trkpt lat="43.47819" lon="2.64408">
        <ele>533.96452344931</ele>
        <time>2016-09-24T14:15:49Z</time>
      </trkpt>
      <trkpt lat="43.47818" lon="2.6443">
        <ele>533.96452344931</ele>
        <time>2016-09-24T14:16:04Z</time>
      </trkpt>
      <trkpt lat="43.47815" lon="2.64433">
        <ele>533.96452344931</ele>
        <time>2016-09-24T14:16:09Z</time>
      </trkpt>
      <trkpt lat="43.47814" lon="2.64435">
        <ele>533.96452344931</ele>
        <time>2016-09-24T14:16:14Z</time>
      </trkpt>
      <trkpt lat="43.47813" lon="2.64441">
        <ele>532.4416918917</ele>
        <time>2016-09-24T14:16:24Z</time>
      </trkpt>
      <trkpt lat="43.47814" lon="2.64442">
        <ele>532.4416918917</ele>
        <time>2016-09-24T14:16:29Z</time>
      </trkpt>
      <trkpt lat="43.47815" lon="2.64443">
        <ele>532.4416918917</ele>
        <time>2016-09-24T14:16:34Z</time>
      </trkpt>
      <trkpt lat="43.47815" lon="2.64444">
        <ele>532.4416918917</ele>
        <time>2016-09-24T14:16:39Z</time>
      </trkpt>
      <trkpt lat="43.47815" lon="2.64444">
        <ele>532.4416918917</ele>
        <time>2016-09-24T14:16:44Z</time>
      </trkpt>
      <trkpt lat="43.47815" lon="2.64445">
        <ele>532.4416918917</ele>
        <time>2016-09-24T14:16:49Z</time>
      </trkpt>
      <trkpt lat="43.47815" lon="2.64445">
        <ele>532.4416918917</ele>
        <time>2016-09-24T14:16:54Z</time>
      </trkpt>
      <trkpt lat="43.47815" lon="2.64446">
        <ele>532.4416918917</ele>
        <time>2016-09-24T14:16:59Z</time>
      </trkpt>
      <trkpt lat="43.47816" lon="2.64446">
        <ele>532.4416918917</ele>
        <time>2016-09-24T14:17:04Z</time>
      </trkpt>
      <trkpt lat="43.47815" lon="2.64446">
        <ele>532.4416918917</ele>
        <time>2016-09-24T14:17:09Z</time>
      </trkpt>
      <trkpt lat="43.47815" lon="2.64447">
        <ele>532.4416918917</ele>
        <time>2016-09-24T14:17:14Z</time>
      </trkpt>
      <trkpt lat="43.47815" lon="2.64447">
        <ele>532.4416918917</ele>
        <time>2016-09-24T14:17:19Z</time>
      </trkpt>
      <trkpt lat="43.47816" lon="2.64448">
        <ele>532.4416918917</ele>
        <time>2016-09-24T14:17:24Z</time>
      </trkpt>
      <trkpt lat="43.47816" lon="2.64448">
        <ele>532.4416918917</ele>
        <time>2016-09-24T14:17:29Z</time>
      </trkpt>
      <trkpt lat="43.47816" lon="2.64448">
        <ele>532.4416918917</ele>
        <time>2016-09-24T14:17:34Z</time>
      </trkpt>
      <trkpt lat="43.47816" lon="2.64448">
        <ele>532.4416918917</ele>
        <time>2016-09-24T14:17:39Z</time>
      </trkpt>
      <trkpt lat="43.47816" lon="2.64449">
        <ele>532.4416918917</ele>
        <time>2016-09-24T14:17:44Z</time>
      </trkpt>
      <trkpt lat="43.47816" lon="2.64449">
        <ele>532.4416918917</ele>
        <time>2016-09-24T14:17:49Z</time>
      </trkpt>
      <trkpt lat="43.47816" lon="2.64449">
        <ele>532.4416918917</ele>
        <time>2016-09-24T14:17:54Z</time>
      </trkpt>
      <trkpt lat="43.47816" lon="2.6445">
        <ele>532.4416918917</ele>
        <time>2016-09-24T14:17:59Z</time>
      </trkpt>
      <trkpt lat="43.47815" lon="2.64452">
        <ele>531.25113154065</ele>
        <time>2016-09-24T14:18:04Z</time>
      </trkpt>
      <trkpt lat="43.47818" lon="2.64457">
        <ele>531.25113154065</ele>
        <time>2016-09-24T14:18:09Z</time>
      </trkpt>
      <trkpt lat="43.47823" lon="2.6446">
        <ele>530.28047432576</ele>
        <time>2016-09-24T14:18:14Z</time>
      </trkpt>
      <trkpt lat="43.47825" lon="2.64466">
        <ele>530.28047432576</ele>
        <time>2016-09-24T14:18:19Z</time>
      </trkpt>
      <trkpt lat="43.4783" lon="2.64469">
        <ele>529.49710200233</ele>
        <time>2016-09-24T14:18:24Z</time>
      </trkpt>
      <trkpt lat="43.47835" lon="2.64473">
        <ele>529.49710200233</ele>
        <time>2016-09-24T14:18:29Z</time>
      </trkpt>
      <trkpt lat="43.47837" lon="2.64479">
        <ele>528.8703252513</ele>
        <time>2016-09-24T14:18:34Z</time>
      </trkpt>
      <trkpt lat="43.4784" lon="2.64485">
        <ele>528.8703252513</ele>
        <time>2016-09-24T14:18:39Z</time>
      </trkpt>
      <trkpt lat="43.47843" lon="2.64492">
        <ele>528.38574218319</ele>
        <time>2016-09-24T14:18:44Z</time>
      </trkpt>
      <trkpt lat="43.47846" lon="2.64498">
        <ele>528.38574218319</ele>
        <time>2016-09-24T14:18:49Z</time>
      </trkpt>
      <trkpt lat="43.4785" lon="2.64503">
        <ele>528.02967514552</ele>
        <time>2016-09-24T14:18:54Z</time>
      </trkpt>
      <trkpt lat="43.47852" lon="2.64507">
        <ele>528.02967514552</ele>
        <time>2016-09-24T14:18:59Z</time>
      </trkpt>
      <trkpt lat="43.47856" lon="2.64512">
        <ele>528.02967514552</ele>
        <time>2016-09-24T14:19:04Z</time>
      </trkpt>
      <trkpt lat="43.47859" lon="2.64517">
        <ele>527.78916060919</ele>
        <time>2016-09-24T14:19:09Z</time>
      </trkpt>
      <trkpt lat="43.4786" lon="2.6452">
        <ele>527.78916060919</ele>
        <time>2016-09-24T14:19:14Z</time>
      </trkpt>
      <trkpt lat="43.47859" lon="2.64525">
        <ele>527.78916060919</ele>
        <time>2016-09-24T14:19:19Z</time>
      </trkpt>
      <trkpt lat="43.47859" lon="2.64531">
        <ele>527.65193831837</ele>
        <time>2016-09-24T14:19:24Z</time>
      </trkpt>
      <trkpt lat="43.47857" lon="2.64535">
        <ele>527.65193831837</ele>
        <time>2016-09-24T14:19:29Z</time>
      </trkpt>
      <trkpt lat="43.47857" lon="2.64541">
        <ele>527.65193831837</ele>
        <time>2016-09-24T14:19:34Z</time>
      </trkpt>
      <trkpt lat="43.47855" lon="2.64548">
        <ele>527.59202848086</ele>
        <time>2016-09-24T14:19:39Z</time>
      </trkpt>
      <trkpt lat="43.47855" lon="2.64548">
        <ele>527.59202848086</ele>
        <time>2016-09-24T14:19:44Z</time>
      </trkpt>
      <trkpt lat="43.47852" lon="2.64544">
        <ele>527.59202848086</ele>
        <time>2016-09-24T14:19:49Z</time>
      </trkpt>
      <trkpt lat="43.47852" lon="2.64539">
        <ele>527.59202848086</ele>
        <time>2016-09-24T14:19:54Z</time>
      </trkpt>
      <trkpt lat="43.47854" lon="2.64534">
        <ele>527.5996404559</ele>
        <time>2016-09-24T14:19:59Z</time>
      </trkpt>
      <trkpt lat="43.47857" lon="2.64531">
        <ele>527.5996404559</ele>
        <time>2016-09-24T14:20:04Z</time>
      </trkpt>
      <trkpt lat="43.47864" lon="2.6453">
        <ele>527.66560561643</ele>
        <time>2016-09-24T14:20:09Z</time>
      </trkpt>
      <trkpt lat="43.47871" lon="2.64529">
        <ele>527.66560561643</ele>
        <time>2016-09-24T14:20:14Z</time>
      </trkpt>
      <trkpt lat="43.47878" lon="2.6453">
        <ele>527.78136301584</ele>
        <time>2016-09-24T14:20:19Z</time>
      </trkpt>
      <trkpt lat="43.47884" lon="2.64532">
        <ele>527.78136301584</ele>
        <time>2016-09-24T14:20:24Z</time>
      </trkpt>
      <trkpt lat="43.4789" lon="2.64534">
        <ele>527.93894417591</ele>
        <time>2016-09-24T14:20:29Z</time>
      </trkpt>
      <trkpt lat="43.47894" lon="2.64535">
        <ele>527.93894417591</ele>
        <time>2016-09-24T14:20:34Z</time>
      </trkpt>
      <trkpt lat="43.479" lon="2.64538">
        <ele>528.13095703157</ele>
        <time>2016-09-24T14:20:39Z</time>
      </trkpt>
      <trkpt lat="43.47905" lon="2.64542">
        <ele>528.13095703157</ele>
        <time>2016-09-24T14:20:44Z</time>
      </trkpt>
      <trkpt lat="43.4791" lon="2.64546">
        <ele>528.3505690788</ele>
        <time>2016-09-24T14:20:49Z</time>
      </trkpt>
      <trkpt lat="43.47916" lon="2.6455">
        <ele>528.3505690788</ele>
        <time>2016-09-24T14:20:54Z</time>
      </trkpt>
      <trkpt lat="43.47922" lon="2.64553">
        <ele>528.59148978189</ele>
        <time>2016-09-24T14:20:59Z</time>
      </trkpt>
      <trkpt lat="43.47928" lon="2.64557">
        <ele>528.59148978189</ele>
        <time>2016-09-24T14:21:04Z</time>
      </trkpt>
      <trkpt lat="43.47935" lon="2.64562">
        <ele>528.86236344528</ele>
        <time>2016-09-24T14:21:09Z</time>
      </trkpt>
      <trkpt lat="43.47939" lon="2.64563">
        <ele>528.86236344528</ele>
        <time>2016-09-24T14:21:14Z</time>
      </trkpt>
      <trkpt lat="43.47944" lon="2.64566">
        <ele>529.15682910742</ele>
        <time>2016-09-24T14:21:19Z</time>
      </trkpt>
      <trkpt lat="43.47946" lon="2.64568">
        <ele>529.15682910742</ele>
        <time>2016-09-24T14:21:24Z</time>
      </trkpt>
      <trkpt lat="43.47952" lon="2.64571">
        <ele>529.46905482207</ele>
        <time>2016-09-24T14:21:29Z</time>
      </trkpt>
      <trkpt lat="43.4796" lon="2.64579">
        <ele>529.79371776328</ele>
        <time>2016-09-24T14:21:34Z</time>
      </trkpt>
      <trkpt lat="43.47966" lon="2.64581">
        <ele>529.79371776328</ele>
        <time>2016-09-24T14:21:39Z</time>
      </trkpt>
      <trkpt lat="43.4797" lon="2.64584">
        <ele>530.12598392405</ele>
        <time>2016-09-24T14:21:44Z</time>
      </trkpt>
      <trkpt lat="43.47974" lon="2.6459">
        <ele>530.12598392405</ele>
        <time>2016-09-24T14:21:49Z</time>
      </trkpt>
      <trkpt lat="43.47976" lon="2.6459">
        <ele>530.12598392405</ele>
        <time>2016-09-24T14:21:54Z</time>
      </trkpt>
      <trkpt lat="43.47977" lon="2.6459">
        <ele>530.46148747713</ele>
        <time>2016-09-24T14:21:59Z</time>
      </trkpt>
      <trkpt lat="43.47977" lon="2.6459">
        <ele>530.46148747713</ele>
        <time>2016-09-24T14:22:04Z</time>
      </trkpt>
      <trkpt lat="43.47981" lon="2.64593">
        <ele>530.46148747713</ele>
        <time>2016-09-24T14:22:09Z</time>
      </trkpt>
      <trkpt lat="43.47983" lon="2.64599">
        <ele>530.46148747713</ele>
        <time>2016-09-24T14:22:14Z</time>
      </trkpt>
      <trkpt lat="43.47989" lon="2.64604">
        <ele>530.79630986933</ele>
        <time>2016-09-24T14:22:19Z</time>
      </trkpt>
      <trkpt lat="43.47995" lon="2.6461">
        <ele>530.79630986933</ele>
        <time>2016-09-24T14:22:24Z</time>
      </trkpt>
      <trkpt lat="43.47999" lon="2.64615">
        <ele>531.12695872234</ele>
        <time>2016-09-24T14:22:29Z</time>
      </trkpt>
      <trkpt lat="43.48002" lon="2.64618">
        <ele>531.12695872234</ele>
        <time>2016-09-24T14:22:34Z</time>
      </trkpt>
      <trkpt lat="43.48006" lon="2.64622">
        <ele>531.46475775577</ele>
        <time>2016-09-24T14:22:39Z</time>
      </trkpt>
      <trkpt lat="43.48012" lon="2.64629">
        <ele>531.46475775577</ele>
        <time>2016-09-24T14:22:44Z</time>
      </trkpt>
      <trkpt lat="43.48019" lon="2.64634">
        <ele>531.79149315166</ele>
        <time>2016-09-24T14:22:49Z</time>
      </trkpt>
      <trkpt lat="43.48026" lon="2.64641">
        <ele>531.79149315166</ele>
        <time>2016-09-24T14:22:54Z</time>
      </trkpt>
      <trkpt lat="43.48031" lon="2.64647">
        <ele>532.10486723698</ele>
        <time>2016-09-24T14:22:59Z</time>
      </trkpt>
      <trkpt lat="43.48036" lon="2.64653">
        <ele>532.10486723698</ele>
        <time>2016-09-24T14:23:04Z</time>
      </trkpt>
      <trkpt lat="43.48038" lon="2.64654">
        <ele>532.10486723698</ele>
        <time>2016-09-24T14:23:09Z</time>
      </trkpt>
      <trkpt lat="43.48041" lon="2.64645">
        <ele>532.4029236225</ele>
        <time>2016-09-24T14:23:14Z</time>
      </trkpt>
      <trkpt lat="43.4804" lon="2.64637">
        <ele>532.4029236225</ele>
        <time>2016-09-24T14:23:19Z</time>
      </trkpt>
      <trkpt lat="43.4804" lon="2.64631">
        <ele>532.68402619898</ele>
        <time>2016-09-24T14:23:24Z</time>
      </trkpt>
      <trkpt lat="43.48038" lon="2.64623">
        <ele>532.68402619898</ele>
        <time>2016-09-24T14:23:29Z</time>
      </trkpt>
      <trkpt lat="43.48035" lon="2.64617">
        <ele>532.93242721228</ele>
        <time>2016-09-24T14:23:34Z</time>
      </trkpt>
      <trkpt lat="43.48035" lon="2.64611">
        <ele>532.93242721228</ele>
        <time>2016-09-24T14:23:39Z</time>
      </trkpt>
      <trkpt lat="43.48033" lon="2.64604">
        <ele>533.16257913816</ele>
        <time>2016-09-24T14:23:44Z</time>
      </trkpt>
      <trkpt lat="43.48031" lon="2.64601">
        <ele>533.16257913816</ele>
        <time>2016-09-24T14:23:49Z</time>
      </trkpt>
      <trkpt lat="43.4803" lon="2.64597">
        <ele>533.16257913816</ele>
        <time>2016-09-24T14:23:54Z</time>
      </trkpt>
      <trkpt lat="43.48026" lon="2.64591">
        <ele>533.35922847353</ele>
        <time>2016-09-24T14:23:59Z</time>
      </trkpt>
      <trkpt lat="43.48025" lon="2.64584">
        <ele>533.35922847353</ele>
        <time>2016-09-24T14:24:04Z</time>
      </trkpt>
      <trkpt lat="43.48025" lon="2.64578">
        <ele>533.52287094806</ele>
        <time>2016-09-24T14:24:09Z</time>
      </trkpt>
      <trkpt lat="43.48024" lon="2.64573">
        <ele>533.52287094806</ele>
        <time>2016-09-24T14:24:14Z</time>
      </trkpt>
      <trkpt lat="43.48024" lon="2.64566">
        <ele>533.52287094806</ele>
        <time>2016-09-24T14:24:19Z</time>
      </trkpt>
      <trkpt lat="43.48021" lon="2.64563">
        <ele>533.63976744615</ele>
        <time>2016-09-24T14:24:24Z</time>
      </trkpt>
      <trkpt lat="43.4802" lon="2.64557">
        <ele>533.63976744615</ele>
        <time>2016-09-24T14:24:29Z</time>
      </trkpt>
      <trkpt lat="43.48022" lon="2.64552">
        <ele>533.63976744615</ele>
        <time>2016-09-24T14:24:34Z</time>
      </trkpt>
      <trkpt lat="43.48021" lon="2.64541">
        <ele>533.69743540472</ele>
        <time>2016-09-24T14:24:39Z</time>
      </trkpt>
      <trkpt lat="43.48018" lon="2.64534">
        <ele>533.69743540472</ele>
        <time>2016-09-24T14:24:44Z</time>
      </trkpt>
      <trkpt lat="43.48012" lon="2.64529">
        <ele>533.7278205452</ele>
        <time>2016-09-24T14:24:49Z</time>
      </trkpt>
      <trkpt lat="43.48007" lon="2.64521">
        <ele>533.7278205452</ele>
        <time>2016-09-24T14:24:54Z</time>
      </trkpt>
      <trkpt lat="43.48003" lon="2.64514">
        <ele>533.7174721757</ele>
        <time>2016-09-24T14:24:59Z</time>
      </trkpt>
      <trkpt lat="43.48" lon="2.64508">
        <ele>533.7174721757</ele>
        <time>2016-09-24T14:25:04Z</time>
      </trkpt>
      <trkpt lat="43.47998" lon="2.64504">
        <ele>533.66855515472</ele>
        <time>2016-09-24T14:25:09Z</time>
      </trkpt>
      <trkpt lat="43.47994" lon="2.64497">
        <ele>533.66855515472</ele>
        <time>2016-09-24T14:25:14Z</time>
      </trkpt>
      <trkpt lat="43.4799" lon="2.64491">
        <ele>533.58328030341</ele>
        <time>2016-09-24T14:25:19Z</time>
      </trkpt>
      <trkpt lat="43.47986" lon="2.64486">
        <ele>533.58328030341</ele>
        <time>2016-09-24T14:25:24Z</time>
      </trkpt>
      <trkpt lat="43.47981" lon="2.64481">
        <ele>533.463889343</ele>
        <time>2016-09-24T14:25:29Z</time>
      </trkpt>
      <trkpt lat="43.47974" lon="2.64477">
        <ele>533.463889343</ele>
        <time>2016-09-24T14:25:34Z</time>
      </trkpt>
      <trkpt lat="43.47969" lon="2.6447">
        <ele>533.29822954397</ele>
        <time>2016-09-24T14:25:39Z</time>
      </trkpt>
      <trkpt lat="43.4796" lon="2.64462">
        <ele>533.11848390904</ele>
        <time>2016-09-24T14:25:44Z</time>
      </trkpt>
      <trkpt lat="43.47955" lon="2.64457">
        <ele>533.11848390904</ele>
        <time>2016-09-24T14:25:49Z</time>
      </trkpt>
      <trkpt lat="43.4795" lon="2.64451">
        <ele>532.91135145034</ele>
        <time>2016-09-24T14:25:54Z</time>
      </trkpt>
      <trkpt lat="43.47944" lon="2.64445">
        <ele>532.91135145034</ele>
        <time>2016-09-24T14:25:59Z</time>
      </trkpt>
      <trkpt lat="43.47942" lon="2.6444">
        <ele>532.67906430828</ele>
        <time>2016-09-24T14:26:04Z</time>
      </trkpt>
      <trkpt lat="43.4794" lon="2.64438">
        <ele>532.67906430828</ele>
        <time>2016-09-24T14:26:09Z</time>
      </trkpt>
      <trkpt lat="43.47935" lon="2.64433">
        <ele>532.67906430828</ele>
        <time>2016-09-24T14:26:14Z</time>
      </trkpt>
      <trkpt lat="43.47931" lon="2.64429">
        <ele>532.39500116914</ele>
        <time>2016-09-24T14:26:19Z</time>
      </trkpt>
      <trkpt lat="43.47927" lon="2.64423">
        <ele>532.39500116914</ele>
        <time>2016-09-24T14:26:24Z</time>
      </trkpt>
      <trkpt lat="43.47924" lon="2.64419">
        <ele>532.09234232275</ele>
        <time>2016-09-24T14:26:29Z</time>
      </trkpt>
      <trkpt lat="43.47918" lon="2.64413">
        <ele>532.09234232275</ele>
        <time>2016-09-24T14:26:34Z</time>
      </trkpt>
      <trkpt lat="43.47916" lon="2.64411">
        <ele>531.75869989962</ele>
        <time>2016-09-24T14:26:39Z</time>
      </trkpt>
      <trkpt lat="43.47911" lon="2.64406">
        <ele>531.75869989962</ele>
        <time>2016-09-24T14:26:44Z</time>
      </trkpt>
      <trkpt lat="43.47908" lon="2.64399">
        <ele>531.3971386538</ele>
        <time>2016-09-24T14:26:49Z</time>
      </trkpt>
      <trkpt lat="43.47906" lon="2.64397">
        <ele>531.3971386538</ele>
        <time>2016-09-24T14:26:54Z</time>
      </trkpt>
      <trkpt lat="43.47905" lon="2.64394">
        <ele>531.3971386538</ele>
        <time>2016-09-24T14:26:59Z</time>
      </trkpt>
      <trkpt lat="43.47898" lon="2.64384">
        <ele>530.96738189621</ele>
        <time>2016-09-24T14:27:04Z</time>
      </trkpt>
      <trkpt lat="43.47893" lon="2.64378">
        <ele>530.96738189621</ele>
        <time>2016-09-24T14:27:09Z</time>
      </trkpt>
      <trkpt lat="43.47886" lon="2.6437">
        <ele>530.48998028521</ele>
        <time>2016-09-24T14:27:14Z</time>
      </trkpt>
      <trkpt lat="43.47881" lon="2.64366">
        <ele>530.48998028521</ele>
        <time>2016-09-24T14:27:19Z</time>
      </trkpt>
      <trkpt lat="43.47875" lon="2.64361">
        <ele>529.96972437086</ele>
        <time>2016-09-24T14:27:24Z</time>
      </trkpt>
      <trkpt lat="43.4787" lon="2.64356">
        <ele>529.96972437086</ele>
        <time>2016-09-24T14:27:29Z</time>
      </trkpt>
      <trkpt lat="43.47865" lon="2.64348">
        <ele>529.3823718077</ele>
        <time>2016-09-24T14:27:34Z</time>
      </trkpt>
      <trkpt lat="43.47863" lon="2.64343">
        <ele>529.3823718077</ele>
        <time>2016-09-24T14:27:39Z</time>
      </trkpt>
      <trkpt lat="43.47862" lon="2.64339">
        <ele>529.3823718077</ele>
        <time>2016-09-24T14:27:44Z</time>
      </trkpt>
      <trkpt lat="43.47857" lon="2.64331">
        <ele>528.69125310242</ele>
        <time>2016-09-24T14:27:49Z</time>
      </trkpt>
      <trkpt lat="43.47852" lon="2.64324">
        <ele>528.69125310242</ele>
        <time>2016-09-24T14:27:54Z</time>
      </trkpt>
      <trkpt lat="43.47847" lon="2.64317">
        <ele>527.96357012166</ele>
        <time>2016-09-24T14:27:59Z</time>
      </trkpt>
      <trkpt lat="43.47845" lon="2.64314">
        <ele>527.96357012166</ele>
        <time>2016-09-24T14:28:04Z</time>
      </trkpt>
      <trkpt lat="43.4784" lon="2.6431">
        <ele>527.96357012166</ele>
        <time>2016-09-24T14:28:09Z</time>
      </trkpt>
      <trkpt lat="43.47834" lon="2.64302">
        <ele>527.13199300049</ele>
        <time>2016-09-24T14:28:14Z</time>
      </trkpt>
      <trkpt lat="43.47831" lon="2.64299">
        <ele>527.13199300049</ele>
        <time>2016-09-24T14:28:19Z</time>
      </trkpt>
      <trkpt lat="43.47824" lon="2.64294">
        <ele>526.23530298901</ele>
        <time>2016-09-24T14:28:24Z</time>
      </trkpt>
      <trkpt lat="43.47819" lon="2.64289">
        <ele>526.23530298901</ele>
        <time>2016-09-24T14:28:29Z</time>
      </trkpt>
      <trkpt lat="43.47812" lon="2.64285">
        <ele>525.29519326381</ele>
        <time>2016-09-24T14:28:34Z</time>
      </trkpt>
      <trkpt lat="43.47807" lon="2.6428">
        <ele>525.29519326381</ele>
        <time>2016-09-24T14:28:39Z</time>
      </trkpt>
      <trkpt lat="43.47803" lon="2.64275">
        <ele>524.30304562967</ele>
        <time>2016-09-24T14:28:44Z</time>
      </trkpt>
      <trkpt lat="43.47797" lon="2.64271">
        <ele>524.30304562967</ele>
        <time>2016-09-24T14:28:49Z</time>
      </trkpt>
      <trkpt lat="43.47791" lon="2.64267">
        <ele>523.26540814297</ele>
        <time>2016-09-24T14:28:54Z</time>
      </trkpt>
      <trkpt lat="43.47787" lon="2.64265">
        <ele>523.26540814297</ele>
        <time>2016-09-24T14:28:59Z</time>
      </trkpt>
      <trkpt lat="43.47783" lon="2.6426">
        <ele>522.20285626614</ele>
        <time>2016-09-24T14:29:04Z</time>
      </trkpt>
      <trkpt lat="43.4778" lon="2.64256">
        <ele>522.20285626614</ele>
        <time>2016-09-24T14:29:09Z</time>
      </trkpt>
      <trkpt lat="43.47779" lon="2.64253">
        <ele>522.20285626614</ele>
        <time>2016-09-24T14:29:14Z</time>
      </trkpt>
      <trkpt lat="43.47773" lon="2.64248">
        <ele>521.07684292417</ele>
        <time>2016-09-24T14:29:19Z</time>
      </trkpt>
      <trkpt lat="43.47767" lon="2.64243">
        <ele>521.07684292417</ele>
        <time>2016-09-24T14:29:24Z</time>
      </trkpt>
      <trkpt lat="43.47762" lon="2.64241">
        <ele>519.93825498227</ele>
        <time>2016-09-24T14:29:29Z</time>
      </trkpt>
      <trkpt lat="43.4776" lon="2.64241">
        <ele>519.93825498227</ele>
        <time>2016-09-24T14:29:34Z</time>
      </trkpt>
      <trkpt lat="43.47755" lon="2.64242">
        <ele>519.93825498227</ele>
        <time>2016-09-24T14:29:39Z</time>
      </trkpt>
      <trkpt lat="43.47751" lon="2.64243">
        <ele>518.7333504869</ele>
        <time>2016-09-24T14:29:44Z</time>
      </trkpt>
      <trkpt lat="43.47748" lon="2.64244">
        <ele>518.7333504869</ele>
        <time>2016-09-24T14:29:49Z</time>
      </trkpt>
      <trkpt lat="43.47745" lon="2.64245">
        <ele>518.7333504869</ele>
        <time>2016-09-24T14:29:54Z</time>
      </trkpt>
      <trkpt lat="43.4774" lon="2.64249">
        <ele>517.41246759617</ele>
        <time>2016-09-24T14:29:59Z</time>
      </trkpt>
      <trkpt lat="43.47738" lon="2.64251">
        <ele>517.41246759617</ele>
        <time>2016-09-24T14:30:04Z</time>
      </trkpt>
      <trkpt lat="43.47734" lon="2.64256">
        <ele>517.41246759617</ele>
        <time>2016-09-24T14:30:09Z</time>
      </trkpt>
      <trkpt lat="43.4773" lon="2.64261">
        <ele>515.87221389366</ele>
        <time>2016-09-24T14:30:14Z</time>
      </trkpt>
      <trkpt lat="43.47727" lon="2.64265">
        <ele>515.87221389366</ele>
        <time>2016-09-24T14:30:19Z</time>
      </trkpt>
      <trkpt lat="43.47723" lon="2.64268">
        <ele>515.87221389366</ele>
        <time>2016-09-24T14:30:24Z</time>
      </trkpt>
      <trkpt lat="43.47719" lon="2.64275">
        <ele>514.16145291595</ele>
        <time>2016-09-24T14:30:29Z</time>
      </trkpt>
      <trkpt lat="43.47717" lon="2.6428">
        <ele>514.16145291595</ele>
        <time>2016-09-24T14:30:34Z</time>
      </trkpt>
      <trkpt lat="43.47714" lon="2.64283">
        <ele>514.16145291595</ele>
        <time>2016-09-24T14:30:39Z</time>
      </trkpt>
      <trkpt lat="43.4771" lon="2.64289">
        <ele>512.28263113442</ele>
        <time>2016-09-24T14:30:44Z</time>
      </trkpt>
      <trkpt lat="43.47704" lon="2.64294">
        <ele>512.28263113442</ele>
        <time>2016-09-24T14:30:49Z</time>
      </trkpt>
      <trkpt lat="43.47701" lon="2.64296">
        <ele>510.36810697425</ele>
        <time>2016-09-24T14:30:54Z</time>
      </trkpt>
      <trkpt lat="43.477" lon="2.64296">
        <ele>510.36810697425</ele>
        <time>2016-09-24T14:30:59Z</time>
      </trkpt>
      <trkpt lat="43.47698" lon="2.64291">
        <ele>510.36810697425</ele>
        <time>2016-09-24T14:31:04Z</time>
      </trkpt>
      <trkpt lat="43.47698" lon="2.64283">
        <ele>508.2667171409</ele>
        <time>2016-09-24T14:31:09Z</time>
      </trkpt>
      <trkpt lat="43.477" lon="2.64277">
        <ele>508.2667171409</ele>
        <time>2016-09-24T14:31:14Z</time>
      </trkpt>
      <trkpt lat="43.47699" lon="2.64271">
        <ele>506.12705362531</ele>
        <time>2016-09-24T14:31:19Z</time>
      </trkpt>
      <trkpt lat="43.477" lon="2.64262">
        <ele>506.12705362531</ele>
        <time>2016-09-24T14:31:24Z</time>
      </trkpt>
      <trkpt lat="43.477" lon="2.64259">
        <ele>506.12705362531</ele>
        <time>2016-09-24T14:31:29Z</time>
      </trkpt>
      <trkpt lat="43.47699" lon="2.64254">
        <ele>503.84180766223</ele>
        <time>2016-09-24T14:31:34Z</time>
      </trkpt>
      <trkpt lat="43.47699" lon="2.64245">
        <ele>503.84180766223</ele>
        <time>2016-09-24T14:31:39Z</time>
      </trkpt>
      <trkpt lat="43.47701" lon="2.64235">
        <ele>501.52801696241</ele>
        <time>2016-09-24T14:31:44Z</time>
      </trkpt>
      <trkpt lat="43.47702" lon="2.6423">
        <ele>501.52801696241</ele>
        <time>2016-09-24T14:31:49Z</time>
      </trkpt>
      <trkpt lat="43.47703" lon="2.64223">
        <ele>499.22202712336</ele>
        <time>2016-09-24T14:31:54Z</time>
      </trkpt>
      <trkpt lat="43.47705" lon="2.64217">
        <ele>499.22202712336</ele>
        <time>2016-09-24T14:31:59Z</time>
      </trkpt>
      <trkpt lat="43.47706" lon="2.64212">
        <ele>499.22202712336</ele>
        <time>2016-09-24T14:32:04Z</time>
      </trkpt>
      <trkpt lat="43.47707" lon="2.64203">
        <ele>496.6547319203</ele>
        <time>2016-09-24T14:32:09Z</time>
      </trkpt>
      <trkpt lat="43.47711" lon="2.64193">
        <ele>496.6547319203</ele>
        <time>2016-09-24T14:32:14Z</time>
      </trkpt>
      <trkpt lat="43.47715" lon="2.64184">
        <ele>494.05295966532</ele>
        <time>2016-09-24T14:32:19Z</time>
      </trkpt>
      <trkpt lat="43.47717" lon="2.64177">
        <ele>494.05295966532</ele>
        <time>2016-09-24T14:32:24Z</time>
      </trkpt>
      <trkpt lat="43.47717" lon="2.64172">
        <ele>494.05295966532</ele>
        <time>2016-09-24T14:32:29Z</time>
      </trkpt>
      <trkpt lat="43.47719" lon="2.64165">
        <ele>491.09362021121</ele>
        <time>2016-09-24T14:32:34Z</time>
      </trkpt>
      <trkpt lat="43.47719" lon="2.64161">
        <ele>491.09362021121</ele>
        <time>2016-09-24T14:32:39Z</time>
      </trkpt>
      <trkpt lat="43.4772" lon="2.64154">
        <ele>491.09362021121</ele>
        <time>2016-09-24T14:32:44Z</time>
      </trkpt>
      <trkpt lat="43.47724" lon="2.64145">
        <ele>487.86731148666</ele>
        <time>2016-09-24T14:32:49Z</time>
      </trkpt>
      <trkpt lat="43.47726" lon="2.64138">
        <ele>487.86731148666</ele>
        <time>2016-09-24T14:32:54Z</time>
      </trkpt>
      <trkpt lat="43.4773" lon="2.64129">
        <ele>484.63150085533</ele>
        <time>2016-09-24T14:32:59Z</time>
      </trkpt>
      <trkpt lat="43.47732" lon="2.64124">
        <ele>484.63150085533</ele>
        <time>2016-09-24T14:33:04Z</time>
      </trkpt>
      <trkpt lat="43.47735" lon="2.64123">
        <ele>484.63150085533</ele>
        <time>2016-09-24T14:33:09Z</time>
      </trkpt>
      <trkpt lat="43.4774" lon="2.64121">
        <ele>481.20667994761</ele>
        <time>2016-09-24T14:33:14Z</time>
      </trkpt>
      <trkpt lat="43.47746" lon="2.64117">
        <ele>481.20667994761</ele>
        <time>2016-09-24T14:33:19Z</time>
      </trkpt>
      <trkpt lat="43.47746" lon="2.6411">
        <ele>477.83039286381</ele>
        <time>2016-09-24T14:33:24Z</time>
      </trkpt>
      <trkpt lat="43.47748" lon="2.64103">
        <ele>477.83039286381</ele>
        <time>2016-09-24T14:33:29Z</time>
      </trkpt>
      <trkpt lat="43.47748" lon="2.64098">
        <ele>477.83039286381</ele>
        <time>2016-09-24T14:33:34Z</time>
      </trkpt>
      <trkpt lat="43.47746" lon="2.64097">
        <ele>474.27566868284</ele>
        <time>2016-09-24T14:33:39Z</time>
      </trkpt>
      <trkpt lat="43.47744" lon="2.64096">
        <ele>474.27566868284</ele>
        <time>2016-09-24T14:33:44Z</time>
      </trkpt>
      <trkpt lat="43.47743" lon="2.64097">
        <ele>474.27566868284</ele>
        <time>2016-09-24T14:33:49Z</time>
      </trkpt>
      <trkpt lat="43.47743" lon="2.64097">
        <ele>474.27566868284</ele>
        <time>2016-09-24T14:33:54Z</time>
      </trkpt>
      <trkpt lat="43.47742" lon="2.64095">
        <ele>474.27566868284</ele>
        <time>2016-09-24T14:33:59Z</time>
      </trkpt>
      <trkpt lat="43.47742" lon="2.64096">
        <ele>474.27566868284</ele>
        <time>2016-09-24T14:34:04Z</time>
      </trkpt>
      <trkpt lat="43.4774" lon="2.64097">
        <ele>474.27566868284</ele>
        <time>2016-09-24T14:34:09Z</time>
      </trkpt>
      <trkpt lat="43.47738" lon="2.64098">
        <ele>470.37575045044</ele>
        <time>2016-09-24T14:34:14Z</time>
      </trkpt>
      <trkpt lat="43.47734" lon="2.64099">
        <ele>470.37575045044</ele>
        <time>2016-09-24T14:34:19Z</time>
      </trkpt>
      <trkpt lat="43.47731" lon="2.64101">
        <ele>470.37575045044</ele>
        <time>2016-09-24T14:34:24Z</time>
      </trkpt>
      <trkpt lat="43.47729" lon="2.64104">
        <ele>466.27953101617</ele>
        <time>2016-09-24T14:34:29Z</time>
      </trkpt>
      <trkpt lat="43.47726" lon="2.64105">
        <ele>466.27953101617</ele>
        <time>2016-09-24T14:34:34Z</time>
      </trkpt>
      <trkpt lat="43.47722" lon="2.64105">
        <ele>466.27953101617</ele>
        <time>2016-09-24T14:34:39Z</time>
      </trkpt>
      <trkpt lat="43.47718" lon="2.64105">
        <ele>462.05324987172</ele>
        <time>2016-09-24T14:34:44Z</time>
      </trkpt>
      <trkpt lat="43.47714" lon="2.64107">
        <ele>462.05324987172</ele>
        <time>2016-09-24T14:34:49Z</time>
      </trkpt>
      <trkpt lat="43.4771" lon="2.64107">
        <ele>462.05324987172</ele>
        <time>2016-09-24T14:34:54Z</time>
      </trkpt>
      <trkpt lat="43.47703" lon="2.6411">
        <ele>457.75842528433</ele>
        <time>2016-09-24T14:34:59Z</time>
      </trkpt>
      <trkpt lat="43.47697" lon="2.64113">
        <ele>457.75842528433</ele>
        <time>2016-09-24T14:35:04Z</time>
      </trkpt>
      <trkpt lat="43.47693" lon="2.6411">
        <ele>453.63936422013</ele>
        <time>2016-09-24T14:35:09Z</time>
      </trkpt>
      <trkpt lat="43.47689" lon="2.64111">
        <ele>453.63936422013</ele>
        <time>2016-09-24T14:35:14Z</time>
      </trkpt>
      <trkpt lat="43.47686" lon="2.6412">
        <ele>449.71994173914</ele>
        <time>2016-09-24T14:35:19Z</time>
      </trkpt>
      <trkpt lat="43.47686" lon="2.64123">
        <ele>449.71994173914</ele>
        <time>2016-09-24T14:35:24Z</time>
      </trkpt>
      <trkpt lat="43.47686" lon="2.64124">
        <ele>449.71994173914</ele>
        <time>2016-09-24T14:35:29Z</time>
      </trkpt>
      <trkpt lat="43.47688" lon="2.64123">
        <ele>449.71994173914</ele>
        <time>2016-09-24T14:35:34Z</time>
      </trkpt>
      <trkpt lat="43.47693" lon="2.64121">
        <ele>445.87736547304</ele>
        <time>2016-09-24T14:35:39Z</time>
      </trkpt>
      <trkpt lat="43.47696" lon="2.64117">
        <ele>445.87736547304</ele>
        <time>2016-09-24T14:35:44Z</time>
      </trkpt>
      <trkpt lat="43.47698" lon="2.64115">
        <ele>445.87736547304</ele>
        <time>2016-09-24T14:35:49Z</time>
      </trkpt>
      <trkpt lat="43.477" lon="2.64108">
        <ele>442.18474627784</ele>
        <time>2016-09-24T14:35:54Z</time>
      </trkpt>
      <trkpt lat="43.47703" lon="2.64101">
        <ele>442.18474627784</ele>
        <time>2016-09-24T14:35:59Z</time>
      </trkpt>
      <trkpt lat="43.47708" lon="2.64094">
        <ele>438.72356761612</ele>
        <time>2016-09-24T14:36:04Z</time>
      </trkpt>
      <trkpt lat="43.47711" lon="2.64089">
        <ele>438.72356761612</ele>
        <time>2016-09-24T14:36:09Z</time>
      </trkpt>
      <trkpt lat="43.47715" lon="2.64084">
        <ele>435.51078747068</ele>
        <time>2016-09-24T14:36:14Z</time>
      </trkpt>
      <trkpt lat="43.47718" lon="2.64076">
        <ele>435.51078747068</ele>
        <time>2016-09-24T14:36:19Z</time>
      </trkpt>
      <trkpt lat="43.47721" lon="2.64071">
        <ele>432.575589842</ele>
        <time>2016-09-24T14:36:24Z</time>
      </trkpt>
      <trkpt lat="43.47724" lon="2.64068">
        <ele>432.575589842</ele>
        <time>2016-09-24T14:36:29Z</time>
      </trkpt>
      <trkpt lat="43.4773" lon="2.64065">
        <ele>429.91517738978</ele>
        <time>2016-09-24T14:36:34Z</time>
      </trkpt>
      <trkpt lat="43.47735" lon="2.64062">
        <ele>429.91517738978</ele>
        <time>2016-09-24T14:36:39Z</time>
      </trkpt>
      <trkpt lat="43.47738" lon="2.64056">
        <ele>427.49713701878</ele>
        <time>2016-09-24T14:36:44Z</time>
      </trkpt>
      <trkpt lat="43.47737" lon="2.64054">
        <ele>427.49713701878</ele>
        <time>2016-09-24T14:36:49Z</time>
      </trkpt>
      <trkpt lat="43.47733" lon="2.64053">
        <ele>427.49713701878</ele>
        <time>2016-09-24T14:36:54Z</time>
      </trkpt>
      <trkpt lat="43.47727" lon="2.64053">
        <ele>425.26171691915</ele>
        <time>2016-09-24T14:36:59Z</time>
      </trkpt>
      <trkpt lat="43.47723" lon="2.64054">
        <ele>425.26171691915</ele>
        <time>2016-09-24T14:37:04Z</time>
      </trkpt>
      <trkpt lat="43.47718" lon="2.64056">
        <ele>423.26812613885</ele>
        <time>2016-09-24T14:37:09Z</time>
      </trkpt>
      <trkpt lat="43.47713" lon="2.64059">
        <ele>423.26812613885</ele>
        <time>2016-09-24T14:37:14Z</time>
      </trkpt>
      <trkpt lat="43.47708" lon="2.64063">
        <ele>421.49829928543</ele>
        <time>2016-09-24T14:37:19Z</time>
      </trkpt>
      <trkpt lat="43.47703" lon="2.64067">
        <ele>421.49829928543</ele>
        <time>2016-09-24T14:37:24Z</time>
      </trkpt>
      <trkpt lat="43.47698" lon="2.6407">
        <ele>419.93469478625</ele>
        <time>2016-09-24T14:37:29Z</time>
      </trkpt>
      <trkpt lat="43.47695" lon="2.64076">
        <ele>419.93469478625</ele>
        <time>2016-09-24T14:37:34Z</time>
      </trkpt>
      <trkpt lat="43.47692" lon="2.6408">
        <ele>418.57473337138</ele>
        <time>2016-09-24T14:37:39Z</time>
      </trkpt>
      <trkpt lat="43.4769" lon="2.64083">
        <ele>418.57473337138</ele>
        <time>2016-09-24T14:37:44Z</time>
      </trkpt>
      <trkpt lat="43.47687" lon="2.64085">
        <ele>418.57473337138</ele>
        <time>2016-09-24T14:37:49Z</time>
      </trkpt>
      <trkpt lat="43.4768" lon="2.64088">
        <ele>417.34325703151</ele>
        <time>2016-09-24T14:37:54Z</time>
      </trkpt>
      <trkpt lat="43.47677" lon="2.64091">
        <ele>417.34325703151</ele>
        <time>2016-09-24T14:37:59Z</time>
      </trkpt>
      <trkpt lat="43.47673" lon="2.64092">
        <ele>417.34325703151</ele>
        <time>2016-09-24T14:38:04Z</time>
      </trkpt>
      <trkpt lat="43.47668" lon="2.64096">
        <ele>416.24220078358</ele>
        <time>2016-09-24T14:38:09Z</time>
      </trkpt>
      <trkpt lat="43.47662" lon="2.64099">
        <ele>416.24220078358</ele>
        <time>2016-09-24T14:38:14Z</time>
      </trkpt>
      <trkpt lat="43.47661" lon="2.64098">
        <ele>416.24220078358</ele>
        <time>2016-09-24T14:38:19Z</time>
      </trkpt>
      <trkpt lat="43.47654" lon="2.64101">
        <ele>415.25847581823</ele>
        <time>2016-09-24T14:38:24Z</time>
      </trkpt>
      <trkpt lat="43.47648" lon="2.64104">
        <ele>415.25847581823</ele>
        <time>2016-09-24T14:38:29Z</time>
      </trkpt>
      <trkpt lat="43.47643" lon="2.64106">
        <ele>414.45159521645</ele>
        <time>2016-09-24T14:38:34Z</time>
      </trkpt>
      <trkpt lat="43.47638" lon="2.64105">
        <ele>414.45159521645</ele>
        <time>2016-09-24T14:38:39Z</time>
      </trkpt>
      <trkpt lat="43.47636" lon="2.64101">
        <ele>414.45159521645</ele>
        <time>2016-09-24T14:38:44Z</time>
      </trkpt>
      <trkpt lat="43.47638" lon="2.64105">
        <ele>413.77525894099</ele>
        <time>2016-09-24T14:38:49Z</time>
      </trkpt>
      <trkpt lat="43.47638" lon="2.64105">
        <ele>413.77525894099</ele>
        <time>2016-09-24T14:38:54Z</time>
      </trkpt>
      <trkpt lat="43.47639" lon="2.64102">
        <ele>413.77525894099</ele>
        <time>2016-09-24T14:38:59Z</time>
      </trkpt>
      <trkpt lat="43.47642" lon="2.64095">
        <ele>413.77525894099</ele>
        <time>2016-09-24T14:39:04Z</time>
      </trkpt>
      <trkpt lat="43.47646" lon="2.64088">
        <ele>413.15733074405</ele>
        <time>2016-09-24T14:39:09Z</time>
      </trkpt>
      <trkpt lat="43.47646" lon="2.64084">
        <ele>413.15733074405</ele>
        <time>2016-09-24T14:39:14Z</time>
      </trkpt>
      <trkpt lat="43.47649" lon="2.64079">
        <ele>413.15733074405</ele>
        <time>2016-09-24T14:39:19Z</time>
      </trkpt>
      <trkpt lat="43.4765" lon="2.64074">
        <ele>412.61724558029</ele>
        <time>2016-09-24T14:39:24Z</time>
      </trkpt>
      <trkpt lat="43.47652" lon="2.64067">
        <ele>412.61724558029</ele>
        <time>2016-09-24T14:39:29Z</time>
      </trkpt>
      <trkpt lat="43.47651" lon="2.64062">
        <ele>412.61724558029</ele>
        <time>2016-09-24T14:39:34Z</time>
      </trkpt>
      <trkpt lat="43.47652" lon="2.6406">
        <ele>412.12954599415</ele>
        <time>2016-09-24T14:39:39Z</time>
      </trkpt>
      <trkpt lat="43.47652" lon="2.64055">
        <ele>412.12954599415</ele>
        <time>2016-09-24T14:39:44Z</time>
      </trkpt>
      <trkpt lat="43.47653" lon="2.64049">
        <ele>412.12954599415</ele>
        <time>2016-09-24T14:39:49Z</time>
      </trkpt>
      <trkpt lat="43.47654" lon="2.64041">
        <ele>411.71373506703</ele>
        <time>2016-09-24T14:39:54Z</time>
      </trkpt>
      <trkpt lat="43.47651" lon="2.64033">
        <ele>411.71373506703</ele>
        <time>2016-09-24T14:39:59Z</time>
      </trkpt>
      <trkpt lat="43.47648" lon="2.64029">
        <ele>411.38770192394</ele>
        <time>2016-09-24T14:40:04Z</time>
      </trkpt>
      <trkpt lat="43.47646" lon="2.64024">
        <ele>411.38770192394</ele>
        <time>2016-09-24T14:40:09Z</time>
      </trkpt>
      <trkpt lat="43.47647" lon="2.64014">
        <ele>411.13898352436</ele>
        <time>2016-09-24T14:40:14Z</time>
      </trkpt>
      <trkpt lat="43.47647" lon="2.64007">
        <ele>411.13898352436</ele>
        <time>2016-09-24T14:40:19Z</time>
      </trkpt>
      <trkpt lat="43.47649" lon="2.64004">
        <ele>411.13898352436</ele>
        <time>2016-09-24T14:40:24Z</time>
      </trkpt>
      <trkpt lat="43.47649" lon="2.64003">
        <ele>411.13898352436</ele>
        <time>2016-09-24T14:40:29Z</time>
      </trkpt>
      <trkpt lat="43.47648" lon="2.64003">
        <ele>411.13898352436</ele>
        <time>2016-09-24T14:40:34Z</time>
      </trkpt>
      <trkpt lat="43.47648" lon="2.64003">
        <ele>411.13898352436</ele>
        <time>2016-09-24T14:40:39Z</time>
      </trkpt>
      <trkpt lat="43.47648" lon="2.64002">
        <ele>410.92704418959</ele>
        <time>2016-09-24T14:40:44Z</time>
      </trkpt>
      <trkpt lat="43.47648" lon="2.64002">
        <ele>410.92704418959</ele>
        <time>2016-09-24T14:40:49Z</time>
      </trkpt>
      <trkpt lat="43.47648" lon="2.64002">
        <ele>410.92704418959</ele>
        <time>2016-09-24T14:40:54Z</time>
      </trkpt>
      <trkpt lat="43.47648" lon="2.64002">
        <ele>410.92704418959</ele>
        <time>2016-09-24T14:40:59Z</time>
      </trkpt>
    </trkseg>
  </trk>
</gpx>